<?xml version="1.0" encoding="UTF-8" standalone="no" ?>
<gpx xmlns="http://www.topografix.com/GPX/1/1" xmlns:xsi="http://www.w3.org/2001/XMLSchema-instance" xsi:schemaLocation="http://www.topografix.com/GPX/1/1 http://www.topografix.com/GPX/1/1/gpx.xsd" version="1.1" creator="VisuGPX - https://www.visugpx.com">
  <metadata>
    <name>21/08/2022</name>
    <desc><![CDATA[boucle au départ du mini golf de Bagnères de Bigorre puis tour du Bédat et coteaux et retour]]></desc>
  </metadata>
  <trk>
    <name><![CDATA[21/08/2022_1]]></name>
    <trkseg>
      <trkpt lat="43.05982" lon="0.14547">
        <ele>588.2</ele>
        <time>2022-08-21T06:43:27Z</time>
      </trkpt>
      <trkpt lat="43.05982" lon="0.14547">
        <ele>575.4</ele>
        <time>2022-08-21T06:43:35Z</time>
      </trkpt>
      <trkpt lat="43.05985" lon="0.14549">
        <ele>575</ele>
        <time>2022-08-21T06:43:37Z</time>
      </trkpt>
      <trkpt lat="43.05986" lon="0.14551">
        <ele>575</ele>
        <time>2022-08-21T06:43:38Z</time>
      </trkpt>
      <trkpt lat="43.05986" lon="0.14569">
        <ele>575</ele>
        <time>2022-08-21T06:43:42Z</time>
      </trkpt>
      <trkpt lat="43.05977" lon="0.14604">
        <ele>575</ele>
        <time>2022-08-21T06:43:48Z</time>
      </trkpt>
      <trkpt lat="43.05972" lon="0.14625">
        <ele>574.6</ele>
        <time>2022-08-21T06:43:52Z</time>
      </trkpt>
      <trkpt lat="43.0597" lon="0.14635">
        <ele>574.2</ele>
        <time>2022-08-21T06:43:54Z</time>
      </trkpt>
      <trkpt lat="43.05974" lon="0.14646">
        <ele>573.6</ele>
        <time>2022-08-21T06:43:57Z</time>
      </trkpt>
      <trkpt lat="43.05976" lon="0.14649">
        <ele>573.4</ele>
        <time>2022-08-21T06:43:58Z</time>
      </trkpt>
      <trkpt lat="43.05978" lon="0.14651">
        <ele>573.4</ele>
        <time>2022-08-21T06:43:59Z</time>
      </trkpt>
      <trkpt lat="43.05987" lon="0.14666">
        <ele>573.4</ele>
        <time>2022-08-21T06:44:04Z</time>
      </trkpt>
      <trkpt lat="43.05997" lon="0.14682">
        <ele>574.6</ele>
        <time>2022-08-21T06:44:10Z</time>
      </trkpt>
      <trkpt lat="43.05999" lon="0.14685">
        <ele>574.8</ele>
        <time>2022-08-21T06:44:11Z</time>
      </trkpt>
      <trkpt lat="43.06009" lon="0.14702">
        <ele>576</ele>
        <time>2022-08-21T06:44:16Z</time>
      </trkpt>
      <trkpt lat="43.06011" lon="0.14706">
        <ele>576.2</ele>
        <time>2022-08-21T06:44:17Z</time>
      </trkpt>
      <trkpt lat="43.06019" lon="0.14717">
        <ele>577</ele>
        <time>2022-08-21T06:44:21Z</time>
      </trkpt>
      <trkpt lat="43.06024" lon="0.14722">
        <ele>577.4</ele>
        <time>2022-08-21T06:44:23Z</time>
      </trkpt>
      <trkpt lat="43.0603" lon="0.14727">
        <ele>578</ele>
        <time>2022-08-21T06:44:26Z</time>
      </trkpt>
      <trkpt lat="43.06032" lon="0.14729">
        <ele>578.2</ele>
        <time>2022-08-21T06:44:27Z</time>
      </trkpt>
      <trkpt lat="43.06039" lon="0.14735">
        <ele>579</ele>
        <time>2022-08-21T06:44:31Z</time>
      </trkpt>
      <trkpt lat="43.06041" lon="0.14735">
        <ele>579.2</ele>
        <time>2022-08-21T06:44:32Z</time>
      </trkpt>
      <trkpt lat="43.06042" lon="0.14736">
        <ele>579.4</ele>
        <time>2022-08-21T06:44:33Z</time>
      </trkpt>
      <trkpt lat="43.06053" lon="0.14742">
        <ele>579.8</ele>
        <time>2022-08-21T06:44:39Z</time>
      </trkpt>
      <trkpt lat="43.06065" lon="0.1475">
        <ele>579.8</ele>
        <time>2022-08-21T06:44:44Z</time>
      </trkpt>
      <trkpt lat="43.06068" lon="0.14752">
        <ele>579.8</ele>
        <time>2022-08-21T06:44:45Z</time>
      </trkpt>
      <trkpt lat="43.06083" lon="0.14754">
        <ele>579.6</ele>
        <time>2022-08-21T06:44:49Z</time>
      </trkpt>
      <trkpt lat="43.06096" lon="0.14753">
        <ele>579.2</ele>
        <time>2022-08-21T06:44:53Z</time>
      </trkpt>
      <trkpt lat="43.06111" lon="0.14754">
        <ele>579.2</ele>
        <time>2022-08-21T06:44:57Z</time>
      </trkpt>
      <trkpt lat="43.06114" lon="0.14754">
        <ele>579.2</ele>
        <time>2022-08-21T06:44:58Z</time>
      </trkpt>
      <trkpt lat="43.06122" lon="0.14754">
        <ele>578.8</ele>
        <time>2022-08-21T06:45:01Z</time>
      </trkpt>
      <trkpt lat="43.06131" lon="0.14751">
        <ele>578.2</ele>
        <time>2022-08-21T06:45:04Z</time>
      </trkpt>
      <trkpt lat="43.06137" lon="0.14743">
        <ele>578</ele>
        <time>2022-08-21T06:45:07Z</time>
      </trkpt>
      <trkpt lat="43.06149" lon="0.14724">
        <ele>578.2</ele>
        <time>2022-08-21T06:45:14Z</time>
      </trkpt>
      <trkpt lat="43.06155" lon="0.14721">
        <ele>578.2</ele>
        <time>2022-08-21T06:45:17Z</time>
      </trkpt>
      <trkpt lat="43.06159" lon="0.14718">
        <ele>578.2</ele>
        <time>2022-08-21T06:45:19Z</time>
      </trkpt>
      <trkpt lat="43.06159" lon="0.14716">
        <ele>578.2</ele>
        <time>2022-08-21T06:45:20Z</time>
      </trkpt>
      <trkpt lat="43.06155" lon="0.14716">
        <ele>578.2</ele>
        <time>2022-08-21T06:45:23Z</time>
      </trkpt>
      <trkpt lat="43.06146" lon="0.1473">
        <ele>578.2</ele>
        <time>2022-08-21T06:45:29Z</time>
      </trkpt>
      <trkpt lat="43.06144" lon="0.1473">
        <ele>578.2</ele>
        <time>2022-08-21T06:45:30Z</time>
      </trkpt>
      <trkpt lat="43.06142" lon="0.14729">
        <ele>578.2</ele>
        <time>2022-08-21T06:45:31Z</time>
      </trkpt>
      <trkpt lat="43.06141" lon="0.14726">
        <ele>578.2</ele>
        <time>2022-08-21T06:45:33Z</time>
      </trkpt>
      <trkpt lat="43.06142" lon="0.14721">
        <ele>578.4</ele>
        <time>2022-08-21T06:45:36Z</time>
      </trkpt>
      <trkpt lat="43.06143" lon="0.14718">
        <ele>578.6</ele>
        <time>2022-08-21T06:45:37Z</time>
      </trkpt>
      <trkpt lat="43.06143" lon="0.14714">
        <ele>579</ele>
        <time>2022-08-21T06:45:39Z</time>
      </trkpt>
      <trkpt lat="43.06143" lon="0.14709">
        <ele>579.4</ele>
        <time>2022-08-21T06:45:41Z</time>
      </trkpt>
      <trkpt lat="43.06143" lon="0.14707">
        <ele>579.4</ele>
        <time>2022-08-21T06:45:42Z</time>
      </trkpt>
      <trkpt lat="43.06142" lon="0.14702">
        <ele>580</ele>
        <time>2022-08-21T06:45:44Z</time>
      </trkpt>
      <trkpt lat="43.06143" lon="0.14699">
        <ele>580.4</ele>
        <time>2022-08-21T06:45:45Z</time>
      </trkpt>
      <trkpt lat="43.06143" lon="0.14697">
        <ele>580.6</ele>
        <time>2022-08-21T06:45:46Z</time>
      </trkpt>
      <trkpt lat="43.06145" lon="0.14692">
        <ele>581.6</ele>
        <time>2022-08-21T06:45:48Z</time>
      </trkpt>
      <trkpt lat="43.06149" lon="0.14683">
        <ele>582.6</ele>
        <time>2022-08-21T06:45:52Z</time>
      </trkpt>
      <trkpt lat="43.0615" lon="0.14677">
        <ele>583</ele>
        <time>2022-08-21T06:45:54Z</time>
      </trkpt>
      <trkpt lat="43.06153" lon="0.14673">
        <ele>583.6</ele>
        <time>2022-08-21T06:45:56Z</time>
      </trkpt>
      <trkpt lat="43.06154" lon="0.14671">
        <ele>583.8</ele>
        <time>2022-08-21T06:45:57Z</time>
      </trkpt>
      <trkpt lat="43.06162" lon="0.1466">
        <ele>584.8</ele>
        <time>2022-08-21T06:46:02Z</time>
      </trkpt>
      <trkpt lat="43.06168" lon="0.14651">
        <ele>585.6</ele>
        <time>2022-08-21T06:46:06Z</time>
      </trkpt>
      <trkpt lat="43.06172" lon="0.14644">
        <ele>586</ele>
        <time>2022-08-21T06:46:09Z</time>
      </trkpt>
      <trkpt lat="43.06179" lon="0.14632">
        <ele>586.6</ele>
        <time>2022-08-21T06:46:15Z</time>
      </trkpt>
      <trkpt lat="43.0618" lon="0.1463">
        <ele>586.8</ele>
        <time>2022-08-21T06:46:16Z</time>
      </trkpt>
      <trkpt lat="43.0618" lon="0.14628">
        <ele>587</ele>
        <time>2022-08-21T06:46:17Z</time>
      </trkpt>
      <trkpt lat="43.06181" lon="0.14626">
        <ele>587</ele>
        <time>2022-08-21T06:46:18Z</time>
      </trkpt>
      <trkpt lat="43.06181" lon="0.14623">
        <ele>587.2</ele>
        <time>2022-08-21T06:46:19Z</time>
      </trkpt>
      <trkpt lat="43.06181" lon="0.14601">
        <ele>587.6</ele>
        <time>2022-08-21T06:46:26Z</time>
      </trkpt>
      <trkpt lat="43.06179" lon="0.14585">
        <ele>588.2</ele>
        <time>2022-08-21T06:46:31Z</time>
      </trkpt>
      <trkpt lat="43.06179" lon="0.14583">
        <ele>588.2</ele>
        <time>2022-08-21T06:46:32Z</time>
      </trkpt>
      <trkpt lat="43.06179" lon="0.14573">
        <ele>588.6</ele>
        <time>2022-08-21T06:46:37Z</time>
      </trkpt>
      <trkpt lat="43.06181" lon="0.14565">
        <ele>589.4</ele>
        <time>2022-08-21T06:46:40Z</time>
      </trkpt>
      <trkpt lat="43.06183" lon="0.14558">
        <ele>589.8</ele>
        <time>2022-08-21T06:46:42Z</time>
      </trkpt>
      <trkpt lat="43.06184" lon="0.14554">
        <ele>590</ele>
        <time>2022-08-21T06:46:43Z</time>
      </trkpt>
      <trkpt lat="43.06184" lon="0.14549">
        <ele>590.6</ele>
        <time>2022-08-21T06:46:45Z</time>
      </trkpt>
      <trkpt lat="43.06191" lon="0.14527">
        <ele>591.2</ele>
        <time>2022-08-21T06:46:50Z</time>
      </trkpt>
      <trkpt lat="43.06192" lon="0.14524">
        <ele>591.4</ele>
        <time>2022-08-21T06:46:51Z</time>
      </trkpt>
      <trkpt lat="43.06194" lon="0.14519">
        <ele>591.6</ele>
        <time>2022-08-21T06:46:52Z</time>
      </trkpt>
      <trkpt lat="43.06201" lon="0.14499">
        <ele>592.6</ele>
        <time>2022-08-21T06:46:58Z</time>
      </trkpt>
      <trkpt lat="43.06203" lon="0.14496">
        <ele>593</ele>
        <time>2022-08-21T06:46:59Z</time>
      </trkpt>
      <trkpt lat="43.06205" lon="0.1449">
        <ele>593.4</ele>
        <time>2022-08-21T06:47:01Z</time>
      </trkpt>
      <trkpt lat="43.06208" lon="0.14491">
        <ele>593.8</ele>
        <time>2022-08-21T06:47:03Z</time>
      </trkpt>
      <trkpt lat="43.0621" lon="0.14491">
        <ele>594</ele>
        <time>2022-08-21T06:47:04Z</time>
      </trkpt>
      <trkpt lat="43.06214" lon="0.14488">
        <ele>594.4</ele>
        <time>2022-08-21T06:47:06Z</time>
      </trkpt>
      <trkpt lat="43.06217" lon="0.14485">
        <ele>595.2</ele>
        <time>2022-08-21T06:47:08Z</time>
      </trkpt>
      <trkpt lat="43.06218" lon="0.14484">
        <ele>595.4</ele>
        <time>2022-08-21T06:47:09Z</time>
      </trkpt>
      <trkpt lat="43.06226" lon="0.14481">
        <ele>596.2</ele>
        <time>2022-08-21T06:47:13Z</time>
      </trkpt>
      <trkpt lat="43.06227" lon="0.1448">
        <ele>596.4</ele>
        <time>2022-08-21T06:47:14Z</time>
      </trkpt>
      <trkpt lat="43.06229" lon="0.14478">
        <ele>596.6</ele>
        <time>2022-08-21T06:47:15Z</time>
      </trkpt>
      <trkpt lat="43.0623" lon="0.14475">
        <ele>597</ele>
        <time>2022-08-21T06:47:17Z</time>
      </trkpt>
      <trkpt lat="43.06232" lon="0.14474">
        <ele>597.2</ele>
        <time>2022-08-21T06:47:18Z</time>
      </trkpt>
      <trkpt lat="43.06232" lon="0.14472">
        <ele>597.4</ele>
        <time>2022-08-21T06:47:19Z</time>
      </trkpt>
      <trkpt lat="43.06233" lon="0.1447">
        <ele>597.8</ele>
        <time>2022-08-21T06:47:21Z</time>
      </trkpt>
      <trkpt lat="43.06235" lon="0.14464">
        <ele>598.4</ele>
        <time>2022-08-21T06:47:25Z</time>
      </trkpt>
      <trkpt lat="43.06236" lon="0.14462">
        <ele>598.8</ele>
        <time>2022-08-21T06:47:27Z</time>
      </trkpt>
      <trkpt lat="43.06236" lon="0.14461">
        <ele>599</ele>
        <time>2022-08-21T06:47:28Z</time>
      </trkpt>
      <trkpt lat="43.06237" lon="0.14458">
        <ele>599.6</ele>
        <time>2022-08-21T06:47:31Z</time>
      </trkpt>
      <trkpt lat="43.06239" lon="0.14455">
        <ele>600.2</ele>
        <time>2022-08-21T06:47:33Z</time>
      </trkpt>
      <trkpt lat="43.06242" lon="0.14454">
        <ele>600.6</ele>
        <time>2022-08-21T06:47:35Z</time>
      </trkpt>
      <trkpt lat="43.06243" lon="0.14452">
        <ele>600.8</ele>
        <time>2022-08-21T06:47:36Z</time>
      </trkpt>
      <trkpt lat="43.06248" lon="0.14448">
        <ele>601.8</ele>
        <time>2022-08-21T06:47:40Z</time>
      </trkpt>
      <trkpt lat="43.0625" lon="0.14447">
        <ele>602</ele>
        <time>2022-08-21T06:47:41Z</time>
      </trkpt>
      <trkpt lat="43.06257" lon="0.14444">
        <ele>603</ele>
        <time>2022-08-21T06:47:46Z</time>
      </trkpt>
      <trkpt lat="43.06258" lon="0.14444">
        <ele>603.2</ele>
        <time>2022-08-21T06:47:47Z</time>
      </trkpt>
      <trkpt lat="43.06261" lon="0.14445">
        <ele>603.6</ele>
        <time>2022-08-21T06:47:49Z</time>
      </trkpt>
      <trkpt lat="43.06267" lon="0.14449">
        <ele>604.2</ele>
        <time>2022-08-21T06:47:53Z</time>
      </trkpt>
      <trkpt lat="43.06277" lon="0.14455">
        <ele>604.6</ele>
        <time>2022-08-21T06:47:58Z</time>
      </trkpt>
      <trkpt lat="43.06279" lon="0.14456">
        <ele>604.6</ele>
        <time>2022-08-21T06:47:59Z</time>
      </trkpt>
      <trkpt lat="43.06284" lon="0.14459">
        <ele>605</ele>
        <time>2022-08-21T06:48:01Z</time>
      </trkpt>
      <trkpt lat="43.06291" lon="0.14459">
        <ele>605.2</ele>
        <time>2022-08-21T06:48:04Z</time>
      </trkpt>
      <trkpt lat="43.06293" lon="0.14458">
        <ele>605.4</ele>
        <time>2022-08-21T06:48:05Z</time>
      </trkpt>
      <trkpt lat="43.06297" lon="0.14456">
        <ele>605.4</ele>
        <time>2022-08-21T06:48:07Z</time>
      </trkpt>
      <trkpt lat="43.06301" lon="0.14449">
        <ele>606</ele>
        <time>2022-08-21T06:48:10Z</time>
      </trkpt>
      <trkpt lat="43.06302" lon="0.14445">
        <ele>606</ele>
        <time>2022-08-21T06:48:11Z</time>
      </trkpt>
      <trkpt lat="43.06305" lon="0.14444">
        <ele>606.2</ele>
        <time>2022-08-21T06:48:13Z</time>
      </trkpt>
      <trkpt lat="43.06309" lon="0.1444">
        <ele>606.6</ele>
        <time>2022-08-21T06:48:16Z</time>
      </trkpt>
      <trkpt lat="43.06313" lon="0.1443">
        <ele>607.2</ele>
        <time>2022-08-21T06:48:20Z</time>
      </trkpt>
      <trkpt lat="43.06314" lon="0.14425">
        <ele>607.6</ele>
        <time>2022-08-21T06:48:22Z</time>
      </trkpt>
      <trkpt lat="43.06316" lon="0.1442">
        <ele>608.2</ele>
        <time>2022-08-21T06:48:25Z</time>
      </trkpt>
      <trkpt lat="43.06319" lon="0.14416">
        <ele>608.6</ele>
        <time>2022-08-21T06:48:29Z</time>
      </trkpt>
      <trkpt lat="43.06325" lon="0.1441">
        <ele>609.4</ele>
        <time>2022-08-21T06:48:34Z</time>
      </trkpt>
      <trkpt lat="43.06328" lon="0.14406">
        <ele>609.8</ele>
        <time>2022-08-21T06:48:37Z</time>
      </trkpt>
      <trkpt lat="43.06332" lon="0.14406">
        <ele>610.4</ele>
        <time>2022-08-21T06:48:40Z</time>
      </trkpt>
      <trkpt lat="43.06336" lon="0.14398">
        <ele>611.6</ele>
        <time>2022-08-21T06:48:45Z</time>
      </trkpt>
      <trkpt lat="43.06336" lon="0.14394">
        <ele>612</ele>
        <time>2022-08-21T06:48:47Z</time>
      </trkpt>
      <trkpt lat="43.06339" lon="0.14387">
        <ele>612.6</ele>
        <time>2022-08-21T06:48:50Z</time>
      </trkpt>
      <trkpt lat="43.0634" lon="0.14383">
        <ele>613.4</ele>
        <time>2022-08-21T06:48:53Z</time>
      </trkpt>
      <trkpt lat="43.06341" lon="0.14382">
        <ele>613.4</ele>
        <time>2022-08-21T06:48:54Z</time>
      </trkpt>
      <trkpt lat="43.06342" lon="0.14378">
        <ele>613.8</ele>
        <time>2022-08-21T06:48:56Z</time>
      </trkpt>
      <trkpt lat="43.06344" lon="0.14374">
        <ele>614.2</ele>
        <time>2022-08-21T06:48:58Z</time>
      </trkpt>
      <trkpt lat="43.06344" lon="0.14371">
        <ele>614.8</ele>
        <time>2022-08-21T06:49:00Z</time>
      </trkpt>
      <trkpt lat="43.06345" lon="0.14369">
        <ele>615</ele>
        <time>2022-08-21T06:49:02Z</time>
      </trkpt>
      <trkpt lat="43.06345" lon="0.14366">
        <ele>615.2</ele>
        <time>2022-08-21T06:49:04Z</time>
      </trkpt>
      <trkpt lat="43.06345" lon="0.14361">
        <ele>615.2</ele>
        <time>2022-08-21T06:49:05Z</time>
      </trkpt>
      <trkpt lat="43.06346" lon="0.14358">
        <ele>615.6</ele>
        <time>2022-08-21T06:49:06Z</time>
      </trkpt>
      <trkpt lat="43.06346" lon="0.14354">
        <ele>615.8</ele>
        <time>2022-08-21T06:49:08Z</time>
      </trkpt>
      <trkpt lat="43.06347" lon="0.14345">
        <ele>617</ele>
        <time>2022-08-21T06:49:13Z</time>
      </trkpt>
      <trkpt lat="43.06346" lon="0.14343">
        <ele>617</ele>
        <time>2022-08-21T06:49:14Z</time>
      </trkpt>
      <trkpt lat="43.06345" lon="0.14333">
        <ele>618</ele>
        <time>2022-08-21T06:49:19Z</time>
      </trkpt>
      <trkpt lat="43.06345" lon="0.14329">
        <ele>618.6</ele>
        <time>2022-08-21T06:49:21Z</time>
      </trkpt>
      <trkpt lat="43.06342" lon="0.14323">
        <ele>619.2</ele>
        <time>2022-08-21T06:49:24Z</time>
      </trkpt>
      <trkpt lat="43.06338" lon="0.14313">
        <ele>620</ele>
        <time>2022-08-21T06:49:28Z</time>
      </trkpt>
      <trkpt lat="43.06338" lon="0.14311">
        <ele>620.2</ele>
        <time>2022-08-21T06:49:29Z</time>
      </trkpt>
      <trkpt lat="43.06339" lon="0.14307">
        <ele>621.2</ele>
        <time>2022-08-21T06:49:33Z</time>
      </trkpt>
      <trkpt lat="43.0634" lon="0.14305">
        <ele>621.4</ele>
        <time>2022-08-21T06:49:34Z</time>
      </trkpt>
      <trkpt lat="43.0634" lon="0.14304">
        <ele>622.2</ele>
        <time>2022-08-21T06:49:37Z</time>
      </trkpt>
      <trkpt lat="43.0634" lon="0.14302">
        <ele>622.4</ele>
        <time>2022-08-21T06:49:38Z</time>
      </trkpt>
      <trkpt lat="43.0634" lon="0.14298">
        <ele>623.2</ele>
        <time>2022-08-21T06:49:41Z</time>
      </trkpt>
      <trkpt lat="43.0634" lon="0.14297">
        <ele>623.4</ele>
        <time>2022-08-21T06:49:42Z</time>
      </trkpt>
      <trkpt lat="43.06339" lon="0.14294">
        <ele>624</ele>
        <time>2022-08-21T06:49:45Z</time>
      </trkpt>
      <trkpt lat="43.06339" lon="0.14293">
        <ele>624.2</ele>
        <time>2022-08-21T06:49:46Z</time>
      </trkpt>
      <trkpt lat="43.06341" lon="0.14291">
        <ele>625.6</ele>
        <time>2022-08-21T06:49:51Z</time>
      </trkpt>
      <trkpt lat="43.06344" lon="0.14286">
        <ele>626.6</ele>
        <time>2022-08-21T06:49:56Z</time>
      </trkpt>
      <trkpt lat="43.06344" lon="0.14285">
        <ele>626.6</ele>
        <time>2022-08-21T06:49:57Z</time>
      </trkpt>
      <trkpt lat="43.06346" lon="0.1428">
        <ele>628</ele>
        <time>2022-08-21T06:50:02Z</time>
      </trkpt>
      <trkpt lat="43.06346" lon="0.14278">
        <ele>628</ele>
        <time>2022-08-21T06:50:03Z</time>
      </trkpt>
      <trkpt lat="43.06348" lon="0.14274">
        <ele>628.6</ele>
        <time>2022-08-21T06:50:06Z</time>
      </trkpt>
      <trkpt lat="43.0635" lon="0.14272">
        <ele>629</ele>
        <time>2022-08-21T06:50:08Z</time>
      </trkpt>
      <trkpt lat="43.0635" lon="0.14271">
        <ele>629.2</ele>
        <time>2022-08-21T06:50:09Z</time>
      </trkpt>
      <trkpt lat="43.0635" lon="0.14259">
        <ele>630</ele>
        <time>2022-08-21T06:50:13Z</time>
      </trkpt>
      <trkpt lat="43.06352" lon="0.14254">
        <ele>630.2</ele>
        <time>2022-08-21T06:50:15Z</time>
      </trkpt>
      <trkpt lat="43.06355" lon="0.1425">
        <ele>630.4</ele>
        <time>2022-08-21T06:50:18Z</time>
      </trkpt>
      <trkpt lat="43.06358" lon="0.14247">
        <ele>631.2</ele>
        <time>2022-08-21T06:50:21Z</time>
      </trkpt>
      <trkpt lat="43.06359" lon="0.14244">
        <ele>631.6</ele>
        <time>2022-08-21T06:50:23Z</time>
      </trkpt>
      <trkpt lat="43.06357" lon="0.14243">
        <ele>632</ele>
        <time>2022-08-21T06:50:25Z</time>
      </trkpt>
      <trkpt lat="43.06354" lon="0.14246">
        <ele>632.2</ele>
        <time>2022-08-21T06:50:27Z</time>
      </trkpt>
      <trkpt lat="43.06353" lon="0.14247">
        <ele>632.4</ele>
        <time>2022-08-21T06:50:28Z</time>
      </trkpt>
      <trkpt lat="43.06351" lon="0.1425">
        <ele>632.8</ele>
        <time>2022-08-21T06:50:31Z</time>
      </trkpt>
      <trkpt lat="43.0635" lon="0.14252">
        <ele>633.2</ele>
        <time>2022-08-21T06:50:33Z</time>
      </trkpt>
      <trkpt lat="43.06347" lon="0.14256">
        <ele>633.4</ele>
        <time>2022-08-21T06:50:36Z</time>
      </trkpt>
      <trkpt lat="43.06345" lon="0.14259">
        <ele>633.4</ele>
        <time>2022-08-21T06:50:38Z</time>
      </trkpt>
      <trkpt lat="43.06339" lon="0.14265">
        <ele>634</ele>
        <time>2022-08-21T06:50:43Z</time>
      </trkpt>
      <trkpt lat="43.06338" lon="0.14268">
        <ele>634.4</ele>
        <time>2022-08-21T06:50:45Z</time>
      </trkpt>
      <trkpt lat="43.06336" lon="0.1427">
        <ele>634.6</ele>
        <time>2022-08-21T06:50:47Z</time>
      </trkpt>
      <trkpt lat="43.06332" lon="0.14276">
        <ele>635.2</ele>
        <time>2022-08-21T06:50:51Z</time>
      </trkpt>
      <trkpt lat="43.0633" lon="0.14279">
        <ele>635.2</ele>
        <time>2022-08-21T06:50:53Z</time>
      </trkpt>
      <trkpt lat="43.06328" lon="0.14281">
        <ele>635.4</ele>
        <time>2022-08-21T06:50:55Z</time>
      </trkpt>
      <trkpt lat="43.06327" lon="0.14281">
        <ele>635.6</ele>
        <time>2022-08-21T06:50:56Z</time>
      </trkpt>
      <trkpt lat="43.06326" lon="0.14282">
        <ele>635.6</ele>
        <time>2022-08-21T06:50:57Z</time>
      </trkpt>
      <trkpt lat="43.06322" lon="0.14287">
        <ele>636.2</ele>
        <time>2022-08-21T06:51:02Z</time>
      </trkpt>
      <trkpt lat="43.06322" lon="0.14289">
        <ele>636.4</ele>
        <time>2022-08-21T06:51:03Z</time>
      </trkpt>
      <trkpt lat="43.06321" lon="0.14291">
        <ele>636.6</ele>
        <time>2022-08-21T06:51:04Z</time>
      </trkpt>
      <trkpt lat="43.0632" lon="0.14294">
        <ele>636.8</ele>
        <time>2022-08-21T06:51:06Z</time>
      </trkpt>
      <trkpt lat="43.06317" lon="0.14298">
        <ele>637</ele>
        <time>2022-08-21T06:51:09Z</time>
      </trkpt>
      <trkpt lat="43.06313" lon="0.14304">
        <ele>637.4</ele>
        <time>2022-08-21T06:51:15Z</time>
      </trkpt>
      <trkpt lat="43.06312" lon="0.14305">
        <ele>637.4</ele>
        <time>2022-08-21T06:51:16Z</time>
      </trkpt>
      <trkpt lat="43.06305" lon="0.14307">
        <ele>638.2</ele>
        <time>2022-08-21T06:51:20Z</time>
      </trkpt>
      <trkpt lat="43.06301" lon="0.14306">
        <ele>638.6</ele>
        <time>2022-08-21T06:51:22Z</time>
      </trkpt>
      <trkpt lat="43.06301" lon="0.14305">
        <ele>638.6</ele>
        <time>2022-08-21T06:51:23Z</time>
      </trkpt>
      <trkpt lat="43.06302" lon="0.14302">
        <ele>639.2</ele>
        <time>2022-08-21T06:51:26Z</time>
      </trkpt>
      <trkpt lat="43.06303" lon="0.14302">
        <ele>639.4</ele>
        <time>2022-08-21T06:51:27Z</time>
      </trkpt>
      <trkpt lat="43.06303" lon="0.143">
        <ele>639.6</ele>
        <time>2022-08-21T06:51:29Z</time>
      </trkpt>
      <trkpt lat="43.06305" lon="0.14296">
        <ele>640.4</ele>
        <time>2022-08-21T06:51:33Z</time>
      </trkpt>
      <trkpt lat="43.06308" lon="0.14293">
        <ele>640.8</ele>
        <time>2022-08-21T06:51:36Z</time>
      </trkpt>
      <trkpt lat="43.06307" lon="0.14289">
        <ele>641.6</ele>
        <time>2022-08-21T06:51:39Z</time>
      </trkpt>
      <trkpt lat="43.06307" lon="0.14288">
        <ele>642</ele>
        <time>2022-08-21T06:51:41Z</time>
      </trkpt>
      <trkpt lat="43.06309" lon="0.14284">
        <ele>642.8</ele>
        <time>2022-08-21T06:51:44Z</time>
      </trkpt>
      <trkpt lat="43.0631" lon="0.14279">
        <ele>643</ele>
        <time>2022-08-21T06:51:46Z</time>
      </trkpt>
      <trkpt lat="43.06311" lon="0.14265">
        <ele>643.8</ele>
        <time>2022-08-21T06:51:51Z</time>
      </trkpt>
      <trkpt lat="43.06312" lon="0.14263">
        <ele>644.2</ele>
        <time>2022-08-21T06:51:52Z</time>
      </trkpt>
      <trkpt lat="43.06317" lon="0.14255">
        <ele>645.2</ele>
        <time>2022-08-21T06:51:57Z</time>
      </trkpt>
      <trkpt lat="43.06318" lon="0.14254">
        <ele>645.2</ele>
        <time>2022-08-21T06:51:58Z</time>
      </trkpt>
      <trkpt lat="43.0632" lon="0.14248">
        <ele>646.2</ele>
        <time>2022-08-21T06:52:04Z</time>
      </trkpt>
      <trkpt lat="43.06321" lon="0.14246">
        <ele>646.6</ele>
        <time>2022-08-21T06:52:05Z</time>
      </trkpt>
      <trkpt lat="43.06321" lon="0.14241">
        <ele>646.8</ele>
        <time>2022-08-21T06:52:08Z</time>
      </trkpt>
      <trkpt lat="43.06323" lon="0.14239">
        <ele>647.4</ele>
        <time>2022-08-21T06:52:10Z</time>
      </trkpt>
      <trkpt lat="43.06323" lon="0.14239">
        <ele>647.6</ele>
        <time>2022-08-21T06:52:11Z</time>
      </trkpt>
      <trkpt lat="43.06324" lon="0.14234">
        <ele>648.4</ele>
        <time>2022-08-21T06:52:16Z</time>
      </trkpt>
      <trkpt lat="43.06325" lon="0.14232">
        <ele>648.8</ele>
        <time>2022-08-21T06:52:18Z</time>
      </trkpt>
      <trkpt lat="43.06326" lon="0.14229">
        <ele>649.6</ele>
        <time>2022-08-21T06:52:21Z</time>
      </trkpt>
      <trkpt lat="43.06327" lon="0.14225">
        <ele>650</ele>
        <time>2022-08-21T06:52:24Z</time>
      </trkpt>
      <trkpt lat="43.06327" lon="0.14223">
        <ele>650.6</ele>
        <time>2022-08-21T06:52:27Z</time>
      </trkpt>
      <trkpt lat="43.06329" lon="0.1422">
        <ele>651.2</ele>
        <time>2022-08-21T06:52:30Z</time>
      </trkpt>
      <trkpt lat="43.06331" lon="0.1422">
        <ele>651.6</ele>
        <time>2022-08-21T06:52:32Z</time>
      </trkpt>
      <trkpt lat="43.06335" lon="0.14213">
        <ele>652.6</ele>
        <time>2022-08-21T06:52:36Z</time>
      </trkpt>
      <trkpt lat="43.06338" lon="0.14204">
        <ele>653.6</ele>
        <time>2022-08-21T06:52:41Z</time>
      </trkpt>
      <trkpt lat="43.0634" lon="0.14201">
        <ele>653.8</ele>
        <time>2022-08-21T06:52:42Z</time>
      </trkpt>
      <trkpt lat="43.06346" lon="0.14197">
        <ele>654.8</ele>
        <time>2022-08-21T06:52:46Z</time>
      </trkpt>
      <trkpt lat="43.06347" lon="0.14194">
        <ele>654.8</ele>
        <time>2022-08-21T06:52:47Z</time>
      </trkpt>
      <trkpt lat="43.06355" lon="0.14192">
        <ele>655.8</ele>
        <time>2022-08-21T06:52:51Z</time>
      </trkpt>
      <trkpt lat="43.06357" lon="0.1419">
        <ele>656</ele>
        <time>2022-08-21T06:52:52Z</time>
      </trkpt>
      <trkpt lat="43.06361" lon="0.14186">
        <ele>656.8</ele>
        <time>2022-08-21T06:52:55Z</time>
      </trkpt>
      <trkpt lat="43.06368" lon="0.14183">
        <ele>657.6</ele>
        <time>2022-08-21T06:52:59Z</time>
      </trkpt>
      <trkpt lat="43.06368" lon="0.14179">
        <ele>658</ele>
        <time>2022-08-21T06:53:01Z</time>
      </trkpt>
      <trkpt lat="43.06373" lon="0.14177">
        <ele>658.6</ele>
        <time>2022-08-21T06:53:04Z</time>
      </trkpt>
      <trkpt lat="43.06373" lon="0.14176">
        <ele>658.8</ele>
        <time>2022-08-21T06:53:05Z</time>
      </trkpt>
      <trkpt lat="43.06373" lon="0.14174">
        <ele>659.2</ele>
        <time>2022-08-21T06:53:06Z</time>
      </trkpt>
      <trkpt lat="43.06377" lon="0.14166">
        <ele>660</ele>
        <time>2022-08-21T06:53:10Z</time>
      </trkpt>
      <trkpt lat="43.06378" lon="0.14164">
        <ele>660.2</ele>
        <time>2022-08-21T06:53:12Z</time>
      </trkpt>
      <trkpt lat="43.06381" lon="0.14155">
        <ele>661</ele>
        <time>2022-08-21T06:53:16Z</time>
      </trkpt>
      <trkpt lat="43.06383" lon="0.14153">
        <ele>661</ele>
        <time>2022-08-21T06:53:18Z</time>
      </trkpt>
      <trkpt lat="43.06384" lon="0.14152">
        <ele>661.2</ele>
        <time>2022-08-21T06:53:19Z</time>
      </trkpt>
      <trkpt lat="43.06385" lon="0.14152">
        <ele>661.6</ele>
        <time>2022-08-21T06:53:21Z</time>
      </trkpt>
      <trkpt lat="43.06386" lon="0.14152">
        <ele>661.8</ele>
        <time>2022-08-21T06:53:22Z</time>
      </trkpt>
      <trkpt lat="43.06387" lon="0.1415">
        <ele>662.2</ele>
        <time>2022-08-21T06:53:25Z</time>
      </trkpt>
      <trkpt lat="43.06388" lon="0.14147">
        <ele>662.4</ele>
        <time>2022-08-21T06:53:27Z</time>
      </trkpt>
      <trkpt lat="43.06387" lon="0.14136">
        <ele>663.2</ele>
        <time>2022-08-21T06:53:33Z</time>
      </trkpt>
      <trkpt lat="43.06387" lon="0.14133">
        <ele>663.6</ele>
        <time>2022-08-21T06:53:35Z</time>
      </trkpt>
      <trkpt lat="43.06389" lon="0.14121">
        <ele>664.4</ele>
        <time>2022-08-21T06:53:40Z</time>
      </trkpt>
      <trkpt lat="43.0639" lon="0.14117">
        <ele>664.8</ele>
        <time>2022-08-21T06:53:42Z</time>
      </trkpt>
      <trkpt lat="43.0639" lon="0.14115">
        <ele>664.8</ele>
        <time>2022-08-21T06:53:43Z</time>
      </trkpt>
      <trkpt lat="43.06393" lon="0.14109">
        <ele>665.4</ele>
        <time>2022-08-21T06:53:46Z</time>
      </trkpt>
      <trkpt lat="43.06397" lon="0.14107">
        <ele>666</ele>
        <time>2022-08-21T06:53:49Z</time>
      </trkpt>
      <trkpt lat="43.064" lon="0.14104">
        <ele>666.4</ele>
        <time>2022-08-21T06:53:51Z</time>
      </trkpt>
      <trkpt lat="43.06403" lon="0.14098">
        <ele>667.2</ele>
        <time>2022-08-21T06:53:55Z</time>
      </trkpt>
      <trkpt lat="43.06405" lon="0.14098">
        <ele>667.6</ele>
        <time>2022-08-21T06:53:57Z</time>
      </trkpt>
      <trkpt lat="43.06405" lon="0.14093">
        <ele>668</ele>
        <time>2022-08-21T06:54:01Z</time>
      </trkpt>
      <trkpt lat="43.0641" lon="0.14091">
        <ele>668.8</ele>
        <time>2022-08-21T06:54:04Z</time>
      </trkpt>
      <trkpt lat="43.06412" lon="0.14092">
        <ele>669</ele>
        <time>2022-08-21T06:54:06Z</time>
      </trkpt>
      <trkpt lat="43.06414" lon="0.1409">
        <ele>669.2</ele>
        <time>2022-08-21T06:54:07Z</time>
      </trkpt>
      <trkpt lat="43.06418" lon="0.1408">
        <ele>669.8</ele>
        <time>2022-08-21T06:54:11Z</time>
      </trkpt>
      <trkpt lat="43.0642" lon="0.14079">
        <ele>670</ele>
        <time>2022-08-21T06:54:13Z</time>
      </trkpt>
      <trkpt lat="43.06423" lon="0.14065">
        <ele>670.8</ele>
        <time>2022-08-21T06:54:21Z</time>
      </trkpt>
      <trkpt lat="43.06426" lon="0.1406">
        <ele>671.4</ele>
        <time>2022-08-21T06:54:26Z</time>
      </trkpt>
      <trkpt lat="43.06427" lon="0.14057">
        <ele>672</ele>
        <time>2022-08-21T06:54:29Z</time>
      </trkpt>
      <trkpt lat="43.06427" lon="0.14055">
        <ele>672.6</ele>
        <time>2022-08-21T06:54:31Z</time>
      </trkpt>
      <trkpt lat="43.06429" lon="0.1405">
        <ele>673</ele>
        <time>2022-08-21T06:54:35Z</time>
      </trkpt>
      <trkpt lat="43.0643" lon="0.14047">
        <ele>673.6</ele>
        <time>2022-08-21T06:54:38Z</time>
      </trkpt>
      <trkpt lat="43.06431" lon="0.14046">
        <ele>673.8</ele>
        <time>2022-08-21T06:54:39Z</time>
      </trkpt>
      <trkpt lat="43.06433" lon="0.14043">
        <ele>674.4</ele>
        <time>2022-08-21T06:54:42Z</time>
      </trkpt>
      <trkpt lat="43.06433" lon="0.1404">
        <ele>674.6</ele>
        <time>2022-08-21T06:54:44Z</time>
      </trkpt>
      <trkpt lat="43.06437" lon="0.1403">
        <ele>675.2</ele>
        <time>2022-08-21T06:54:49Z</time>
      </trkpt>
      <trkpt lat="43.06438" lon="0.14028">
        <ele>675.4</ele>
        <time>2022-08-21T06:54:50Z</time>
      </trkpt>
      <trkpt lat="43.0644" lon="0.14025">
        <ele>675.8</ele>
        <time>2022-08-21T06:54:52Z</time>
      </trkpt>
      <trkpt lat="43.06443" lon="0.1402">
        <ele>676.4</ele>
        <time>2022-08-21T06:54:55Z</time>
      </trkpt>
      <trkpt lat="43.06447" lon="0.14008">
        <ele>677.2</ele>
        <time>2022-08-21T06:55:02Z</time>
      </trkpt>
      <trkpt lat="43.06448" lon="0.14006">
        <ele>677.4</ele>
        <time>2022-08-21T06:55:03Z</time>
      </trkpt>
      <trkpt lat="43.06453" lon="0.13999">
        <ele>678.4</ele>
        <time>2022-08-21T06:55:08Z</time>
      </trkpt>
      <trkpt lat="43.06454" lon="0.13997">
        <ele>678.8</ele>
        <time>2022-08-21T06:55:10Z</time>
      </trkpt>
      <trkpt lat="43.06454" lon="0.13986">
        <ele>679.4</ele>
        <time>2022-08-21T06:55:17Z</time>
      </trkpt>
      <trkpt lat="43.06454" lon="0.13979">
        <ele>680.4</ele>
        <time>2022-08-21T06:55:23Z</time>
      </trkpt>
      <trkpt lat="43.06454" lon="0.13978">
        <ele>680.4</ele>
        <time>2022-08-21T06:55:24Z</time>
      </trkpt>
      <trkpt lat="43.06456" lon="0.1397">
        <ele>681.4</ele>
        <time>2022-08-21T06:55:30Z</time>
      </trkpt>
      <trkpt lat="43.06456" lon="0.13967">
        <ele>681.6</ele>
        <time>2022-08-21T06:55:31Z</time>
      </trkpt>
      <trkpt lat="43.06458" lon="0.13959">
        <ele>682.6</ele>
        <time>2022-08-21T06:55:36Z</time>
      </trkpt>
      <trkpt lat="43.06458" lon="0.13956">
        <ele>682.8</ele>
        <time>2022-08-21T06:55:38Z</time>
      </trkpt>
      <trkpt lat="43.06463" lon="0.13945">
        <ele>683.8</ele>
        <time>2022-08-21T06:55:45Z</time>
      </trkpt>
      <trkpt lat="43.06467" lon="0.13939">
        <ele>684.6</ele>
        <time>2022-08-21T06:55:50Z</time>
      </trkpt>
      <trkpt lat="43.06467" lon="0.13936">
        <ele>684.8</ele>
        <time>2022-08-21T06:55:51Z</time>
      </trkpt>
      <trkpt lat="43.06466" lon="0.13926">
        <ele>685.6</ele>
        <time>2022-08-21T06:55:56Z</time>
      </trkpt>
      <trkpt lat="43.06467" lon="0.13924">
        <ele>685.6</ele>
        <time>2022-08-21T06:55:58Z</time>
      </trkpt>
      <trkpt lat="43.06466" lon="0.13914">
        <ele>686.6</ele>
        <time>2022-08-21T06:56:04Z</time>
      </trkpt>
      <trkpt lat="43.06467" lon="0.13913">
        <ele>686.8</ele>
        <time>2022-08-21T06:56:05Z</time>
      </trkpt>
      <trkpt lat="43.06469" lon="0.13905">
        <ele>687.8</ele>
        <time>2022-08-21T06:56:11Z</time>
      </trkpt>
      <trkpt lat="43.06471" lon="0.13894">
        <ele>688.8</ele>
        <time>2022-08-21T06:56:17Z</time>
      </trkpt>
      <trkpt lat="43.06471" lon="0.13892">
        <ele>688.8</ele>
        <time>2022-08-21T06:56:18Z</time>
      </trkpt>
      <trkpt lat="43.06472" lon="0.13883">
        <ele>690</ele>
        <time>2022-08-21T06:56:23Z</time>
      </trkpt>
      <trkpt lat="43.06472" lon="0.1388">
        <ele>690.2</ele>
        <time>2022-08-21T06:56:25Z</time>
      </trkpt>
      <trkpt lat="43.06473" lon="0.13876">
        <ele>690.6</ele>
        <time>2022-08-21T06:56:28Z</time>
      </trkpt>
      <trkpt lat="43.06473" lon="0.13874">
        <ele>690.8</ele>
        <time>2022-08-21T06:56:29Z</time>
      </trkpt>
      <trkpt lat="43.06478" lon="0.13865">
        <ele>691.6</ele>
        <time>2022-08-21T06:56:35Z</time>
      </trkpt>
      <trkpt lat="43.06478" lon="0.13865">
        <ele>691.8</ele>
        <time>2022-08-21T06:56:36Z</time>
      </trkpt>
      <trkpt lat="43.06476" lon="0.13864">
        <ele>692</ele>
        <time>2022-08-21T06:56:37Z</time>
      </trkpt>
      <trkpt lat="43.06477" lon="0.13857">
        <ele>692.8</ele>
        <time>2022-08-21T06:56:43Z</time>
      </trkpt>
      <trkpt lat="43.06477" lon="0.13857">
        <ele>693</ele>
        <time>2022-08-21T06:56:44Z</time>
      </trkpt>
      <trkpt lat="43.06477" lon="0.13854">
        <ele>693.4</ele>
        <time>2022-08-21T06:56:46Z</time>
      </trkpt>
      <trkpt lat="43.06476" lon="0.13851">
        <ele>693.8</ele>
        <time>2022-08-21T06:56:49Z</time>
      </trkpt>
      <trkpt lat="43.06476" lon="0.13848">
        <ele>694.2</ele>
        <time>2022-08-21T06:56:51Z</time>
      </trkpt>
      <trkpt lat="43.06477" lon="0.13842">
        <ele>694.6</ele>
        <time>2022-08-21T06:56:55Z</time>
      </trkpt>
      <trkpt lat="43.06478" lon="0.13838">
        <ele>695.2</ele>
        <time>2022-08-21T06:56:58Z</time>
      </trkpt>
      <trkpt lat="43.0648" lon="0.13835">
        <ele>695.4</ele>
        <time>2022-08-21T06:57:00Z</time>
      </trkpt>
      <trkpt lat="43.06483" lon="0.13828">
        <ele>696</ele>
        <time>2022-08-21T06:57:05Z</time>
      </trkpt>
      <trkpt lat="43.06484" lon="0.13826">
        <ele>696.2</ele>
        <time>2022-08-21T06:57:06Z</time>
      </trkpt>
      <trkpt lat="43.06485" lon="0.13824">
        <ele>696.4</ele>
        <time>2022-08-21T06:57:07Z</time>
      </trkpt>
      <trkpt lat="43.06489" lon="0.13814">
        <ele>697.2</ele>
        <time>2022-08-21T06:57:12Z</time>
      </trkpt>
      <trkpt lat="43.06491" lon="0.13811">
        <ele>697.4</ele>
        <time>2022-08-21T06:57:14Z</time>
      </trkpt>
      <trkpt lat="43.06493" lon="0.1381">
        <ele>697.4</ele>
        <time>2022-08-21T06:57:15Z</time>
      </trkpt>
      <trkpt lat="43.06496" lon="0.13808">
        <ele>697.8</ele>
        <time>2022-08-21T06:57:18Z</time>
      </trkpt>
      <trkpt lat="43.06498" lon="0.13806">
        <ele>698</ele>
        <time>2022-08-21T06:57:20Z</time>
      </trkpt>
      <trkpt lat="43.065" lon="0.13806">
        <ele>698.8</ele>
        <time>2022-08-21T06:57:24Z</time>
      </trkpt>
      <trkpt lat="43.06503" lon="0.13804">
        <ele>699</ele>
        <time>2022-08-21T06:57:26Z</time>
      </trkpt>
      <trkpt lat="43.06506" lon="0.138">
        <ele>699.6</ele>
        <time>2022-08-21T06:57:30Z</time>
      </trkpt>
      <trkpt lat="43.06509" lon="0.13797">
        <ele>700</ele>
        <time>2022-08-21T06:57:32Z</time>
      </trkpt>
      <trkpt lat="43.06512" lon="0.13786">
        <ele>700.8</ele>
        <time>2022-08-21T06:57:37Z</time>
      </trkpt>
      <trkpt lat="43.0651" lon="0.13782">
        <ele>701.2</ele>
        <time>2022-08-21T06:57:39Z</time>
      </trkpt>
      <trkpt lat="43.06515" lon="0.13773">
        <ele>701.8</ele>
        <time>2022-08-21T06:57:44Z</time>
      </trkpt>
      <trkpt lat="43.06517" lon="0.13772">
        <ele>702</ele>
        <time>2022-08-21T06:57:45Z</time>
      </trkpt>
      <trkpt lat="43.0652" lon="0.13769">
        <ele>702.8</ele>
        <time>2022-08-21T06:57:49Z</time>
      </trkpt>
      <trkpt lat="43.06523" lon="0.13766">
        <ele>703</ele>
        <time>2022-08-21T06:57:51Z</time>
      </trkpt>
      <trkpt lat="43.0653" lon="0.13758">
        <ele>704</ele>
        <time>2022-08-21T06:57:57Z</time>
      </trkpt>
      <trkpt lat="43.06531" lon="0.13753">
        <ele>705</ele>
        <time>2022-08-21T06:58:02Z</time>
      </trkpt>
      <trkpt lat="43.06534" lon="0.13748">
        <ele>706</ele>
        <time>2022-08-21T06:58:08Z</time>
      </trkpt>
      <trkpt lat="43.06535" lon="0.13748">
        <ele>706.2</ele>
        <time>2022-08-21T06:58:09Z</time>
      </trkpt>
      <trkpt lat="43.06541" lon="0.13744">
        <ele>707</ele>
        <time>2022-08-21T06:58:15Z</time>
      </trkpt>
      <trkpt lat="43.06542" lon="0.13743">
        <ele>707</ele>
        <time>2022-08-21T06:58:16Z</time>
      </trkpt>
      <trkpt lat="43.06543" lon="0.13742">
        <ele>707.2</ele>
        <time>2022-08-21T06:58:17Z</time>
      </trkpt>
      <trkpt lat="43.06549" lon="0.13742">
        <ele>707.8</ele>
        <time>2022-08-21T06:58:22Z</time>
      </trkpt>
      <trkpt lat="43.0655" lon="0.13743">
        <ele>708.2</ele>
        <time>2022-08-21T06:58:23Z</time>
      </trkpt>
      <trkpt lat="43.06552" lon="0.13738">
        <ele>708.8</ele>
        <time>2022-08-21T06:58:27Z</time>
      </trkpt>
      <trkpt lat="43.06553" lon="0.13737">
        <ele>709.2</ele>
        <time>2022-08-21T06:58:28Z</time>
      </trkpt>
      <trkpt lat="43.06554" lon="0.13734">
        <ele>709.8</ele>
        <time>2022-08-21T06:58:30Z</time>
      </trkpt>
      <trkpt lat="43.06555" lon="0.13732">
        <ele>710.2</ele>
        <time>2022-08-21T06:58:32Z</time>
      </trkpt>
      <trkpt lat="43.06556" lon="0.1373">
        <ele>710.4</ele>
        <time>2022-08-21T06:58:33Z</time>
      </trkpt>
      <trkpt lat="43.06559" lon="0.13727">
        <ele>711.2</ele>
        <time>2022-08-21T06:58:37Z</time>
      </trkpt>
      <trkpt lat="43.06562" lon="0.13725">
        <ele>711.4</ele>
        <time>2022-08-21T06:58:38Z</time>
      </trkpt>
      <trkpt lat="43.06563" lon="0.13723">
        <ele>711.4</ele>
        <time>2022-08-21T06:58:39Z</time>
      </trkpt>
      <trkpt lat="43.06563" lon="0.13718">
        <ele>712</ele>
        <time>2022-08-21T06:58:43Z</time>
      </trkpt>
      <trkpt lat="43.06561" lon="0.13712">
        <ele>712.4</ele>
        <time>2022-08-21T06:58:45Z</time>
      </trkpt>
      <trkpt lat="43.06559" lon="0.13697">
        <ele>713.2</ele>
        <time>2022-08-21T06:58:52Z</time>
      </trkpt>
      <trkpt lat="43.06558" lon="0.13692">
        <ele>713.6</ele>
        <time>2022-08-21T06:58:54Z</time>
      </trkpt>
      <trkpt lat="43.06557" lon="0.13684">
        <ele>714.4</ele>
        <time>2022-08-21T06:58:59Z</time>
      </trkpt>
      <trkpt lat="43.06556" lon="0.13683">
        <ele>714.8</ele>
        <time>2022-08-21T06:59:00Z</time>
      </trkpt>
      <trkpt lat="43.06553" lon="0.13673">
        <ele>716</ele>
        <time>2022-08-21T06:59:06Z</time>
      </trkpt>
      <trkpt lat="43.06549" lon="0.13664">
        <ele>717</ele>
        <time>2022-08-21T06:59:12Z</time>
      </trkpt>
      <trkpt lat="43.06547" lon="0.13663">
        <ele>717.2</ele>
        <time>2022-08-21T06:59:14Z</time>
      </trkpt>
      <trkpt lat="43.06546" lon="0.13661">
        <ele>717.8</ele>
        <time>2022-08-21T06:59:17Z</time>
      </trkpt>
      <trkpt lat="43.06542" lon="0.13662">
        <ele>719</ele>
        <time>2022-08-21T06:59:23Z</time>
      </trkpt>
      <trkpt lat="43.06539" lon="0.13663">
        <ele>719.6</ele>
        <time>2022-08-21T06:59:26Z</time>
      </trkpt>
      <trkpt lat="43.06538" lon="0.13664">
        <ele>720</ele>
        <time>2022-08-21T06:59:28Z</time>
      </trkpt>
      <trkpt lat="43.06532" lon="0.13664">
        <ele>721.2</ele>
        <time>2022-08-21T06:59:34Z</time>
      </trkpt>
      <trkpt lat="43.0653" lon="0.13662">
        <ele>721.2</ele>
        <time>2022-08-21T06:59:35Z</time>
      </trkpt>
      <trkpt lat="43.06527" lon="0.13656">
        <ele>722.2</ele>
        <time>2022-08-21T06:59:41Z</time>
      </trkpt>
      <trkpt lat="43.06527" lon="0.13654">
        <ele>722.4</ele>
        <time>2022-08-21T06:59:42Z</time>
      </trkpt>
      <trkpt lat="43.06529" lon="0.13647">
        <ele>723.4</ele>
        <time>2022-08-21T06:59:47Z</time>
      </trkpt>
      <trkpt lat="43.06529" lon="0.13645">
        <ele>723.4</ele>
        <time>2022-08-21T06:59:48Z</time>
      </trkpt>
      <trkpt lat="43.06529" lon="0.13644">
        <ele>723.6</ele>
        <time>2022-08-21T06:59:49Z</time>
      </trkpt>
      <trkpt lat="43.06529" lon="0.13633">
        <ele>724.2</ele>
        <time>2022-08-21T06:59:55Z</time>
      </trkpt>
      <trkpt lat="43.06529" lon="0.13631">
        <ele>724.4</ele>
        <time>2022-08-21T06:59:57Z</time>
      </trkpt>
      <trkpt lat="43.06531" lon="0.13621">
        <ele>725</ele>
        <time>2022-08-21T07:00:02Z</time>
      </trkpt>
      <trkpt lat="43.06531" lon="0.13616">
        <ele>725.2</ele>
        <time>2022-08-21T07:00:05Z</time>
      </trkpt>
      <trkpt lat="43.06532" lon="0.13604">
        <ele>725.8</ele>
        <time>2022-08-21T07:00:09Z</time>
      </trkpt>
      <trkpt lat="43.06532" lon="0.13592">
        <ele>726.2</ele>
        <time>2022-08-21T07:00:13Z</time>
      </trkpt>
      <trkpt lat="43.06532" lon="0.13583">
        <ele>726.8</ele>
        <time>2022-08-21T07:00:18Z</time>
      </trkpt>
      <trkpt lat="43.06534" lon="0.13577">
        <ele>727.4</ele>
        <time>2022-08-21T07:00:22Z</time>
      </trkpt>
      <trkpt lat="43.06536" lon="0.13571">
        <ele>728</ele>
        <time>2022-08-21T07:00:26Z</time>
      </trkpt>
      <trkpt lat="43.0654" lon="0.13565">
        <ele>728.4</ele>
        <time>2022-08-21T07:00:30Z</time>
      </trkpt>
      <trkpt lat="43.06541" lon="0.13561">
        <ele>728.8</ele>
        <time>2022-08-21T07:00:32Z</time>
      </trkpt>
      <trkpt lat="43.06542" lon="0.13549">
        <ele>729.4</ele>
        <time>2022-08-21T07:00:37Z</time>
      </trkpt>
      <trkpt lat="43.06543" lon="0.13545">
        <ele>729.4</ele>
        <time>2022-08-21T07:00:38Z</time>
      </trkpt>
      <trkpt lat="43.06546" lon="0.13542">
        <ele>729.6</ele>
        <time>2022-08-21T07:00:41Z</time>
      </trkpt>
      <trkpt lat="43.06549" lon="0.13538">
        <ele>729.8</ele>
        <time>2022-08-21T07:00:44Z</time>
      </trkpt>
      <trkpt lat="43.06549" lon="0.13537">
        <ele>730</ele>
        <time>2022-08-21T07:00:45Z</time>
      </trkpt>
      <trkpt lat="43.06546" lon="0.13534">
        <ele>730.4</ele>
        <time>2022-08-21T07:00:47Z</time>
      </trkpt>
      <trkpt lat="43.06542" lon="0.13529">
        <ele>730.6</ele>
        <time>2022-08-21T07:00:50Z</time>
      </trkpt>
      <trkpt lat="43.06542" lon="0.13524">
        <ele>731</ele>
        <time>2022-08-21T07:00:54Z</time>
      </trkpt>
      <trkpt lat="43.06542" lon="0.13518">
        <ele>731.4</ele>
        <time>2022-08-21T07:00:58Z</time>
      </trkpt>
      <trkpt lat="43.06542" lon="0.13514">
        <ele>731.8</ele>
        <time>2022-08-21T07:01:01Z</time>
      </trkpt>
      <trkpt lat="43.06542" lon="0.13507">
        <ele>732.4</ele>
        <time>2022-08-21T07:01:05Z</time>
      </trkpt>
      <trkpt lat="43.06543" lon="0.13503">
        <ele>732.8</ele>
        <time>2022-08-21T07:01:07Z</time>
      </trkpt>
      <trkpt lat="43.06546" lon="0.1349">
        <ele>733.4</ele>
        <time>2022-08-21T07:01:13Z</time>
      </trkpt>
      <trkpt lat="43.06546" lon="0.13477">
        <ele>734</ele>
        <time>2022-08-21T07:01:18Z</time>
      </trkpt>
      <trkpt lat="43.06545" lon="0.13475">
        <ele>734.2</ele>
        <time>2022-08-21T07:01:19Z</time>
      </trkpt>
      <trkpt lat="43.06546" lon="0.13468">
        <ele>734.4</ele>
        <time>2022-08-21T07:01:22Z</time>
      </trkpt>
      <trkpt lat="43.0655" lon="0.1346">
        <ele>734.8</ele>
        <time>2022-08-21T07:01:26Z</time>
      </trkpt>
      <trkpt lat="43.0655" lon="0.13458">
        <ele>734.8</ele>
        <time>2022-08-21T07:01:27Z</time>
      </trkpt>
      <trkpt lat="43.06549" lon="0.13449">
        <ele>735</ele>
        <time>2022-08-21T07:01:31Z</time>
      </trkpt>
      <trkpt lat="43.06548" lon="0.13447">
        <ele>735.2</ele>
        <time>2022-08-21T07:01:32Z</time>
      </trkpt>
      <trkpt lat="43.06549" lon="0.13443">
        <ele>735.2</ele>
        <time>2022-08-21T07:01:34Z</time>
      </trkpt>
      <trkpt lat="43.06548" lon="0.1344">
        <ele>735.4</ele>
        <time>2022-08-21T07:01:35Z</time>
      </trkpt>
      <trkpt lat="43.06549" lon="0.13436">
        <ele>735.8</ele>
        <time>2022-08-21T07:01:37Z</time>
      </trkpt>
      <trkpt lat="43.06547" lon="0.13424">
        <ele>736.2</ele>
        <time>2022-08-21T07:01:41Z</time>
      </trkpt>
      <trkpt lat="43.06545" lon="0.13418">
        <ele>736.6</ele>
        <time>2022-08-21T07:01:43Z</time>
      </trkpt>
      <trkpt lat="43.06543" lon="0.13417">
        <ele>736.6</ele>
        <time>2022-08-21T07:01:44Z</time>
      </trkpt>
      <trkpt lat="43.06541" lon="0.13415">
        <ele>737</ele>
        <time>2022-08-21T07:01:47Z</time>
      </trkpt>
      <trkpt lat="43.06541" lon="0.13411">
        <ele>737</ele>
        <time>2022-08-21T07:01:49Z</time>
      </trkpt>
      <trkpt lat="43.0654" lon="0.13405">
        <ele>737.6</ele>
        <time>2022-08-21T07:01:54Z</time>
      </trkpt>
      <trkpt lat="43.0654" lon="0.134">
        <ele>738.2</ele>
        <time>2022-08-21T07:01:57Z</time>
      </trkpt>
      <trkpt lat="43.06539" lon="0.13399">
        <ele>738.4</ele>
        <time>2022-08-21T07:01:58Z</time>
      </trkpt>
      <trkpt lat="43.0654" lon="0.13393">
        <ele>738.6</ele>
        <time>2022-08-21T07:02:01Z</time>
      </trkpt>
      <trkpt lat="43.0654" lon="0.13392">
        <ele>738.8</ele>
        <time>2022-08-21T07:02:02Z</time>
      </trkpt>
      <trkpt lat="43.06539" lon="0.1339">
        <ele>738.8</ele>
        <time>2022-08-21T07:02:03Z</time>
      </trkpt>
      <trkpt lat="43.06541" lon="0.13385">
        <ele>739.2</ele>
        <time>2022-08-21T07:02:06Z</time>
      </trkpt>
      <trkpt lat="43.06541" lon="0.13382">
        <ele>739.4</ele>
        <time>2022-08-21T07:02:08Z</time>
      </trkpt>
      <trkpt lat="43.06542" lon="0.13375">
        <ele>739.8</ele>
        <time>2022-08-21T07:02:11Z</time>
      </trkpt>
      <trkpt lat="43.06541" lon="0.13371">
        <ele>740.2</ele>
        <time>2022-08-21T07:02:13Z</time>
      </trkpt>
      <trkpt lat="43.06541" lon="0.13363">
        <ele>740.2</ele>
        <time>2022-08-21T07:02:16Z</time>
      </trkpt>
      <trkpt lat="43.06545" lon="0.13356">
        <ele>740.8</ele>
        <time>2022-08-21T07:02:20Z</time>
      </trkpt>
      <trkpt lat="43.06544" lon="0.13344">
        <ele>741.6</ele>
        <time>2022-08-21T07:02:26Z</time>
      </trkpt>
      <trkpt lat="43.06542" lon="0.13341">
        <ele>741.6</ele>
        <time>2022-08-21T07:02:27Z</time>
      </trkpt>
      <trkpt lat="43.06542" lon="0.13339">
        <ele>741.8</ele>
        <time>2022-08-21T07:02:28Z</time>
      </trkpt>
      <trkpt lat="43.06546" lon="0.1333">
        <ele>742.2</ele>
        <time>2022-08-21T07:02:32Z</time>
      </trkpt>
      <trkpt lat="43.06545" lon="0.13328">
        <ele>742.2</ele>
        <time>2022-08-21T07:02:33Z</time>
      </trkpt>
      <trkpt lat="43.06546" lon="0.13323">
        <ele>742.6</ele>
        <time>2022-08-21T07:02:36Z</time>
      </trkpt>
      <trkpt lat="43.06547" lon="0.13321">
        <ele>742.8</ele>
        <time>2022-08-21T07:02:37Z</time>
      </trkpt>
      <trkpt lat="43.06548" lon="0.13318">
        <ele>742.8</ele>
        <time>2022-08-21T07:02:38Z</time>
      </trkpt>
      <trkpt lat="43.06549" lon="0.13317">
        <ele>743</ele>
        <time>2022-08-21T07:02:39Z</time>
      </trkpt>
      <trkpt lat="43.06546" lon="0.13308">
        <ele>743.2</ele>
        <time>2022-08-21T07:02:43Z</time>
      </trkpt>
      <trkpt lat="43.06548" lon="0.13303">
        <ele>743.8</ele>
        <time>2022-08-21T07:02:48Z</time>
      </trkpt>
      <trkpt lat="43.06548" lon="0.13302">
        <ele>744</ele>
        <time>2022-08-21T07:02:49Z</time>
      </trkpt>
      <trkpt lat="43.06549" lon="0.13294">
        <ele>744.8</ele>
        <time>2022-08-21T07:02:55Z</time>
      </trkpt>
      <trkpt lat="43.06549" lon="0.13293">
        <ele>745</ele>
        <time>2022-08-21T07:02:56Z</time>
      </trkpt>
      <trkpt lat="43.06553" lon="0.13282">
        <ele>745.8</ele>
        <time>2022-08-21T07:03:03Z</time>
      </trkpt>
      <trkpt lat="43.06557" lon="0.13275">
        <ele>746.8</ele>
        <time>2022-08-21T07:03:09Z</time>
      </trkpt>
      <trkpt lat="43.06557" lon="0.13273">
        <ele>747</ele>
        <time>2022-08-21T07:03:10Z</time>
      </trkpt>
      <trkpt lat="43.06559" lon="0.13267">
        <ele>747.4</ele>
        <time>2022-08-21T07:03:13Z</time>
      </trkpt>
      <trkpt lat="43.06561" lon="0.13259">
        <ele>747.8</ele>
        <time>2022-08-21T07:03:16Z</time>
      </trkpt>
      <trkpt lat="43.06562" lon="0.13256">
        <ele>748</ele>
        <time>2022-08-21T07:03:17Z</time>
      </trkpt>
      <trkpt lat="43.06563" lon="0.13246">
        <ele>748.6</ele>
        <time>2022-08-21T07:03:22Z</time>
      </trkpt>
      <trkpt lat="43.06561" lon="0.13237">
        <ele>749</ele>
        <time>2022-08-21T07:03:24Z</time>
      </trkpt>
      <trkpt lat="43.06561" lon="0.13231">
        <ele>749.4</ele>
        <time>2022-08-21T07:03:27Z</time>
      </trkpt>
      <trkpt lat="43.06561" lon="0.13227">
        <ele>749.6</ele>
        <time>2022-08-21T07:03:29Z</time>
      </trkpt>
      <trkpt lat="43.06557" lon="0.13214">
        <ele>750</ele>
        <time>2022-08-21T07:03:36Z</time>
      </trkpt>
      <trkpt lat="43.06554" lon="0.13202">
        <ele>750.6</ele>
        <time>2022-08-21T07:03:42Z</time>
      </trkpt>
      <trkpt lat="43.06553" lon="0.13198">
        <ele>751</ele>
        <time>2022-08-21T07:03:45Z</time>
      </trkpt>
      <trkpt lat="43.06551" lon="0.13195">
        <ele>751.2</ele>
        <time>2022-08-21T07:03:48Z</time>
      </trkpt>
      <trkpt lat="43.06547" lon="0.13183">
        <ele>752</ele>
        <time>2022-08-21T07:03:56Z</time>
      </trkpt>
      <trkpt lat="43.06544" lon="0.13179">
        <ele>752</ele>
        <time>2022-08-21T07:03:58Z</time>
      </trkpt>
      <trkpt lat="43.06539" lon="0.1317">
        <ele>752.8</ele>
        <time>2022-08-21T07:04:04Z</time>
      </trkpt>
      <trkpt lat="43.06538" lon="0.13168">
        <ele>753</ele>
        <time>2022-08-21T07:04:05Z</time>
      </trkpt>
      <trkpt lat="43.06535" lon="0.13163">
        <ele>753.2</ele>
        <time>2022-08-21T07:04:07Z</time>
      </trkpt>
      <trkpt lat="43.06529" lon="0.13154">
        <ele>753.4</ele>
        <time>2022-08-21T07:04:12Z</time>
      </trkpt>
      <trkpt lat="43.06527" lon="0.1315">
        <ele>753.4</ele>
        <time>2022-08-21T07:04:13Z</time>
      </trkpt>
      <trkpt lat="43.06522" lon="0.13141">
        <ele>754.2</ele>
        <time>2022-08-21T07:04:18Z</time>
      </trkpt>
      <trkpt lat="43.0652" lon="0.13136">
        <ele>754.8</ele>
        <time>2022-08-21T07:04:21Z</time>
      </trkpt>
      <trkpt lat="43.06514" lon="0.13125">
        <ele>755.4</ele>
        <time>2022-08-21T07:04:26Z</time>
      </trkpt>
      <trkpt lat="43.06512" lon="0.13123">
        <ele>755.4</ele>
        <time>2022-08-21T07:04:28Z</time>
      </trkpt>
      <trkpt lat="43.06505" lon="0.13111">
        <ele>756.4</ele>
        <time>2022-08-21T07:04:34Z</time>
      </trkpt>
      <trkpt lat="43.06497" lon="0.13098">
        <ele>757</ele>
        <time>2022-08-21T07:04:41Z</time>
      </trkpt>
      <trkpt lat="43.06495" lon="0.13094">
        <ele>757.2</ele>
        <time>2022-08-21T07:04:43Z</time>
      </trkpt>
      <trkpt lat="43.06492" lon="0.1309">
        <ele>757.6</ele>
        <time>2022-08-21T07:04:45Z</time>
      </trkpt>
      <trkpt lat="43.0649" lon="0.13085">
        <ele>757.8</ele>
        <time>2022-08-21T07:04:48Z</time>
      </trkpt>
      <trkpt lat="43.06484" lon="0.13078">
        <ele>758.6</ele>
        <time>2022-08-21T07:04:54Z</time>
      </trkpt>
      <trkpt lat="43.06482" lon="0.13077">
        <ele>759</ele>
        <time>2022-08-21T07:04:56Z</time>
      </trkpt>
      <trkpt lat="43.06474" lon="0.13068">
        <ele>759.6</ele>
        <time>2022-08-21T07:05:03Z</time>
      </trkpt>
      <trkpt lat="43.06474" lon="0.13069">
        <ele>759.6</ele>
        <time>2022-08-21T07:05:04Z</time>
      </trkpt>
      <trkpt lat="43.06465" lon="0.1306">
        <ele>761</ele>
        <time>2022-08-21T07:05:11Z</time>
      </trkpt>
      <trkpt lat="43.06464" lon="0.1306">
        <ele>761</ele>
        <time>2022-08-21T07:05:12Z</time>
      </trkpt>
      <trkpt lat="43.06463" lon="0.13059">
        <ele>761.2</ele>
        <time>2022-08-21T07:05:13Z</time>
      </trkpt>
      <trkpt lat="43.06457" lon="0.13055">
        <ele>762</ele>
        <time>2022-08-21T07:05:19Z</time>
      </trkpt>
      <trkpt lat="43.06452" lon="0.13054">
        <ele>762.4</ele>
        <time>2022-08-21T07:05:23Z</time>
      </trkpt>
      <trkpt lat="43.06451" lon="0.13054">
        <ele>762.6</ele>
        <time>2022-08-21T07:05:24Z</time>
      </trkpt>
      <trkpt lat="43.06447" lon="0.13053">
        <ele>763</ele>
        <time>2022-08-21T07:05:27Z</time>
      </trkpt>
      <trkpt lat="43.06446" lon="0.13054">
        <ele>763.2</ele>
        <time>2022-08-21T07:05:28Z</time>
      </trkpt>
      <trkpt lat="43.06435" lon="0.13059">
        <ele>764</ele>
        <time>2022-08-21T07:05:35Z</time>
      </trkpt>
      <trkpt lat="43.06434" lon="0.1306">
        <ele>764</ele>
        <time>2022-08-21T07:05:36Z</time>
      </trkpt>
      <trkpt lat="43.06425" lon="0.13064">
        <ele>764.4</ele>
        <time>2022-08-21T07:05:41Z</time>
      </trkpt>
      <trkpt lat="43.06417" lon="0.13071">
        <ele>765.2</ele>
        <time>2022-08-21T07:05:47Z</time>
      </trkpt>
      <trkpt lat="43.06409" lon="0.13079">
        <ele>765.8</ele>
        <time>2022-08-21T07:05:54Z</time>
      </trkpt>
      <trkpt lat="43.06404" lon="0.13081">
        <ele>766.2</ele>
        <time>2022-08-21T07:05:58Z</time>
      </trkpt>
      <trkpt lat="43.06403" lon="0.13082">
        <ele>766.4</ele>
        <time>2022-08-21T07:05:59Z</time>
      </trkpt>
      <trkpt lat="43.06403" lon="0.13082">
        <ele>766.8</ele>
        <time>2022-08-21T07:06:00Z</time>
      </trkpt>
      <trkpt lat="43.064" lon="0.13083">
        <ele>767.2</ele>
        <time>2022-08-21T07:06:04Z</time>
      </trkpt>
      <trkpt lat="43.06399" lon="0.13084">
        <ele>767.2</ele>
        <time>2022-08-21T07:06:05Z</time>
      </trkpt>
      <trkpt lat="43.06396" lon="0.13087">
        <ele>767.6</ele>
        <time>2022-08-21T07:06:08Z</time>
      </trkpt>
      <trkpt lat="43.06393" lon="0.13091">
        <ele>767.8</ele>
        <time>2022-08-21T07:06:11Z</time>
      </trkpt>
      <trkpt lat="43.06387" lon="0.13094">
        <ele>768.2</ele>
        <time>2022-08-21T07:06:15Z</time>
      </trkpt>
      <trkpt lat="43.06383" lon="0.13096">
        <ele>768.6</ele>
        <time>2022-08-21T07:06:18Z</time>
      </trkpt>
      <trkpt lat="43.06372" lon="0.1311">
        <ele>769.2</ele>
        <time>2022-08-21T07:06:25Z</time>
      </trkpt>
      <trkpt lat="43.06372" lon="0.13112">
        <ele>769.4</ele>
        <time>2022-08-21T07:06:26Z</time>
      </trkpt>
      <trkpt lat="43.0637" lon="0.13115">
        <ele>769.4</ele>
        <time>2022-08-21T07:06:27Z</time>
      </trkpt>
      <trkpt lat="43.06362" lon="0.13122">
        <ele>770.4</ele>
        <time>2022-08-21T07:06:32Z</time>
      </trkpt>
      <trkpt lat="43.06361" lon="0.13122">
        <ele>770.4</ele>
        <time>2022-08-21T07:06:33Z</time>
      </trkpt>
      <trkpt lat="43.06349" lon="0.13133">
        <ele>771.2</ele>
        <time>2022-08-21T07:06:39Z</time>
      </trkpt>
      <trkpt lat="43.06346" lon="0.13133">
        <ele>771.4</ele>
        <time>2022-08-21T07:06:41Z</time>
      </trkpt>
      <trkpt lat="43.06343" lon="0.13134">
        <ele>771.6</ele>
        <time>2022-08-21T07:06:43Z</time>
      </trkpt>
      <trkpt lat="43.06337" lon="0.13138">
        <ele>772.2</ele>
        <time>2022-08-21T07:06:47Z</time>
      </trkpt>
      <trkpt lat="43.0633" lon="0.13142">
        <ele>772.6</ele>
        <time>2022-08-21T07:06:52Z</time>
      </trkpt>
      <trkpt lat="43.06324" lon="0.13146">
        <ele>773</ele>
        <time>2022-08-21T07:06:56Z</time>
      </trkpt>
      <trkpt lat="43.06316" lon="0.1315">
        <ele>773.2</ele>
        <time>2022-08-21T07:07:02Z</time>
      </trkpt>
      <trkpt lat="43.06307" lon="0.13157">
        <ele>773.8</ele>
        <time>2022-08-21T07:07:09Z</time>
      </trkpt>
      <trkpt lat="43.06298" lon="0.13159">
        <ele>774</ele>
        <time>2022-08-21T07:07:17Z</time>
      </trkpt>
      <trkpt lat="43.06297" lon="0.13161">
        <ele>774</ele>
        <time>2022-08-21T07:07:18Z</time>
      </trkpt>
      <trkpt lat="43.06295" lon="0.13161">
        <ele>774</ele>
        <time>2022-08-21T07:07:19Z</time>
      </trkpt>
      <trkpt lat="43.06292" lon="0.13162">
        <ele>774.4</ele>
        <time>2022-08-21T07:07:22Z</time>
      </trkpt>
      <trkpt lat="43.06291" lon="0.13163">
        <ele>774.4</ele>
        <time>2022-08-21T07:07:23Z</time>
      </trkpt>
      <trkpt lat="43.06288" lon="0.13165">
        <ele>774.6</ele>
        <time>2022-08-21T07:07:25Z</time>
      </trkpt>
      <trkpt lat="43.06281" lon="0.13167">
        <ele>775.2</ele>
        <time>2022-08-21T07:07:29Z</time>
      </trkpt>
      <trkpt lat="43.06278" lon="0.13169">
        <ele>775.6</ele>
        <time>2022-08-21T07:07:31Z</time>
      </trkpt>
      <trkpt lat="43.06276" lon="0.1317">
        <ele>775.8</ele>
        <time>2022-08-21T07:07:32Z</time>
      </trkpt>
      <trkpt lat="43.06265" lon="0.13178">
        <ele>776.2</ele>
        <time>2022-08-21T07:07:39Z</time>
      </trkpt>
      <trkpt lat="43.06263" lon="0.1318">
        <ele>776.4</ele>
        <time>2022-08-21T07:07:41Z</time>
      </trkpt>
      <trkpt lat="43.06261" lon="0.13183">
        <ele>776.8</ele>
        <time>2022-08-21T07:07:43Z</time>
      </trkpt>
      <trkpt lat="43.06258" lon="0.13184">
        <ele>777</ele>
        <time>2022-08-21T07:07:45Z</time>
      </trkpt>
      <trkpt lat="43.06252" lon="0.13186">
        <ele>777.2</ele>
        <time>2022-08-21T07:07:48Z</time>
      </trkpt>
      <trkpt lat="43.06249" lon="0.13191">
        <ele>777.2</ele>
        <time>2022-08-21T07:07:51Z</time>
      </trkpt>
      <trkpt lat="43.06247" lon="0.13191">
        <ele>777.2</ele>
        <time>2022-08-21T07:07:52Z</time>
      </trkpt>
      <trkpt lat="43.06243" lon="0.1319">
        <ele>777.4</ele>
        <time>2022-08-21T07:07:54Z</time>
      </trkpt>
      <trkpt lat="43.0624" lon="0.13192">
        <ele>777.6</ele>
        <time>2022-08-21T07:07:57Z</time>
      </trkpt>
      <trkpt lat="43.06239" lon="0.13193">
        <ele>777.6</ele>
        <time>2022-08-21T07:07:58Z</time>
      </trkpt>
      <trkpt lat="43.06235" lon="0.13199">
        <ele>777.8</ele>
        <time>2022-08-21T07:08:02Z</time>
      </trkpt>
      <trkpt lat="43.06228" lon="0.13214">
        <ele>777.6</ele>
        <time>2022-08-21T07:08:06Z</time>
      </trkpt>
      <trkpt lat="43.06226" lon="0.13223">
        <ele>777.2</ele>
        <time>2022-08-21T07:08:10Z</time>
      </trkpt>
      <trkpt lat="43.06225" lon="0.1323">
        <ele>777</ele>
        <time>2022-08-21T07:08:15Z</time>
      </trkpt>
      <trkpt lat="43.06224" lon="0.13231">
        <ele>777</ele>
        <time>2022-08-21T07:08:16Z</time>
      </trkpt>
      <trkpt lat="43.0622" lon="0.13237">
        <ele>777.4</ele>
        <time>2022-08-21T07:08:20Z</time>
      </trkpt>
      <trkpt lat="43.0622" lon="0.1324">
        <ele>777.6</ele>
        <time>2022-08-21T07:08:22Z</time>
      </trkpt>
      <trkpt lat="43.06219" lon="0.13242">
        <ele>777.8</ele>
        <time>2022-08-21T07:08:23Z</time>
      </trkpt>
      <trkpt lat="43.06208" lon="0.13253">
        <ele>778.4</ele>
        <time>2022-08-21T07:08:29Z</time>
      </trkpt>
      <trkpt lat="43.06207" lon="0.13256">
        <ele>778.6</ele>
        <time>2022-08-21T07:08:30Z</time>
      </trkpt>
      <trkpt lat="43.06207" lon="0.13258">
        <ele>778.8</ele>
        <time>2022-08-21T07:08:32Z</time>
      </trkpt>
      <trkpt lat="43.06202" lon="0.13264">
        <ele>779.2</ele>
        <time>2022-08-21T07:08:37Z</time>
      </trkpt>
      <trkpt lat="43.06197" lon="0.13273">
        <ele>779.2</ele>
        <time>2022-08-21T07:08:42Z</time>
      </trkpt>
      <trkpt lat="43.06194" lon="0.13275">
        <ele>779</ele>
        <time>2022-08-21T07:08:44Z</time>
      </trkpt>
      <trkpt lat="43.06189" lon="0.13275">
        <ele>779</ele>
        <time>2022-08-21T07:08:47Z</time>
      </trkpt>
      <trkpt lat="43.06185" lon="0.13274">
        <ele>779.2</ele>
        <time>2022-08-21T07:08:50Z</time>
      </trkpt>
      <trkpt lat="43.06176" lon="0.13272">
        <ele>779.4</ele>
        <time>2022-08-21T07:08:55Z</time>
      </trkpt>
      <trkpt lat="43.06174" lon="0.13272">
        <ele>779.6</ele>
        <time>2022-08-21T07:08:57Z</time>
      </trkpt>
      <trkpt lat="43.06172" lon="0.13274">
        <ele>779.8</ele>
        <time>2022-08-21T07:08:58Z</time>
      </trkpt>
      <trkpt lat="43.0617" lon="0.13275">
        <ele>779.8</ele>
        <time>2022-08-21T07:08:59Z</time>
      </trkpt>
      <trkpt lat="43.06168" lon="0.13277">
        <ele>780</ele>
        <time>2022-08-21T07:09:00Z</time>
      </trkpt>
      <trkpt lat="43.06157" lon="0.13284">
        <ele>780.6</ele>
        <time>2022-08-21T07:09:05Z</time>
      </trkpt>
      <trkpt lat="43.06156" lon="0.13284">
        <ele>780.8</ele>
        <time>2022-08-21T07:09:06Z</time>
      </trkpt>
      <trkpt lat="43.06147" lon="0.13286">
        <ele>781.4</ele>
        <time>2022-08-21T07:09:12Z</time>
      </trkpt>
      <trkpt lat="43.06146" lon="0.13285">
        <ele>781.6</ele>
        <time>2022-08-21T07:09:13Z</time>
      </trkpt>
      <trkpt lat="43.06143" lon="0.13285">
        <ele>781.8</ele>
        <time>2022-08-21T07:09:17Z</time>
      </trkpt>
      <trkpt lat="43.06141" lon="0.13283">
        <ele>782</ele>
        <time>2022-08-21T07:09:19Z</time>
      </trkpt>
      <trkpt lat="43.06136" lon="0.13283">
        <ele>782.4</ele>
        <time>2022-08-21T07:09:23Z</time>
      </trkpt>
      <trkpt lat="43.06131" lon="0.13284">
        <ele>782.8</ele>
        <time>2022-08-21T07:09:28Z</time>
      </trkpt>
      <trkpt lat="43.0613" lon="0.13284">
        <ele>782.8</ele>
        <time>2022-08-21T07:09:29Z</time>
      </trkpt>
      <trkpt lat="43.0613" lon="0.13285">
        <ele>783</ele>
        <time>2022-08-21T07:09:30Z</time>
      </trkpt>
      <trkpt lat="43.0613" lon="0.13282">
        <ele>783.2</ele>
        <time>2022-08-21T07:09:41Z</time>
      </trkpt>
      <trkpt lat="43.06135" lon="0.13278">
        <ele>783</ele>
        <time>2022-08-21T07:09:47Z</time>
      </trkpt>
      <trkpt lat="43.06136" lon="0.13277">
        <ele>783</ele>
        <time>2022-08-21T07:09:48Z</time>
      </trkpt>
      <trkpt lat="43.06139" lon="0.1327">
        <ele>782.4</ele>
        <time>2022-08-21T07:09:52Z</time>
      </trkpt>
      <trkpt lat="43.06137" lon="0.13267">
        <ele>782.4</ele>
        <time>2022-08-21T07:09:54Z</time>
      </trkpt>
      <trkpt lat="43.06133" lon="0.1326">
        <ele>782.4</ele>
        <time>2022-08-21T07:09:58Z</time>
      </trkpt>
      <trkpt lat="43.0613" lon="0.13255">
        <ele>782.8</ele>
        <time>2022-08-21T07:10:01Z</time>
      </trkpt>
      <trkpt lat="43.06128" lon="0.13253">
        <ele>783.2</ele>
        <time>2022-08-21T07:10:03Z</time>
      </trkpt>
      <trkpt lat="43.06126" lon="0.13248">
        <ele>783.6</ele>
        <time>2022-08-21T07:10:06Z</time>
      </trkpt>
      <trkpt lat="43.06125" lon="0.13246">
        <ele>783.8</ele>
        <time>2022-08-21T07:10:07Z</time>
      </trkpt>
      <trkpt lat="43.06124" lon="0.13243">
        <ele>784.2</ele>
        <time>2022-08-21T07:10:09Z</time>
      </trkpt>
      <trkpt lat="43.06123" lon="0.13242">
        <ele>784.8</ele>
        <time>2022-08-21T07:10:10Z</time>
      </trkpt>
      <trkpt lat="43.06122" lon="0.13241">
        <ele>785</ele>
        <time>2022-08-21T07:10:11Z</time>
      </trkpt>
      <trkpt lat="43.0612" lon="0.13239">
        <ele>785.4</ele>
        <time>2022-08-21T07:10:13Z</time>
      </trkpt>
      <trkpt lat="43.06118" lon="0.13234">
        <ele>785.8</ele>
        <time>2022-08-21T07:10:18Z</time>
      </trkpt>
      <trkpt lat="43.06118" lon="0.13234">
        <ele>785.8</ele>
        <time>2022-08-21T07:10:19Z</time>
      </trkpt>
      <trkpt lat="43.06117" lon="0.13233">
        <ele>786.6</ele>
        <time>2022-08-21T07:10:24Z</time>
      </trkpt>
      <trkpt lat="43.06116" lon="0.13232">
        <ele>786.8</ele>
        <time>2022-08-21T07:10:27Z</time>
      </trkpt>
      <trkpt lat="43.06114" lon="0.13229">
        <ele>787</ele>
        <time>2022-08-21T07:10:30Z</time>
      </trkpt>
      <trkpt lat="43.06112" lon="0.13227">
        <ele>787</ele>
        <time>2022-08-21T07:10:32Z</time>
      </trkpt>
      <trkpt lat="43.06111" lon="0.13227">
        <ele>787</ele>
        <time>2022-08-21T07:10:33Z</time>
      </trkpt>
      <trkpt lat="43.06108" lon="0.13225">
        <ele>787.8</ele>
        <time>2022-08-21T07:10:37Z</time>
      </trkpt>
      <trkpt lat="43.06107" lon="0.13225">
        <ele>788.4</ele>
        <time>2022-08-21T07:10:44Z</time>
      </trkpt>
      <trkpt lat="43.06106" lon="0.13225">
        <ele>788.8</ele>
        <time>2022-08-21T07:10:53Z</time>
      </trkpt>
      <trkpt lat="43.06106" lon="0.13222">
        <ele>789.6</ele>
        <time>2022-08-21T07:11:34Z</time>
      </trkpt>
      <trkpt lat="43.06101" lon="0.13219">
        <ele>790.6</ele>
        <time>2022-08-21T07:12:05Z</time>
      </trkpt>
      <trkpt lat="43.06095" lon="0.13222">
        <ele>791.6</ele>
        <time>2022-08-21T07:12:19Z</time>
      </trkpt>
      <trkpt lat="43.06094" lon="0.13222">
        <ele>791.8</ele>
        <time>2022-08-21T07:12:20Z</time>
      </trkpt>
      <trkpt lat="43.06093" lon="0.13221">
        <ele>792.2</ele>
        <time>2022-08-21T07:12:25Z</time>
      </trkpt>
      <trkpt lat="43.06089" lon="0.13222">
        <ele>792.6</ele>
        <time>2022-08-21T07:12:33Z</time>
      </trkpt>
      <trkpt lat="43.06087" lon="0.13222">
        <ele>793</ele>
        <time>2022-08-21T07:12:37Z</time>
      </trkpt>
      <trkpt lat="43.06086" lon="0.13223">
        <ele>793.2</ele>
        <time>2022-08-21T07:12:39Z</time>
      </trkpt>
      <trkpt lat="43.06082" lon="0.13224">
        <ele>793.4</ele>
        <time>2022-08-21T07:12:45Z</time>
      </trkpt>
      <trkpt lat="43.06079" lon="0.13226">
        <ele>794</ele>
        <time>2022-08-21T07:12:49Z</time>
      </trkpt>
      <trkpt lat="43.06077" lon="0.13228">
        <ele>794.6</ele>
        <time>2022-08-21T07:12:52Z</time>
      </trkpt>
      <trkpt lat="43.06074" lon="0.13224">
        <ele>795</ele>
        <time>2022-08-21T07:12:58Z</time>
      </trkpt>
      <trkpt lat="43.06074" lon="0.13224">
        <ele>795.2</ele>
        <time>2022-08-21T07:12:59Z</time>
      </trkpt>
      <trkpt lat="43.0607" lon="0.13221">
        <ele>795.8</ele>
        <time>2022-08-21T07:13:07Z</time>
      </trkpt>
      <trkpt lat="43.0607" lon="0.13221">
        <ele>796</ele>
        <time>2022-08-21T07:13:10Z</time>
      </trkpt>
      <trkpt lat="43.06069" lon="0.13221">
        <ele>796</ele>
        <time>2022-08-21T07:13:19Z</time>
      </trkpt>
      <trkpt lat="43.06066" lon="0.1322">
        <ele>796.2</ele>
        <time>2022-08-21T07:13:26Z</time>
      </trkpt>
      <trkpt lat="43.06064" lon="0.13218">
        <ele>802.6</ele>
        <time>2022-08-21T07:13:28Z</time>
      </trkpt>
      <trkpt lat="43.06061" lon="0.13215">
        <ele>796</ele>
        <time>2022-08-21T07:13:32Z</time>
      </trkpt>
      <trkpt lat="43.06058" lon="0.13217">
        <ele>795.6</ele>
        <time>2022-08-21T07:14:16Z</time>
      </trkpt>
      <trkpt lat="43.06059" lon="0.13221">
        <ele>795.8</ele>
        <time>2022-08-21T07:14:18Z</time>
      </trkpt>
      <trkpt lat="43.06056" lon="0.13237">
        <ele>796.2</ele>
        <time>2022-08-21T07:14:26Z</time>
      </trkpt>
      <trkpt lat="43.06048" lon="0.13245">
        <ele>797.2</ele>
        <time>2022-08-21T07:14:32Z</time>
      </trkpt>
      <trkpt lat="43.06045" lon="0.1325">
        <ele>797.8</ele>
        <time>2022-08-21T07:14:35Z</time>
      </trkpt>
      <trkpt lat="43.06038" lon="0.13255">
        <ele>798.2</ele>
        <time>2022-08-21T07:14:40Z</time>
      </trkpt>
      <trkpt lat="43.06037" lon="0.13255">
        <ele>798.6</ele>
        <time>2022-08-21T07:14:41Z</time>
      </trkpt>
      <trkpt lat="43.06034" lon="0.13257">
        <ele>798.6</ele>
        <time>2022-08-21T07:14:43Z</time>
      </trkpt>
      <trkpt lat="43.06032" lon="0.13258">
        <ele>798.8</ele>
        <time>2022-08-21T07:14:44Z</time>
      </trkpt>
      <trkpt lat="43.06029" lon="0.13263">
        <ele>799.4</ele>
        <time>2022-08-21T07:14:47Z</time>
      </trkpt>
      <trkpt lat="43.06025" lon="0.13267">
        <ele>800</ele>
        <time>2022-08-21T07:14:50Z</time>
      </trkpt>
      <trkpt lat="43.0602" lon="0.13273">
        <ele>800.8</ele>
        <time>2022-08-21T07:14:54Z</time>
      </trkpt>
      <trkpt lat="43.06018" lon="0.13276">
        <ele>801.4</ele>
        <time>2022-08-21T07:14:56Z</time>
      </trkpt>
      <trkpt lat="43.06017" lon="0.1328">
        <ele>801.6</ele>
        <time>2022-08-21T07:14:59Z</time>
      </trkpt>
      <trkpt lat="43.06017" lon="0.13281">
        <ele>802</ele>
        <time>2022-08-21T07:15:00Z</time>
      </trkpt>
      <trkpt lat="43.06017" lon="0.13282">
        <ele>802</ele>
        <time>2022-08-21T07:15:01Z</time>
      </trkpt>
      <trkpt lat="43.06018" lon="0.13284">
        <ele>802.4</ele>
        <time>2022-08-21T07:15:08Z</time>
      </trkpt>
      <trkpt lat="43.06019" lon="0.13283">
        <ele>802.2</ele>
        <time>2022-08-21T07:15:13Z</time>
      </trkpt>
      <trkpt lat="43.0602" lon="0.13278">
        <ele>802.2</ele>
        <time>2022-08-21T07:15:19Z</time>
      </trkpt>
      <trkpt lat="43.06022" lon="0.13276">
        <ele>802</ele>
        <time>2022-08-21T07:15:21Z</time>
      </trkpt>
      <trkpt lat="43.06028" lon="0.1327">
        <ele>801.8</ele>
        <time>2022-08-21T07:15:26Z</time>
      </trkpt>
      <trkpt lat="43.06037" lon="0.13261">
        <ele>800.8</ele>
        <time>2022-08-21T07:15:32Z</time>
      </trkpt>
      <trkpt lat="43.06042" lon="0.13255">
        <ele>800.4</ele>
        <time>2022-08-21T07:15:34Z</time>
      </trkpt>
      <trkpt lat="43.0605" lon="0.13246">
        <ele>799.8</ele>
        <time>2022-08-21T07:15:37Z</time>
      </trkpt>
      <trkpt lat="43.06056" lon="0.13241">
        <ele>799.2</ele>
        <time>2022-08-21T07:15:40Z</time>
      </trkpt>
      <trkpt lat="43.0606" lon="0.13232">
        <ele>798.4</ele>
        <time>2022-08-21T07:15:43Z</time>
      </trkpt>
      <trkpt lat="43.06062" lon="0.13226">
        <ele>797.6</ele>
        <time>2022-08-21T07:15:46Z</time>
      </trkpt>
      <trkpt lat="43.06064" lon="0.13223">
        <ele>797.2</ele>
        <time>2022-08-21T07:15:47Z</time>
      </trkpt>
      <trkpt lat="43.06065" lon="0.1322">
        <ele>796.8</ele>
        <time>2022-08-21T07:15:49Z</time>
      </trkpt>
      <trkpt lat="43.06063" lon="0.13218">
        <ele>796.4</ele>
        <time>2022-08-21T07:15:51Z</time>
      </trkpt>
      <trkpt lat="43.06061" lon="0.13217">
        <ele>796.2</ele>
        <time>2022-08-21T07:15:53Z</time>
      </trkpt>
      <trkpt lat="43.06059" lon="0.13216">
        <ele>796</ele>
        <time>2022-08-21T07:15:55Z</time>
      </trkpt>
      <trkpt lat="43.06054" lon="0.13212">
        <ele>795.8</ele>
        <time>2022-08-21T07:15:58Z</time>
      </trkpt>
      <trkpt lat="43.06045" lon="0.13205">
        <ele>794.8</ele>
        <time>2022-08-21T07:16:04Z</time>
      </trkpt>
      <trkpt lat="43.06044" lon="0.13205">
        <ele>794.6</ele>
        <time>2022-08-21T07:16:06Z</time>
      </trkpt>
      <trkpt lat="43.06037" lon="0.132">
        <ele>794.4</ele>
        <time>2022-08-21T07:16:32Z</time>
      </trkpt>
      <trkpt lat="43.06027" lon="0.13195">
        <ele>794</ele>
        <time>2022-08-21T07:16:37Z</time>
      </trkpt>
      <trkpt lat="43.06021" lon="0.13192">
        <ele>793.8</ele>
        <time>2022-08-21T07:16:40Z</time>
      </trkpt>
      <trkpt lat="43.06016" lon="0.13191">
        <ele>793.4</ele>
        <time>2022-08-21T07:16:42Z</time>
      </trkpt>
      <trkpt lat="43.06006" lon="0.1318">
        <ele>792.6</ele>
        <time>2022-08-21T07:16:47Z</time>
      </trkpt>
      <trkpt lat="43.06003" lon="0.13177">
        <ele>792.4</ele>
        <time>2022-08-21T07:16:48Z</time>
      </trkpt>
      <trkpt lat="43.05997" lon="0.13166">
        <ele>791.8</ele>
        <time>2022-08-21T07:16:51Z</time>
      </trkpt>
      <trkpt lat="43.05993" lon="0.13146">
        <ele>791.4</ele>
        <time>2022-08-21T07:16:55Z</time>
      </trkpt>
      <trkpt lat="43.0599" lon="0.13138">
        <ele>791</ele>
        <time>2022-08-21T07:16:57Z</time>
      </trkpt>
      <trkpt lat="43.05987" lon="0.13128">
        <ele>790.2</ele>
        <time>2022-08-21T07:17:00Z</time>
      </trkpt>
      <trkpt lat="43.05981" lon="0.1311">
        <ele>789</ele>
        <time>2022-08-21T07:17:04Z</time>
      </trkpt>
      <trkpt lat="43.0598" lon="0.13094">
        <ele>787.8</ele>
        <time>2022-08-21T07:17:09Z</time>
      </trkpt>
      <trkpt lat="43.05979" lon="0.13092">
        <ele>787.8</ele>
        <time>2022-08-21T07:17:10Z</time>
      </trkpt>
      <trkpt lat="43.05978" lon="0.1309">
        <ele>787.6</ele>
        <time>2022-08-21T07:17:11Z</time>
      </trkpt>
      <trkpt lat="43.05974" lon="0.13084">
        <ele>786.8</ele>
        <time>2022-08-21T07:17:14Z</time>
      </trkpt>
      <trkpt lat="43.05966" lon="0.13061">
        <ele>785.8</ele>
        <time>2022-08-21T07:17:21Z</time>
      </trkpt>
      <trkpt lat="43.05961" lon="0.13047">
        <ele>784.6</ele>
        <time>2022-08-21T07:17:26Z</time>
      </trkpt>
      <trkpt lat="43.05958" lon="0.1304">
        <ele>784</ele>
        <time>2022-08-21T07:17:29Z</time>
      </trkpt>
      <trkpt lat="43.05955" lon="0.13034">
        <ele>783.6</ele>
        <time>2022-08-21T07:17:32Z</time>
      </trkpt>
      <trkpt lat="43.0595" lon="0.13023">
        <ele>783.2</ele>
        <time>2022-08-21T07:17:36Z</time>
      </trkpt>
      <trkpt lat="43.05944" lon="0.1301">
        <ele>782.8</ele>
        <time>2022-08-21T07:17:42Z</time>
      </trkpt>
      <trkpt lat="43.05943" lon="0.13007">
        <ele>782.6</ele>
        <time>2022-08-21T07:17:43Z</time>
      </trkpt>
      <trkpt lat="43.05933" lon="0.1299">
        <ele>782.2</ele>
        <time>2022-08-21T07:17:49Z</time>
      </trkpt>
      <trkpt lat="43.05923" lon="0.12976">
        <ele>781.6</ele>
        <time>2022-08-21T07:17:54Z</time>
      </trkpt>
      <trkpt lat="43.05921" lon="0.12973">
        <ele>781.4</ele>
        <time>2022-08-21T07:17:55Z</time>
      </trkpt>
      <trkpt lat="43.05915" lon="0.12958">
        <ele>780.6</ele>
        <time>2022-08-21T07:18:00Z</time>
      </trkpt>
      <trkpt lat="43.05914" lon="0.12956">
        <ele>779.8</ele>
        <time>2022-08-21T07:18:02Z</time>
      </trkpt>
      <trkpt lat="43.05914" lon="0.12955">
        <ele>779.6</ele>
        <time>2022-08-21T07:18:05Z</time>
      </trkpt>
      <trkpt lat="43.05915" lon="0.12955">
        <ele>779.4</ele>
        <time>2022-08-21T07:18:07Z</time>
      </trkpt>
      <trkpt lat="43.05914" lon="0.12955">
        <ele>778.8</ele>
        <time>2022-08-21T07:18:35Z</time>
      </trkpt>
      <trkpt lat="43.05913" lon="0.12955">
        <ele>778.6</ele>
        <time>2022-08-21T07:18:36Z</time>
      </trkpt>
      <trkpt lat="43.0591" lon="0.12954">
        <ele>778.6</ele>
        <time>2022-08-21T07:18:38Z</time>
      </trkpt>
      <trkpt lat="43.0591" lon="0.12954">
        <ele>778.2</ele>
        <time>2022-08-21T07:19:47Z</time>
      </trkpt>
      <trkpt lat="43.0591" lon="0.12951">
        <ele>778.2</ele>
        <time>2022-08-21T07:20:39Z</time>
      </trkpt>
      <trkpt lat="43.05904" lon="0.1295">
        <ele>778.2</ele>
        <time>2022-08-21T07:20:43Z</time>
      </trkpt>
      <trkpt lat="43.05887" lon="0.12952">
        <ele>777.6</ele>
        <time>2022-08-21T07:20:49Z</time>
      </trkpt>
      <trkpt lat="43.05875" lon="0.12955">
        <ele>776.6</ele>
        <time>2022-08-21T07:20:55Z</time>
      </trkpt>
      <trkpt lat="43.05871" lon="0.12958">
        <ele>775.4</ele>
        <time>2022-08-21T07:21:01Z</time>
      </trkpt>
      <trkpt lat="43.05866" lon="0.12961">
        <ele>775</ele>
        <time>2022-08-21T07:21:08Z</time>
      </trkpt>
      <trkpt lat="43.05861" lon="0.12966">
        <ele>774.6</ele>
        <time>2022-08-21T07:21:12Z</time>
      </trkpt>
      <trkpt lat="43.05858" lon="0.1297">
        <ele>774.4</ele>
        <time>2022-08-21T07:21:15Z</time>
      </trkpt>
      <trkpt lat="43.05855" lon="0.12973">
        <ele>774</ele>
        <time>2022-08-21T07:21:18Z</time>
      </trkpt>
      <trkpt lat="43.05852" lon="0.12975">
        <ele>773.8</ele>
        <time>2022-08-21T07:21:21Z</time>
      </trkpt>
      <trkpt lat="43.05852" lon="0.12976">
        <ele>773.8</ele>
        <time>2022-08-21T07:21:22Z</time>
      </trkpt>
      <trkpt lat="43.0585" lon="0.12979">
        <ele>773.4</ele>
        <time>2022-08-21T07:21:25Z</time>
      </trkpt>
      <trkpt lat="43.0585" lon="0.1298">
        <ele>773.4</ele>
        <time>2022-08-21T07:21:28Z</time>
      </trkpt>
      <trkpt lat="43.05846" lon="0.12986">
        <ele>773.2</ele>
        <time>2022-08-21T07:21:36Z</time>
      </trkpt>
      <trkpt lat="43.05842" lon="0.12991">
        <ele>773.2</ele>
        <time>2022-08-21T07:21:43Z</time>
      </trkpt>
      <trkpt lat="43.0584" lon="0.12994">
        <ele>772.6</ele>
        <time>2022-08-21T07:21:48Z</time>
      </trkpt>
      <trkpt lat="43.05839" lon="0.12995">
        <ele>772.6</ele>
        <time>2022-08-21T07:21:49Z</time>
      </trkpt>
      <trkpt lat="43.05833" lon="0.13006">
        <ele>772.6</ele>
        <time>2022-08-21T07:21:57Z</time>
      </trkpt>
      <trkpt lat="43.05831" lon="0.13009">
        <ele>772.6</ele>
        <time>2022-08-21T07:22:02Z</time>
      </trkpt>
      <trkpt lat="43.05828" lon="0.13015">
        <ele>772.2</ele>
        <time>2022-08-21T07:22:08Z</time>
      </trkpt>
      <trkpt lat="43.05822" lon="0.13025">
        <ele>771.8</ele>
        <time>2022-08-21T07:22:14Z</time>
      </trkpt>
      <trkpt lat="43.0582" lon="0.1303">
        <ele>771.6</ele>
        <time>2022-08-21T07:22:18Z</time>
      </trkpt>
      <trkpt lat="43.05814" lon="0.1304">
        <ele>771.6</ele>
        <time>2022-08-21T07:22:24Z</time>
      </trkpt>
      <trkpt lat="43.05808" lon="0.13054">
        <ele>771.2</ele>
        <time>2022-08-21T07:22:31Z</time>
      </trkpt>
      <trkpt lat="43.05808" lon="0.13055">
        <ele>771.2</ele>
        <time>2022-08-21T07:22:36Z</time>
      </trkpt>
      <trkpt lat="43.05805" lon="0.1306">
        <ele>771.2</ele>
        <time>2022-08-21T07:22:46Z</time>
      </trkpt>
      <trkpt lat="43.05799" lon="0.13073">
        <ele>771.2</ele>
        <time>2022-08-21T07:22:53Z</time>
      </trkpt>
      <trkpt lat="43.05797" lon="0.13076">
        <ele>771.2</ele>
        <time>2022-08-21T07:22:55Z</time>
      </trkpt>
      <trkpt lat="43.05795" lon="0.13082">
        <ele>771</ele>
        <time>2022-08-21T07:22:58Z</time>
      </trkpt>
      <trkpt lat="43.05786" lon="0.13104">
        <ele>771</ele>
        <time>2022-08-21T07:23:07Z</time>
      </trkpt>
      <trkpt lat="43.05777" lon="0.1313">
        <ele>771.4</ele>
        <time>2022-08-21T07:23:17Z</time>
      </trkpt>
      <trkpt lat="43.05772" lon="0.13147">
        <ele>771.6</ele>
        <time>2022-08-21T07:23:24Z</time>
      </trkpt>
      <trkpt lat="43.05766" lon="0.13162">
        <ele>772</ele>
        <time>2022-08-21T07:23:31Z</time>
      </trkpt>
      <trkpt lat="43.05765" lon="0.13164">
        <ele>772</ele>
        <time>2022-08-21T07:23:32Z</time>
      </trkpt>
      <trkpt lat="43.05764" lon="0.13169">
        <ele>772</ele>
        <time>2022-08-21T07:23:34Z</time>
      </trkpt>
      <trkpt lat="43.05763" lon="0.13174">
        <ele>772.2</ele>
        <time>2022-08-21T07:23:36Z</time>
      </trkpt>
      <trkpt lat="43.05758" lon="0.13195">
        <ele>772</ele>
        <time>2022-08-21T07:23:46Z</time>
      </trkpt>
      <trkpt lat="43.05755" lon="0.13203">
        <ele>772</ele>
        <time>2022-08-21T07:23:50Z</time>
      </trkpt>
      <trkpt lat="43.05755" lon="0.13208">
        <ele>772</ele>
        <time>2022-08-21T07:23:54Z</time>
      </trkpt>
      <trkpt lat="43.05753" lon="0.13216">
        <ele>772</ele>
        <time>2022-08-21T07:24:02Z</time>
      </trkpt>
      <trkpt lat="43.05752" lon="0.13218">
        <ele>772</ele>
        <time>2022-08-21T07:24:07Z</time>
      </trkpt>
      <trkpt lat="43.0575" lon="0.13227">
        <ele>771.8</ele>
        <time>2022-08-21T07:24:13Z</time>
      </trkpt>
      <trkpt lat="43.05743" lon="0.13246">
        <ele>771.6</ele>
        <time>2022-08-21T07:24:20Z</time>
      </trkpt>
      <trkpt lat="43.05738" lon="0.13258">
        <ele>771</ele>
        <time>2022-08-21T07:24:25Z</time>
      </trkpt>
      <trkpt lat="43.05737" lon="0.13263">
        <ele>770.8</ele>
        <time>2022-08-21T07:24:27Z</time>
      </trkpt>
      <trkpt lat="43.05729" lon="0.13281">
        <ele>770.2</ele>
        <time>2022-08-21T07:24:33Z</time>
      </trkpt>
      <trkpt lat="43.05727" lon="0.13285">
        <ele>770</ele>
        <time>2022-08-21T07:24:35Z</time>
      </trkpt>
      <trkpt lat="43.0572" lon="0.133">
        <ele>769.2</ele>
        <time>2022-08-21T07:24:40Z</time>
      </trkpt>
      <trkpt lat="43.05719" lon="0.13303">
        <ele>769</ele>
        <time>2022-08-21T07:24:41Z</time>
      </trkpt>
      <trkpt lat="43.05718" lon="0.13309">
        <ele>768.6</ele>
        <time>2022-08-21T07:24:43Z</time>
      </trkpt>
      <trkpt lat="43.05715" lon="0.13318">
        <ele>768.4</ele>
        <time>2022-08-21T07:24:46Z</time>
      </trkpt>
      <trkpt lat="43.05711" lon="0.13332">
        <ele>767.8</ele>
        <time>2022-08-21T07:24:50Z</time>
      </trkpt>
      <trkpt lat="43.0571" lon="0.13335">
        <ele>767.8</ele>
        <time>2022-08-21T07:24:52Z</time>
      </trkpt>
      <trkpt lat="43.05705" lon="0.13342">
        <ele>767.4</ele>
        <time>2022-08-21T07:24:56Z</time>
      </trkpt>
      <trkpt lat="43.05702" lon="0.13345">
        <ele>767</ele>
        <time>2022-08-21T07:24:58Z</time>
      </trkpt>
      <trkpt lat="43.05699" lon="0.13353">
        <ele>766.6</ele>
        <time>2022-08-21T07:25:01Z</time>
      </trkpt>
      <trkpt lat="43.05697" lon="0.13358">
        <ele>766.2</ele>
        <time>2022-08-21T07:25:03Z</time>
      </trkpt>
      <trkpt lat="43.05695" lon="0.13364">
        <ele>765.8</ele>
        <time>2022-08-21T07:25:06Z</time>
      </trkpt>
      <trkpt lat="43.05695" lon="0.13369">
        <ele>766</ele>
        <time>2022-08-21T07:25:09Z</time>
      </trkpt>
      <trkpt lat="43.05694" lon="0.13373">
        <ele>766</ele>
        <time>2022-08-21T07:25:15Z</time>
      </trkpt>
      <trkpt lat="43.05692" lon="0.13374">
        <ele>766</ele>
        <time>2022-08-21T07:25:16Z</time>
      </trkpt>
      <trkpt lat="43.05686" lon="0.13385">
        <ele>766.2</ele>
        <time>2022-08-21T07:25:22Z</time>
      </trkpt>
      <trkpt lat="43.05684" lon="0.13389">
        <ele>766.2</ele>
        <time>2022-08-21T07:25:24Z</time>
      </trkpt>
      <trkpt lat="43.05679" lon="0.13396">
        <ele>766.2</ele>
        <time>2022-08-21T07:25:27Z</time>
      </trkpt>
      <trkpt lat="43.05676" lon="0.13401">
        <ele>767.2</ele>
        <time>2022-08-21T07:25:30Z</time>
      </trkpt>
      <trkpt lat="43.05676" lon="0.13404">
        <ele>767.6</ele>
        <time>2022-08-21T07:25:32Z</time>
      </trkpt>
      <trkpt lat="43.05677" lon="0.13404">
        <ele>767.8</ele>
        <time>2022-08-21T07:25:33Z</time>
      </trkpt>
      <trkpt lat="43.05673" lon="0.13408">
        <ele>768</ele>
        <time>2022-08-21T07:25:39Z</time>
      </trkpt>
      <trkpt lat="43.0567" lon="0.13412">
        <ele>768.4</ele>
        <time>2022-08-21T07:25:46Z</time>
      </trkpt>
      <trkpt lat="43.05668" lon="0.13415">
        <ele>768.6</ele>
        <time>2022-08-21T07:25:53Z</time>
      </trkpt>
      <trkpt lat="43.05665" lon="0.13421">
        <ele>768.6</ele>
        <time>2022-08-21T07:25:56Z</time>
      </trkpt>
      <trkpt lat="43.05663" lon="0.13427">
        <ele>768.8</ele>
        <time>2022-08-21T07:25:59Z</time>
      </trkpt>
      <trkpt lat="43.05661" lon="0.13431">
        <ele>769</ele>
        <time>2022-08-21T07:26:01Z</time>
      </trkpt>
      <trkpt lat="43.05654" lon="0.13448">
        <ele>769.6</ele>
        <time>2022-08-21T07:26:08Z</time>
      </trkpt>
      <trkpt lat="43.05649" lon="0.13461">
        <ele>769.6</ele>
        <time>2022-08-21T07:26:15Z</time>
      </trkpt>
      <trkpt lat="43.05648" lon="0.13462">
        <ele>769.4</ele>
        <time>2022-08-21T07:26:20Z</time>
      </trkpt>
      <trkpt lat="43.05647" lon="0.13471">
        <ele>769</ele>
        <time>2022-08-21T07:26:32Z</time>
      </trkpt>
      <trkpt lat="43.05646" lon="0.13482">
        <ele>769</ele>
        <time>2022-08-21T07:26:37Z</time>
      </trkpt>
      <trkpt lat="43.05648" lon="0.13487">
        <ele>769</ele>
        <time>2022-08-21T07:26:40Z</time>
      </trkpt>
      <trkpt lat="43.0565" lon="0.13491">
        <ele>769.2</ele>
        <time>2022-08-21T07:26:42Z</time>
      </trkpt>
      <trkpt lat="43.0565" lon="0.13503">
        <ele>770.4</ele>
        <time>2022-08-21T07:26:46Z</time>
      </trkpt>
      <trkpt lat="43.0565" lon="0.1351">
        <ele>771</ele>
        <time>2022-08-21T07:26:48Z</time>
      </trkpt>
      <trkpt lat="43.0565" lon="0.13514">
        <ele>771.4</ele>
        <time>2022-08-21T07:26:49Z</time>
      </trkpt>
      <trkpt lat="43.05652" lon="0.13529">
        <ele>772.6</ele>
        <time>2022-08-21T07:26:54Z</time>
      </trkpt>
      <trkpt lat="43.05656" lon="0.1355">
        <ele>773.6</ele>
        <time>2022-08-21T07:27:02Z</time>
      </trkpt>
      <trkpt lat="43.05656" lon="0.13552">
        <ele>773.6</ele>
        <time>2022-08-21T07:27:03Z</time>
      </trkpt>
      <trkpt lat="43.05661" lon="0.1357">
        <ele>774.2</ele>
        <time>2022-08-21T07:27:10Z</time>
      </trkpt>
      <trkpt lat="43.05665" lon="0.13587">
        <ele>774.6</ele>
        <time>2022-08-21T07:27:17Z</time>
      </trkpt>
      <trkpt lat="43.05666" lon="0.1359">
        <ele>774.6</ele>
        <time>2022-08-21T07:27:18Z</time>
      </trkpt>
      <trkpt lat="43.05672" lon="0.13614">
        <ele>774.8</ele>
        <time>2022-08-21T07:27:25Z</time>
      </trkpt>
      <trkpt lat="43.05676" lon="0.13627">
        <ele>774.8</ele>
        <time>2022-08-21T07:27:29Z</time>
      </trkpt>
      <trkpt lat="43.05677" lon="0.1363">
        <ele>774.8</ele>
        <time>2022-08-21T07:27:30Z</time>
      </trkpt>
      <trkpt lat="43.05681" lon="0.13642">
        <ele>774.6</ele>
        <time>2022-08-21T07:27:35Z</time>
      </trkpt>
      <trkpt lat="43.05683" lon="0.13664">
        <ele>774.8</ele>
        <time>2022-08-21T07:27:42Z</time>
      </trkpt>
      <trkpt lat="43.05685" lon="0.13685">
        <ele>775.4</ele>
        <time>2022-08-21T07:27:48Z</time>
      </trkpt>
      <trkpt lat="43.05686" lon="0.13687">
        <ele>775.6</ele>
        <time>2022-08-21T07:27:49Z</time>
      </trkpt>
      <trkpt lat="43.05692" lon="0.137">
        <ele>776.4</ele>
        <time>2022-08-21T07:27:54Z</time>
      </trkpt>
      <trkpt lat="43.05694" lon="0.13703">
        <ele>776.6</ele>
        <time>2022-08-21T07:27:56Z</time>
      </trkpt>
      <trkpt lat="43.05708" lon="0.1372">
        <ele>777</ele>
        <time>2022-08-21T07:28:02Z</time>
      </trkpt>
      <trkpt lat="43.05714" lon="0.13728">
        <ele>777</ele>
        <time>2022-08-21T07:28:06Z</time>
      </trkpt>
      <trkpt lat="43.05721" lon="0.13738">
        <ele>777.2</ele>
        <time>2022-08-21T07:28:11Z</time>
      </trkpt>
      <trkpt lat="43.05724" lon="0.13742">
        <ele>777.2</ele>
        <time>2022-08-21T07:28:13Z</time>
      </trkpt>
      <trkpt lat="43.05729" lon="0.13747">
        <ele>777.4</ele>
        <time>2022-08-21T07:28:16Z</time>
      </trkpt>
      <trkpt lat="43.05733" lon="0.13755">
        <ele>777.4</ele>
        <time>2022-08-21T07:28:19Z</time>
      </trkpt>
      <trkpt lat="43.05734" lon="0.13758">
        <ele>777.4</ele>
        <time>2022-08-21T07:28:20Z</time>
      </trkpt>
      <trkpt lat="43.05738" lon="0.13763">
        <ele>777.4</ele>
        <time>2022-08-21T07:28:23Z</time>
      </trkpt>
      <trkpt lat="43.05742" lon="0.13767">
        <ele>777.6</ele>
        <time>2022-08-21T07:28:26Z</time>
      </trkpt>
      <trkpt lat="43.05745" lon="0.13774">
        <ele>778.4</ele>
        <time>2022-08-21T07:28:30Z</time>
      </trkpt>
      <trkpt lat="43.05745" lon="0.13777">
        <ele>779</ele>
        <time>2022-08-21T07:28:32Z</time>
      </trkpt>
      <trkpt lat="43.05746" lon="0.1378">
        <ele>779.4</ele>
        <time>2022-08-21T07:28:36Z</time>
      </trkpt>
      <trkpt lat="43.05747" lon="0.13783">
        <ele>779.6</ele>
        <time>2022-08-21T07:28:38Z</time>
      </trkpt>
      <trkpt lat="43.05749" lon="0.13802">
        <ele>779</ele>
        <time>2022-08-21T07:28:44Z</time>
      </trkpt>
      <trkpt lat="43.05751" lon="0.13806">
        <ele>778.2</ele>
        <time>2022-08-21T07:28:46Z</time>
      </trkpt>
      <trkpt lat="43.05752" lon="0.1381">
        <ele>777</ele>
        <time>2022-08-21T07:28:48Z</time>
      </trkpt>
      <trkpt lat="43.05754" lon="0.13813">
        <ele>776.4</ele>
        <time>2022-08-21T07:28:50Z</time>
      </trkpt>
      <trkpt lat="43.05754" lon="0.13815">
        <ele>775.8</ele>
        <time>2022-08-21T07:28:51Z</time>
      </trkpt>
      <trkpt lat="43.05754" lon="0.13819">
        <ele>775</ele>
        <time>2022-08-21T07:28:53Z</time>
      </trkpt>
      <trkpt lat="43.05755" lon="0.13824">
        <ele>773.8</ele>
        <time>2022-08-21T07:28:55Z</time>
      </trkpt>
      <trkpt lat="43.05755" lon="0.13827">
        <ele>773.2</ele>
        <time>2022-08-21T07:28:56Z</time>
      </trkpt>
      <trkpt lat="43.05755" lon="0.13829">
        <ele>773.2</ele>
        <time>2022-08-21T07:28:57Z</time>
      </trkpt>
      <trkpt lat="43.05756" lon="0.13831">
        <ele>772.6</ele>
        <time>2022-08-21T07:28:58Z</time>
      </trkpt>
      <trkpt lat="43.05757" lon="0.13835">
        <ele>771</ele>
        <time>2022-08-21T07:29:01Z</time>
      </trkpt>
      <trkpt lat="43.05756" lon="0.13839">
        <ele>770</ele>
        <time>2022-08-21T07:29:04Z</time>
      </trkpt>
      <trkpt lat="43.05757" lon="0.13843">
        <ele>769.2</ele>
        <time>2022-08-21T07:29:07Z</time>
      </trkpt>
      <trkpt lat="43.05757" lon="0.13845">
        <ele>769</ele>
        <time>2022-08-21T07:29:08Z</time>
      </trkpt>
      <trkpt lat="43.05759" lon="0.13848">
        <ele>767.8</ele>
        <time>2022-08-21T07:29:13Z</time>
      </trkpt>
      <trkpt lat="43.05761" lon="0.13853">
        <ele>767.2</ele>
        <time>2022-08-21T07:29:18Z</time>
      </trkpt>
      <trkpt lat="43.05762" lon="0.13854">
        <ele>767</ele>
        <time>2022-08-21T07:29:19Z</time>
      </trkpt>
      <trkpt lat="43.05762" lon="0.13856">
        <ele>766.6</ele>
        <time>2022-08-21T07:29:21Z</time>
      </trkpt>
      <trkpt lat="43.05763" lon="0.13859">
        <ele>765.8</ele>
        <time>2022-08-21T07:29:24Z</time>
      </trkpt>
      <trkpt lat="43.05763" lon="0.13859">
        <ele>765.6</ele>
        <time>2022-08-21T07:29:25Z</time>
      </trkpt>
      <trkpt lat="43.05764" lon="0.1386">
        <ele>765</ele>
        <time>2022-08-21T07:29:27Z</time>
      </trkpt>
      <trkpt lat="43.05764" lon="0.13865">
        <ele>764.4</ele>
        <time>2022-08-21T07:29:30Z</time>
      </trkpt>
      <trkpt lat="43.05764" lon="0.13868">
        <ele>764.2</ele>
        <time>2022-08-21T07:29:31Z</time>
      </trkpt>
      <trkpt lat="43.05764" lon="0.13869">
        <ele>764</ele>
        <time>2022-08-21T07:29:32Z</time>
      </trkpt>
      <trkpt lat="43.05765" lon="0.13872">
        <ele>763</ele>
        <time>2022-08-21T07:29:36Z</time>
      </trkpt>
      <trkpt lat="43.05765" lon="0.13881">
        <ele>762.2</ele>
        <time>2022-08-21T07:29:41Z</time>
      </trkpt>
      <trkpt lat="43.05766" lon="0.13882">
        <ele>762</ele>
        <time>2022-08-21T07:29:42Z</time>
      </trkpt>
      <trkpt lat="43.05766" lon="0.13882">
        <ele>762</ele>
        <time>2022-08-21T07:29:43Z</time>
      </trkpt>
      <trkpt lat="43.05767" lon="0.13883">
        <ele>761</ele>
        <time>2022-08-21T07:29:47Z</time>
      </trkpt>
      <trkpt lat="43.05766" lon="0.13889">
        <ele>760.6</ele>
        <time>2022-08-21T07:29:51Z</time>
      </trkpt>
      <trkpt lat="43.05767" lon="0.13891">
        <ele>760.4</ele>
        <time>2022-08-21T07:29:52Z</time>
      </trkpt>
      <trkpt lat="43.05771" lon="0.139">
        <ele>759.4</ele>
        <time>2022-08-21T07:29:56Z</time>
      </trkpt>
      <trkpt lat="43.05772" lon="0.13902">
        <ele>759.2</ele>
        <time>2022-08-21T07:29:57Z</time>
      </trkpt>
      <trkpt lat="43.05772" lon="0.13903">
        <ele>758.8</ele>
        <time>2022-08-21T07:29:58Z</time>
      </trkpt>
      <trkpt lat="43.05773" lon="0.13908">
        <ele>757.6</ele>
        <time>2022-08-21T07:30:00Z</time>
      </trkpt>
      <trkpt lat="43.05774" lon="0.13914">
        <ele>756.6</ele>
        <time>2022-08-21T07:30:02Z</time>
      </trkpt>
      <trkpt lat="43.05774" lon="0.13917">
        <ele>756.4</ele>
        <time>2022-08-21T07:30:03Z</time>
      </trkpt>
      <trkpt lat="43.05774" lon="0.13927">
        <ele>755.2</ele>
        <time>2022-08-21T07:30:06Z</time>
      </trkpt>
      <trkpt lat="43.05776" lon="0.13932">
        <ele>754.6</ele>
        <time>2022-08-21T07:30:08Z</time>
      </trkpt>
      <trkpt lat="43.05777" lon="0.13933">
        <ele>754.2</ele>
        <time>2022-08-21T07:30:09Z</time>
      </trkpt>
      <trkpt lat="43.05779" lon="0.13935">
        <ele>753.4</ele>
        <time>2022-08-21T07:30:11Z</time>
      </trkpt>
      <trkpt lat="43.0578" lon="0.13937">
        <ele>752.8</ele>
        <time>2022-08-21T07:30:12Z</time>
      </trkpt>
      <trkpt lat="43.05781" lon="0.1394">
        <ele>751.8</ele>
        <time>2022-08-21T07:30:13Z</time>
      </trkpt>
      <trkpt lat="43.05781" lon="0.13946">
        <ele>751.4</ele>
        <time>2022-08-21T07:30:15Z</time>
      </trkpt>
      <trkpt lat="43.05783" lon="0.13955">
        <ele>750.2</ele>
        <time>2022-08-21T07:30:18Z</time>
      </trkpt>
      <trkpt lat="43.05785" lon="0.13962">
        <ele>749.4</ele>
        <time>2022-08-21T07:30:20Z</time>
      </trkpt>
      <trkpt lat="43.05786" lon="0.13964">
        <ele>748.8</ele>
        <time>2022-08-21T07:30:21Z</time>
      </trkpt>
      <trkpt lat="43.05785" lon="0.13969">
        <ele>747.8</ele>
        <time>2022-08-21T07:30:24Z</time>
      </trkpt>
      <trkpt lat="43.05785" lon="0.13969">
        <ele>747.6</ele>
        <time>2022-08-21T07:30:25Z</time>
      </trkpt>
      <trkpt lat="43.05786" lon="0.13967">
        <ele>746.4</ele>
        <time>2022-08-21T07:30:30Z</time>
      </trkpt>
      <trkpt lat="43.05792" lon="0.13973">
        <ele>746.2</ele>
        <time>2022-08-21T07:30:34Z</time>
      </trkpt>
      <trkpt lat="43.05802" lon="0.13992">
        <ele>745.4</ele>
        <time>2022-08-21T07:30:39Z</time>
      </trkpt>
      <trkpt lat="43.05803" lon="0.13994">
        <ele>745</ele>
        <time>2022-08-21T07:30:40Z</time>
      </trkpt>
      <trkpt lat="43.05805" lon="0.14">
        <ele>743.8</ele>
        <time>2022-08-21T07:30:42Z</time>
      </trkpt>
      <trkpt lat="43.05806" lon="0.14002">
        <ele>743.2</ele>
        <time>2022-08-21T07:30:43Z</time>
      </trkpt>
      <trkpt lat="43.05807" lon="0.14006">
        <ele>742.4</ele>
        <time>2022-08-21T07:30:44Z</time>
      </trkpt>
      <trkpt lat="43.05807" lon="0.14011">
        <ele>741.2</ele>
        <time>2022-08-21T07:30:45Z</time>
      </trkpt>
      <trkpt lat="43.05807" lon="0.14016">
        <ele>740.6</ele>
        <time>2022-08-21T07:30:46Z</time>
      </trkpt>
      <trkpt lat="43.05808" lon="0.14024">
        <ele>739.4</ele>
        <time>2022-08-21T07:30:47Z</time>
      </trkpt>
      <trkpt lat="43.0581" lon="0.14032">
        <ele>738</ele>
        <time>2022-08-21T07:30:49Z</time>
      </trkpt>
      <trkpt lat="43.05811" lon="0.14035">
        <ele>737.4</ele>
        <time>2022-08-21T07:30:50Z</time>
      </trkpt>
      <trkpt lat="43.05811" lon="0.14038">
        <ele>736.2</ele>
        <time>2022-08-21T07:30:51Z</time>
      </trkpt>
      <trkpt lat="43.05811" lon="0.14047">
        <ele>734.8</ele>
        <time>2022-08-21T07:30:53Z</time>
      </trkpt>
      <trkpt lat="43.05811" lon="0.14051">
        <ele>734.6</ele>
        <time>2022-08-21T07:30:54Z</time>
      </trkpt>
      <trkpt lat="43.05812" lon="0.14054">
        <ele>733.8</ele>
        <time>2022-08-21T07:30:55Z</time>
      </trkpt>
      <trkpt lat="43.05812" lon="0.14059">
        <ele>732.6</ele>
        <time>2022-08-21T07:30:57Z</time>
      </trkpt>
      <trkpt lat="43.05814" lon="0.14065">
        <ele>731.2</ele>
        <time>2022-08-21T07:30:59Z</time>
      </trkpt>
      <trkpt lat="43.05815" lon="0.14066">
        <ele>730.4</ele>
        <time>2022-08-21T07:31:00Z</time>
      </trkpt>
      <trkpt lat="43.05817" lon="0.14069">
        <ele>730</ele>
        <time>2022-08-21T07:31:01Z</time>
      </trkpt>
      <trkpt lat="43.0582" lon="0.14074">
        <ele>728.6</ele>
        <time>2022-08-21T07:31:03Z</time>
      </trkpt>
      <trkpt lat="43.05821" lon="0.14079">
        <ele>727.8</ele>
        <time>2022-08-21T07:31:05Z</time>
      </trkpt>
      <trkpt lat="43.05822" lon="0.1408">
        <ele>727.2</ele>
        <time>2022-08-21T07:31:06Z</time>
      </trkpt>
      <trkpt lat="43.05822" lon="0.14083">
        <ele>727</ele>
        <time>2022-08-21T07:31:07Z</time>
      </trkpt>
      <trkpt lat="43.05821" lon="0.14091">
        <ele>726</ele>
        <time>2022-08-21T07:31:09Z</time>
      </trkpt>
      <trkpt lat="43.05821" lon="0.14096">
        <ele>725.4</ele>
        <time>2022-08-21T07:31:10Z</time>
      </trkpt>
      <trkpt lat="43.05823" lon="0.14101">
        <ele>724.6</ele>
        <time>2022-08-21T07:31:12Z</time>
      </trkpt>
      <trkpt lat="43.05823" lon="0.14105">
        <ele>723.6</ele>
        <time>2022-08-21T07:31:15Z</time>
      </trkpt>
      <trkpt lat="43.05824" lon="0.14108">
        <ele>723.2</ele>
        <time>2022-08-21T07:31:16Z</time>
      </trkpt>
      <trkpt lat="43.05827" lon="0.1411">
        <ele>722.6</ele>
        <time>2022-08-21T07:31:20Z</time>
      </trkpt>
      <trkpt lat="43.05832" lon="0.14118">
        <ele>722.8</ele>
        <time>2022-08-21T07:31:26Z</time>
      </trkpt>
      <trkpt lat="43.05842" lon="0.14121">
        <ele>723.8</ele>
        <time>2022-08-21T07:31:34Z</time>
      </trkpt>
      <trkpt lat="43.05846" lon="0.1412">
        <ele>724.4</ele>
        <time>2022-08-21T07:31:38Z</time>
      </trkpt>
      <trkpt lat="43.0585" lon="0.14118">
        <ele>725</ele>
        <time>2022-08-21T07:31:40Z</time>
      </trkpt>
      <trkpt lat="43.05851" lon="0.14117">
        <ele>725</ele>
        <time>2022-08-21T07:31:41Z</time>
      </trkpt>
      <trkpt lat="43.05852" lon="0.14114">
        <ele>725.4</ele>
        <time>2022-08-21T07:31:43Z</time>
      </trkpt>
      <trkpt lat="43.05854" lon="0.14112">
        <ele>726</ele>
        <time>2022-08-21T07:31:46Z</time>
      </trkpt>
      <trkpt lat="43.05854" lon="0.1411">
        <ele>726.4</ele>
        <time>2022-08-21T07:31:47Z</time>
      </trkpt>
      <trkpt lat="43.05854" lon="0.14109">
        <ele>726.4</ele>
        <time>2022-08-21T07:31:48Z</time>
      </trkpt>
      <trkpt lat="43.05851" lon="0.14103">
        <ele>727.4</ele>
        <time>2022-08-21T07:31:52Z</time>
      </trkpt>
      <trkpt lat="43.0585" lon="0.14101">
        <ele>727.8</ele>
        <time>2022-08-21T07:31:53Z</time>
      </trkpt>
      <trkpt lat="43.05849" lon="0.14093">
        <ele>728.6</ele>
        <time>2022-08-21T07:31:57Z</time>
      </trkpt>
      <trkpt lat="43.05849" lon="0.14093">
        <ele>728.6</ele>
        <time>2022-08-21T07:31:58Z</time>
      </trkpt>
      <trkpt lat="43.05848" lon="0.14092">
        <ele>729</ele>
        <time>2022-08-21T07:31:59Z</time>
      </trkpt>
      <trkpt lat="43.05847" lon="0.14092">
        <ele>729.2</ele>
        <time>2022-08-21T07:32:00Z</time>
      </trkpt>
      <trkpt lat="43.05846" lon="0.14091">
        <ele>729.6</ele>
        <time>2022-08-21T07:32:02Z</time>
      </trkpt>
      <trkpt lat="43.05846" lon="0.14092">
        <ele>730</ele>
        <time>2022-08-21T07:32:06Z</time>
      </trkpt>
      <trkpt lat="43.05844" lon="0.14093">
        <ele>730.2</ele>
        <time>2022-08-21T07:32:12Z</time>
      </trkpt>
      <trkpt lat="43.0584" lon="0.14093">
        <ele>730.2</ele>
        <time>2022-08-21T07:32:57Z</time>
      </trkpt>
      <trkpt lat="43.05844" lon="0.14088">
        <ele>730.2</ele>
        <time>2022-08-21T07:33:06Z</time>
      </trkpt>
      <trkpt lat="43.05845" lon="0.14087">
        <ele>730.4</ele>
        <time>2022-08-21T07:33:18Z</time>
      </trkpt>
      <trkpt lat="43.05847" lon="0.14085">
        <ele>730.2</ele>
        <time>2022-08-21T07:33:24Z</time>
      </trkpt>
      <trkpt lat="43.05851" lon="0.14091">
        <ele>730</ele>
        <time>2022-08-21T07:33:30Z</time>
      </trkpt>
      <trkpt lat="43.05853" lon="0.14093">
        <ele>730</ele>
        <time>2022-08-21T07:33:31Z</time>
      </trkpt>
      <trkpt lat="43.05854" lon="0.14094">
        <ele>730</ele>
        <time>2022-08-21T07:33:32Z</time>
      </trkpt>
      <trkpt lat="43.05859" lon="0.14096">
        <ele>729.8</ele>
        <time>2022-08-21T07:33:35Z</time>
      </trkpt>
      <trkpt lat="43.0586" lon="0.14097">
        <ele>729.6</ele>
        <time>2022-08-21T07:33:36Z</time>
      </trkpt>
      <trkpt lat="43.05861" lon="0.14097">
        <ele>729.6</ele>
        <time>2022-08-21T07:33:37Z</time>
      </trkpt>
      <trkpt lat="43.05865" lon="0.14097">
        <ele>728.8</ele>
        <time>2022-08-21T07:33:39Z</time>
      </trkpt>
      <trkpt lat="43.05868" lon="0.14097">
        <ele>728.4</ele>
        <time>2022-08-21T07:33:42Z</time>
      </trkpt>
      <trkpt lat="43.0587" lon="0.14096">
        <ele>728.4</ele>
        <time>2022-08-21T07:33:44Z</time>
      </trkpt>
      <trkpt lat="43.05875" lon="0.14096">
        <ele>728.4</ele>
        <time>2022-08-21T07:33:47Z</time>
      </trkpt>
      <trkpt lat="43.05885" lon="0.14097">
        <ele>728.8</ele>
        <time>2022-08-21T07:33:51Z</time>
      </trkpt>
      <trkpt lat="43.05889" lon="0.14096">
        <ele>729.2</ele>
        <time>2022-08-21T07:33:53Z</time>
      </trkpt>
      <trkpt lat="43.05895" lon="0.14098">
        <ele>729.4</ele>
        <time>2022-08-21T07:33:56Z</time>
      </trkpt>
      <trkpt lat="43.059" lon="0.14099">
        <ele>729.8</ele>
        <time>2022-08-21T07:33:58Z</time>
      </trkpt>
      <trkpt lat="43.05903" lon="0.14099">
        <ele>730</ele>
        <time>2022-08-21T07:33:59Z</time>
      </trkpt>
      <trkpt lat="43.05911" lon="0.1409">
        <ele>730.4</ele>
        <time>2022-08-21T07:34:04Z</time>
      </trkpt>
      <trkpt lat="43.0592" lon="0.14077">
        <ele>731</ele>
        <time>2022-08-21T07:34:10Z</time>
      </trkpt>
      <trkpt lat="43.0592" lon="0.14076">
        <ele>731</ele>
        <time>2022-08-21T07:34:11Z</time>
      </trkpt>
      <trkpt lat="43.05921" lon="0.14063">
        <ele>731.2</ele>
        <time>2022-08-21T07:34:16Z</time>
      </trkpt>
      <trkpt lat="43.05923" lon="0.14053">
        <ele>730.8</ele>
        <time>2022-08-21T07:34:20Z</time>
      </trkpt>
      <trkpt lat="43.05923" lon="0.14053">
        <ele>730.8</ele>
        <time>2022-08-21T07:34:21Z</time>
      </trkpt>
      <trkpt lat="43.05924" lon="0.14054">
        <ele>730.2</ele>
        <time>2022-08-21T07:34:27Z</time>
      </trkpt>
      <trkpt lat="43.05929" lon="0.14052">
        <ele>730</ele>
        <time>2022-08-21T07:34:35Z</time>
      </trkpt>
      <trkpt lat="43.05938" lon="0.14043">
        <ele>730</ele>
        <time>2022-08-21T07:34:40Z</time>
      </trkpt>
      <trkpt lat="43.0595" lon="0.14034">
        <ele>730.4</ele>
        <time>2022-08-21T07:34:46Z</time>
      </trkpt>
      <trkpt lat="43.05954" lon="0.14032">
        <ele>730.6</ele>
        <time>2022-08-21T07:34:48Z</time>
      </trkpt>
      <trkpt lat="43.05957" lon="0.14032">
        <ele>731</ele>
        <time>2022-08-21T07:34:50Z</time>
      </trkpt>
      <trkpt lat="43.0596" lon="0.14029">
        <ele>731.6</ele>
        <time>2022-08-21T07:34:52Z</time>
      </trkpt>
      <trkpt lat="43.05962" lon="0.14027">
        <ele>731.8</ele>
        <time>2022-08-21T07:34:53Z</time>
      </trkpt>
      <trkpt lat="43.05968" lon="0.14023">
        <ele>732.2</ele>
        <time>2022-08-21T07:34:56Z</time>
      </trkpt>
      <trkpt lat="43.05972" lon="0.14019">
        <ele>732.6</ele>
        <time>2022-08-21T07:34:58Z</time>
      </trkpt>
      <trkpt lat="43.05974" lon="0.14018">
        <ele>732.8</ele>
        <time>2022-08-21T07:34:59Z</time>
      </trkpt>
      <trkpt lat="43.05978" lon="0.14012">
        <ele>733</ele>
        <time>2022-08-21T07:35:01Z</time>
      </trkpt>
      <trkpt lat="43.05983" lon="0.14005">
        <ele>733.4</ele>
        <time>2022-08-21T07:35:05Z</time>
      </trkpt>
      <trkpt lat="43.05981" lon="0.13999">
        <ele>733.6</ele>
        <time>2022-08-21T07:35:07Z</time>
      </trkpt>
      <trkpt lat="43.05982" lon="0.13993">
        <ele>733.8</ele>
        <time>2022-08-21T07:35:10Z</time>
      </trkpt>
      <trkpt lat="43.05984" lon="0.1399">
        <ele>733.8</ele>
        <time>2022-08-21T07:35:11Z</time>
      </trkpt>
      <trkpt lat="43.05997" lon="0.13969">
        <ele>734.4</ele>
        <time>2022-08-21T07:35:19Z</time>
      </trkpt>
      <trkpt lat="43.05997" lon="0.13961">
        <ele>734.4</ele>
        <time>2022-08-21T07:35:23Z</time>
      </trkpt>
      <trkpt lat="43.06004" lon="0.13956">
        <ele>734.4</ele>
        <time>2022-08-21T07:35:27Z</time>
      </trkpt>
      <trkpt lat="43.06004" lon="0.13952">
        <ele>734.6</ele>
        <time>2022-08-21T07:35:30Z</time>
      </trkpt>
      <trkpt lat="43.06005" lon="0.1395">
        <ele>734.6</ele>
        <time>2022-08-21T07:35:32Z</time>
      </trkpt>
      <trkpt lat="43.06009" lon="0.13945">
        <ele>734.6</ele>
        <time>2022-08-21T07:35:34Z</time>
      </trkpt>
      <trkpt lat="43.0601" lon="0.13944">
        <ele>734.8</ele>
        <time>2022-08-21T07:35:35Z</time>
      </trkpt>
      <trkpt lat="43.06015" lon="0.1394">
        <ele>735</ele>
        <time>2022-08-21T07:35:37Z</time>
      </trkpt>
      <trkpt lat="43.0602" lon="0.13936">
        <ele>735.4</ele>
        <time>2022-08-21T07:35:40Z</time>
      </trkpt>
      <trkpt lat="43.06024" lon="0.13933">
        <ele>735.8</ele>
        <time>2022-08-21T07:35:42Z</time>
      </trkpt>
      <trkpt lat="43.0603" lon="0.13927">
        <ele>736.4</ele>
        <time>2022-08-21T07:35:46Z</time>
      </trkpt>
      <trkpt lat="43.06034" lon="0.13924">
        <ele>736.6</ele>
        <time>2022-08-21T07:35:49Z</time>
      </trkpt>
      <trkpt lat="43.06035" lon="0.13922">
        <ele>736.8</ele>
        <time>2022-08-21T07:35:50Z</time>
      </trkpt>
      <trkpt lat="43.06039" lon="0.1392">
        <ele>737</ele>
        <time>2022-08-21T07:35:51Z</time>
      </trkpt>
      <trkpt lat="43.06053" lon="0.1391">
        <ele>737.2</ele>
        <time>2022-08-21T07:35:55Z</time>
      </trkpt>
      <trkpt lat="43.06066" lon="0.13896">
        <ele>737</ele>
        <time>2022-08-21T07:36:01Z</time>
      </trkpt>
      <trkpt lat="43.06066" lon="0.13892">
        <ele>737</ele>
        <time>2022-08-21T07:36:03Z</time>
      </trkpt>
      <trkpt lat="43.06066" lon="0.13887">
        <ele>737</ele>
        <time>2022-08-21T07:36:06Z</time>
      </trkpt>
      <trkpt lat="43.06067" lon="0.13886">
        <ele>737</ele>
        <time>2022-08-21T07:36:07Z</time>
      </trkpt>
      <trkpt lat="43.06068" lon="0.13883">
        <ele>737</ele>
        <time>2022-08-21T07:36:08Z</time>
      </trkpt>
      <trkpt lat="43.06071" lon="0.13878">
        <ele>737.2</ele>
        <time>2022-08-21T07:36:11Z</time>
      </trkpt>
      <trkpt lat="43.06071" lon="0.13876">
        <ele>737.2</ele>
        <time>2022-08-21T07:36:12Z</time>
      </trkpt>
      <trkpt lat="43.06081" lon="0.13861">
        <ele>737.4</ele>
        <time>2022-08-21T07:36:20Z</time>
      </trkpt>
      <trkpt lat="43.06082" lon="0.13859">
        <ele>737.4</ele>
        <time>2022-08-21T07:36:21Z</time>
      </trkpt>
      <trkpt lat="43.06087" lon="0.13853">
        <ele>737.6</ele>
        <time>2022-08-21T07:36:24Z</time>
      </trkpt>
      <trkpt lat="43.06088" lon="0.13851">
        <ele>737.8</ele>
        <time>2022-08-21T07:36:25Z</time>
      </trkpt>
      <trkpt lat="43.06089" lon="0.13848">
        <ele>737.8</ele>
        <time>2022-08-21T07:36:26Z</time>
      </trkpt>
      <trkpt lat="43.0609" lon="0.1384">
        <ele>738.2</ele>
        <time>2022-08-21T07:36:29Z</time>
      </trkpt>
      <trkpt lat="43.06089" lon="0.13836">
        <ele>738.4</ele>
        <time>2022-08-21T07:36:31Z</time>
      </trkpt>
      <trkpt lat="43.06089" lon="0.13822">
        <ele>738.6</ele>
        <time>2022-08-21T07:36:36Z</time>
      </trkpt>
      <trkpt lat="43.06091" lon="0.13819">
        <ele>738.8</ele>
        <time>2022-08-21T07:36:37Z</time>
      </trkpt>
      <trkpt lat="43.06092" lon="0.13816">
        <ele>739</ele>
        <time>2022-08-21T07:36:38Z</time>
      </trkpt>
      <trkpt lat="43.06093" lon="0.13812">
        <ele>739</ele>
        <time>2022-08-21T07:36:39Z</time>
      </trkpt>
      <trkpt lat="43.06096" lon="0.13801">
        <ele>738.8</ele>
        <time>2022-08-21T07:36:42Z</time>
      </trkpt>
      <trkpt lat="43.061" lon="0.13794">
        <ele>739</ele>
        <time>2022-08-21T07:36:44Z</time>
      </trkpt>
      <trkpt lat="43.06112" lon="0.13777">
        <ele>739</ele>
        <time>2022-08-21T07:36:50Z</time>
      </trkpt>
      <trkpt lat="43.06112" lon="0.13772">
        <ele>739</ele>
        <time>2022-08-21T07:36:52Z</time>
      </trkpt>
      <trkpt lat="43.06113" lon="0.13764">
        <ele>739</ele>
        <time>2022-08-21T07:36:55Z</time>
      </trkpt>
      <trkpt lat="43.06114" lon="0.13741">
        <ele>739.2</ele>
        <time>2022-08-21T07:37:02Z</time>
      </trkpt>
      <trkpt lat="43.06116" lon="0.13733">
        <ele>739.4</ele>
        <time>2022-08-21T07:37:06Z</time>
      </trkpt>
      <trkpt lat="43.06116" lon="0.13731">
        <ele>739.6</ele>
        <time>2022-08-21T07:37:07Z</time>
      </trkpt>
      <trkpt lat="43.06113" lon="0.13724">
        <ele>739.8</ele>
        <time>2022-08-21T07:37:10Z</time>
      </trkpt>
      <trkpt lat="43.06112" lon="0.13723">
        <ele>740</ele>
        <time>2022-08-21T07:37:11Z</time>
      </trkpt>
      <trkpt lat="43.06112" lon="0.13721">
        <ele>740</ele>
        <time>2022-08-21T07:37:12Z</time>
      </trkpt>
      <trkpt lat="43.06112" lon="0.13716">
        <ele>740.2</ele>
        <time>2022-08-21T07:37:14Z</time>
      </trkpt>
      <trkpt lat="43.06113" lon="0.13711">
        <ele>740.4</ele>
        <time>2022-08-21T07:37:16Z</time>
      </trkpt>
      <trkpt lat="43.06114" lon="0.13708">
        <ele>740.6</ele>
        <time>2022-08-21T07:37:18Z</time>
      </trkpt>
      <trkpt lat="43.06117" lon="0.13705">
        <ele>740.8</ele>
        <time>2022-08-21T07:37:20Z</time>
      </trkpt>
      <trkpt lat="43.06118" lon="0.13704">
        <ele>741</ele>
        <time>2022-08-21T07:37:22Z</time>
      </trkpt>
      <trkpt lat="43.06118" lon="0.13703">
        <ele>741.2</ele>
        <time>2022-08-21T07:37:25Z</time>
      </trkpt>
      <trkpt lat="43.06116" lon="0.13702">
        <ele>741</ele>
        <time>2022-08-21T07:38:07Z</time>
      </trkpt>
      <trkpt lat="43.06116" lon="0.13694">
        <ele>741</ele>
        <time>2022-08-21T07:38:09Z</time>
      </trkpt>
      <trkpt lat="43.06116" lon="0.1369">
        <ele>741</ele>
        <time>2022-08-21T07:38:10Z</time>
      </trkpt>
      <trkpt lat="43.06118" lon="0.13677">
        <ele>740.8</ele>
        <time>2022-08-21T07:38:13Z</time>
      </trkpt>
      <trkpt lat="43.06118" lon="0.13673">
        <ele>740.8</ele>
        <time>2022-08-21T07:38:14Z</time>
      </trkpt>
      <trkpt lat="43.06118" lon="0.13662">
        <ele>740.6</ele>
        <time>2022-08-21T07:38:17Z</time>
      </trkpt>
      <trkpt lat="43.06119" lon="0.1363">
        <ele>740.6</ele>
        <time>2022-08-21T07:38:25Z</time>
      </trkpt>
      <trkpt lat="43.06119" lon="0.13613">
        <ele>741</ele>
        <time>2022-08-21T07:38:29Z</time>
      </trkpt>
      <trkpt lat="43.06118" lon="0.13609">
        <ele>741.2</ele>
        <time>2022-08-21T07:38:30Z</time>
      </trkpt>
      <trkpt lat="43.06119" lon="0.13603">
        <ele>741.4</ele>
        <time>2022-08-21T07:38:32Z</time>
      </trkpt>
      <trkpt lat="43.06119" lon="0.13593">
        <ele>741.4</ele>
        <time>2022-08-21T07:38:34Z</time>
      </trkpt>
      <trkpt lat="43.06119" lon="0.13588">
        <ele>741.6</ele>
        <time>2022-08-21T07:38:35Z</time>
      </trkpt>
      <trkpt lat="43.06117" lon="0.13583">
        <ele>741.6</ele>
        <time>2022-08-21T07:38:36Z</time>
      </trkpt>
      <trkpt lat="43.06122" lon="0.1357">
        <ele>741.6</ele>
        <time>2022-08-21T07:38:39Z</time>
      </trkpt>
      <trkpt lat="43.06133" lon="0.13546">
        <ele>741.4</ele>
        <time>2022-08-21T07:38:47Z</time>
      </trkpt>
      <trkpt lat="43.06139" lon="0.13541">
        <ele>741.8</ele>
        <time>2022-08-21T07:38:50Z</time>
      </trkpt>
      <trkpt lat="43.06144" lon="0.13539">
        <ele>742.2</ele>
        <time>2022-08-21T07:38:52Z</time>
      </trkpt>
      <trkpt lat="43.06146" lon="0.13538">
        <ele>742.8</ele>
        <time>2022-08-21T07:38:55Z</time>
      </trkpt>
      <trkpt lat="43.06147" lon="0.13537">
        <ele>743</ele>
        <time>2022-08-21T07:38:56Z</time>
      </trkpt>
      <trkpt lat="43.0615" lon="0.13533">
        <ele>743.6</ele>
        <time>2022-08-21T07:38:58Z</time>
      </trkpt>
      <trkpt lat="43.06152" lon="0.13532">
        <ele>743.8</ele>
        <time>2022-08-21T07:38:59Z</time>
      </trkpt>
      <trkpt lat="43.06155" lon="0.13528">
        <ele>744.8</ele>
        <time>2022-08-21T07:39:03Z</time>
      </trkpt>
      <trkpt lat="43.06165" lon="0.13512">
        <ele>745.6</ele>
        <time>2022-08-21T07:39:10Z</time>
      </trkpt>
      <trkpt lat="43.06173" lon="0.13495">
        <ele>746.2</ele>
        <time>2022-08-21T07:39:16Z</time>
      </trkpt>
      <trkpt lat="43.06179" lon="0.13481">
        <ele>746.6</ele>
        <time>2022-08-21T07:39:21Z</time>
      </trkpt>
      <trkpt lat="43.06181" lon="0.13476">
        <ele>746.6</ele>
        <time>2022-08-21T07:39:23Z</time>
      </trkpt>
      <trkpt lat="43.06189" lon="0.13463">
        <ele>746.8</ele>
        <time>2022-08-21T07:39:28Z</time>
      </trkpt>
      <trkpt lat="43.06192" lon="0.13455">
        <ele>747</ele>
        <time>2022-08-21T07:39:31Z</time>
      </trkpt>
      <trkpt lat="43.06192" lon="0.1345">
        <ele>747</ele>
        <time>2022-08-21T07:39:33Z</time>
      </trkpt>
      <trkpt lat="43.06196" lon="0.13445">
        <ele>747</ele>
        <time>2022-08-21T07:39:35Z</time>
      </trkpt>
      <trkpt lat="43.062" lon="0.1344">
        <ele>747.2</ele>
        <time>2022-08-21T07:39:37Z</time>
      </trkpt>
      <trkpt lat="43.06209" lon="0.13434">
        <ele>747.2</ele>
        <time>2022-08-21T07:39:42Z</time>
      </trkpt>
      <trkpt lat="43.06218" lon="0.13439">
        <ele>747</ele>
        <time>2022-08-21T07:39:45Z</time>
      </trkpt>
      <trkpt lat="43.06218" lon="0.13442">
        <ele>747</ele>
        <time>2022-08-21T07:39:46Z</time>
      </trkpt>
      <trkpt lat="43.06226" lon="0.13459">
        <ele>745.8</ele>
        <time>2022-08-21T07:39:51Z</time>
      </trkpt>
      <trkpt lat="43.06228" lon="0.13462">
        <ele>745.4</ele>
        <time>2022-08-21T07:39:52Z</time>
      </trkpt>
      <trkpt lat="43.06233" lon="0.13465">
        <ele>744.4</ele>
        <time>2022-08-21T07:39:54Z</time>
      </trkpt>
      <trkpt lat="43.06234" lon="0.13466">
        <ele>744.2</ele>
        <time>2022-08-21T07:39:55Z</time>
      </trkpt>
      <trkpt lat="43.06234" lon="0.13468">
        <ele>743.4</ele>
        <time>2022-08-21T07:39:56Z</time>
      </trkpt>
      <trkpt lat="43.06238" lon="0.13471">
        <ele>743.2</ele>
        <time>2022-08-21T07:39:57Z</time>
      </trkpt>
      <trkpt lat="43.06241" lon="0.13473">
        <ele>742.8</ele>
        <time>2022-08-21T07:39:58Z</time>
      </trkpt>
      <trkpt lat="43.06244" lon="0.13482">
        <ele>742.4</ele>
        <time>2022-08-21T07:40:00Z</time>
      </trkpt>
      <trkpt lat="43.06246" lon="0.13485">
        <ele>741.8</ele>
        <time>2022-08-21T07:40:02Z</time>
      </trkpt>
      <trkpt lat="43.06246" lon="0.13486">
        <ele>741.4</ele>
        <time>2022-08-21T07:40:03Z</time>
      </trkpt>
      <trkpt lat="43.06247" lon="0.13491">
        <ele>740.6</ele>
        <time>2022-08-21T07:40:05Z</time>
      </trkpt>
      <trkpt lat="43.06247" lon="0.13496">
        <ele>739.8</ele>
        <time>2022-08-21T07:40:08Z</time>
      </trkpt>
      <trkpt lat="43.06248" lon="0.13498">
        <ele>739.6</ele>
        <time>2022-08-21T07:40:09Z</time>
      </trkpt>
      <trkpt lat="43.06252" lon="0.13506">
        <ele>739.2</ele>
        <time>2022-08-21T07:40:13Z</time>
      </trkpt>
      <trkpt lat="43.06252" lon="0.13507">
        <ele>739</ele>
        <time>2022-08-21T07:40:14Z</time>
      </trkpt>
      <trkpt lat="43.06253" lon="0.13511">
        <ele>738.6</ele>
        <time>2022-08-21T07:40:16Z</time>
      </trkpt>
      <trkpt lat="43.06255" lon="0.13518">
        <ele>738.4</ele>
        <time>2022-08-21T07:40:18Z</time>
      </trkpt>
      <trkpt lat="43.06256" lon="0.13522">
        <ele>738.2</ele>
        <time>2022-08-21T07:40:20Z</time>
      </trkpt>
      <trkpt lat="43.06257" lon="0.13524">
        <ele>738.2</ele>
        <time>2022-08-21T07:40:21Z</time>
      </trkpt>
      <trkpt lat="43.06261" lon="0.13531">
        <ele>738</ele>
        <time>2022-08-21T07:40:24Z</time>
      </trkpt>
      <trkpt lat="43.06264" lon="0.13531">
        <ele>738</ele>
        <time>2022-08-21T07:40:26Z</time>
      </trkpt>
      <trkpt lat="43.06264" lon="0.13527">
        <ele>738</ele>
        <time>2022-08-21T07:40:27Z</time>
      </trkpt>
      <trkpt lat="43.06262" lon="0.13522">
        <ele>738</ele>
        <time>2022-08-21T07:40:29Z</time>
      </trkpt>
      <trkpt lat="43.06262" lon="0.1352">
        <ele>738</ele>
        <time>2022-08-21T07:40:30Z</time>
      </trkpt>
      <trkpt lat="43.06261" lon="0.13517">
        <ele>738</ele>
        <time>2022-08-21T07:40:33Z</time>
      </trkpt>
      <trkpt lat="43.0626" lon="0.13515">
        <ele>738</ele>
        <time>2022-08-21T07:40:34Z</time>
      </trkpt>
      <trkpt lat="43.0626" lon="0.13514">
        <ele>738</ele>
        <time>2022-08-21T07:40:35Z</time>
      </trkpt>
      <trkpt lat="43.06259" lon="0.13506">
        <ele>738</ele>
        <time>2022-08-21T07:40:39Z</time>
      </trkpt>
      <trkpt lat="43.06252" lon="0.13494">
        <ele>738.6</ele>
        <time>2022-08-21T07:40:45Z</time>
      </trkpt>
      <trkpt lat="43.06247" lon="0.13488">
        <ele>738.8</ele>
        <time>2022-08-21T07:40:48Z</time>
      </trkpt>
      <trkpt lat="43.06246" lon="0.13485">
        <ele>739.2</ele>
        <time>2022-08-21T07:40:50Z</time>
      </trkpt>
      <trkpt lat="43.06246" lon="0.13483">
        <ele>739.2</ele>
        <time>2022-08-21T07:40:51Z</time>
      </trkpt>
      <trkpt lat="43.06239" lon="0.13473">
        <ele>740</ele>
        <time>2022-08-21T07:40:56Z</time>
      </trkpt>
      <trkpt lat="43.06237" lon="0.13481">
        <ele>740</ele>
        <time>2022-08-21T07:41:04Z</time>
      </trkpt>
      <trkpt lat="43.06238" lon="0.13484">
        <ele>740</ele>
        <time>2022-08-21T07:41:05Z</time>
      </trkpt>
      <trkpt lat="43.06241" lon="0.1349">
        <ele>739.6</ele>
        <time>2022-08-21T07:41:08Z</time>
      </trkpt>
      <trkpt lat="43.06244" lon="0.13498">
        <ele>738</ele>
        <time>2022-08-21T07:41:11Z</time>
      </trkpt>
      <trkpt lat="43.06249" lon="0.13504">
        <ele>737</ele>
        <time>2022-08-21T07:41:14Z</time>
      </trkpt>
      <trkpt lat="43.06249" lon="0.13508">
        <ele>736.4</ele>
        <time>2022-08-21T07:41:15Z</time>
      </trkpt>
      <trkpt lat="43.06249" lon="0.13515">
        <ele>734.8</ele>
        <time>2022-08-21T07:41:17Z</time>
      </trkpt>
      <trkpt lat="43.0625" lon="0.13524">
        <ele>733.6</ele>
        <time>2022-08-21T07:41:20Z</time>
      </trkpt>
      <trkpt lat="43.0625" lon="0.13531">
        <ele>731.8</ele>
        <time>2022-08-21T07:41:22Z</time>
      </trkpt>
      <trkpt lat="43.0625" lon="0.13533">
        <ele>731.4</ele>
        <time>2022-08-21T07:41:23Z</time>
      </trkpt>
      <trkpt lat="43.06251" lon="0.1354">
        <ele>730.8</ele>
        <time>2022-08-21T07:41:25Z</time>
      </trkpt>
      <trkpt lat="43.06253" lon="0.13542">
        <ele>730</ele>
        <time>2022-08-21T07:41:26Z</time>
      </trkpt>
      <trkpt lat="43.06255" lon="0.13546">
        <ele>729.6</ele>
        <time>2022-08-21T07:41:28Z</time>
      </trkpt>
      <trkpt lat="43.06256" lon="0.13546">
        <ele>729.6</ele>
        <time>2022-08-21T07:41:29Z</time>
      </trkpt>
      <trkpt lat="43.06254" lon="0.13549">
        <ele>728.6</ele>
        <time>2022-08-21T07:41:32Z</time>
      </trkpt>
      <trkpt lat="43.06248" lon="0.13554">
        <ele>728</ele>
        <time>2022-08-21T07:41:36Z</time>
      </trkpt>
      <trkpt lat="43.06257" lon="0.13568">
        <ele>727.6</ele>
        <time>2022-08-21T07:41:41Z</time>
      </trkpt>
      <trkpt lat="43.06261" lon="0.13575">
        <ele>727.4</ele>
        <time>2022-08-21T07:41:43Z</time>
      </trkpt>
      <trkpt lat="43.06263" lon="0.13578">
        <ele>727</ele>
        <time>2022-08-21T07:41:45Z</time>
      </trkpt>
      <trkpt lat="43.06264" lon="0.13579">
        <ele>726.8</ele>
        <time>2022-08-21T07:41:46Z</time>
      </trkpt>
      <trkpt lat="43.06263" lon="0.13582">
        <ele>726.2</ele>
        <time>2022-08-21T07:41:47Z</time>
      </trkpt>
      <trkpt lat="43.06268" lon="0.13588">
        <ele>725.2</ele>
        <time>2022-08-21T07:41:51Z</time>
      </trkpt>
      <trkpt lat="43.06268" lon="0.1359">
        <ele>725.2</ele>
        <time>2022-08-21T07:41:53Z</time>
      </trkpt>
      <trkpt lat="43.06268" lon="0.13592">
        <ele>725.2</ele>
        <time>2022-08-21T07:42:01Z</time>
      </trkpt>
      <trkpt lat="43.06268" lon="0.13594">
        <ele>725.2</ele>
        <time>2022-08-21T07:42:04Z</time>
      </trkpt>
      <trkpt lat="43.06266" lon="0.13595">
        <ele>725.2</ele>
        <time>2022-08-21T07:42:06Z</time>
      </trkpt>
      <trkpt lat="43.06264" lon="0.13595">
        <ele>725.2</ele>
        <time>2022-08-21T07:42:07Z</time>
      </trkpt>
      <trkpt lat="43.06257" lon="0.13597">
        <ele>724.8</ele>
        <time>2022-08-21T07:42:10Z</time>
      </trkpt>
      <trkpt lat="43.06255" lon="0.13601">
        <ele>724.6</ele>
        <time>2022-08-21T07:42:12Z</time>
      </trkpt>
      <trkpt lat="43.06251" lon="0.13605">
        <ele>724</ele>
        <time>2022-08-21T07:42:15Z</time>
      </trkpt>
      <trkpt lat="43.06251" lon="0.13606">
        <ele>724</ele>
        <time>2022-08-21T07:42:16Z</time>
      </trkpt>
      <trkpt lat="43.0625" lon="0.13606">
        <ele>723.2</ele>
        <time>2022-08-21T07:42:20Z</time>
      </trkpt>
      <trkpt lat="43.0625" lon="0.13607">
        <ele>722.8</ele>
        <time>2022-08-21T07:42:22Z</time>
      </trkpt>
      <trkpt lat="43.06248" lon="0.13613">
        <ele>722.4</ele>
        <time>2022-08-21T07:42:26Z</time>
      </trkpt>
      <trkpt lat="43.06244" lon="0.13619">
        <ele>722.2</ele>
        <time>2022-08-21T07:42:28Z</time>
      </trkpt>
      <trkpt lat="43.06236" lon="0.13638">
        <ele>722</ele>
        <time>2022-08-21T07:42:33Z</time>
      </trkpt>
      <trkpt lat="43.06227" lon="0.13648">
        <ele>721.4</ele>
        <time>2022-08-21T07:42:36Z</time>
      </trkpt>
      <trkpt lat="43.06215" lon="0.13652">
        <ele>720.6</ele>
        <time>2022-08-21T07:42:39Z</time>
      </trkpt>
      <trkpt lat="43.06211" lon="0.13653">
        <ele>720</ele>
        <time>2022-08-21T07:42:40Z</time>
      </trkpt>
      <trkpt lat="43.06204" lon="0.13658">
        <ele>718.8</ele>
        <time>2022-08-21T07:42:43Z</time>
      </trkpt>
      <trkpt lat="43.06196" lon="0.13666">
        <ele>718.2</ele>
        <time>2022-08-21T07:42:45Z</time>
      </trkpt>
      <trkpt lat="43.06192" lon="0.13672">
        <ele>717.6</ele>
        <time>2022-08-21T07:42:47Z</time>
      </trkpt>
      <trkpt lat="43.06186" lon="0.1368">
        <ele>716.8</ele>
        <time>2022-08-21T07:42:49Z</time>
      </trkpt>
      <trkpt lat="43.0618" lon="0.1369">
        <ele>716.2</ele>
        <time>2022-08-21T07:42:51Z</time>
      </trkpt>
      <trkpt lat="43.06175" lon="0.13703">
        <ele>715.4</ele>
        <time>2022-08-21T07:42:54Z</time>
      </trkpt>
      <trkpt lat="43.06172" lon="0.13708">
        <ele>715</ele>
        <time>2022-08-21T07:42:55Z</time>
      </trkpt>
      <trkpt lat="43.06172" lon="0.13721">
        <ele>714.6</ele>
        <time>2022-08-21T07:42:58Z</time>
      </trkpt>
      <trkpt lat="43.06172" lon="0.1373">
        <ele>713.8</ele>
        <time>2022-08-21T07:43:00Z</time>
      </trkpt>
      <trkpt lat="43.06169" lon="0.13745">
        <ele>712.6</ele>
        <time>2022-08-21T07:43:03Z</time>
      </trkpt>
      <trkpt lat="43.06169" lon="0.13752">
        <ele>712</ele>
        <time>2022-08-21T07:43:04Z</time>
      </trkpt>
      <trkpt lat="43.06167" lon="0.13768">
        <ele>711.2</ele>
        <time>2022-08-21T07:43:06Z</time>
      </trkpt>
      <trkpt lat="43.06165" lon="0.13781">
        <ele>710</ele>
        <time>2022-08-21T07:43:08Z</time>
      </trkpt>
      <trkpt lat="43.06164" lon="0.13785">
        <ele>709.8</ele>
        <time>2022-08-21T07:43:09Z</time>
      </trkpt>
      <trkpt lat="43.06164" lon="0.1379">
        <ele>708.8</ele>
        <time>2022-08-21T07:43:10Z</time>
      </trkpt>
      <trkpt lat="43.06164" lon="0.13796">
        <ele>707.8</ele>
        <time>2022-08-21T07:43:12Z</time>
      </trkpt>
      <trkpt lat="43.06163" lon="0.138">
        <ele>706.6</ele>
        <time>2022-08-21T07:43:14Z</time>
      </trkpt>
      <trkpt lat="43.06165" lon="0.13805">
        <ele>705.8</ele>
        <time>2022-08-21T07:43:16Z</time>
      </trkpt>
      <trkpt lat="43.06164" lon="0.13808">
        <ele>705.4</ele>
        <time>2022-08-21T07:43:17Z</time>
      </trkpt>
      <trkpt lat="43.06162" lon="0.13818">
        <ele>705</ele>
        <time>2022-08-21T07:43:19Z</time>
      </trkpt>
      <trkpt lat="43.0616" lon="0.13823">
        <ele>704.8</ele>
        <time>2022-08-21T07:43:20Z</time>
      </trkpt>
      <trkpt lat="43.06158" lon="0.13828">
        <ele>704</ele>
        <time>2022-08-21T07:43:21Z</time>
      </trkpt>
      <trkpt lat="43.06154" lon="0.13836">
        <ele>703.4</ele>
        <time>2022-08-21T07:43:23Z</time>
      </trkpt>
      <trkpt lat="43.06152" lon="0.13843">
        <ele>702.6</ele>
        <time>2022-08-21T07:43:25Z</time>
      </trkpt>
      <trkpt lat="43.06149" lon="0.13849">
        <ele>701.4</ele>
        <time>2022-08-21T07:43:27Z</time>
      </trkpt>
      <trkpt lat="43.06148" lon="0.13853">
        <ele>701</ele>
        <time>2022-08-21T07:43:28Z</time>
      </trkpt>
      <trkpt lat="43.06147" lon="0.13856">
        <ele>700.6</ele>
        <time>2022-08-21T07:43:29Z</time>
      </trkpt>
      <trkpt lat="43.06145" lon="0.13858">
        <ele>700</ele>
        <time>2022-08-21T07:43:30Z</time>
      </trkpt>
      <trkpt lat="43.06144" lon="0.13862">
        <ele>699.2</ele>
        <time>2022-08-21T07:43:32Z</time>
      </trkpt>
      <trkpt lat="43.06143" lon="0.13865">
        <ele>699</ele>
        <time>2022-08-21T07:43:33Z</time>
      </trkpt>
      <trkpt lat="43.06142" lon="0.13869">
        <ele>698.8</ele>
        <time>2022-08-21T07:43:34Z</time>
      </trkpt>
      <trkpt lat="43.06138" lon="0.13882">
        <ele>697.8</ele>
        <time>2022-08-21T07:43:37Z</time>
      </trkpt>
      <trkpt lat="43.06132" lon="0.1389">
        <ele>696.4</ele>
        <time>2022-08-21T07:43:40Z</time>
      </trkpt>
      <trkpt lat="43.06131" lon="0.13893">
        <ele>696</ele>
        <time>2022-08-21T07:43:41Z</time>
      </trkpt>
      <trkpt lat="43.0613" lon="0.13895">
        <ele>695.4</ele>
        <time>2022-08-21T07:43:42Z</time>
      </trkpt>
      <trkpt lat="43.06129" lon="0.13897">
        <ele>695</ele>
        <time>2022-08-21T07:43:43Z</time>
      </trkpt>
      <trkpt lat="43.06129" lon="0.139">
        <ele>693.8</ele>
        <time>2022-08-21T07:43:45Z</time>
      </trkpt>
      <trkpt lat="43.06127" lon="0.13907">
        <ele>692.6</ele>
        <time>2022-08-21T07:43:47Z</time>
      </trkpt>
      <trkpt lat="43.06124" lon="0.1392">
        <ele>691.6</ele>
        <time>2022-08-21T07:43:49Z</time>
      </trkpt>
      <trkpt lat="43.06123" lon="0.13926">
        <ele>691.4</ele>
        <time>2022-08-21T07:43:50Z</time>
      </trkpt>
      <trkpt lat="43.06122" lon="0.13934">
        <ele>690.8</ele>
        <time>2022-08-21T07:43:52Z</time>
      </trkpt>
      <trkpt lat="43.06121" lon="0.13936">
        <ele>690</ele>
        <time>2022-08-21T07:43:53Z</time>
      </trkpt>
      <trkpt lat="43.0612" lon="0.13935">
        <ele>688.6</ele>
        <time>2022-08-21T07:43:55Z</time>
      </trkpt>
      <trkpt lat="43.06121" lon="0.13942">
        <ele>687.4</ele>
        <time>2022-08-21T07:43:59Z</time>
      </trkpt>
      <trkpt lat="43.06119" lon="0.13945">
        <ele>687.2</ele>
        <time>2022-08-21T07:44:01Z</time>
      </trkpt>
      <trkpt lat="43.0612" lon="0.13949">
        <ele>686.2</ele>
        <time>2022-08-21T07:44:10Z</time>
      </trkpt>
      <trkpt lat="43.0612" lon="0.13949">
        <ele>686.2</ele>
        <time>2022-08-21T07:44:11Z</time>
      </trkpt>
      <trkpt lat="43.06115" lon="0.13958">
        <ele>685.6</ele>
        <time>2022-08-21T07:44:16Z</time>
      </trkpt>
      <trkpt lat="43.06113" lon="0.13963">
        <ele>685.4</ele>
        <time>2022-08-21T07:44:18Z</time>
      </trkpt>
      <trkpt lat="43.06112" lon="0.13966">
        <ele>685.2</ele>
        <time>2022-08-21T07:44:20Z</time>
      </trkpt>
      <trkpt lat="43.0611" lon="0.13967">
        <ele>684.6</ele>
        <time>2022-08-21T07:44:21Z</time>
      </trkpt>
      <trkpt lat="43.06107" lon="0.13971">
        <ele>684</ele>
        <time>2022-08-21T07:44:23Z</time>
      </trkpt>
      <trkpt lat="43.06102" lon="0.13979">
        <ele>683</ele>
        <time>2022-08-21T07:44:27Z</time>
      </trkpt>
      <trkpt lat="43.06102" lon="0.13981">
        <ele>683</ele>
        <time>2022-08-21T07:44:28Z</time>
      </trkpt>
      <trkpt lat="43.061" lon="0.13988">
        <ele>682</ele>
        <time>2022-08-21T07:44:31Z</time>
      </trkpt>
      <trkpt lat="43.06098" lon="0.13994">
        <ele>681.4</ele>
        <time>2022-08-21T07:44:33Z</time>
      </trkpt>
      <trkpt lat="43.06097" lon="0.14">
        <ele>680.4</ele>
        <time>2022-08-21T07:44:35Z</time>
      </trkpt>
      <trkpt lat="43.06094" lon="0.14009">
        <ele>678.8</ele>
        <time>2022-08-21T07:44:38Z</time>
      </trkpt>
      <trkpt lat="43.06094" lon="0.1401">
        <ele>678.6</ele>
        <time>2022-08-21T07:44:39Z</time>
      </trkpt>
      <trkpt lat="43.06093" lon="0.14017">
        <ele>677.8</ele>
        <time>2022-08-21T07:44:42Z</time>
      </trkpt>
      <trkpt lat="43.06095" lon="0.14018">
        <ele>677.6</ele>
        <time>2022-08-21T07:44:43Z</time>
      </trkpt>
      <trkpt lat="43.06096" lon="0.14019">
        <ele>677.4</ele>
        <time>2022-08-21T07:44:44Z</time>
      </trkpt>
      <trkpt lat="43.06095" lon="0.1402">
        <ele>677</ele>
        <time>2022-08-21T07:44:45Z</time>
      </trkpt>
      <trkpt lat="43.06095" lon="0.14022">
        <ele>676.4</ele>
        <time>2022-08-21T07:44:46Z</time>
      </trkpt>
      <trkpt lat="43.06096" lon="0.14024">
        <ele>676.2</ele>
        <time>2022-08-21T07:44:47Z</time>
      </trkpt>
      <trkpt lat="43.06096" lon="0.14024">
        <ele>675.8</ele>
        <time>2022-08-21T07:44:48Z</time>
      </trkpt>
      <trkpt lat="43.06096" lon="0.14027">
        <ele>675.6</ele>
        <time>2022-08-21T07:44:50Z</time>
      </trkpt>
      <trkpt lat="43.06091" lon="0.14032">
        <ele>675.4</ele>
        <time>2022-08-21T07:44:53Z</time>
      </trkpt>
      <trkpt lat="43.06089" lon="0.14034">
        <ele>675.4</ele>
        <time>2022-08-21T07:44:54Z</time>
      </trkpt>
      <trkpt lat="43.06086" lon="0.14041">
        <ele>674.8</ele>
        <time>2022-08-21T07:44:57Z</time>
      </trkpt>
      <trkpt lat="43.06081" lon="0.14048">
        <ele>673.6</ele>
        <time>2022-08-21T07:45:01Z</time>
      </trkpt>
      <trkpt lat="43.0608" lon="0.1405">
        <ele>673.4</ele>
        <time>2022-08-21T07:45:02Z</time>
      </trkpt>
      <trkpt lat="43.06077" lon="0.14051">
        <ele>673.2</ele>
        <time>2022-08-21T07:45:04Z</time>
      </trkpt>
      <trkpt lat="43.06077" lon="0.14052">
        <ele>673</ele>
        <time>2022-08-21T07:45:05Z</time>
      </trkpt>
      <trkpt lat="43.06076" lon="0.14055">
        <ele>672.6</ele>
        <time>2022-08-21T07:45:08Z</time>
      </trkpt>
      <trkpt lat="43.06079" lon="0.14056">
        <ele>671.4</ele>
        <time>2022-08-21T07:45:12Z</time>
      </trkpt>
      <trkpt lat="43.0608" lon="0.1406">
        <ele>671</ele>
        <time>2022-08-21T07:45:16Z</time>
      </trkpt>
      <trkpt lat="43.06076" lon="0.14078">
        <ele>670.8</ele>
        <time>2022-08-21T07:45:21Z</time>
      </trkpt>
      <trkpt lat="43.06068" lon="0.14094">
        <ele>670.2</ele>
        <time>2022-08-21T07:45:25Z</time>
      </trkpt>
      <trkpt lat="43.06063" lon="0.14101">
        <ele>668.8</ele>
        <time>2022-08-21T07:45:28Z</time>
      </trkpt>
      <trkpt lat="43.06057" lon="0.14104">
        <ele>668</ele>
        <time>2022-08-21T07:45:30Z</time>
      </trkpt>
      <trkpt lat="43.06054" lon="0.14107">
        <ele>667.6</ele>
        <time>2022-08-21T07:45:32Z</time>
      </trkpt>
      <trkpt lat="43.06048" lon="0.14113">
        <ele>667.2</ele>
        <time>2022-08-21T07:45:34Z</time>
      </trkpt>
      <trkpt lat="43.06045" lon="0.14119">
        <ele>667</ele>
        <time>2022-08-21T07:45:35Z</time>
      </trkpt>
      <trkpt lat="43.06044" lon="0.14121">
        <ele>666.6</ele>
        <time>2022-08-21T07:45:36Z</time>
      </trkpt>
      <trkpt lat="43.06041" lon="0.14122">
        <ele>666</ele>
        <time>2022-08-21T07:45:37Z</time>
      </trkpt>
      <trkpt lat="43.06039" lon="0.14124">
        <ele>665.8</ele>
        <time>2022-08-21T07:45:38Z</time>
      </trkpt>
      <trkpt lat="43.06037" lon="0.14128">
        <ele>665.4</ele>
        <time>2022-08-21T07:45:39Z</time>
      </trkpt>
      <trkpt lat="43.0603" lon="0.1414">
        <ele>663.8</ele>
        <time>2022-08-21T07:45:41Z</time>
      </trkpt>
      <trkpt lat="43.06027" lon="0.14149">
        <ele>663.4</ele>
        <time>2022-08-21T07:45:42Z</time>
      </trkpt>
      <trkpt lat="43.06026" lon="0.14154">
        <ele>662.8</ele>
        <time>2022-08-21T07:45:43Z</time>
      </trkpt>
      <trkpt lat="43.06026" lon="0.14157">
        <ele>662.4</ele>
        <time>2022-08-21T07:45:44Z</time>
      </trkpt>
      <trkpt lat="43.06027" lon="0.14168">
        <ele>661.2</ele>
        <time>2022-08-21T07:45:46Z</time>
      </trkpt>
      <trkpt lat="43.06027" lon="0.14174">
        <ele>660.8</ele>
        <time>2022-08-21T07:45:47Z</time>
      </trkpt>
      <trkpt lat="43.06026" lon="0.14179">
        <ele>660.2</ele>
        <time>2022-08-21T07:45:48Z</time>
      </trkpt>
      <trkpt lat="43.06025" lon="0.14185">
        <ele>658.6</ele>
        <time>2022-08-21T07:45:50Z</time>
      </trkpt>
      <trkpt lat="43.06023" lon="0.14189">
        <ele>657.8</ele>
        <time>2022-08-21T07:45:52Z</time>
      </trkpt>
      <trkpt lat="43.06022" lon="0.1419">
        <ele>657.6</ele>
        <time>2022-08-21T07:45:53Z</time>
      </trkpt>
      <trkpt lat="43.06024" lon="0.14193">
        <ele>656.2</ele>
        <time>2022-08-21T07:45:55Z</time>
      </trkpt>
      <trkpt lat="43.0603" lon="0.1419">
        <ele>655.4</ele>
        <time>2022-08-21T07:45:57Z</time>
      </trkpt>
      <trkpt lat="43.06032" lon="0.1419">
        <ele>654.8</ele>
        <time>2022-08-21T07:45:58Z</time>
      </trkpt>
      <trkpt lat="43.06037" lon="0.14188">
        <ele>654</ele>
        <time>2022-08-21T07:46:00Z</time>
      </trkpt>
      <trkpt lat="43.06039" lon="0.14186">
        <ele>653.8</ele>
        <time>2022-08-21T07:46:01Z</time>
      </trkpt>
      <trkpt lat="43.06042" lon="0.14182">
        <ele>652.6</ele>
        <time>2022-08-21T07:46:03Z</time>
      </trkpt>
      <trkpt lat="43.06047" lon="0.14175">
        <ele>651.2</ele>
        <time>2022-08-21T07:46:06Z</time>
      </trkpt>
      <trkpt lat="43.06052" lon="0.14165">
        <ele>649.8</ele>
        <time>2022-08-21T07:46:09Z</time>
      </trkpt>
      <trkpt lat="43.06055" lon="0.14159">
        <ele>649</ele>
        <time>2022-08-21T07:46:11Z</time>
      </trkpt>
      <trkpt lat="43.06058" lon="0.14158">
        <ele>648.8</ele>
        <time>2022-08-21T07:46:12Z</time>
      </trkpt>
      <trkpt lat="43.0606" lon="0.14158">
        <ele>647.8</ele>
        <time>2022-08-21T07:46:13Z</time>
      </trkpt>
      <trkpt lat="43.06063" lon="0.1416">
        <ele>646.8</ele>
        <time>2022-08-21T07:46:15Z</time>
      </trkpt>
      <trkpt lat="43.06062" lon="0.14162">
        <ele>646.6</ele>
        <time>2022-08-21T07:46:16Z</time>
      </trkpt>
      <trkpt lat="43.06061" lon="0.14164">
        <ele>646</ele>
        <time>2022-08-21T07:46:17Z</time>
      </trkpt>
      <trkpt lat="43.0606" lon="0.14166">
        <ele>645.6</ele>
        <time>2022-08-21T07:46:18Z</time>
      </trkpt>
      <trkpt lat="43.06061" lon="0.14168">
        <ele>645</ele>
        <time>2022-08-21T07:46:19Z</time>
      </trkpt>
      <trkpt lat="43.06062" lon="0.1417">
        <ele>644.8</ele>
        <time>2022-08-21T07:46:20Z</time>
      </trkpt>
      <trkpt lat="43.06062" lon="0.14172">
        <ele>644.4</ele>
        <time>2022-08-21T07:46:21Z</time>
      </trkpt>
      <trkpt lat="43.06062" lon="0.14175">
        <ele>644</ele>
        <time>2022-08-21T07:46:22Z</time>
      </trkpt>
      <trkpt lat="43.06062" lon="0.14185">
        <ele>643.2</ele>
        <time>2022-08-21T07:46:25Z</time>
      </trkpt>
      <trkpt lat="43.06061" lon="0.14192">
        <ele>642.4</ele>
        <time>2022-08-21T07:46:27Z</time>
      </trkpt>
      <trkpt lat="43.06059" lon="0.14197">
        <ele>641.8</ele>
        <time>2022-08-21T07:46:28Z</time>
      </trkpt>
      <trkpt lat="43.06055" lon="0.14207">
        <ele>640.6</ele>
        <time>2022-08-21T07:46:30Z</time>
      </trkpt>
      <trkpt lat="43.06051" lon="0.14215">
        <ele>639.6</ele>
        <time>2022-08-21T07:46:32Z</time>
      </trkpt>
      <trkpt lat="43.06044" lon="0.14225">
        <ele>637.8</ele>
        <time>2022-08-21T07:46:35Z</time>
      </trkpt>
      <trkpt lat="43.06041" lon="0.14228">
        <ele>637</ele>
        <time>2022-08-21T07:46:36Z</time>
      </trkpt>
      <trkpt lat="43.0604" lon="0.14231">
        <ele>636.6</ele>
        <time>2022-08-21T07:46:37Z</time>
      </trkpt>
      <trkpt lat="43.0604" lon="0.14241">
        <ele>635.6</ele>
        <time>2022-08-21T07:46:40Z</time>
      </trkpt>
      <trkpt lat="43.0604" lon="0.14242">
        <ele>634.8</ele>
        <time>2022-08-21T07:46:41Z</time>
      </trkpt>
      <trkpt lat="43.06039" lon="0.14246">
        <ele>634.2</ele>
        <time>2022-08-21T07:46:42Z</time>
      </trkpt>
      <trkpt lat="43.06038" lon="0.14247">
        <ele>633</ele>
        <time>2022-08-21T07:46:45Z</time>
      </trkpt>
      <trkpt lat="43.06036" lon="0.1425">
        <ele>632.6</ele>
        <time>2022-08-21T07:46:48Z</time>
      </trkpt>
      <trkpt lat="43.06033" lon="0.14254">
        <ele>632</ele>
        <time>2022-08-21T07:46:51Z</time>
      </trkpt>
      <trkpt lat="43.06031" lon="0.14258">
        <ele>631.8</ele>
        <time>2022-08-21T07:46:52Z</time>
      </trkpt>
      <trkpt lat="43.06026" lon="0.14265">
        <ele>631.4</ele>
        <time>2022-08-21T07:46:54Z</time>
      </trkpt>
      <trkpt lat="43.06022" lon="0.1427">
        <ele>630.8</ele>
        <time>2022-08-21T07:46:56Z</time>
      </trkpt>
      <trkpt lat="43.06019" lon="0.14275">
        <ele>629.8</ele>
        <time>2022-08-21T07:46:58Z</time>
      </trkpt>
      <trkpt lat="43.06015" lon="0.14278">
        <ele>629.2</ele>
        <time>2022-08-21T07:47:00Z</time>
      </trkpt>
      <trkpt lat="43.06012" lon="0.1428">
        <ele>628.6</ele>
        <time>2022-08-21T07:47:02Z</time>
      </trkpt>
      <trkpt lat="43.06012" lon="0.14282">
        <ele>628</ele>
        <time>2022-08-21T07:47:03Z</time>
      </trkpt>
      <trkpt lat="43.06012" lon="0.14282">
        <ele>627.4</ele>
        <time>2022-08-21T07:47:04Z</time>
      </trkpt>
      <trkpt lat="43.06012" lon="0.14283">
        <ele>626.2</ele>
        <time>2022-08-21T07:47:08Z</time>
      </trkpt>
      <trkpt lat="43.06012" lon="0.14283">
        <ele>626</ele>
        <time>2022-08-21T07:47:10Z</time>
      </trkpt>
      <trkpt lat="43.06011" lon="0.14284">
        <ele>625</ele>
        <time>2022-08-21T07:47:17Z</time>
      </trkpt>
      <trkpt lat="43.0601" lon="0.14284">
        <ele>625.2</ele>
        <time>2022-08-21T07:47:18Z</time>
      </trkpt>
      <trkpt lat="43.06005" lon="0.14288">
        <ele>624.4</ele>
        <time>2022-08-21T07:47:24Z</time>
      </trkpt>
      <trkpt lat="43.06003" lon="0.14291">
        <ele>624.2</ele>
        <time>2022-08-21T07:47:25Z</time>
      </trkpt>
      <trkpt lat="43.06001" lon="0.14299">
        <ele>623.8</ele>
        <time>2022-08-21T07:47:28Z</time>
      </trkpt>
      <trkpt lat="43.06001" lon="0.143">
        <ele>623.2</ele>
        <time>2022-08-21T07:47:29Z</time>
      </trkpt>
      <trkpt lat="43.05999" lon="0.14304">
        <ele>622.6</ele>
        <time>2022-08-21T07:47:31Z</time>
      </trkpt>
      <trkpt lat="43.05996" lon="0.14308">
        <ele>621.8</ele>
        <time>2022-08-21T07:47:34Z</time>
      </trkpt>
      <trkpt lat="43.05994" lon="0.14309">
        <ele>621.8</ele>
        <time>2022-08-21T07:47:35Z</time>
      </trkpt>
      <trkpt lat="43.05991" lon="0.14311">
        <ele>621.4</ele>
        <time>2022-08-21T07:47:36Z</time>
      </trkpt>
      <trkpt lat="43.05983" lon="0.14316">
        <ele>620.8</ele>
        <time>2022-08-21T07:47:38Z</time>
      </trkpt>
      <trkpt lat="43.05976" lon="0.1432">
        <ele>620</ele>
        <time>2022-08-21T07:47:40Z</time>
      </trkpt>
      <trkpt lat="43.05972" lon="0.14326">
        <ele>619</ele>
        <time>2022-08-21T07:47:42Z</time>
      </trkpt>
      <trkpt lat="43.05967" lon="0.14334">
        <ele>617.8</ele>
        <time>2022-08-21T07:47:45Z</time>
      </trkpt>
      <trkpt lat="43.05967" lon="0.14336">
        <ele>617</ele>
        <time>2022-08-21T07:47:47Z</time>
      </trkpt>
      <trkpt lat="43.05968" lon="0.14331">
        <ele>616.4</ele>
        <time>2022-08-21T07:47:48Z</time>
      </trkpt>
      <trkpt lat="43.05966" lon="0.14334">
        <ele>615.4</ele>
        <time>2022-08-21T07:47:53Z</time>
      </trkpt>
      <trkpt lat="43.05965" lon="0.14336">
        <ele>615.2</ele>
        <time>2022-08-21T07:47:54Z</time>
      </trkpt>
      <trkpt lat="43.0596" lon="0.14343">
        <ele>615.2</ele>
        <time>2022-08-21T07:47:56Z</time>
      </trkpt>
      <trkpt lat="43.05957" lon="0.14347">
        <ele>615</ele>
        <time>2022-08-21T07:47:57Z</time>
      </trkpt>
      <trkpt lat="43.05951" lon="0.14357">
        <ele>615</ele>
        <time>2022-08-21T07:47:59Z</time>
      </trkpt>
      <trkpt lat="43.05951" lon="0.14365">
        <ele>614.2</ele>
        <time>2022-08-21T07:48:01Z</time>
      </trkpt>
      <trkpt lat="43.05955" lon="0.14373">
        <ele>613.2</ele>
        <time>2022-08-21T07:48:03Z</time>
      </trkpt>
      <trkpt lat="43.0596" lon="0.14382">
        <ele>612</ele>
        <time>2022-08-21T07:48:05Z</time>
      </trkpt>
      <trkpt lat="43.05962" lon="0.14386">
        <ele>611</ele>
        <time>2022-08-21T07:48:06Z</time>
      </trkpt>
      <trkpt lat="43.05965" lon="0.14395">
        <ele>609</ele>
        <time>2022-08-21T07:48:08Z</time>
      </trkpt>
      <trkpt lat="43.05967" lon="0.14403">
        <ele>606.8</ele>
        <time>2022-08-21T07:48:10Z</time>
      </trkpt>
      <trkpt lat="43.05967" lon="0.14405">
        <ele>606.4</ele>
        <time>2022-08-21T07:48:11Z</time>
      </trkpt>
      <trkpt lat="43.05968" lon="0.14407">
        <ele>605</ele>
        <time>2022-08-21T07:48:12Z</time>
      </trkpt>
      <trkpt lat="43.05968" lon="0.1441">
        <ele>604.4</ele>
        <time>2022-08-21T07:48:13Z</time>
      </trkpt>
      <trkpt lat="43.05967" lon="0.14412">
        <ele>603.4</ele>
        <time>2022-08-21T07:48:14Z</time>
      </trkpt>
      <trkpt lat="43.05966" lon="0.14414">
        <ele>603</ele>
        <time>2022-08-21T07:48:15Z</time>
      </trkpt>
      <trkpt lat="43.05966" lon="0.14417">
        <ele>602.4</ele>
        <time>2022-08-21T07:48:16Z</time>
      </trkpt>
      <trkpt lat="43.05965" lon="0.14423">
        <ele>601.4</ele>
        <time>2022-08-21T07:48:18Z</time>
      </trkpt>
      <trkpt lat="43.05965" lon="0.14426">
        <ele>601.2</ele>
        <time>2022-08-21T07:48:19Z</time>
      </trkpt>
      <trkpt lat="43.05963" lon="0.1443">
        <ele>600.8</ele>
        <time>2022-08-21T07:48:20Z</time>
      </trkpt>
      <trkpt lat="43.05959" lon="0.1444">
        <ele>600</ele>
        <time>2022-08-21T07:48:22Z</time>
      </trkpt>
      <trkpt lat="43.05955" lon="0.14452">
        <ele>599.2</ele>
        <time>2022-08-21T07:48:25Z</time>
      </trkpt>
      <trkpt lat="43.05956" lon="0.14454">
        <ele>599</ele>
        <time>2022-08-21T07:48:26Z</time>
      </trkpt>
      <trkpt lat="43.0596" lon="0.14466">
        <ele>598</ele>
        <time>2022-08-21T07:48:29Z</time>
      </trkpt>
      <trkpt lat="43.05965" lon="0.14469">
        <ele>597.6</ele>
        <time>2022-08-21T07:48:31Z</time>
      </trkpt>
      <trkpt lat="43.05972" lon="0.14455">
        <ele>597</ele>
        <time>2022-08-21T07:48:35Z</time>
      </trkpt>
      <trkpt lat="43.05976" lon="0.14447">
        <ele>596.8</ele>
        <time>2022-08-21T07:48:37Z</time>
      </trkpt>
      <trkpt lat="43.05977" lon="0.14443">
        <ele>596.8</ele>
        <time>2022-08-21T07:48:38Z</time>
      </trkpt>
      <trkpt lat="43.05979" lon="0.14437">
        <ele>596.4</ele>
        <time>2022-08-21T07:48:39Z</time>
      </trkpt>
      <trkpt lat="43.05982" lon="0.14428">
        <ele>595.8</ele>
        <time>2022-08-21T07:48:41Z</time>
      </trkpt>
      <trkpt lat="43.05986" lon="0.14415">
        <ele>595</ele>
        <time>2022-08-21T07:48:44Z</time>
      </trkpt>
      <trkpt lat="43.05989" lon="0.14403">
        <ele>594.6</ele>
        <time>2022-08-21T07:48:46Z</time>
      </trkpt>
      <trkpt lat="43.05992" lon="0.14392">
        <ele>593.6</ele>
        <time>2022-08-21T07:48:48Z</time>
      </trkpt>
      <trkpt lat="43.06003" lon="0.14376">
        <ele>592.4</ele>
        <time>2022-08-21T07:48:52Z</time>
      </trkpt>
      <trkpt lat="43.06008" lon="0.14375">
        <ele>591.4</ele>
        <time>2022-08-21T07:48:54Z</time>
      </trkpt>
      <trkpt lat="43.06014" lon="0.1438">
        <ele>590.6</ele>
        <time>2022-08-21T07:48:56Z</time>
      </trkpt>
      <trkpt lat="43.06014" lon="0.14384">
        <ele>590.2</ele>
        <time>2022-08-21T07:48:57Z</time>
      </trkpt>
      <trkpt lat="43.06015" lon="0.14392">
        <ele>588.8</ele>
        <time>2022-08-21T07:48:59Z</time>
      </trkpt>
      <trkpt lat="43.06013" lon="0.144">
        <ele>587.8</ele>
        <time>2022-08-21T07:49:01Z</time>
      </trkpt>
      <trkpt lat="43.06008" lon="0.14414">
        <ele>587</ele>
        <time>2022-08-21T07:49:03Z</time>
      </trkpt>
      <trkpt lat="43.06005" lon="0.14425">
        <ele>586.6</ele>
        <time>2022-08-21T07:49:04Z</time>
      </trkpt>
      <trkpt lat="43.06" lon="0.14448">
        <ele>586</ele>
        <time>2022-08-21T07:49:06Z</time>
      </trkpt>
      <trkpt lat="43.05998" lon="0.14458">
        <ele>585.2</ele>
        <time>2022-08-21T07:49:07Z</time>
      </trkpt>
      <trkpt lat="43.05997" lon="0.14478">
        <ele>584.6</ele>
        <time>2022-08-21T07:49:09Z</time>
      </trkpt>
      <trkpt lat="43.05997" lon="0.14488">
        <ele>584.2</ele>
        <time>2022-08-21T07:49:10Z</time>
      </trkpt>
      <trkpt lat="43.05997" lon="0.14505">
        <ele>582.8</ele>
        <time>2022-08-21T07:49:12Z</time>
      </trkpt>
      <trkpt lat="43.05996" lon="0.14513">
        <ele>581.8</ele>
        <time>2022-08-21T07:49:13Z</time>
      </trkpt>
      <trkpt lat="43.05995" lon="0.1452">
        <ele>581.2</ele>
        <time>2022-08-21T07:49:14Z</time>
      </trkpt>
      <trkpt lat="43.05991" lon="0.14531">
        <ele>578.8</ele>
        <time>2022-08-21T07:49:16Z</time>
      </trkpt>
      <trkpt lat="43.05989" lon="0.14535">
        <ele>578</ele>
        <time>2022-08-21T07:49:17Z</time>
      </trkpt>
      <trkpt lat="43.05988" lon="0.14538">
        <ele>576.8</ele>
        <time>2022-08-21T07:49:18Z</time>
      </trkpt>
      <trkpt lat="43.05986" lon="0.14543">
        <ele>575.4</ele>
        <time>2022-08-21T07:49:20Z</time>
      </trkpt>
      <trkpt lat="43.05985" lon="0.14544">
        <ele>574.8</ele>
        <time>2022-08-21T07:49:21Z</time>
      </trkpt>
      <trkpt lat="43.05985" lon="0.14544">
        <ele>574</ele>
        <time>2022-08-21T07:49:22Z</time>
      </trkpt>
      <trkpt lat="43.05985" lon="0.14544">
        <ele>573.2</ele>
        <time>2022-08-21T07:49:25Z</time>
      </trkpt>
      <trkpt lat="43.05985" lon="0.14544">
        <ele>573</ele>
        <time>2022-08-21T07:49:26Z</time>
      </trkpt>
      <trkpt lat="43.05986" lon="0.14547">
        <ele>572.6</ele>
        <time>2022-08-21T07:49:42Z</time>
      </trkpt>
      <trkpt lat="43.05987" lon="0.14553">
        <ele>572.4</ele>
        <time>2022-08-21T07:49:44Z</time>
      </trkpt>
      <trkpt lat="43.05986" lon="0.14569">
        <ele>572.4</ele>
        <time>2022-08-21T07:49:47Z</time>
      </trkpt>
      <trkpt lat="43.05985" lon="0.14574">
        <ele>572.2</ele>
        <time>2022-08-21T07:49:48Z</time>
      </trkpt>
      <trkpt lat="43.05983" lon="0.14581">
        <ele>572.2</ele>
        <time>2022-08-21T07:49:49Z</time>
      </trkpt>
      <trkpt lat="43.05982" lon="0.14586">
        <ele>572</ele>
        <time>2022-08-21T07:49:50Z</time>
      </trkpt>
      <trkpt lat="43.05976" lon="0.14606">
        <ele>571.4</ele>
        <time>2022-08-21T07:49:53Z</time>
      </trkpt>
      <trkpt lat="43.05972" lon="0.1462">
        <ele>570.6</ele>
        <time>2022-08-21T07:49:56Z</time>
      </trkpt>
      <trkpt lat="43.0597" lon="0.14627">
        <ele>570.4</ele>
        <time>2022-08-21T07:49:58Z</time>
      </trkpt>
      <trkpt lat="43.0597" lon="0.14632">
        <ele>570</ele>
        <time>2022-08-21T07:50:00Z</time>
      </trkpt>
      <trkpt lat="43.05973" lon="0.14635">
        <ele>569.8</ele>
        <time>2022-08-21T07:50:02Z</time>
      </trkpt>
      <trkpt lat="43.05974" lon="0.14636">
        <ele>569.6</ele>
        <time>2022-08-21T07:50:04Z</time>
      </trkpt>
      <trkpt lat="43.05975" lon="0.14642">
        <ele>569.4</ele>
        <time>2022-08-21T07:50:08Z</time>
      </trkpt>
      <trkpt lat="43.05978" lon="0.14646">
        <ele>569.4</ele>
        <time>2022-08-21T07:50:11Z</time>
      </trkpt>
      <trkpt lat="43.0598" lon="0.1465">
        <ele>569.8</ele>
        <time>2022-08-21T07:50:14Z</time>
      </trkpt>
      <trkpt lat="43.05985" lon="0.14661">
        <ele>570.2</ele>
        <time>2022-08-21T07:50:21Z</time>
      </trkpt>
      <trkpt lat="43.05986" lon="0.14663">
        <ele>570.4</ele>
        <time>2022-08-21T07:50:23Z</time>
      </trkpt>
      <trkpt lat="43.05986" lon="0.14666">
        <ele>570.6</ele>
        <time>2022-08-21T07:50:26Z</time>
      </trkpt>
      <trkpt lat="43.05987" lon="0.14669">
        <ele>570.8</ele>
        <time>2022-08-21T07:50:28Z</time>
      </trkpt>
      <trkpt lat="43.0599" lon="0.14671">
        <ele>571</ele>
        <time>2022-08-21T07:50:31Z</time>
      </trkpt>
      <trkpt lat="43.05993" lon="0.14674">
        <ele>571.4</ele>
        <time>2022-08-21T07:50:37Z</time>
      </trkpt>
      <trkpt lat="43.05991" lon="0.1467">
        <ele>571.6</ele>
        <time>2022-08-21T07:50:40Z</time>
      </trkpt>
      <trkpt lat="43.05985" lon="0.14661">
        <ele>571.6</ele>
        <time>2022-08-21T07:50:43Z</time>
      </trkpt>
      <trkpt lat="43.05977" lon="0.14652">
        <ele>571.4</ele>
        <time>2022-08-21T07:50:46Z</time>
      </trkpt>
      <trkpt lat="43.05977" lon="0.14649">
        <ele>571.2</ele>
        <time>2022-08-21T07:50:47Z</time>
      </trkpt>
      <trkpt lat="43.05977" lon="0.14646">
        <ele>571</ele>
        <time>2022-08-21T07:50:48Z</time>
      </trkpt>
      <trkpt lat="43.05979" lon="0.14642">
        <ele>570.4</ele>
        <time>2022-08-21T07:50:50Z</time>
      </trkpt>
      <trkpt lat="43.0598" lon="0.1464">
        <ele>570</ele>
        <time>2022-08-21T07:50:51Z</time>
      </trkpt>
      <trkpt lat="43.05981" lon="0.14639">
        <ele>570</ele>
        <time>2022-08-21T07:50:52Z</time>
      </trkpt>
      <trkpt lat="43.05984" lon="0.14639">
        <ele>569.8</ele>
        <time>2022-08-21T07:50:54Z</time>
      </trkpt>
      <trkpt lat="43.05987" lon="0.14639">
        <ele>569.8</ele>
        <time>2022-08-21T07:50:56Z</time>
      </trkpt>
      <trkpt lat="43.05998" lon="0.14643">
        <ele>570.4</ele>
        <time>2022-08-21T07:51:03Z</time>
      </trkpt>
      <trkpt lat="43.06003" lon="0.14656">
        <ele>571.6</ele>
        <time>2022-08-21T07:51:10Z</time>
      </trkpt>
      <trkpt lat="43.06003" lon="0.1466">
        <ele>571.8</ele>
        <time>2022-08-21T07:51:12Z</time>
      </trkpt>
      <trkpt lat="43.06005" lon="0.14667">
        <ele>572.8</ele>
        <time>2022-08-21T07:51:16Z</time>
      </trkpt>
      <trkpt lat="43.06006" lon="0.14671">
        <ele>573</ele>
        <time>2022-08-21T07:51:18Z</time>
      </trkpt>
      <trkpt lat="43.06008" lon="0.14675">
        <ele>574.2</ele>
        <time>2022-08-21T07:51:21Z</time>
      </trkpt>
      <trkpt lat="43.06011" lon="0.14676">
        <ele>574.6</ele>
        <time>2022-08-21T07:51:23Z</time>
      </trkpt>
      <trkpt lat="43.06017" lon="0.14677">
        <ele>575.2</ele>
        <time>2022-08-21T07:51:27Z</time>
      </trkpt>
      <trkpt lat="43.06021" lon="0.14677">
        <ele>575.8</ele>
        <time>2022-08-21T07:51:30Z</time>
      </trkpt>
      <trkpt lat="43.06027" lon="0.14673">
        <ele>576.4</ele>
        <time>2022-08-21T07:51:34Z</time>
      </trkpt>
      <trkpt lat="43.06031" lon="0.14669">
        <ele>577</ele>
        <time>2022-08-21T07:51:37Z</time>
      </trkpt>
      <trkpt lat="43.06035" lon="0.14661">
        <ele>577.4</ele>
        <time>2022-08-21T07:51:41Z</time>
      </trkpt>
      <trkpt lat="43.06041" lon="0.14655">
        <ele>578</ele>
        <time>2022-08-21T07:51:45Z</time>
      </trkpt>
      <trkpt lat="43.0605" lon="0.14652">
        <ele>578.8</ele>
        <time>2022-08-21T07:51:50Z</time>
      </trkpt>
      <trkpt lat="43.06051" lon="0.14653">
        <ele>578.8</ele>
        <time>2022-08-21T07:51:51Z</time>
      </trkpt>
      <trkpt lat="43.06055" lon="0.1466">
        <ele>579.4</ele>
        <time>2022-08-21T07:51:56Z</time>
      </trkpt>
      <trkpt lat="43.06056" lon="0.14662">
        <ele>579.8</ele>
        <time>2022-08-21T07:51:57Z</time>
      </trkpt>
      <trkpt lat="43.06056" lon="0.14664">
        <ele>580</ele>
        <time>2022-08-21T07:51:58Z</time>
      </trkpt>
      <trkpt lat="43.06058" lon="0.14671">
        <ele>580.8</ele>
        <time>2022-08-21T07:52:02Z</time>
      </trkpt>
      <trkpt lat="43.0606" lon="0.14681">
        <ele>581.6</ele>
        <time>2022-08-21T07:52:07Z</time>
      </trkpt>
      <trkpt lat="43.06061" lon="0.14682">
        <ele>582</ele>
        <time>2022-08-21T07:52:08Z</time>
      </trkpt>
      <trkpt lat="43.06068" lon="0.14694">
        <ele>583</ele>
        <time>2022-08-21T07:52:16Z</time>
      </trkpt>
      <trkpt lat="43.06069" lon="0.14695">
        <ele>583.2</ele>
        <time>2022-08-21T07:52:17Z</time>
      </trkpt>
      <trkpt lat="43.06071" lon="0.14696">
        <ele>583.4</ele>
        <time>2022-08-21T07:52:18Z</time>
      </trkpt>
      <trkpt lat="43.06073" lon="0.14697">
        <ele>583.6</ele>
        <time>2022-08-21T07:52:20Z</time>
      </trkpt>
      <trkpt lat="43.06076" lon="0.14697">
        <ele>584</ele>
        <time>2022-08-21T07:52:22Z</time>
      </trkpt>
      <trkpt lat="43.06079" lon="0.14697">
        <ele>584.4</ele>
        <time>2022-08-21T07:52:24Z</time>
      </trkpt>
      <trkpt lat="43.06086" lon="0.14695">
        <ele>585.2</ele>
        <time>2022-08-21T07:52:29Z</time>
      </trkpt>
      <trkpt lat="43.0609" lon="0.14693">
        <ele>586.2</ele>
        <time>2022-08-21T07:52:33Z</time>
      </trkpt>
      <trkpt lat="43.06093" lon="0.14691">
        <ele>586.6</ele>
        <time>2022-08-21T07:52:35Z</time>
      </trkpt>
      <trkpt lat="43.06097" lon="0.14682">
        <ele>587.6</ele>
        <time>2022-08-21T07:52:41Z</time>
      </trkpt>
      <trkpt lat="43.06098" lon="0.14681">
        <ele>587.8</ele>
        <time>2022-08-21T07:52:42Z</time>
      </trkpt>
      <trkpt lat="43.06101" lon="0.14671">
        <ele>589</ele>
        <time>2022-08-21T07:52:48Z</time>
      </trkpt>
      <trkpt lat="43.06103" lon="0.14664">
        <ele>590</ele>
        <time>2022-08-21T07:52:52Z</time>
      </trkpt>
      <trkpt lat="43.06106" lon="0.14658">
        <ele>590.8</ele>
        <time>2022-08-21T07:52:56Z</time>
      </trkpt>
      <trkpt lat="43.06107" lon="0.14653">
        <ele>591.4</ele>
        <time>2022-08-21T07:52:59Z</time>
      </trkpt>
      <trkpt lat="43.06108" lon="0.14646">
        <ele>592.2</ele>
        <time>2022-08-21T07:53:03Z</time>
      </trkpt>
      <trkpt lat="43.0611" lon="0.14643">
        <ele>592.6</ele>
        <time>2022-08-21T07:53:05Z</time>
      </trkpt>
      <trkpt lat="43.06113" lon="0.14633">
        <ele>593.6</ele>
        <time>2022-08-21T07:53:11Z</time>
      </trkpt>
      <trkpt lat="43.06113" lon="0.14631">
        <ele>593.6</ele>
        <time>2022-08-21T07:53:12Z</time>
      </trkpt>
      <trkpt lat="43.06116" lon="0.14617">
        <ele>594.6</ele>
        <time>2022-08-21T07:53:19Z</time>
      </trkpt>
      <trkpt lat="43.06118" lon="0.14611">
        <ele>595</ele>
        <time>2022-08-21T07:53:22Z</time>
      </trkpt>
      <trkpt lat="43.0612" lon="0.14604">
        <ele>595.8</ele>
        <time>2022-08-21T07:53:26Z</time>
      </trkpt>
      <trkpt lat="43.06122" lon="0.14596">
        <ele>596.4</ele>
        <time>2022-08-21T07:53:31Z</time>
      </trkpt>
      <trkpt lat="43.06124" lon="0.14591">
        <ele>597</ele>
        <time>2022-08-21T07:53:34Z</time>
      </trkpt>
      <trkpt lat="43.06126" lon="0.14579">
        <ele>597.8</ele>
        <time>2022-08-21T07:53:40Z</time>
      </trkpt>
      <trkpt lat="43.06128" lon="0.14577">
        <ele>598</ele>
        <time>2022-08-21T07:53:42Z</time>
      </trkpt>
      <trkpt lat="43.06132" lon="0.14574">
        <ele>598.8</ele>
        <time>2022-08-21T07:53:47Z</time>
      </trkpt>
      <trkpt lat="43.06141" lon="0.14564">
        <ele>599.2</ele>
        <time>2022-08-21T07:53:54Z</time>
      </trkpt>
      <trkpt lat="43.06145" lon="0.14554">
        <ele>599.2</ele>
        <time>2022-08-21T07:54:00Z</time>
      </trkpt>
      <trkpt lat="43.06146" lon="0.14552">
        <ele>599.2</ele>
        <time>2022-08-21T07:54:01Z</time>
      </trkpt>
      <trkpt lat="43.06152" lon="0.14544">
        <ele>599.2</ele>
        <time>2022-08-21T07:54:06Z</time>
      </trkpt>
      <trkpt lat="43.06156" lon="0.14538">
        <ele>599.4</ele>
        <time>2022-08-21T07:54:09Z</time>
      </trkpt>
      <trkpt lat="43.06163" lon="0.14527">
        <ele>599.6</ele>
        <time>2022-08-21T07:54:14Z</time>
      </trkpt>
      <trkpt lat="43.06168" lon="0.1452">
        <ele>599.8</ele>
        <time>2022-08-21T07:54:16Z</time>
      </trkpt>
      <trkpt lat="43.06178" lon="0.14509">
        <ele>600</ele>
        <time>2022-08-21T07:54:23Z</time>
      </trkpt>
      <trkpt lat="43.0618" lon="0.14507">
        <ele>600</ele>
        <time>2022-08-21T07:54:24Z</time>
      </trkpt>
      <trkpt lat="43.06188" lon="0.14498">
        <ele>600</ele>
        <time>2022-08-21T07:54:27Z</time>
      </trkpt>
      <trkpt lat="43.06198" lon="0.14486">
        <ele>599.8</ele>
        <time>2022-08-21T07:54:31Z</time>
      </trkpt>
      <trkpt lat="43.06202" lon="0.14478">
        <ele>599.6</ele>
        <time>2022-08-21T07:54:34Z</time>
      </trkpt>
      <trkpt lat="43.06206" lon="0.14475">
        <ele>599.4</ele>
        <time>2022-08-21T07:54:36Z</time>
      </trkpt>
      <trkpt lat="43.06212" lon="0.1447">
        <ele>599.4</ele>
        <time>2022-08-21T07:54:39Z</time>
      </trkpt>
      <trkpt lat="43.06217" lon="0.14469">
        <ele>599.4</ele>
        <time>2022-08-21T07:54:41Z</time>
      </trkpt>
      <trkpt lat="43.0623" lon="0.14458">
        <ele>600</ele>
        <time>2022-08-21T07:54:49Z</time>
      </trkpt>
      <trkpt lat="43.06235" lon="0.14453">
        <ele>600.2</ele>
        <time>2022-08-21T07:54:53Z</time>
      </trkpt>
      <trkpt lat="43.06238" lon="0.14449">
        <ele>600.4</ele>
        <time>2022-08-21T07:54:55Z</time>
      </trkpt>
      <trkpt lat="43.06245" lon="0.14441">
        <ele>601.4</ele>
        <time>2022-08-21T07:55:00Z</time>
      </trkpt>
      <trkpt lat="43.06245" lon="0.14442">
        <ele>601.6</ele>
        <time>2022-08-21T07:55:01Z</time>
      </trkpt>
      <trkpt lat="43.06247" lon="0.14441">
        <ele>602</ele>
        <time>2022-08-21T07:55:03Z</time>
      </trkpt>
      <trkpt lat="43.06248" lon="0.14438">
        <ele>602.4</ele>
        <time>2022-08-21T07:55:05Z</time>
      </trkpt>
      <trkpt lat="43.06249" lon="0.14432">
        <ele>602.8</ele>
        <time>2022-08-21T07:55:08Z</time>
      </trkpt>
      <trkpt lat="43.0625" lon="0.14427">
        <ele>603.2</ele>
        <time>2022-08-21T07:55:11Z</time>
      </trkpt>
      <trkpt lat="43.06259" lon="0.14419">
        <ele>603.2</ele>
        <time>2022-08-21T07:55:16Z</time>
      </trkpt>
      <trkpt lat="43.06267" lon="0.14422">
        <ele>603.2</ele>
        <time>2022-08-21T07:55:19Z</time>
      </trkpt>
      <trkpt lat="43.06269" lon="0.14424">
        <ele>603</ele>
        <time>2022-08-21T07:55:20Z</time>
      </trkpt>
      <trkpt lat="43.06271" lon="0.14427">
        <ele>602.8</ele>
        <time>2022-08-21T07:55:22Z</time>
      </trkpt>
      <trkpt lat="43.06271" lon="0.14429">
        <ele>602.4</ele>
        <time>2022-08-21T07:55:23Z</time>
      </trkpt>
      <trkpt lat="43.06276" lon="0.14442">
        <ele>601.4</ele>
        <time>2022-08-21T07:55:28Z</time>
      </trkpt>
      <trkpt lat="43.06277" lon="0.14444">
        <ele>601.2</ele>
        <time>2022-08-21T07:55:29Z</time>
      </trkpt>
      <trkpt lat="43.0628" lon="0.14446">
        <ele>601</ele>
        <time>2022-08-21T07:55:32Z</time>
      </trkpt>
      <trkpt lat="43.06287" lon="0.14449">
        <ele>601.2</ele>
        <time>2022-08-21T07:55:36Z</time>
      </trkpt>
      <trkpt lat="43.06291" lon="0.14448">
        <ele>601.4</ele>
        <time>2022-08-21T07:55:39Z</time>
      </trkpt>
      <trkpt lat="43.06308" lon="0.14448">
        <ele>601.2</ele>
        <time>2022-08-21T07:55:48Z</time>
      </trkpt>
      <trkpt lat="43.06316" lon="0.14446">
        <ele>600.6</ele>
        <time>2022-08-21T07:55:53Z</time>
      </trkpt>
      <trkpt lat="43.06317" lon="0.14445">
        <ele>600.6</ele>
        <time>2022-08-21T07:55:54Z</time>
      </trkpt>
      <trkpt lat="43.0632" lon="0.14442">
        <ele>600.2</ele>
        <time>2022-08-21T07:55:55Z</time>
      </trkpt>
      <trkpt lat="43.06331" lon="0.14437">
        <ele>599.6</ele>
        <time>2022-08-21T07:55:58Z</time>
      </trkpt>
      <trkpt lat="43.06337" lon="0.14432">
        <ele>599</ele>
        <time>2022-08-21T07:56:00Z</time>
      </trkpt>
      <trkpt lat="43.06344" lon="0.14427">
        <ele>597.4</ele>
        <time>2022-08-21T07:56:03Z</time>
      </trkpt>
      <trkpt lat="43.06349" lon="0.14427">
        <ele>597.2</ele>
        <time>2022-08-21T07:56:04Z</time>
      </trkpt>
      <trkpt lat="43.06365" lon="0.14422">
        <ele>596.2</ele>
        <time>2022-08-21T07:56:08Z</time>
      </trkpt>
      <trkpt lat="43.06367" lon="0.1442">
        <ele>595.8</ele>
        <time>2022-08-21T07:56:09Z</time>
      </trkpt>
      <trkpt lat="43.06374" lon="0.14412">
        <ele>594.8</ele>
        <time>2022-08-21T07:56:12Z</time>
      </trkpt>
      <trkpt lat="43.06378" lon="0.14407">
        <ele>594.2</ele>
        <time>2022-08-21T07:56:15Z</time>
      </trkpt>
      <trkpt lat="43.0638" lon="0.14405">
        <ele>593.6</ele>
        <time>2022-08-21T07:56:16Z</time>
      </trkpt>
      <trkpt lat="43.0638" lon="0.14405">
        <ele>592.6</ele>
        <time>2022-08-21T07:56:18Z</time>
      </trkpt>
      <trkpt lat="43.0638" lon="0.14405">
        <ele>591.4</ele>
        <time>2022-08-21T07:56:20Z</time>
      </trkpt>
      <trkpt lat="43.0638" lon="0.14406">
        <ele>590.4</ele>
        <time>2022-08-21T07:56:26Z</time>
      </trkpt>
      <trkpt lat="43.0638" lon="0.14407">
        <ele>590.4</ele>
        <time>2022-08-21T07:56:28Z</time>
      </trkpt>
      <trkpt lat="43.06378" lon="0.14408">
        <ele>590.6</ele>
        <time>2022-08-21T07:56:35Z</time>
      </trkpt>
      <trkpt lat="43.06375" lon="0.1441">
        <ele>590.8</ele>
        <time>2022-08-21T07:56:41Z</time>
      </trkpt>
      <trkpt lat="43.06371" lon="0.14413">
        <ele>591.2</ele>
        <time>2022-08-21T07:56:44Z</time>
      </trkpt>
      <trkpt lat="43.06368" lon="0.14415">
        <ele>591.6</ele>
        <time>2022-08-21T07:56:47Z</time>
      </trkpt>
      <trkpt lat="43.06367" lon="0.14415">
        <ele>591.8</ele>
        <time>2022-08-21T07:56:48Z</time>
      </trkpt>
      <trkpt lat="43.06363" lon="0.14417">
        <ele>592.4</ele>
        <time>2022-08-21T07:56:51Z</time>
      </trkpt>
      <trkpt lat="43.06359" lon="0.14418">
        <ele>592.8</ele>
        <time>2022-08-21T07:56:53Z</time>
      </trkpt>
      <trkpt lat="43.06358" lon="0.14419">
        <ele>593</ele>
        <time>2022-08-21T07:56:54Z</time>
      </trkpt>
      <trkpt lat="43.06351" lon="0.14421">
        <ele>593.8</ele>
        <time>2022-08-21T07:56:58Z</time>
      </trkpt>
      <trkpt lat="43.06348" lon="0.14421">
        <ele>594</ele>
        <time>2022-08-21T07:56:59Z</time>
      </trkpt>
      <trkpt lat="43.06344" lon="0.14421">
        <ele>594.2</ele>
        <time>2022-08-21T07:57:00Z</time>
      </trkpt>
      <trkpt lat="43.06335" lon="0.14425">
        <ele>594.8</ele>
        <time>2022-08-21T07:57:03Z</time>
      </trkpt>
      <trkpt lat="43.0633" lon="0.14427">
        <ele>595</ele>
        <time>2022-08-21T07:57:05Z</time>
      </trkpt>
      <trkpt lat="43.06317" lon="0.14439">
        <ele>596</ele>
        <time>2022-08-21T07:57:11Z</time>
      </trkpt>
      <trkpt lat="43.0631" lon="0.14447">
        <ele>597</ele>
        <time>2022-08-21T07:57:16Z</time>
      </trkpt>
      <trkpt lat="43.06308" lon="0.14447">
        <ele>597.4</ele>
        <time>2022-08-21T07:57:17Z</time>
      </trkpt>
      <trkpt lat="43.06308" lon="0.14447">
        <ele>597.6</ele>
        <time>2022-08-21T07:57:18Z</time>
      </trkpt>
      <trkpt lat="43.06305" lon="0.14452">
        <ele>598.6</ele>
        <time>2022-08-21T07:57:22Z</time>
      </trkpt>
      <trkpt lat="43.06302" lon="0.14453">
        <ele>599</ele>
        <time>2022-08-21T07:57:24Z</time>
      </trkpt>
      <trkpt lat="43.06302" lon="0.14453">
        <ele>599.6</ele>
        <time>2022-08-21T07:57:26Z</time>
      </trkpt>
      <trkpt lat="43.06302" lon="0.14452">
        <ele>599.6</ele>
        <time>2022-08-21T07:57:27Z</time>
      </trkpt>
      <trkpt lat="43.06302" lon="0.1445">
        <ele>600.2</ele>
        <time>2022-08-21T07:57:29Z</time>
      </trkpt>
      <trkpt lat="43.06304" lon="0.14447">
        <ele>600.4</ele>
        <time>2022-08-21T07:57:31Z</time>
      </trkpt>
      <trkpt lat="43.06305" lon="0.14445">
        <ele>600.6</ele>
        <time>2022-08-21T07:57:32Z</time>
      </trkpt>
      <trkpt lat="43.06307" lon="0.14444">
        <ele>601</ele>
        <time>2022-08-21T07:57:34Z</time>
      </trkpt>
      <trkpt lat="43.06309" lon="0.14442">
        <ele>601.4</ele>
        <time>2022-08-21T07:57:36Z</time>
      </trkpt>
      <trkpt lat="43.0631" lon="0.14441">
        <ele>601.6</ele>
        <time>2022-08-21T07:57:38Z</time>
      </trkpt>
      <trkpt lat="43.06311" lon="0.1444">
        <ele>601.6</ele>
        <time>2022-08-21T07:57:39Z</time>
      </trkpt>
      <trkpt lat="43.06312" lon="0.14439">
        <ele>601.8</ele>
        <time>2022-08-21T07:57:41Z</time>
      </trkpt>
      <trkpt lat="43.06317" lon="0.1443">
        <ele>602</ele>
        <time>2022-08-21T07:57:48Z</time>
      </trkpt>
      <trkpt lat="43.06327" lon="0.1442">
        <ele>602.2</ele>
        <time>2022-08-21T07:57:54Z</time>
      </trkpt>
      <trkpt lat="43.06335" lon="0.1441">
        <ele>602.4</ele>
        <time>2022-08-21T07:58:00Z</time>
      </trkpt>
      <trkpt lat="43.06336" lon="0.1441">
        <ele>602.6</ele>
        <time>2022-08-21T07:58:01Z</time>
      </trkpt>
      <trkpt lat="43.06337" lon="0.14408">
        <ele>602.6</ele>
        <time>2022-08-21T07:58:03Z</time>
      </trkpt>
      <trkpt lat="43.06338" lon="0.14408">
        <ele>602.8</ele>
        <time>2022-08-21T07:58:04Z</time>
      </trkpt>
      <trkpt lat="43.06341" lon="0.14406">
        <ele>603.2</ele>
        <time>2022-08-21T07:58:07Z</time>
      </trkpt>
      <trkpt lat="43.06345" lon="0.14399">
        <ele>603.6</ele>
        <time>2022-08-21T07:58:11Z</time>
      </trkpt>
      <trkpt lat="43.06348" lon="0.14395">
        <ele>603.6</ele>
        <time>2022-08-21T07:58:13Z</time>
      </trkpt>
      <trkpt lat="43.06349" lon="0.14394">
        <ele>604</ele>
        <time>2022-08-21T07:58:14Z</time>
      </trkpt>
      <trkpt lat="43.0635" lon="0.14391">
        <ele>604</ele>
        <time>2022-08-21T07:58:15Z</time>
      </trkpt>
      <trkpt lat="43.06352" lon="0.14388">
        <ele>604.2</ele>
        <time>2022-08-21T07:58:16Z</time>
      </trkpt>
      <trkpt lat="43.06354" lon="0.1438">
        <ele>604.2</ele>
        <time>2022-08-21T07:58:20Z</time>
      </trkpt>
      <trkpt lat="43.06355" lon="0.14378">
        <ele>604.4</ele>
        <time>2022-08-21T07:58:21Z</time>
      </trkpt>
      <trkpt lat="43.06356" lon="0.14374">
        <ele>604.6</ele>
        <time>2022-08-21T07:58:23Z</time>
      </trkpt>
      <trkpt lat="43.06356" lon="0.14366">
        <ele>604.6</ele>
        <time>2022-08-21T07:58:26Z</time>
      </trkpt>
      <trkpt lat="43.06356" lon="0.14362">
        <ele>604.8</ele>
        <time>2022-08-21T07:58:27Z</time>
      </trkpt>
      <trkpt lat="43.06356" lon="0.14351">
        <ele>605.4</ele>
        <time>2022-08-21T07:58:31Z</time>
      </trkpt>
      <trkpt lat="43.06355" lon="0.14348">
        <ele>605.4</ele>
        <time>2022-08-21T07:58:32Z</time>
      </trkpt>
      <trkpt lat="43.06357" lon="0.14342">
        <ele>605.6</ele>
        <time>2022-08-21T07:58:34Z</time>
      </trkpt>
      <trkpt lat="43.06355" lon="0.14335">
        <ele>606</ele>
        <time>2022-08-21T07:58:36Z</time>
      </trkpt>
      <trkpt lat="43.06355" lon="0.14332">
        <ele>606</ele>
        <time>2022-08-21T07:58:37Z</time>
      </trkpt>
      <trkpt lat="43.06357" lon="0.14329">
        <ele>606.2</ele>
        <time>2022-08-21T07:58:38Z</time>
      </trkpt>
      <trkpt lat="43.06357" lon="0.14326">
        <ele>606.2</ele>
        <time>2022-08-21T07:58:39Z</time>
      </trkpt>
      <trkpt lat="43.06361" lon="0.14317">
        <ele>606.6</ele>
        <time>2022-08-21T07:58:42Z</time>
      </trkpt>
      <trkpt lat="43.0638" lon="0.14306">
        <ele>606.8</ele>
        <time>2022-08-21T07:58:48Z</time>
      </trkpt>
      <trkpt lat="43.06384" lon="0.14304">
        <ele>607</ele>
        <time>2022-08-21T07:58:49Z</time>
      </trkpt>
      <trkpt lat="43.06387" lon="0.14297">
        <ele>607.2</ele>
        <time>2022-08-21T07:58:52Z</time>
      </trkpt>
      <trkpt lat="43.06386" lon="0.14296">
        <ele>607.2</ele>
        <time>2022-08-21T07:58:53Z</time>
      </trkpt>
      <trkpt lat="43.06388" lon="0.14293">
        <ele>607.2</ele>
        <time>2022-08-21T07:58:55Z</time>
      </trkpt>
      <trkpt lat="43.06393" lon="0.14293">
        <ele>607</ele>
        <time>2022-08-21T07:58:57Z</time>
      </trkpt>
      <trkpt lat="43.06397" lon="0.14299">
        <ele>607</ele>
        <time>2022-08-21T07:59:01Z</time>
      </trkpt>
      <trkpt lat="43.06402" lon="0.14305">
        <ele>606.8</ele>
        <time>2022-08-21T07:59:06Z</time>
      </trkpt>
      <trkpt lat="43.06404" lon="0.14304">
        <ele>606.8</ele>
        <time>2022-08-21T07:59:07Z</time>
      </trkpt>
      <trkpt lat="43.06417" lon="0.14293">
        <ele>606.4</ele>
        <time>2022-08-21T07:59:14Z</time>
      </trkpt>
      <trkpt lat="43.06431" lon="0.14278">
        <ele>606</ele>
        <time>2022-08-21T07:59:19Z</time>
      </trkpt>
      <trkpt lat="43.06443" lon="0.14269">
        <ele>605.6</ele>
        <time>2022-08-21T07:59:23Z</time>
      </trkpt>
      <trkpt lat="43.06445" lon="0.14267">
        <ele>605.6</ele>
        <time>2022-08-21T07:59:24Z</time>
      </trkpt>
      <trkpt lat="43.06459" lon="0.14255">
        <ele>605.2</ele>
        <time>2022-08-21T07:59:29Z</time>
      </trkpt>
      <trkpt lat="43.06475" lon="0.14249">
        <ele>605.2</ele>
        <time>2022-08-21T07:59:31Z</time>
      </trkpt>
      <trkpt lat="43.06493" lon="0.14244">
        <ele>604.6</ele>
        <time>2022-08-21T07:59:35Z</time>
      </trkpt>
      <trkpt lat="43.06496" lon="0.14243">
        <ele>604.4</ele>
        <time>2022-08-21T07:59:36Z</time>
      </trkpt>
      <trkpt lat="43.0651" lon="0.14229">
        <ele>603.6</ele>
        <time>2022-08-21T07:59:40Z</time>
      </trkpt>
      <trkpt lat="43.06523" lon="0.1421">
        <ele>603.4</ele>
        <time>2022-08-21T07:59:44Z</time>
      </trkpt>
      <trkpt lat="43.06543" lon="0.14184">
        <ele>602.8</ele>
        <time>2022-08-21T07:59:48Z</time>
      </trkpt>
      <trkpt lat="43.06546" lon="0.14177">
        <ele>602.8</ele>
        <time>2022-08-21T07:59:49Z</time>
      </trkpt>
      <trkpt lat="43.06548" lon="0.14172">
        <ele>602.6</ele>
        <time>2022-08-21T07:59:50Z</time>
      </trkpt>
      <trkpt lat="43.06556" lon="0.14151">
        <ele>601.2</ele>
        <time>2022-08-21T07:59:54Z</time>
      </trkpt>
      <trkpt lat="43.0656" lon="0.14145">
        <ele>600.6</ele>
        <time>2022-08-21T07:59:55Z</time>
      </trkpt>
      <trkpt lat="43.06571" lon="0.14127">
        <ele>600.2</ele>
        <time>2022-08-21T07:59:59Z</time>
      </trkpt>
      <trkpt lat="43.06579" lon="0.14112">
        <ele>600.2</ele>
        <time>2022-08-21T08:00:03Z</time>
      </trkpt>
      <trkpt lat="43.06595" lon="0.14088">
        <ele>600.2</ele>
        <time>2022-08-21T08:00:09Z</time>
      </trkpt>
      <trkpt lat="43.06602" lon="0.14083">
        <ele>600.2</ele>
        <time>2022-08-21T08:00:11Z</time>
      </trkpt>
      <trkpt lat="43.06613" lon="0.14083">
        <ele>599.6</ele>
        <time>2022-08-21T08:00:14Z</time>
      </trkpt>
      <trkpt lat="43.06619" lon="0.14086">
        <ele>599.2</ele>
        <time>2022-08-21T08:00:16Z</time>
      </trkpt>
      <trkpt lat="43.06629" lon="0.14099">
        <ele>598.6</ele>
        <time>2022-08-21T08:00:19Z</time>
      </trkpt>
      <trkpt lat="43.06631" lon="0.14105">
        <ele>598.6</ele>
        <time>2022-08-21T08:00:20Z</time>
      </trkpt>
      <trkpt lat="43.06634" lon="0.14114">
        <ele>598.4</ele>
        <time>2022-08-21T08:00:22Z</time>
      </trkpt>
      <trkpt lat="43.06642" lon="0.14126">
        <ele>598</ele>
        <time>2022-08-21T08:00:24Z</time>
      </trkpt>
      <trkpt lat="43.0665" lon="0.14134">
        <ele>597.8</ele>
        <time>2022-08-21T08:00:26Z</time>
      </trkpt>
      <trkpt lat="43.06652" lon="0.14137">
        <ele>597.6</ele>
        <time>2022-08-21T08:00:27Z</time>
      </trkpt>
      <trkpt lat="43.06654" lon="0.14138">
        <ele>597.4</ele>
        <time>2022-08-21T08:00:28Z</time>
      </trkpt>
      <trkpt lat="43.06659" lon="0.14136">
        <ele>597.2</ele>
        <time>2022-08-21T08:00:30Z</time>
      </trkpt>
      <trkpt lat="43.0666" lon="0.14134">
        <ele>597</ele>
        <time>2022-08-21T08:00:31Z</time>
      </trkpt>
      <trkpt lat="43.06659" lon="0.14131">
        <ele>597</ele>
        <time>2022-08-21T08:00:33Z</time>
      </trkpt>
      <trkpt lat="43.06658" lon="0.14126">
        <ele>596.8</ele>
        <time>2022-08-21T08:00:35Z</time>
      </trkpt>
      <trkpt lat="43.0666" lon="0.14121">
        <ele>596.8</ele>
        <time>2022-08-21T08:00:37Z</time>
      </trkpt>
      <trkpt lat="43.06662" lon="0.14115">
        <ele>597.8</ele>
        <time>2022-08-21T08:00:41Z</time>
      </trkpt>
      <trkpt lat="43.06664" lon="0.1411">
        <ele>598.4</ele>
        <time>2022-08-21T08:00:43Z</time>
      </trkpt>
      <trkpt lat="43.06666" lon="0.14103">
        <ele>599.4</ele>
        <time>2022-08-21T08:00:47Z</time>
      </trkpt>
      <trkpt lat="43.06667" lon="0.14096">
        <ele>600.6</ele>
        <time>2022-08-21T08:00:50Z</time>
      </trkpt>
      <trkpt lat="43.06667" lon="0.14094">
        <ele>600.8</ele>
        <time>2022-08-21T08:00:51Z</time>
      </trkpt>
      <trkpt lat="43.06665" lon="0.14086">
        <ele>601.4</ele>
        <time>2022-08-21T08:00:54Z</time>
      </trkpt>
      <trkpt lat="43.06664" lon="0.1408">
        <ele>601.8</ele>
        <time>2022-08-21T08:00:56Z</time>
      </trkpt>
      <trkpt lat="43.06662" lon="0.14068">
        <ele>603</ele>
        <time>2022-08-21T08:01:00Z</time>
      </trkpt>
      <trkpt lat="43.06663" lon="0.14065">
        <ele>603</ele>
        <time>2022-08-21T08:01:01Z</time>
      </trkpt>
      <trkpt lat="43.06663" lon="0.14052">
        <ele>603.8</ele>
        <time>2022-08-21T08:01:05Z</time>
      </trkpt>
      <trkpt lat="43.06661" lon="0.14045">
        <ele>604.2</ele>
        <time>2022-08-21T08:01:07Z</time>
      </trkpt>
      <trkpt lat="43.06663" lon="0.14027">
        <ele>605.4</ele>
        <time>2022-08-21T08:01:13Z</time>
      </trkpt>
      <trkpt lat="43.06663" lon="0.14024">
        <ele>605.4</ele>
        <time>2022-08-21T08:01:14Z</time>
      </trkpt>
      <trkpt lat="43.06663" lon="0.14015">
        <ele>606.2</ele>
        <time>2022-08-21T08:01:18Z</time>
      </trkpt>
      <trkpt lat="43.06665" lon="0.14012">
        <ele>606.6</ele>
        <time>2022-08-21T08:01:19Z</time>
      </trkpt>
      <trkpt lat="43.06665" lon="0.14008">
        <ele>606.8</ele>
        <time>2022-08-21T08:01:20Z</time>
      </trkpt>
      <trkpt lat="43.06667" lon="0.14004">
        <ele>607.8</ele>
        <time>2022-08-21T08:01:22Z</time>
      </trkpt>
      <trkpt lat="43.06672" lon="0.14001">
        <ele>608.6</ele>
        <time>2022-08-21T08:01:25Z</time>
      </trkpt>
      <trkpt lat="43.06675" lon="0.14001">
        <ele>609</ele>
        <time>2022-08-21T08:01:26Z</time>
      </trkpt>
      <trkpt lat="43.06677" lon="0.14001">
        <ele>609.2</ele>
        <time>2022-08-21T08:01:27Z</time>
      </trkpt>
      <trkpt lat="43.06678" lon="0.14001">
        <ele>610</ele>
        <time>2022-08-21T08:01:32Z</time>
      </trkpt>
      <trkpt lat="43.06678" lon="0.14001">
        <ele>610.2</ele>
        <time>2022-08-21T08:01:34Z</time>
      </trkpt>
      <trkpt lat="43.06678" lon="0.14001">
        <ele>610.4</ele>
        <time>2022-08-21T08:01:44Z</time>
      </trkpt>
      <trkpt lat="43.06679" lon="0.14001">
        <ele>610</ele>
        <time>2022-08-21T08:02:18Z</time>
      </trkpt>
      <trkpt lat="43.06681" lon="0.14004">
        <ele>609.6</ele>
        <time>2022-08-21T08:02:24Z</time>
      </trkpt>
      <trkpt lat="43.06685" lon="0.14007">
        <ele>609.6</ele>
        <time>2022-08-21T08:02:26Z</time>
      </trkpt>
      <trkpt lat="43.06688" lon="0.1401">
        <ele>609.4</ele>
        <time>2022-08-21T08:02:28Z</time>
      </trkpt>
      <trkpt lat="43.06689" lon="0.14012">
        <ele>609.4</ele>
        <time>2022-08-21T08:02:31Z</time>
      </trkpt>
      <trkpt lat="43.06689" lon="0.14012">
        <ele>609</ele>
        <time>2022-08-21T08:02:38Z</time>
      </trkpt>
      <trkpt lat="43.06689" lon="0.14012">
        <ele>608.8</ele>
        <time>2022-08-21T08:02:46Z</time>
      </trkpt>
      <trkpt lat="43.06689" lon="0.14013">
        <ele>608.8</ele>
        <time>2022-08-21T08:03:47Z</time>
      </trkpt>
      <trkpt lat="43.06688" lon="0.14012">
        <ele>608.8</ele>
        <time>2022-08-21T08:03:56Z</time>
      </trkpt>
      <trkpt lat="43.06686" lon="0.14007">
        <ele>608.8</ele>
        <time>2022-08-21T08:03:58Z</time>
      </trkpt>
      <trkpt lat="43.06684" lon="0.14005">
        <ele>608.8</ele>
        <time>2022-08-21T08:03:59Z</time>
      </trkpt>
      <trkpt lat="43.06682" lon="0.14003">
        <ele>608.8</ele>
        <time>2022-08-21T08:04:00Z</time>
      </trkpt>
      <trkpt lat="43.06672" lon="0.14003">
        <ele>609.4</ele>
        <time>2022-08-21T08:04:04Z</time>
      </trkpt>
      <trkpt lat="43.06668" lon="0.14005">
        <ele>609.4</ele>
        <time>2022-08-21T08:04:06Z</time>
      </trkpt>
      <trkpt lat="43.06667" lon="0.1401">
        <ele>609.4</ele>
        <time>2022-08-21T08:04:08Z</time>
      </trkpt>
      <trkpt lat="43.06668" lon="0.14016">
        <ele>609.4</ele>
        <time>2022-08-21T08:04:10Z</time>
      </trkpt>
      <trkpt lat="43.06671" lon="0.14026">
        <ele>608.8</ele>
        <time>2022-08-21T08:04:13Z</time>
      </trkpt>
      <trkpt lat="43.0667" lon="0.14039">
        <ele>607.6</ele>
        <time>2022-08-21T08:04:16Z</time>
      </trkpt>
      <trkpt lat="43.06668" lon="0.14049">
        <ele>606.4</ele>
        <time>2022-08-21T08:04:18Z</time>
      </trkpt>
      <trkpt lat="43.06667" lon="0.14068">
        <ele>605.2</ele>
        <time>2022-08-21T08:04:21Z</time>
      </trkpt>
      <trkpt lat="43.06665" lon="0.14088">
        <ele>604.4</ele>
        <time>2022-08-21T08:04:24Z</time>
      </trkpt>
      <trkpt lat="43.06662" lon="0.14099">
        <ele>603.6</ele>
        <time>2022-08-21T08:04:26Z</time>
      </trkpt>
      <trkpt lat="43.06661" lon="0.14102">
        <ele>603.4</ele>
        <time>2022-08-21T08:04:27Z</time>
      </trkpt>
      <trkpt lat="43.0666" lon="0.14109">
        <ele>602.4</ele>
        <time>2022-08-21T08:04:28Z</time>
      </trkpt>
      <trkpt lat="43.06661" lon="0.14117">
        <ele>601</ele>
        <time>2022-08-21T08:04:30Z</time>
      </trkpt>
      <trkpt lat="43.06662" lon="0.1412">
        <ele>600.6</ele>
        <time>2022-08-21T08:04:31Z</time>
      </trkpt>
      <trkpt lat="43.06664" lon="0.14123">
        <ele>599.8</ele>
        <time>2022-08-21T08:04:32Z</time>
      </trkpt>
      <trkpt lat="43.06665" lon="0.14125">
        <ele>599.4</ele>
        <time>2022-08-21T08:04:33Z</time>
      </trkpt>
      <trkpt lat="43.06665" lon="0.14125">
        <ele>598.4</ele>
        <time>2022-08-21T08:04:34Z</time>
      </trkpt>
      <trkpt lat="43.06665" lon="0.14125">
        <ele>596.8</ele>
        <time>2022-08-21T08:04:37Z</time>
      </trkpt>
      <trkpt lat="43.06665" lon="0.14125">
        <ele>596.4</ele>
        <time>2022-08-21T08:04:41Z</time>
      </trkpt>
      <trkpt lat="43.06665" lon="0.14125">
        <ele>596</ele>
        <time>2022-08-21T08:05:24Z</time>
      </trkpt>
      <trkpt lat="43.0667" lon="0.14127">
        <ele>596</ele>
        <time>2022-08-21T08:05:27Z</time>
      </trkpt>
      <trkpt lat="43.06677" lon="0.1412">
        <ele>596</ele>
        <time>2022-08-21T08:05:33Z</time>
      </trkpt>
      <trkpt lat="43.06679" lon="0.14112">
        <ele>596</ele>
        <time>2022-08-21T08:05:37Z</time>
      </trkpt>
      <trkpt lat="43.06681" lon="0.14103">
        <ele>595.8</ele>
        <time>2022-08-21T08:05:41Z</time>
      </trkpt>
      <trkpt lat="43.06682" lon="0.14093">
        <ele>595.8</ele>
        <time>2022-08-21T08:05:44Z</time>
      </trkpt>
      <trkpt lat="43.06683" lon="0.1408">
        <ele>595.8</ele>
        <time>2022-08-21T08:05:48Z</time>
      </trkpt>
      <trkpt lat="43.06684" lon="0.14074">
        <ele>595.6</ele>
        <time>2022-08-21T08:05:50Z</time>
      </trkpt>
      <trkpt lat="43.06685" lon="0.14062">
        <ele>595.6</ele>
        <time>2022-08-21T08:05:54Z</time>
      </trkpt>
      <trkpt lat="43.06688" lon="0.14044">
        <ele>595.4</ele>
        <time>2022-08-21T08:05:59Z</time>
      </trkpt>
      <trkpt lat="43.06691" lon="0.14046">
        <ele>595.2</ele>
        <time>2022-08-21T08:06:01Z</time>
      </trkpt>
      <trkpt lat="43.06691" lon="0.14053">
        <ele>595</ele>
        <time>2022-08-21T08:06:04Z</time>
      </trkpt>
      <trkpt lat="43.06691" lon="0.14053">
        <ele>594.8</ele>
        <time>2022-08-21T08:06:07Z</time>
      </trkpt>
      <trkpt lat="43.06691" lon="0.14053">
        <ele>594</ele>
        <time>2022-08-21T08:06:12Z</time>
      </trkpt>
      <trkpt lat="43.06691" lon="0.14053">
        <ele>593.8</ele>
        <time>2022-08-21T08:06:16Z</time>
      </trkpt>
      <trkpt lat="43.06692" lon="0.14053">
        <ele>593.6</ele>
        <time>2022-08-21T08:06:27Z</time>
      </trkpt>
      <trkpt lat="43.06697" lon="0.14048">
        <ele>593.6</ele>
        <time>2022-08-21T08:06:30Z</time>
      </trkpt>
      <trkpt lat="43.06708" lon="0.14045">
        <ele>594.2</ele>
        <time>2022-08-21T08:06:35Z</time>
      </trkpt>
      <trkpt lat="43.0671" lon="0.14045">
        <ele>594.6</ele>
        <time>2022-08-21T08:06:37Z</time>
      </trkpt>
      <trkpt lat="43.06712" lon="0.14044">
        <ele>594.8</ele>
        <time>2022-08-21T08:06:38Z</time>
      </trkpt>
      <trkpt lat="43.06719" lon="0.14042">
        <ele>596</ele>
        <time>2022-08-21T08:06:42Z</time>
      </trkpt>
      <trkpt lat="43.06722" lon="0.14041">
        <ele>596.2</ele>
        <time>2022-08-21T08:06:43Z</time>
      </trkpt>
      <trkpt lat="43.06733" lon="0.14042">
        <ele>597</ele>
        <time>2022-08-21T08:06:47Z</time>
      </trkpt>
      <trkpt lat="43.06737" lon="0.14041">
        <ele>597.2</ele>
        <time>2022-08-21T08:06:49Z</time>
      </trkpt>
      <trkpt lat="43.06741" lon="0.14038">
        <ele>597.8</ele>
        <time>2022-08-21T08:06:51Z</time>
      </trkpt>
      <trkpt lat="43.06748" lon="0.14034">
        <ele>598</ele>
        <time>2022-08-21T08:06:53Z</time>
      </trkpt>
      <trkpt lat="43.06754" lon="0.14032">
        <ele>598.2</ele>
        <time>2022-08-21T08:06:55Z</time>
      </trkpt>
      <trkpt lat="43.06764" lon="0.14029">
        <ele>599.2</ele>
        <time>2022-08-21T08:06:59Z</time>
      </trkpt>
      <trkpt lat="43.06766" lon="0.14028">
        <ele>599.2</ele>
        <time>2022-08-21T08:07:00Z</time>
      </trkpt>
      <trkpt lat="43.06769" lon="0.14025">
        <ele>599.6</ele>
        <time>2022-08-21T08:07:02Z</time>
      </trkpt>
      <trkpt lat="43.06775" lon="0.14021">
        <ele>600</ele>
        <time>2022-08-21T08:07:05Z</time>
      </trkpt>
      <trkpt lat="43.06776" lon="0.14015">
        <ele>600.2</ele>
        <time>2022-08-21T08:07:08Z</time>
      </trkpt>
      <trkpt lat="43.06782" lon="0.14005">
        <ele>600.6</ele>
        <time>2022-08-21T08:07:13Z</time>
      </trkpt>
      <trkpt lat="43.06784" lon="0.14001">
        <ele>600.8</ele>
        <time>2022-08-21T08:07:15Z</time>
      </trkpt>
      <trkpt lat="43.06784" lon="0.13999">
        <ele>601</ele>
        <time>2022-08-21T08:07:16Z</time>
      </trkpt>
      <trkpt lat="43.06787" lon="0.13994">
        <ele>601.4</ele>
        <time>2022-08-21T08:07:19Z</time>
      </trkpt>
      <trkpt lat="43.06787" lon="0.13992">
        <ele>601.8</ele>
        <time>2022-08-21T08:07:20Z</time>
      </trkpt>
      <trkpt lat="43.06791" lon="0.13987">
        <ele>602.4</ele>
        <time>2022-08-21T08:07:23Z</time>
      </trkpt>
      <trkpt lat="43.06793" lon="0.13982">
        <ele>602.6</ele>
        <time>2022-08-21T08:07:25Z</time>
      </trkpt>
      <trkpt lat="43.06793" lon="0.13981">
        <ele>602.8</ele>
        <time>2022-08-21T08:07:26Z</time>
      </trkpt>
      <trkpt lat="43.06793" lon="0.13979">
        <ele>603</ele>
        <time>2022-08-21T08:07:27Z</time>
      </trkpt>
      <trkpt lat="43.06797" lon="0.13974">
        <ele>603.4</ele>
        <time>2022-08-21T08:07:29Z</time>
      </trkpt>
      <trkpt lat="43.06798" lon="0.13972">
        <ele>603.8</ele>
        <time>2022-08-21T08:07:30Z</time>
      </trkpt>
      <trkpt lat="43.06798" lon="0.13969">
        <ele>603.8</ele>
        <time>2022-08-21T08:07:31Z</time>
      </trkpt>
      <trkpt lat="43.068" lon="0.13965">
        <ele>604.2</ele>
        <time>2022-08-21T08:07:32Z</time>
      </trkpt>
      <trkpt lat="43.06801" lon="0.13961">
        <ele>604.4</ele>
        <time>2022-08-21T08:07:34Z</time>
      </trkpt>
      <trkpt lat="43.06802" lon="0.13955">
        <ele>604.6</ele>
        <time>2022-08-21T08:07:36Z</time>
      </trkpt>
      <trkpt lat="43.06804" lon="0.13951">
        <ele>605</ele>
        <time>2022-08-21T08:07:37Z</time>
      </trkpt>
      <trkpt lat="43.06808" lon="0.13939">
        <ele>606</ele>
        <time>2022-08-21T08:07:42Z</time>
      </trkpt>
      <trkpt lat="43.0681" lon="0.13937">
        <ele>606.4</ele>
        <time>2022-08-21T08:07:43Z</time>
      </trkpt>
      <trkpt lat="43.06812" lon="0.13934">
        <ele>606.4</ele>
        <time>2022-08-21T08:07:44Z</time>
      </trkpt>
      <trkpt lat="43.06818" lon="0.13918">
        <ele>607.2</ele>
        <time>2022-08-21T08:07:49Z</time>
      </trkpt>
      <trkpt lat="43.06818" lon="0.13915">
        <ele>607.4</ele>
        <time>2022-08-21T08:07:50Z</time>
      </trkpt>
      <trkpt lat="43.06819" lon="0.13913">
        <ele>607.8</ele>
        <time>2022-08-21T08:07:51Z</time>
      </trkpt>
      <trkpt lat="43.06822" lon="0.13907">
        <ele>608.2</ele>
        <time>2022-08-21T08:07:54Z</time>
      </trkpt>
      <trkpt lat="43.06825" lon="0.13904">
        <ele>608.4</ele>
        <time>2022-08-21T08:07:55Z</time>
      </trkpt>
      <trkpt lat="43.06827" lon="0.13901">
        <ele>608.6</ele>
        <time>2022-08-21T08:07:56Z</time>
      </trkpt>
      <trkpt lat="43.06829" lon="0.13896">
        <ele>609.2</ele>
        <time>2022-08-21T08:07:59Z</time>
      </trkpt>
      <trkpt lat="43.06832" lon="0.13891">
        <ele>609.4</ele>
        <time>2022-08-21T08:08:01Z</time>
      </trkpt>
      <trkpt lat="43.06836" lon="0.13886">
        <ele>610</ele>
        <time>2022-08-21T08:08:04Z</time>
      </trkpt>
      <trkpt lat="43.06835" lon="0.13884">
        <ele>610</ele>
        <time>2022-08-21T08:08:05Z</time>
      </trkpt>
      <trkpt lat="43.06837" lon="0.13877">
        <ele>610.6</ele>
        <time>2022-08-21T08:08:08Z</time>
      </trkpt>
      <trkpt lat="43.06838" lon="0.13874">
        <ele>611.4</ele>
        <time>2022-08-21T08:08:12Z</time>
      </trkpt>
      <trkpt lat="43.06839" lon="0.13872">
        <ele>611.8</ele>
        <time>2022-08-21T08:08:13Z</time>
      </trkpt>
      <trkpt lat="43.0684" lon="0.1387">
        <ele>611.8</ele>
        <time>2022-08-21T08:08:14Z</time>
      </trkpt>
      <trkpt lat="43.06845" lon="0.13864">
        <ele>612.6</ele>
        <time>2022-08-21T08:08:17Z</time>
      </trkpt>
      <trkpt lat="43.06845" lon="0.13862">
        <ele>613</ele>
        <time>2022-08-21T08:08:19Z</time>
      </trkpt>
      <trkpt lat="43.06846" lon="0.13857">
        <ele>613.4</ele>
        <time>2022-08-21T08:08:21Z</time>
      </trkpt>
      <trkpt lat="43.06847" lon="0.13856">
        <ele>613.6</ele>
        <time>2022-08-21T08:08:22Z</time>
      </trkpt>
      <trkpt lat="43.06849" lon="0.13846">
        <ele>614.2</ele>
        <time>2022-08-21T08:08:25Z</time>
      </trkpt>
      <trkpt lat="43.06849" lon="0.1384">
        <ele>614.4</ele>
        <time>2022-08-21T08:08:27Z</time>
      </trkpt>
      <trkpt lat="43.06849" lon="0.13838">
        <ele>614.6</ele>
        <time>2022-08-21T08:08:28Z</time>
      </trkpt>
      <trkpt lat="43.0685" lon="0.13832">
        <ele>615</ele>
        <time>2022-08-21T08:08:30Z</time>
      </trkpt>
      <trkpt lat="43.06854" lon="0.13827">
        <ele>615.2</ele>
        <time>2022-08-21T08:08:32Z</time>
      </trkpt>
      <trkpt lat="43.06857" lon="0.13824">
        <ele>615.2</ele>
        <time>2022-08-21T08:08:33Z</time>
      </trkpt>
      <trkpt lat="43.0686" lon="0.13818">
        <ele>615.4</ele>
        <time>2022-08-21T08:08:35Z</time>
      </trkpt>
      <trkpt lat="43.06862" lon="0.13809">
        <ele>615.6</ele>
        <time>2022-08-21T08:08:38Z</time>
      </trkpt>
      <trkpt lat="43.06865" lon="0.13793">
        <ele>616</ele>
        <time>2022-08-21T08:08:43Z</time>
      </trkpt>
      <trkpt lat="43.06866" lon="0.1379">
        <ele>616</ele>
        <time>2022-08-21T08:08:44Z</time>
      </trkpt>
      <trkpt lat="43.06869" lon="0.13774">
        <ele>616.4</ele>
        <time>2022-08-21T08:08:49Z</time>
      </trkpt>
      <trkpt lat="43.06869" lon="0.13771">
        <ele>616.4</ele>
        <time>2022-08-21T08:08:50Z</time>
      </trkpt>
      <trkpt lat="43.0687" lon="0.1376">
        <ele>616.2</ele>
        <time>2022-08-21T08:08:53Z</time>
      </trkpt>
      <trkpt lat="43.06871" lon="0.13752">
        <ele>616.4</ele>
        <time>2022-08-21T08:08:55Z</time>
      </trkpt>
      <trkpt lat="43.06871" lon="0.13734">
        <ele>616.4</ele>
        <time>2022-08-21T08:08:59Z</time>
      </trkpt>
      <trkpt lat="43.06871" lon="0.1373">
        <ele>616.4</ele>
        <time>2022-08-21T08:09:00Z</time>
      </trkpt>
      <trkpt lat="43.0687" lon="0.1371">
        <ele>616.6</ele>
        <time>2022-08-21T08:09:05Z</time>
      </trkpt>
      <trkpt lat="43.06866" lon="0.13698">
        <ele>616.6</ele>
        <time>2022-08-21T08:09:08Z</time>
      </trkpt>
      <trkpt lat="43.06864" lon="0.13686">
        <ele>616.6</ele>
        <time>2022-08-21T08:09:11Z</time>
      </trkpt>
      <trkpt lat="43.06864" lon="0.13683">
        <ele>616.6</ele>
        <time>2022-08-21T08:09:12Z</time>
      </trkpt>
      <trkpt lat="43.06865" lon="0.13669">
        <ele>616.8</ele>
        <time>2022-08-21T08:09:15Z</time>
      </trkpt>
      <trkpt lat="43.06859" lon="0.1364">
        <ele>617</ele>
        <time>2022-08-21T08:09:22Z</time>
      </trkpt>
      <trkpt lat="43.06848" lon="0.13611">
        <ele>616.8</ele>
        <time>2022-08-21T08:09:28Z</time>
      </trkpt>
      <trkpt lat="43.06846" lon="0.13605">
        <ele>616.6</ele>
        <time>2022-08-21T08:09:29Z</time>
      </trkpt>
      <trkpt lat="43.06838" lon="0.13591">
        <ele>616.6</ele>
        <time>2022-08-21T08:09:32Z</time>
      </trkpt>
      <trkpt lat="43.06837" lon="0.13588">
        <ele>616.4</ele>
        <time>2022-08-21T08:09:33Z</time>
      </trkpt>
      <trkpt lat="43.06824" lon="0.13581">
        <ele>616.2</ele>
        <time>2022-08-21T08:09:36Z</time>
      </trkpt>
      <trkpt lat="43.06821" lon="0.13574">
        <ele>616</ele>
        <time>2022-08-21T08:09:37Z</time>
      </trkpt>
      <trkpt lat="43.06822" lon="0.13559">
        <ele>615.6</ele>
        <time>2022-08-21T08:09:40Z</time>
      </trkpt>
      <trkpt lat="43.06825" lon="0.13558">
        <ele>615.8</ele>
        <time>2022-08-21T08:09:41Z</time>
      </trkpt>
      <trkpt lat="43.06828" lon="0.13557">
        <ele>615.8</ele>
        <time>2022-08-21T08:09:42Z</time>
      </trkpt>
      <trkpt lat="43.06842" lon="0.1356">
        <ele>615.8</ele>
        <time>2022-08-21T08:09:45Z</time>
      </trkpt>
      <trkpt lat="43.06864" lon="0.13565">
        <ele>615.6</ele>
        <time>2022-08-21T08:09:50Z</time>
      </trkpt>
      <trkpt lat="43.06892" lon="0.13572">
        <ele>615.4</ele>
        <time>2022-08-21T08:09:57Z</time>
      </trkpt>
      <trkpt lat="43.06911" lon="0.13576">
        <ele>615.2</ele>
        <time>2022-08-21T08:10:02Z</time>
      </trkpt>
      <trkpt lat="43.06921" lon="0.13579">
        <ele>615.4</ele>
        <time>2022-08-21T08:10:05Z</time>
      </trkpt>
      <trkpt lat="43.06952" lon="0.13589">
        <ele>615.6</ele>
        <time>2022-08-21T08:10:13Z</time>
      </trkpt>
      <trkpt lat="43.06966" lon="0.13595">
        <ele>615.8</ele>
        <time>2022-08-21T08:10:18Z</time>
      </trkpt>
      <trkpt lat="43.06987" lon="0.13608">
        <ele>615.8</ele>
        <time>2022-08-21T08:10:25Z</time>
      </trkpt>
      <trkpt lat="43.07" lon="0.13627">
        <ele>615.4</ele>
        <time>2022-08-21T08:10:30Z</time>
      </trkpt>
      <trkpt lat="43.07009" lon="0.13643">
        <ele>615</ele>
        <time>2022-08-21T08:10:33Z</time>
      </trkpt>
      <trkpt lat="43.07014" lon="0.13651">
        <ele>614.8</ele>
        <time>2022-08-21T08:10:35Z</time>
      </trkpt>
      <trkpt lat="43.07016" lon="0.13655">
        <ele>614.8</ele>
        <time>2022-08-21T08:10:36Z</time>
      </trkpt>
      <trkpt lat="43.07025" lon="0.1367">
        <ele>613.6</ele>
        <time>2022-08-21T08:10:40Z</time>
      </trkpt>
      <trkpt lat="43.07028" lon="0.13671">
        <ele>612.8</ele>
        <time>2022-08-21T08:10:41Z</time>
      </trkpt>
      <trkpt lat="43.07031" lon="0.13671">
        <ele>612.4</ele>
        <time>2022-08-21T08:10:42Z</time>
      </trkpt>
      <trkpt lat="43.07037" lon="0.13671">
        <ele>611.2</ele>
        <time>2022-08-21T08:10:44Z</time>
      </trkpt>
      <trkpt lat="43.07045" lon="0.13668">
        <ele>609.4</ele>
        <time>2022-08-21T08:10:47Z</time>
      </trkpt>
      <trkpt lat="43.07047" lon="0.13665">
        <ele>609</ele>
        <time>2022-08-21T08:10:48Z</time>
      </trkpt>
      <trkpt lat="43.0705" lon="0.13663">
        <ele>608</ele>
        <time>2022-08-21T08:10:49Z</time>
      </trkpt>
      <trkpt lat="43.07057" lon="0.13657">
        <ele>606.6</ele>
        <time>2022-08-21T08:10:51Z</time>
      </trkpt>
      <trkpt lat="43.07067" lon="0.13651">
        <ele>605.2</ele>
        <time>2022-08-21T08:10:53Z</time>
      </trkpt>
      <trkpt lat="43.07072" lon="0.1365">
        <ele>603.8</ele>
        <time>2022-08-21T08:10:54Z</time>
      </trkpt>
      <trkpt lat="43.07081" lon="0.13651">
        <ele>602</ele>
        <time>2022-08-21T08:10:56Z</time>
      </trkpt>
      <trkpt lat="43.07088" lon="0.13651">
        <ele>600.4</ele>
        <time>2022-08-21T08:10:58Z</time>
      </trkpt>
      <trkpt lat="43.07095" lon="0.13647">
        <ele>599.4</ele>
        <time>2022-08-21T08:11:00Z</time>
      </trkpt>
      <trkpt lat="43.071" lon="0.13643">
        <ele>598.8</ele>
        <time>2022-08-21T08:11:01Z</time>
      </trkpt>
      <trkpt lat="43.07106" lon="0.13638">
        <ele>597.6</ele>
        <time>2022-08-21T08:11:02Z</time>
      </trkpt>
      <trkpt lat="43.07116" lon="0.13629">
        <ele>596.2</ele>
        <time>2022-08-21T08:11:04Z</time>
      </trkpt>
      <trkpt lat="43.07125" lon="0.13622">
        <ele>595.6</ele>
        <time>2022-08-21T08:11:05Z</time>
      </trkpt>
      <trkpt lat="43.07132" lon="0.13615">
        <ele>594.4</ele>
        <time>2022-08-21T08:11:06Z</time>
      </trkpt>
      <trkpt lat="43.07139" lon="0.13609">
        <ele>593</ele>
        <time>2022-08-21T08:11:08Z</time>
      </trkpt>
      <trkpt lat="43.07145" lon="0.13605">
        <ele>591.6</ele>
        <time>2022-08-21T08:11:10Z</time>
      </trkpt>
      <trkpt lat="43.07154" lon="0.13594">
        <ele>590.2</ele>
        <time>2022-08-21T08:11:13Z</time>
      </trkpt>
      <trkpt lat="43.07168" lon="0.13581">
        <ele>589</ele>
        <time>2022-08-21T08:11:15Z</time>
      </trkpt>
      <trkpt lat="43.07172" lon="0.13574">
        <ele>588.4</ele>
        <time>2022-08-21T08:11:16Z</time>
      </trkpt>
      <trkpt lat="43.07177" lon="0.13567">
        <ele>587.6</ele>
        <time>2022-08-21T08:11:17Z</time>
      </trkpt>
      <trkpt lat="43.07186" lon="0.13554">
        <ele>585.8</ele>
        <time>2022-08-21T08:11:19Z</time>
      </trkpt>
      <trkpt lat="43.0719" lon="0.13547">
        <ele>585.2</ele>
        <time>2022-08-21T08:11:20Z</time>
      </trkpt>
      <trkpt lat="43.07194" lon="0.13542">
        <ele>584.6</ele>
        <time>2022-08-21T08:11:21Z</time>
      </trkpt>
      <trkpt lat="43.07199" lon="0.13539">
        <ele>584.2</ele>
        <time>2022-08-21T08:11:22Z</time>
      </trkpt>
      <trkpt lat="43.07203" lon="0.13537">
        <ele>583.4</ele>
        <time>2022-08-21T08:11:23Z</time>
      </trkpt>
      <trkpt lat="43.07208" lon="0.13534">
        <ele>581.8</ele>
        <time>2022-08-21T08:11:25Z</time>
      </trkpt>
      <trkpt lat="43.07211" lon="0.13535">
        <ele>580.6</ele>
        <time>2022-08-21T08:11:26Z</time>
      </trkpt>
      <trkpt lat="43.07219" lon="0.13532">
        <ele>578.4</ele>
        <time>2022-08-21T08:11:28Z</time>
      </trkpt>
      <trkpt lat="43.07223" lon="0.13527">
        <ele>578</ele>
        <time>2022-08-21T08:11:29Z</time>
      </trkpt>
      <trkpt lat="43.07228" lon="0.13523">
        <ele>577.2</ele>
        <time>2022-08-21T08:11:30Z</time>
      </trkpt>
      <trkpt lat="43.07247" lon="0.13512">
        <ele>576.6</ele>
        <time>2022-08-21T08:11:32Z</time>
      </trkpt>
      <trkpt lat="43.07256" lon="0.13506">
        <ele>575.8</ele>
        <time>2022-08-21T08:11:33Z</time>
      </trkpt>
      <trkpt lat="43.07267" lon="0.13499">
        <ele>574.8</ele>
        <time>2022-08-21T08:11:34Z</time>
      </trkpt>
      <trkpt lat="43.07281" lon="0.13487">
        <ele>573</ele>
        <time>2022-08-21T08:11:36Z</time>
      </trkpt>
      <trkpt lat="43.07287" lon="0.13483">
        <ele>572.6</ele>
        <time>2022-08-21T08:11:37Z</time>
      </trkpt>
      <trkpt lat="43.07294" lon="0.13478">
        <ele>571.6</ele>
        <time>2022-08-21T08:11:38Z</time>
      </trkpt>
      <trkpt lat="43.07312" lon="0.13467">
        <ele>569.6</ele>
        <time>2022-08-21T08:11:40Z</time>
      </trkpt>
      <trkpt lat="43.07316" lon="0.13462">
        <ele>569.2</ele>
        <time>2022-08-21T08:11:41Z</time>
      </trkpt>
      <trkpt lat="43.07323" lon="0.13455">
        <ele>567.4</ele>
        <time>2022-08-21T08:11:42Z</time>
      </trkpt>
      <trkpt lat="43.07327" lon="0.13449">
        <ele>565.4</ele>
        <time>2022-08-21T08:11:43Z</time>
      </trkpt>
      <trkpt lat="43.07337" lon="0.13431">
        <ele>563</ele>
        <time>2022-08-21T08:11:45Z</time>
      </trkpt>
      <trkpt lat="43.07344" lon="0.13413">
        <ele>561.4</ele>
        <time>2022-08-21T08:11:47Z</time>
      </trkpt>
      <trkpt lat="43.07348" lon="0.134">
        <ele>560.8</ele>
        <time>2022-08-21T08:11:49Z</time>
      </trkpt>
      <trkpt lat="43.07349" lon="0.13388">
        <ele>560.2</ele>
        <time>2022-08-21T08:11:51Z</time>
      </trkpt>
      <trkpt lat="43.0735" lon="0.13377">
        <ele>559.2</ele>
        <time>2022-08-21T08:11:53Z</time>
      </trkpt>
      <trkpt lat="43.07351" lon="0.13371">
        <ele>559.2</ele>
        <time>2022-08-21T08:11:54Z</time>
      </trkpt>
      <trkpt lat="43.07362" lon="0.13338">
        <ele>558</ele>
        <time>2022-08-21T08:11:59Z</time>
      </trkpt>
      <trkpt lat="43.07363" lon="0.13332">
        <ele>558</ele>
        <time>2022-08-21T08:12:00Z</time>
      </trkpt>
      <trkpt lat="43.07371" lon="0.13311">
        <ele>556.8</ele>
        <time>2022-08-21T08:12:04Z</time>
      </trkpt>
      <trkpt lat="43.07372" lon="0.13307">
        <ele>556.4</ele>
        <time>2022-08-21T08:12:05Z</time>
      </trkpt>
      <trkpt lat="43.07375" lon="0.13298">
        <ele>555.6</ele>
        <time>2022-08-21T08:12:07Z</time>
      </trkpt>
      <trkpt lat="43.07379" lon="0.133">
        <ele>555</ele>
        <time>2022-08-21T08:12:09Z</time>
      </trkpt>
      <trkpt lat="43.07381" lon="0.13303">
        <ele>553.8</ele>
        <time>2022-08-21T08:12:10Z</time>
      </trkpt>
      <trkpt lat="43.07384" lon="0.13314">
        <ele>552.4</ele>
        <time>2022-08-21T08:12:12Z</time>
      </trkpt>
      <trkpt lat="43.07386" lon="0.13319">
        <ele>552</ele>
        <time>2022-08-21T08:12:13Z</time>
      </trkpt>
      <trkpt lat="43.07387" lon="0.13325">
        <ele>551.2</ele>
        <time>2022-08-21T08:12:14Z</time>
      </trkpt>
      <trkpt lat="43.07387" lon="0.13335">
        <ele>550.2</ele>
        <time>2022-08-21T08:12:16Z</time>
      </trkpt>
      <trkpt lat="43.07387" lon="0.13344">
        <ele>549.6</ele>
        <time>2022-08-21T08:12:18Z</time>
      </trkpt>
      <trkpt lat="43.07387" lon="0.13348">
        <ele>549</ele>
        <time>2022-08-21T08:12:19Z</time>
      </trkpt>
      <trkpt lat="43.07387" lon="0.1336">
        <ele>548.2</ele>
        <time>2022-08-21T08:12:22Z</time>
      </trkpt>
      <trkpt lat="43.07389" lon="0.13362">
        <ele>548</ele>
        <time>2022-08-21T08:12:23Z</time>
      </trkpt>
      <trkpt lat="43.07393" lon="0.1336">
        <ele>547.6</ele>
        <time>2022-08-21T08:12:25Z</time>
      </trkpt>
      <trkpt lat="43.07397" lon="0.13341">
        <ele>547.2</ele>
        <time>2022-08-21T08:12:29Z</time>
      </trkpt>
      <trkpt lat="43.07396" lon="0.13327">
        <ele>546.8</ele>
        <time>2022-08-21T08:12:31Z</time>
      </trkpt>
      <trkpt lat="43.07394" lon="0.13305">
        <ele>546.6</ele>
        <time>2022-08-21T08:12:34Z</time>
      </trkpt>
      <trkpt lat="43.07391" lon="0.13278">
        <ele>545.8</ele>
        <time>2022-08-21T08:12:38Z</time>
      </trkpt>
      <trkpt lat="43.0739" lon="0.13267">
        <ele>545.6</ele>
        <time>2022-08-21T08:12:40Z</time>
      </trkpt>
      <trkpt lat="43.07389" lon="0.1326">
        <ele>545.4</ele>
        <time>2022-08-21T08:12:42Z</time>
      </trkpt>
      <trkpt lat="43.07391" lon="0.13258">
        <ele>545.2</ele>
        <time>2022-08-21T08:12:43Z</time>
      </trkpt>
      <trkpt lat="43.07395" lon="0.13264">
        <ele>544.6</ele>
        <time>2022-08-21T08:12:46Z</time>
      </trkpt>
      <trkpt lat="43.07397" lon="0.13282">
        <ele>543.8</ele>
        <time>2022-08-21T08:12:49Z</time>
      </trkpt>
      <trkpt lat="43.07398" lon="0.13288">
        <ele>543.6</ele>
        <time>2022-08-21T08:12:50Z</time>
      </trkpt>
      <trkpt lat="43.074" lon="0.13295">
        <ele>543.6</ele>
        <time>2022-08-21T08:12:51Z</time>
      </trkpt>
      <trkpt lat="43.07402" lon="0.13302">
        <ele>543.2</ele>
        <time>2022-08-21T08:12:52Z</time>
      </trkpt>
      <trkpt lat="43.07408" lon="0.13314">
        <ele>542.2</ele>
        <time>2022-08-21T08:12:54Z</time>
      </trkpt>
      <trkpt lat="43.07422" lon="0.13334">
        <ele>541</ele>
        <time>2022-08-21T08:12:57Z</time>
      </trkpt>
      <trkpt lat="43.07426" lon="0.13343">
        <ele>540.6</ele>
        <time>2022-08-21T08:12:58Z</time>
      </trkpt>
      <trkpt lat="43.07431" lon="0.13353">
        <ele>539.8</ele>
        <time>2022-08-21T08:12:59Z</time>
      </trkpt>
      <trkpt lat="43.07448" lon="0.13388">
        <ele>538.6</ele>
        <time>2022-08-21T08:13:02Z</time>
      </trkpt>
      <trkpt lat="43.07454" lon="0.134">
        <ele>538</ele>
        <time>2022-08-21T08:13:03Z</time>
      </trkpt>
      <trkpt lat="43.07471" lon="0.13421">
        <ele>536.4</ele>
        <time>2022-08-21T08:13:05Z</time>
      </trkpt>
      <trkpt lat="43.07489" lon="0.13439">
        <ele>535</ele>
        <time>2022-08-21T08:13:07Z</time>
      </trkpt>
      <trkpt lat="43.07509" lon="0.13457">
        <ele>533.2</ele>
        <time>2022-08-21T08:13:09Z</time>
      </trkpt>
      <trkpt lat="43.07529" lon="0.13475">
        <ele>531.6</ele>
        <time>2022-08-21T08:13:11Z</time>
      </trkpt>
      <trkpt lat="43.07547" lon="0.13491">
        <ele>530.6</ele>
        <time>2022-08-21T08:13:13Z</time>
      </trkpt>
      <trkpt lat="43.07553" lon="0.13496">
        <ele>530</ele>
        <time>2022-08-21T08:13:14Z</time>
      </trkpt>
      <trkpt lat="43.07561" lon="0.13503">
        <ele>529.6</ele>
        <time>2022-08-21T08:13:15Z</time>
      </trkpt>
      <trkpt lat="43.07568" lon="0.1351">
        <ele>528.4</ele>
        <time>2022-08-21T08:13:16Z</time>
      </trkpt>
      <trkpt lat="43.07579" lon="0.13519">
        <ele>527.2</ele>
        <time>2022-08-21T08:13:18Z</time>
      </trkpt>
      <trkpt lat="43.07593" lon="0.1353">
        <ele>526.2</ele>
        <time>2022-08-21T08:13:21Z</time>
      </trkpt>
      <trkpt lat="43.07604" lon="0.1353">
        <ele>525</ele>
        <time>2022-08-21T08:13:23Z</time>
      </trkpt>
      <trkpt lat="43.07612" lon="0.13522">
        <ele>524.4</ele>
        <time>2022-08-21T08:13:25Z</time>
      </trkpt>
      <trkpt lat="43.07616" lon="0.13516">
        <ele>524.2</ele>
        <time>2022-08-21T08:13:26Z</time>
      </trkpt>
      <trkpt lat="43.07629" lon="0.13498">
        <ele>523.8</ele>
        <time>2022-08-21T08:13:29Z</time>
      </trkpt>
      <trkpt lat="43.07642" lon="0.13482">
        <ele>523.6</ele>
        <time>2022-08-21T08:13:32Z</time>
      </trkpt>
      <trkpt lat="43.07647" lon="0.13478">
        <ele>523.6</ele>
        <time>2022-08-21T08:13:33Z</time>
      </trkpt>
      <trkpt lat="43.07682" lon="0.13461">
        <ele>523.4</ele>
        <time>2022-08-21T08:13:39Z</time>
      </trkpt>
      <trkpt lat="43.07688" lon="0.13458">
        <ele>523.2</ele>
        <time>2022-08-21T08:13:40Z</time>
      </trkpt>
      <trkpt lat="43.07711" lon="0.13442">
        <ele>522.8</ele>
        <time>2022-08-21T08:13:44Z</time>
      </trkpt>
      <trkpt lat="43.07732" lon="0.13423">
        <ele>522</ele>
        <time>2022-08-21T08:13:48Z</time>
      </trkpt>
      <trkpt lat="43.07754" lon="0.13403">
        <ele>521.6</ele>
        <time>2022-08-21T08:13:52Z</time>
      </trkpt>
      <trkpt lat="43.07772" lon="0.13393">
        <ele>521.4</ele>
        <time>2022-08-21T08:13:55Z</time>
      </trkpt>
      <trkpt lat="43.07785" lon="0.13389">
        <ele>521.2</ele>
        <time>2022-08-21T08:13:57Z</time>
      </trkpt>
      <trkpt lat="43.07798" lon="0.13388">
        <ele>521</ele>
        <time>2022-08-21T08:13:59Z</time>
      </trkpt>
      <trkpt lat="43.07811" lon="0.1339">
        <ele>520.8</ele>
        <time>2022-08-21T08:14:01Z</time>
      </trkpt>
      <trkpt lat="43.07818" lon="0.13392">
        <ele>520.8</ele>
        <time>2022-08-21T08:14:02Z</time>
      </trkpt>
      <trkpt lat="43.07863" lon="0.13408">
        <ele>519.8</ele>
        <time>2022-08-21T08:14:09Z</time>
      </trkpt>
      <trkpt lat="43.0787" lon="0.1341">
        <ele>520</ele>
        <time>2022-08-21T08:14:10Z</time>
      </trkpt>
      <trkpt lat="43.07928" lon="0.1343">
        <ele>519</ele>
        <time>2022-08-21T08:14:19Z</time>
      </trkpt>
      <trkpt lat="43.07941" lon="0.13435">
        <ele>518.8</ele>
        <time>2022-08-21T08:14:21Z</time>
      </trkpt>
      <trkpt lat="43.07994" lon="0.13463">
        <ele>518</ele>
        <time>2022-08-21T08:14:30Z</time>
      </trkpt>
      <trkpt lat="43.08006" lon="0.1347">
        <ele>517.8</ele>
        <time>2022-08-21T08:14:32Z</time>
      </trkpt>
      <trkpt lat="43.08047" lon="0.13492">
        <ele>517.2</ele>
        <time>2022-08-21T08:14:39Z</time>
      </trkpt>
      <trkpt lat="43.08072" lon="0.13502">
        <ele>517</ele>
        <time>2022-08-21T08:14:43Z</time>
      </trkpt>
      <trkpt lat="43.08078" lon="0.13502">
        <ele>517</ele>
        <time>2022-08-21T08:14:44Z</time>
      </trkpt>
      <trkpt lat="43.08092" lon="0.13502">
        <ele>516.8</ele>
        <time>2022-08-21T08:14:46Z</time>
      </trkpt>
      <trkpt lat="43.08099" lon="0.13501">
        <ele>517</ele>
        <time>2022-08-21T08:14:47Z</time>
      </trkpt>
      <trkpt lat="43.08112" lon="0.13497">
        <ele>516.8</ele>
        <time>2022-08-21T08:14:49Z</time>
      </trkpt>
      <trkpt lat="43.08126" lon="0.13493">
        <ele>516.4</ele>
        <time>2022-08-21T08:14:51Z</time>
      </trkpt>
      <trkpt lat="43.08147" lon="0.13489">
        <ele>516.2</ele>
        <time>2022-08-21T08:14:54Z</time>
      </trkpt>
      <trkpt lat="43.08154" lon="0.13487">
        <ele>516</ele>
        <time>2022-08-21T08:14:55Z</time>
      </trkpt>
      <trkpt lat="43.08161" lon="0.13485">
        <ele>515.8</ele>
        <time>2022-08-21T08:14:56Z</time>
      </trkpt>
      <trkpt lat="43.08193" lon="0.13471">
        <ele>515.4</ele>
        <time>2022-08-21T08:15:01Z</time>
      </trkpt>
      <trkpt lat="43.08237" lon="0.13449">
        <ele>514.8</ele>
        <time>2022-08-21T08:15:08Z</time>
      </trkpt>
      <trkpt lat="43.08243" lon="0.13447">
        <ele>514.8</ele>
        <time>2022-08-21T08:15:09Z</time>
      </trkpt>
      <trkpt lat="43.0828" lon="0.13435">
        <ele>514</ele>
        <time>2022-08-21T08:15:15Z</time>
      </trkpt>
      <trkpt lat="43.08286" lon="0.13434">
        <ele>514</ele>
        <time>2022-08-21T08:15:16Z</time>
      </trkpt>
      <trkpt lat="43.08298" lon="0.13431">
        <ele>513.4</ele>
        <time>2022-08-21T08:15:18Z</time>
      </trkpt>
      <trkpt lat="43.0831" lon="0.13431">
        <ele>513.2</ele>
        <time>2022-08-21T08:15:20Z</time>
      </trkpt>
      <trkpt lat="43.08315" lon="0.13431">
        <ele>513</ele>
        <time>2022-08-21T08:15:21Z</time>
      </trkpt>
      <trkpt lat="43.08321" lon="0.1343">
        <ele>512.8</ele>
        <time>2022-08-21T08:15:22Z</time>
      </trkpt>
      <trkpt lat="43.08352" lon="0.13426">
        <ele>511.8</ele>
        <time>2022-08-21T08:15:27Z</time>
      </trkpt>
      <trkpt lat="43.08362" lon="0.13425">
        <ele>511</ele>
        <time>2022-08-21T08:15:29Z</time>
      </trkpt>
      <trkpt lat="43.0837" lon="0.13427">
        <ele>510.6</ele>
        <time>2022-08-21T08:15:31Z</time>
      </trkpt>
      <trkpt lat="43.08372" lon="0.1343">
        <ele>510.4</ele>
        <time>2022-08-21T08:15:32Z</time>
      </trkpt>
      <trkpt lat="43.08376" lon="0.13439">
        <ele>509.6</ele>
        <time>2022-08-21T08:15:34Z</time>
      </trkpt>
      <trkpt lat="43.08376" lon="0.13444">
        <ele>509.6</ele>
        <time>2022-08-21T08:15:35Z</time>
      </trkpt>
      <trkpt lat="43.08382" lon="0.13479">
        <ele>509.2</ele>
        <time>2022-08-21T08:15:42Z</time>
      </trkpt>
      <trkpt lat="43.08385" lon="0.13489">
        <ele>509.4</ele>
        <time>2022-08-21T08:15:44Z</time>
      </trkpt>
      <trkpt lat="43.08389" lon="0.1349">
        <ele>509.4</ele>
        <time>2022-08-21T08:15:45Z</time>
      </trkpt>
      <trkpt lat="43.08406" lon="0.13488">
        <ele>509.4</ele>
        <time>2022-08-21T08:15:49Z</time>
      </trkpt>
      <trkpt lat="43.08444" lon="0.13479">
        <ele>509.4</ele>
        <time>2022-08-21T08:15:57Z</time>
      </trkpt>
      <trkpt lat="43.0848" lon="0.13464">
        <ele>509</ele>
        <time>2022-08-21T08:16:04Z</time>
      </trkpt>
      <trkpt lat="43.08495" lon="0.13459">
        <ele>508.8</ele>
        <time>2022-08-21T08:16:07Z</time>
      </trkpt>
      <trkpt lat="43.08509" lon="0.13457">
        <ele>508.8</ele>
        <time>2022-08-21T08:16:10Z</time>
      </trkpt>
      <trkpt lat="43.08553" lon="0.13447">
        <ele>508.2</ele>
        <time>2022-08-21T08:16:19Z</time>
      </trkpt>
      <trkpt lat="43.08576" lon="0.1344">
        <ele>508</ele>
        <time>2022-08-21T08:16:24Z</time>
      </trkpt>
      <trkpt lat="43.08581" lon="0.13441">
        <ele>507.8</ele>
        <time>2022-08-21T08:16:25Z</time>
      </trkpt>
      <trkpt lat="43.08587" lon="0.13442">
        <ele>507.6</ele>
        <time>2022-08-21T08:16:26Z</time>
      </trkpt>
      <trkpt lat="43.08607" lon="0.13448">
        <ele>507.6</ele>
        <time>2022-08-21T08:16:30Z</time>
      </trkpt>
      <trkpt lat="43.08632" lon="0.13452">
        <ele>507.2</ele>
        <time>2022-08-21T08:16:35Z</time>
      </trkpt>
      <trkpt lat="43.08637" lon="0.13451">
        <ele>507.2</ele>
        <time>2022-08-21T08:16:36Z</time>
      </trkpt>
      <trkpt lat="43.08642" lon="0.1345">
        <ele>507.2</ele>
        <time>2022-08-21T08:16:37Z</time>
      </trkpt>
      <trkpt lat="43.08657" lon="0.13442">
        <ele>507</ele>
        <time>2022-08-21T08:16:40Z</time>
      </trkpt>
      <trkpt lat="43.08695" lon="0.13413">
        <ele>506.6</ele>
        <time>2022-08-21T08:16:48Z</time>
      </trkpt>
      <trkpt lat="43.08713" lon="0.13398">
        <ele>506.6</ele>
        <time>2022-08-21T08:16:52Z</time>
      </trkpt>
      <trkpt lat="43.08721" lon="0.13392">
        <ele>506.6</ele>
        <time>2022-08-21T08:16:54Z</time>
      </trkpt>
      <trkpt lat="43.08724" lon="0.13391">
        <ele>506.4</ele>
        <time>2022-08-21T08:16:55Z</time>
      </trkpt>
      <trkpt lat="43.08732" lon="0.13391">
        <ele>505.8</ele>
        <time>2022-08-21T08:16:58Z</time>
      </trkpt>
      <trkpt lat="43.08739" lon="0.13389">
        <ele>506</ele>
        <time>2022-08-21T08:17:00Z</time>
      </trkpt>
      <trkpt lat="43.08758" lon="0.13384">
        <ele>505.6</ele>
        <time>2022-08-21T08:17:05Z</time>
      </trkpt>
      <trkpt lat="43.08765" lon="0.13386">
        <ele>505.6</ele>
        <time>2022-08-21T08:17:07Z</time>
      </trkpt>
      <trkpt lat="43.08772" lon="0.13393">
        <ele>505.4</ele>
        <time>2022-08-21T08:17:09Z</time>
      </trkpt>
      <trkpt lat="43.08781" lon="0.13407">
        <ele>505.2</ele>
        <time>2022-08-21T08:17:12Z</time>
      </trkpt>
      <trkpt lat="43.08789" lon="0.13414">
        <ele>505.2</ele>
        <time>2022-08-21T08:17:14Z</time>
      </trkpt>
      <trkpt lat="43.08798" lon="0.13417">
        <ele>505.2</ele>
        <time>2022-08-21T08:17:16Z</time>
      </trkpt>
      <trkpt lat="43.08807" lon="0.1342">
        <ele>505</ele>
        <time>2022-08-21T08:17:18Z</time>
      </trkpt>
      <trkpt lat="43.08821" lon="0.13422">
        <ele>504.8</ele>
        <time>2022-08-21T08:17:21Z</time>
      </trkpt>
      <trkpt lat="43.08825" lon="0.13422">
        <ele>504.6</ele>
        <time>2022-08-21T08:17:22Z</time>
      </trkpt>
      <trkpt lat="43.08832" lon="0.13419">
        <ele>504.6</ele>
        <time>2022-08-21T08:17:24Z</time>
      </trkpt>
      <trkpt lat="43.08845" lon="0.13409">
        <ele>504.2</ele>
        <time>2022-08-21T08:17:29Z</time>
      </trkpt>
      <trkpt lat="43.08847" lon="0.13409">
        <ele>504</ele>
        <time>2022-08-21T08:17:30Z</time>
      </trkpt>
      <trkpt lat="43.08849" lon="0.1341">
        <ele>504</ele>
        <time>2022-08-21T08:17:31Z</time>
      </trkpt>
      <trkpt lat="43.08851" lon="0.13412">
        <ele>503.8</ele>
        <time>2022-08-21T08:17:32Z</time>
      </trkpt>
      <trkpt lat="43.08854" lon="0.13414">
        <ele>503.6</ele>
        <time>2022-08-21T08:17:34Z</time>
      </trkpt>
      <trkpt lat="43.08859" lon="0.13422">
        <ele>503.4</ele>
        <time>2022-08-21T08:17:37Z</time>
      </trkpt>
      <trkpt lat="43.08872" lon="0.13439">
        <ele>503.4</ele>
        <time>2022-08-21T08:17:43Z</time>
      </trkpt>
      <trkpt lat="43.08874" lon="0.13441">
        <ele>503.6</ele>
        <time>2022-08-21T08:17:47Z</time>
      </trkpt>
      <trkpt lat="43.08882" lon="0.13446">
        <ele>503.8</ele>
        <time>2022-08-21T08:18:04Z</time>
      </trkpt>
      <trkpt lat="43.08885" lon="0.13446">
        <ele>503.8</ele>
        <time>2022-08-21T08:18:05Z</time>
      </trkpt>
      <trkpt lat="43.08892" lon="0.13443">
        <ele>503.8</ele>
        <time>2022-08-21T08:18:07Z</time>
      </trkpt>
      <trkpt lat="43.0892" lon="0.13425">
        <ele>504</ele>
        <time>2022-08-21T08:18:14Z</time>
      </trkpt>
      <trkpt lat="43.0895" lon="0.13405">
        <ele>503.8</ele>
        <time>2022-08-21T08:18:21Z</time>
      </trkpt>
      <trkpt lat="43.08995" lon="0.13375">
        <ele>503.6</ele>
        <time>2022-08-21T08:18:30Z</time>
      </trkpt>
      <trkpt lat="43.09016" lon="0.13361">
        <ele>503.4</ele>
        <time>2022-08-21T08:18:34Z</time>
      </trkpt>
      <trkpt lat="43.09026" lon="0.13354">
        <ele>503.2</ele>
        <time>2022-08-21T08:18:36Z</time>
      </trkpt>
      <trkpt lat="43.09041" lon="0.13344">
        <ele>503</ele>
        <time>2022-08-21T08:18:39Z</time>
      </trkpt>
      <trkpt lat="43.09095" lon="0.13309">
        <ele>502.6</ele>
        <time>2022-08-21T08:18:49Z</time>
      </trkpt>
      <trkpt lat="43.091" lon="0.13306">
        <ele>502.4</ele>
        <time>2022-08-21T08:18:50Z</time>
      </trkpt>
      <trkpt lat="43.09105" lon="0.13303">
        <ele>502.2</ele>
        <time>2022-08-21T08:18:51Z</time>
      </trkpt>
      <trkpt lat="43.09159" lon="0.13268">
        <ele>501.4</ele>
        <time>2022-08-21T08:19:01Z</time>
      </trkpt>
      <trkpt lat="43.09206" lon="0.1323">
        <ele>500.8</ele>
        <time>2022-08-21T08:19:10Z</time>
      </trkpt>
      <trkpt lat="43.09231" lon="0.13207">
        <ele>500.4</ele>
        <time>2022-08-21T08:19:16Z</time>
      </trkpt>
      <trkpt lat="43.09235" lon="0.13207">
        <ele>500.2</ele>
        <time>2022-08-21T08:19:17Z</time>
      </trkpt>
      <trkpt lat="43.09248" lon="0.13205">
        <ele>499.6</ele>
        <time>2022-08-21T08:19:20Z</time>
      </trkpt>
      <trkpt lat="43.09257" lon="0.13201">
        <ele>499.6</ele>
        <time>2022-08-21T08:19:22Z</time>
      </trkpt>
      <trkpt lat="43.09267" lon="0.13198">
        <ele>499.6</ele>
        <time>2022-08-21T08:19:24Z</time>
      </trkpt>
      <trkpt lat="43.09272" lon="0.13196">
        <ele>499.4</ele>
        <time>2022-08-21T08:19:25Z</time>
      </trkpt>
      <trkpt lat="43.0928" lon="0.13191">
        <ele>499.2</ele>
        <time>2022-08-21T08:19:27Z</time>
      </trkpt>
      <trkpt lat="43.09311" lon="0.13167">
        <ele>498.8</ele>
        <time>2022-08-21T08:19:34Z</time>
      </trkpt>
      <trkpt lat="43.09349" lon="0.13142">
        <ele>498.4</ele>
        <time>2022-08-21T08:19:42Z</time>
      </trkpt>
      <trkpt lat="43.09359" lon="0.13136">
        <ele>498.4</ele>
        <time>2022-08-21T08:19:44Z</time>
      </trkpt>
      <trkpt lat="43.09389" lon="0.13119">
        <ele>498</ele>
        <time>2022-08-21T08:19:50Z</time>
      </trkpt>
      <trkpt lat="43.09411" lon="0.13104">
        <ele>497.4</ele>
        <time>2022-08-21T08:19:54Z</time>
      </trkpt>
      <trkpt lat="43.09432" lon="0.13089">
        <ele>496.8</ele>
        <time>2022-08-21T08:19:58Z</time>
      </trkpt>
      <trkpt lat="43.09451" lon="0.13075">
        <ele>496.6</ele>
        <time>2022-08-21T08:20:02Z</time>
      </trkpt>
      <trkpt lat="43.09471" lon="0.13062">
        <ele>496</ele>
        <time>2022-08-21T08:20:06Z</time>
      </trkpt>
      <trkpt lat="43.09505" lon="0.1304">
        <ele>495.6</ele>
        <time>2022-08-21T08:20:13Z</time>
      </trkpt>
      <trkpt lat="43.09515" lon="0.13034">
        <ele>495.4</ele>
        <time>2022-08-21T08:20:15Z</time>
      </trkpt>
      <trkpt lat="43.09551" lon="0.1301">
        <ele>494.6</ele>
        <time>2022-08-21T08:20:22Z</time>
      </trkpt>
      <trkpt lat="43.0956" lon="0.13004">
        <ele>494.4</ele>
        <time>2022-08-21T08:20:24Z</time>
      </trkpt>
      <trkpt lat="43.09586" lon="0.12988">
        <ele>494</ele>
        <time>2022-08-21T08:20:29Z</time>
      </trkpt>
      <trkpt lat="43.09622" lon="0.12965">
        <ele>493.6</ele>
        <time>2022-08-21T08:20:36Z</time>
      </trkpt>
      <trkpt lat="43.09627" lon="0.12963">
        <ele>493.6</ele>
        <time>2022-08-21T08:20:37Z</time>
      </trkpt>
      <trkpt lat="43.09637" lon="0.12957">
        <ele>493.2</ele>
        <time>2022-08-21T08:20:39Z</time>
      </trkpt>
      <trkpt lat="43.0968" lon="0.12932">
        <ele>492.4</ele>
        <time>2022-08-21T08:20:47Z</time>
      </trkpt>
      <trkpt lat="43.09685" lon="0.12929">
        <ele>492.2</ele>
        <time>2022-08-21T08:20:48Z</time>
      </trkpt>
      <trkpt lat="43.09707" lon="0.12915">
        <ele>491.4</ele>
        <time>2022-08-21T08:20:53Z</time>
      </trkpt>
      <trkpt lat="43.09712" lon="0.12912">
        <ele>491</ele>
        <time>2022-08-21T08:20:54Z</time>
      </trkpt>
      <trkpt lat="43.09731" lon="0.129">
        <ele>490.6</ele>
        <time>2022-08-21T08:20:58Z</time>
      </trkpt>
      <trkpt lat="43.09749" lon="0.12887">
        <ele>490</ele>
        <time>2022-08-21T08:21:02Z</time>
      </trkpt>
      <trkpt lat="43.09782" lon="0.12868">
        <ele>490</ele>
        <time>2022-08-21T08:21:09Z</time>
      </trkpt>
      <trkpt lat="43.09805" lon="0.1285">
        <ele>489.2</ele>
        <time>2022-08-21T08:21:14Z</time>
      </trkpt>
      <trkpt lat="43.09809" lon="0.12847">
        <ele>489.2</ele>
        <time>2022-08-21T08:21:15Z</time>
      </trkpt>
      <trkpt lat="43.09837" lon="0.12826">
        <ele>488.8</ele>
        <time>2022-08-21T08:21:21Z</time>
      </trkpt>
      <trkpt lat="43.09866" lon="0.12807">
        <ele>488.6</ele>
        <time>2022-08-21T08:21:27Z</time>
      </trkpt>
      <trkpt lat="43.09901" lon="0.12785">
        <ele>488.4</ele>
        <time>2022-08-21T08:21:34Z</time>
      </trkpt>
      <trkpt lat="43.09911" lon="0.1278">
        <ele>488</ele>
        <time>2022-08-21T08:21:36Z</time>
      </trkpt>
      <trkpt lat="43.09946" lon="0.12757">
        <ele>487.2</ele>
        <time>2022-08-21T08:21:43Z</time>
      </trkpt>
      <trkpt lat="43.09951" lon="0.12753">
        <ele>487.2</ele>
        <time>2022-08-21T08:21:44Z</time>
      </trkpt>
      <trkpt lat="43.09979" lon="0.12726">
        <ele>486.4</ele>
        <time>2022-08-21T08:21:51Z</time>
      </trkpt>
      <trkpt lat="43.09984" lon="0.12722">
        <ele>486.2</ele>
        <time>2022-08-21T08:21:52Z</time>
      </trkpt>
      <trkpt lat="43.10011" lon="0.12707">
        <ele>485.6</ele>
        <time>2022-08-21T08:21:58Z</time>
      </trkpt>
      <trkpt lat="43.10038" lon="0.12693">
        <ele>485.2</ele>
        <time>2022-08-21T08:22:04Z</time>
      </trkpt>
      <trkpt lat="43.10049" lon="0.12688">
        <ele>485</ele>
        <time>2022-08-21T08:22:06Z</time>
      </trkpt>
      <trkpt lat="43.10088" lon="0.12666">
        <ele>484.2</ele>
        <time>2022-08-21T08:22:14Z</time>
      </trkpt>
      <trkpt lat="43.10095" lon="0.12663">
        <ele>484</ele>
        <time>2022-08-21T08:22:15Z</time>
      </trkpt>
      <trkpt lat="43.10122" lon="0.12649">
        <ele>483.8</ele>
        <time>2022-08-21T08:22:20Z</time>
      </trkpt>
      <trkpt lat="43.10132" lon="0.12644">
        <ele>483.8</ele>
        <time>2022-08-21T08:22:22Z</time>
      </trkpt>
      <trkpt lat="43.10142" lon="0.12639">
        <ele>483.6</ele>
        <time>2022-08-21T08:22:24Z</time>
      </trkpt>
      <trkpt lat="43.10154" lon="0.12633">
        <ele>483.4</ele>
        <time>2022-08-21T08:22:26Z</time>
      </trkpt>
      <trkpt lat="43.10163" lon="0.12626">
        <ele>483.2</ele>
        <time>2022-08-21T08:22:28Z</time>
      </trkpt>
      <trkpt lat="43.1017" lon="0.1262">
        <ele>482.8</ele>
        <time>2022-08-21T08:22:30Z</time>
      </trkpt>
      <trkpt lat="43.10183" lon="0.12613">
        <ele>482.6</ele>
        <time>2022-08-21T08:22:33Z</time>
      </trkpt>
      <trkpt lat="43.10192" lon="0.12608">
        <ele>482.2</ele>
        <time>2022-08-21T08:22:35Z</time>
      </trkpt>
      <trkpt lat="43.10202" lon="0.12606">
        <ele>482.2</ele>
        <time>2022-08-21T08:22:37Z</time>
      </trkpt>
      <trkpt lat="43.10212" lon="0.12605">
        <ele>482</ele>
        <time>2022-08-21T08:22:39Z</time>
      </trkpt>
      <trkpt lat="43.10244" lon="0.12615">
        <ele>480.8</ele>
        <time>2022-08-21T08:22:45Z</time>
      </trkpt>
      <trkpt lat="43.10249" lon="0.12617">
        <ele>480.6</ele>
        <time>2022-08-21T08:22:46Z</time>
      </trkpt>
      <trkpt lat="43.1026" lon="0.12616">
        <ele>480.4</ele>
        <time>2022-08-21T08:22:48Z</time>
      </trkpt>
      <trkpt lat="43.10265" lon="0.12615">
        <ele>480.2</ele>
        <time>2022-08-21T08:22:49Z</time>
      </trkpt>
      <trkpt lat="43.10279" lon="0.12608">
        <ele>480</ele>
        <time>2022-08-21T08:22:52Z</time>
      </trkpt>
      <trkpt lat="43.10291" lon="0.126">
        <ele>479.6</ele>
        <time>2022-08-21T08:22:55Z</time>
      </trkpt>
      <trkpt lat="43.10294" lon="0.12598">
        <ele>479.4</ele>
        <time>2022-08-21T08:22:56Z</time>
      </trkpt>
      <trkpt lat="43.10302" lon="0.12593">
        <ele>478.8</ele>
        <time>2022-08-21T08:22:58Z</time>
      </trkpt>
      <trkpt lat="43.10308" lon="0.1259">
        <ele>478.4</ele>
        <time>2022-08-21T08:23:00Z</time>
      </trkpt>
      <trkpt lat="43.10311" lon="0.1259">
        <ele>478.2</ele>
        <time>2022-08-21T08:23:01Z</time>
      </trkpt>
      <trkpt lat="43.10316" lon="0.12595">
        <ele>477.8</ele>
        <time>2022-08-21T08:23:03Z</time>
      </trkpt>
      <trkpt lat="43.10317" lon="0.126">
        <ele>477.8</ele>
        <time>2022-08-21T08:23:04Z</time>
      </trkpt>
      <trkpt lat="43.1032" lon="0.12617">
        <ele>477.4</ele>
        <time>2022-08-21T08:23:07Z</time>
      </trkpt>
      <trkpt lat="43.10332" lon="0.12638">
        <ele>476.6</ele>
        <time>2022-08-21T08:23:11Z</time>
      </trkpt>
      <trkpt lat="43.10336" lon="0.12643">
        <ele>476.6</ele>
        <time>2022-08-21T08:23:12Z</time>
      </trkpt>
      <trkpt lat="43.10362" lon="0.1267">
        <ele>476.2</ele>
        <time>2022-08-21T08:23:18Z</time>
      </trkpt>
      <trkpt lat="43.10367" lon="0.12678">
        <ele>476</ele>
        <time>2022-08-21T08:23:19Z</time>
      </trkpt>
      <trkpt lat="43.10376" lon="0.12698">
        <ele>475.6</ele>
        <time>2022-08-21T08:23:22Z</time>
      </trkpt>
      <trkpt lat="43.1038" lon="0.12705">
        <ele>475.6</ele>
        <time>2022-08-21T08:23:23Z</time>
      </trkpt>
      <trkpt lat="43.10407" lon="0.12764">
        <ele>475.4</ele>
        <time>2022-08-21T08:23:32Z</time>
      </trkpt>
      <trkpt lat="43.10425" lon="0.12805">
        <ele>475.6</ele>
        <time>2022-08-21T08:23:39Z</time>
      </trkpt>
      <trkpt lat="43.1044" lon="0.12861">
        <ele>476.4</ele>
        <time>2022-08-21T08:23:48Z</time>
      </trkpt>
      <trkpt lat="43.1045" lon="0.12899">
        <ele>476.2</ele>
        <time>2022-08-21T08:23:53Z</time>
      </trkpt>
      <trkpt lat="43.1046" lon="0.12935">
        <ele>475.8</ele>
        <time>2022-08-21T08:23:58Z</time>
      </trkpt>
      <trkpt lat="43.10461" lon="0.12941">
        <ele>475.6</ele>
        <time>2022-08-21T08:23:59Z</time>
      </trkpt>
      <trkpt lat="43.10464" lon="0.12946">
        <ele>475.6</ele>
        <time>2022-08-21T08:24:00Z</time>
      </trkpt>
      <trkpt lat="43.10473" lon="0.12951">
        <ele>475.6</ele>
        <time>2022-08-21T08:24:02Z</time>
      </trkpt>
      <trkpt lat="43.10482" lon="0.1295">
        <ele>475.6</ele>
        <time>2022-08-21T08:24:04Z</time>
      </trkpt>
      <trkpt lat="43.10487" lon="0.12948">
        <ele>475.6</ele>
        <time>2022-08-21T08:24:05Z</time>
      </trkpt>
      <trkpt lat="43.10533" lon="0.12916">
        <ele>475.2</ele>
        <time>2022-08-21T08:24:14Z</time>
      </trkpt>
      <trkpt lat="43.10555" lon="0.12904">
        <ele>475.2</ele>
        <time>2022-08-21T08:24:18Z</time>
      </trkpt>
      <trkpt lat="43.10567" lon="0.12902">
        <ele>475</ele>
        <time>2022-08-21T08:24:20Z</time>
      </trkpt>
      <trkpt lat="43.10572" lon="0.12902">
        <ele>475</ele>
        <time>2022-08-21T08:24:21Z</time>
      </trkpt>
      <trkpt lat="43.10582" lon="0.12903">
        <ele>475</ele>
        <time>2022-08-21T08:24:23Z</time>
      </trkpt>
      <trkpt lat="43.10593" lon="0.12902">
        <ele>475</ele>
        <time>2022-08-21T08:24:25Z</time>
      </trkpt>
      <trkpt lat="43.10598" lon="0.12901">
        <ele>475</ele>
        <time>2022-08-21T08:24:26Z</time>
      </trkpt>
      <trkpt lat="43.10617" lon="0.12896">
        <ele>475</ele>
        <time>2022-08-21T08:24:30Z</time>
      </trkpt>
      <trkpt lat="43.10635" lon="0.12889">
        <ele>475.2</ele>
        <time>2022-08-21T08:24:35Z</time>
      </trkpt>
      <trkpt lat="43.10648" lon="0.12879">
        <ele>475.2</ele>
        <time>2022-08-21T08:24:38Z</time>
      </trkpt>
      <trkpt lat="43.10656" lon="0.12871">
        <ele>475.2</ele>
        <time>2022-08-21T08:24:40Z</time>
      </trkpt>
      <trkpt lat="43.10688" lon="0.12837">
        <ele>475.2</ele>
        <time>2022-08-21T08:24:47Z</time>
      </trkpt>
      <trkpt lat="43.10733" lon="0.12789">
        <ele>475.2</ele>
        <time>2022-08-21T08:24:57Z</time>
      </trkpt>
      <trkpt lat="43.10768" lon="0.12751">
        <ele>474.6</ele>
        <time>2022-08-21T08:25:05Z</time>
      </trkpt>
      <trkpt lat="43.10772" lon="0.12745">
        <ele>474.6</ele>
        <time>2022-08-21T08:25:06Z</time>
      </trkpt>
      <trkpt lat="43.10797" lon="0.12717">
        <ele>474.4</ele>
        <time>2022-08-21T08:25:12Z</time>
      </trkpt>
      <trkpt lat="43.108" lon="0.12714">
        <ele>474.4</ele>
        <time>2022-08-21T08:25:13Z</time>
      </trkpt>
      <trkpt lat="43.10801" lon="0.1271">
        <ele>474.4</ele>
        <time>2022-08-21T08:25:14Z</time>
      </trkpt>
      <trkpt lat="43.10802" lon="0.12704">
        <ele>474.4</ele>
        <time>2022-08-21T08:25:16Z</time>
      </trkpt>
      <trkpt lat="43.10805" lon="0.1269">
        <ele>474.2</ele>
        <time>2022-08-21T08:25:20Z</time>
      </trkpt>
      <trkpt lat="43.10807" lon="0.1268">
        <ele>474</ele>
        <time>2022-08-21T08:25:23Z</time>
      </trkpt>
      <trkpt lat="43.10812" lon="0.12665">
        <ele>473</ele>
        <time>2022-08-21T08:25:29Z</time>
      </trkpt>
      <trkpt lat="43.10814" lon="0.1266">
        <ele>472.2</ele>
        <time>2022-08-21T08:25:31Z</time>
      </trkpt>
      <trkpt lat="43.10815" lon="0.12652">
        <ele>471.6</ele>
        <time>2022-08-21T08:25:33Z</time>
      </trkpt>
      <trkpt lat="43.10818" lon="0.12642">
        <ele>471</ele>
        <time>2022-08-21T08:25:35Z</time>
      </trkpt>
      <trkpt lat="43.10823" lon="0.12632">
        <ele>470</ele>
        <time>2022-08-21T08:25:37Z</time>
      </trkpt>
      <trkpt lat="43.10828" lon="0.12619">
        <ele>469.4</ele>
        <time>2022-08-21T08:25:40Z</time>
      </trkpt>
      <trkpt lat="43.1083" lon="0.12611">
        <ele>469.4</ele>
        <time>2022-08-21T08:25:42Z</time>
      </trkpt>
      <trkpt lat="43.10837" lon="0.12592">
        <ele>469.2</ele>
        <time>2022-08-21T08:25:46Z</time>
      </trkpt>
      <trkpt lat="43.10841" lon="0.12583">
        <ele>469.2</ele>
        <time>2022-08-21T08:25:48Z</time>
      </trkpt>
      <trkpt lat="43.10853" lon="0.12567">
        <ele>469.2</ele>
        <time>2022-08-21T08:25:52Z</time>
      </trkpt>
      <trkpt lat="43.10872" lon="0.1255">
        <ele>470</ele>
        <time>2022-08-21T08:25:59Z</time>
      </trkpt>
      <trkpt lat="43.10882" lon="0.12544">
        <ele>470.2</ele>
        <time>2022-08-21T08:26:02Z</time>
      </trkpt>
      <trkpt lat="43.10892" lon="0.12539">
        <ele>470.4</ele>
        <time>2022-08-21T08:26:04Z</time>
      </trkpt>
      <trkpt lat="43.10922" lon="0.12527">
        <ele>470.4</ele>
        <time>2022-08-21T08:26:10Z</time>
      </trkpt>
      <trkpt lat="43.10958" lon="0.12512">
        <ele>470</ele>
        <time>2022-08-21T08:26:17Z</time>
      </trkpt>
      <trkpt lat="43.10971" lon="0.12506">
        <ele>470</ele>
        <time>2022-08-21T08:26:20Z</time>
      </trkpt>
      <trkpt lat="43.10981" lon="0.12499">
        <ele>469.8</ele>
        <time>2022-08-21T08:26:22Z</time>
      </trkpt>
      <trkpt lat="43.10986" lon="0.12495">
        <ele>469.6</ele>
        <time>2022-08-21T08:26:23Z</time>
      </trkpt>
      <trkpt lat="43.10991" lon="0.1249">
        <ele>469.6</ele>
        <time>2022-08-21T08:26:24Z</time>
      </trkpt>
      <trkpt lat="43.11018" lon="0.12462">
        <ele>469.4</ele>
        <time>2022-08-21T08:26:30Z</time>
      </trkpt>
      <trkpt lat="43.11022" lon="0.12457">
        <ele>469.4</ele>
        <time>2022-08-21T08:26:31Z</time>
      </trkpt>
      <trkpt lat="43.11056" lon="0.12425">
        <ele>469</ele>
        <time>2022-08-21T08:26:38Z</time>
      </trkpt>
      <trkpt lat="43.11075" lon="0.12404">
        <ele>468.4</ele>
        <time>2022-08-21T08:26:42Z</time>
      </trkpt>
      <trkpt lat="43.11079" lon="0.124">
        <ele>468.4</ele>
        <time>2022-08-21T08:26:43Z</time>
      </trkpt>
      <trkpt lat="43.11089" lon="0.12389">
        <ele>468.2</ele>
        <time>2022-08-21T08:26:45Z</time>
      </trkpt>
      <trkpt lat="43.11103" lon="0.12369">
        <ele>468.2</ele>
        <time>2022-08-21T08:26:49Z</time>
      </trkpt>
      <trkpt lat="43.11107" lon="0.12365">
        <ele>468</ele>
        <time>2022-08-21T08:26:50Z</time>
      </trkpt>
      <trkpt lat="43.11122" lon="0.12349">
        <ele>467.6</ele>
        <time>2022-08-21T08:26:54Z</time>
      </trkpt>
      <trkpt lat="43.11142" lon="0.12329">
        <ele>467.4</ele>
        <time>2022-08-21T08:26:59Z</time>
      </trkpt>
      <trkpt lat="43.11147" lon="0.12324">
        <ele>467.2</ele>
        <time>2022-08-21T08:27:00Z</time>
      </trkpt>
      <trkpt lat="43.11151" lon="0.12321">
        <ele>467.2</ele>
        <time>2022-08-21T08:27:01Z</time>
      </trkpt>
      <trkpt lat="43.1118" lon="0.12279">
        <ele>467</ele>
        <time>2022-08-21T08:27:09Z</time>
      </trkpt>
      <trkpt lat="43.11184" lon="0.12274">
        <ele>466.8</ele>
        <time>2022-08-21T08:27:10Z</time>
      </trkpt>
      <trkpt lat="43.11194" lon="0.12259">
        <ele>466.4</ele>
        <time>2022-08-21T08:27:13Z</time>
      </trkpt>
      <trkpt lat="43.11209" lon="0.1224">
        <ele>465.4</ele>
        <time>2022-08-21T08:27:17Z</time>
      </trkpt>
      <trkpt lat="43.11218" lon="0.12232">
        <ele>465.2</ele>
        <time>2022-08-21T08:27:19Z</time>
      </trkpt>
      <trkpt lat="43.11236" lon="0.12213">
        <ele>465</ele>
        <time>2022-08-21T08:27:24Z</time>
      </trkpt>
      <trkpt lat="43.11267" lon="0.1218">
        <ele>464.6</ele>
        <time>2022-08-21T08:27:32Z</time>
      </trkpt>
      <trkpt lat="43.11303" lon="0.12149">
        <ele>464.2</ele>
        <time>2022-08-21T08:27:40Z</time>
      </trkpt>
      <trkpt lat="43.11328" lon="0.12126">
        <ele>463.8</ele>
        <time>2022-08-21T08:27:46Z</time>
      </trkpt>
      <trkpt lat="43.11342" lon="0.12115">
        <ele>463.4</ele>
        <time>2022-08-21T08:27:49Z</time>
      </trkpt>
      <trkpt lat="43.11359" lon="0.121">
        <ele>463.2</ele>
        <time>2022-08-21T08:27:53Z</time>
      </trkpt>
      <trkpt lat="43.11391" lon="0.12074">
        <ele>462.2</ele>
        <time>2022-08-21T08:28:00Z</time>
      </trkpt>
      <trkpt lat="43.1142" lon="0.1206">
        <ele>461.6</ele>
        <time>2022-08-21T08:28:06Z</time>
      </trkpt>
      <trkpt lat="43.11425" lon="0.12059">
        <ele>461.6</ele>
        <time>2022-08-21T08:28:07Z</time>
      </trkpt>
      <trkpt lat="43.11429" lon="0.12058">
        <ele>461.4</ele>
        <time>2022-08-21T08:28:08Z</time>
      </trkpt>
      <trkpt lat="43.11433" lon="0.12056">
        <ele>461.2</ele>
        <time>2022-08-21T08:28:09Z</time>
      </trkpt>
      <trkpt lat="43.11442" lon="0.1205">
        <ele>461</ele>
        <time>2022-08-21T08:28:11Z</time>
      </trkpt>
      <trkpt lat="43.1146" lon="0.12036">
        <ele>460.4</ele>
        <time>2022-08-21T08:28:15Z</time>
      </trkpt>
      <trkpt lat="43.11469" lon="0.1203">
        <ele>460.2</ele>
        <time>2022-08-21T08:28:17Z</time>
      </trkpt>
      <trkpt lat="43.11473" lon="0.12028">
        <ele>460.2</ele>
        <time>2022-08-21T08:28:18Z</time>
      </trkpt>
      <trkpt lat="43.11479" lon="0.12024">
        <ele>460</ele>
        <time>2022-08-21T08:28:19Z</time>
      </trkpt>
      <trkpt lat="43.11508" lon="0.12015">
        <ele>459.8</ele>
        <time>2022-08-21T08:28:25Z</time>
      </trkpt>
      <trkpt lat="43.11521" lon="0.12011">
        <ele>459.4</ele>
        <time>2022-08-21T08:28:28Z</time>
      </trkpt>
      <trkpt lat="43.11531" lon="0.12008">
        <ele>459.4</ele>
        <time>2022-08-21T08:28:30Z</time>
      </trkpt>
      <trkpt lat="43.11536" lon="0.12006">
        <ele>459.2</ele>
        <time>2022-08-21T08:28:31Z</time>
      </trkpt>
      <trkpt lat="43.11554" lon="0.12">
        <ele>459</ele>
        <time>2022-08-21T08:28:35Z</time>
      </trkpt>
      <trkpt lat="43.11563" lon="0.11997">
        <ele>458.8</ele>
        <time>2022-08-21T08:28:37Z</time>
      </trkpt>
      <trkpt lat="43.11568" lon="0.11994">
        <ele>458.8</ele>
        <time>2022-08-21T08:28:38Z</time>
      </trkpt>
      <trkpt lat="43.11597" lon="0.11985">
        <ele>459</ele>
        <time>2022-08-21T08:28:44Z</time>
      </trkpt>
      <trkpt lat="43.116" lon="0.11984">
        <ele>459</ele>
        <time>2022-08-21T08:28:45Z</time>
      </trkpt>
      <trkpt lat="43.11609" lon="0.11981">
        <ele>459.2</ele>
        <time>2022-08-21T08:28:47Z</time>
      </trkpt>
      <trkpt lat="43.11618" lon="0.11978">
        <ele>459.6</ele>
        <time>2022-08-21T08:28:49Z</time>
      </trkpt>
      <trkpt lat="43.11626" lon="0.11975">
        <ele>459.8</ele>
        <time>2022-08-21T08:28:51Z</time>
      </trkpt>
      <trkpt lat="43.1167" lon="0.11958">
        <ele>460</ele>
        <time>2022-08-21T08:29:00Z</time>
      </trkpt>
      <trkpt lat="43.11703" lon="0.11945">
        <ele>459.8</ele>
        <time>2022-08-21T08:29:06Z</time>
      </trkpt>
      <trkpt lat="43.11736" lon="0.11933">
        <ele>459.4</ele>
        <time>2022-08-21T08:29:12Z</time>
      </trkpt>
      <trkpt lat="43.11746" lon="0.11929">
        <ele>459.2</ele>
        <time>2022-08-21T08:29:14Z</time>
      </trkpt>
      <trkpt lat="43.11783" lon="0.11914">
        <ele>458.4</ele>
        <time>2022-08-21T08:29:21Z</time>
      </trkpt>
      <trkpt lat="43.11792" lon="0.11911">
        <ele>458.4</ele>
        <time>2022-08-21T08:29:23Z</time>
      </trkpt>
      <trkpt lat="43.11819" lon="0.11901">
        <ele>457.8</ele>
        <time>2022-08-21T08:29:28Z</time>
      </trkpt>
      <trkpt lat="43.11846" lon="0.1189">
        <ele>457.2</ele>
        <time>2022-08-21T08:29:33Z</time>
      </trkpt>
      <trkpt lat="43.11851" lon="0.11886">
        <ele>457</ele>
        <time>2022-08-21T08:29:34Z</time>
      </trkpt>
      <trkpt lat="43.11854" lon="0.11882">
        <ele>457</ele>
        <time>2022-08-21T08:29:35Z</time>
      </trkpt>
      <trkpt lat="43.11858" lon="0.11877">
        <ele>457</ele>
        <time>2022-08-21T08:29:36Z</time>
      </trkpt>
      <trkpt lat="43.11864" lon="0.11865">
        <ele>456.8</ele>
        <time>2022-08-21T08:29:38Z</time>
      </trkpt>
      <trkpt lat="43.11867" lon="0.11859">
        <ele>456.6</ele>
        <time>2022-08-21T08:29:39Z</time>
      </trkpt>
      <trkpt lat="43.1189" lon="0.11824">
        <ele>456.4</ele>
        <time>2022-08-21T08:29:46Z</time>
      </trkpt>
      <trkpt lat="43.11897" lon="0.11815">
        <ele>456.4</ele>
        <time>2022-08-21T08:29:48Z</time>
      </trkpt>
      <trkpt lat="43.11908" lon="0.11795">
        <ele>456</ele>
        <time>2022-08-21T08:29:52Z</time>
      </trkpt>
      <trkpt lat="43.11911" lon="0.1179">
        <ele>456</ele>
        <time>2022-08-21T08:29:53Z</time>
      </trkpt>
      <trkpt lat="43.11935" lon="0.11758">
        <ele>455.6</ele>
        <time>2022-08-21T08:30:00Z</time>
      </trkpt>
      <trkpt lat="43.11952" lon="0.11743">
        <ele>455.4</ele>
        <time>2022-08-21T08:30:04Z</time>
      </trkpt>
      <trkpt lat="43.11965" lon="0.11732">
        <ele>455.4</ele>
        <time>2022-08-21T08:30:07Z</time>
      </trkpt>
      <trkpt lat="43.11988" lon="0.11719">
        <ele>454.8</ele>
        <time>2022-08-21T08:30:12Z</time>
      </trkpt>
      <trkpt lat="43.12003" lon="0.11713">
        <ele>454.6</ele>
        <time>2022-08-21T08:30:15Z</time>
      </trkpt>
      <trkpt lat="43.12039" lon="0.11706">
        <ele>454.6</ele>
        <time>2022-08-21T08:30:22Z</time>
      </trkpt>
      <trkpt lat="43.12069" lon="0.11692">
        <ele>454</ele>
        <time>2022-08-21T08:30:28Z</time>
      </trkpt>
      <trkpt lat="43.12079" lon="0.11686">
        <ele>454</ele>
        <time>2022-08-21T08:30:30Z</time>
      </trkpt>
      <trkpt lat="43.12098" lon="0.11674">
        <ele>453.8</ele>
        <time>2022-08-21T08:30:34Z</time>
      </trkpt>
      <trkpt lat="43.12112" lon="0.11668">
        <ele>453.6</ele>
        <time>2022-08-21T08:30:37Z</time>
      </trkpt>
      <trkpt lat="43.12127" lon="0.1166">
        <ele>453.6</ele>
        <time>2022-08-21T08:30:40Z</time>
      </trkpt>
      <trkpt lat="43.12132" lon="0.11658">
        <ele>453.4</ele>
        <time>2022-08-21T08:30:41Z</time>
      </trkpt>
      <trkpt lat="43.12143" lon="0.11654">
        <ele>453.4</ele>
        <time>2022-08-21T08:30:43Z</time>
      </trkpt>
      <trkpt lat="43.1218" lon="0.11637">
        <ele>452.6</ele>
        <time>2022-08-21T08:30:50Z</time>
      </trkpt>
      <trkpt lat="43.1219" lon="0.11634">
        <ele>452.4</ele>
        <time>2022-08-21T08:30:52Z</time>
      </trkpt>
      <trkpt lat="43.12211" lon="0.11625">
        <ele>452.4</ele>
        <time>2022-08-21T08:30:56Z</time>
      </trkpt>
      <trkpt lat="43.12244" lon="0.1161">
        <ele>452</ele>
        <time>2022-08-21T08:31:02Z</time>
      </trkpt>
      <trkpt lat="43.12249" lon="0.11606">
        <ele>452</ele>
        <time>2022-08-21T08:31:03Z</time>
      </trkpt>
      <trkpt lat="43.12268" lon="0.1159">
        <ele>451.6</ele>
        <time>2022-08-21T08:31:07Z</time>
      </trkpt>
      <trkpt lat="43.12275" lon="0.11588">
        <ele>451.6</ele>
        <time>2022-08-21T08:31:09Z</time>
      </trkpt>
      <trkpt lat="43.12278" lon="0.11591">
        <ele>451.4</ele>
        <time>2022-08-21T08:31:11Z</time>
      </trkpt>
      <trkpt lat="43.12279" lon="0.11595">
        <ele>451</ele>
        <time>2022-08-21T08:31:12Z</time>
      </trkpt>
      <trkpt lat="43.12278" lon="0.11612">
        <ele>450.6</ele>
        <time>2022-08-21T08:31:16Z</time>
      </trkpt>
      <trkpt lat="43.12282" lon="0.11649">
        <ele>450.6</ele>
        <time>2022-08-21T08:31:23Z</time>
      </trkpt>
      <trkpt lat="43.12291" lon="0.11692">
        <ele>450.8</ele>
        <time>2022-08-21T08:31:30Z</time>
      </trkpt>
      <trkpt lat="43.12293" lon="0.11702">
        <ele>450.8</ele>
        <time>2022-08-21T08:31:32Z</time>
      </trkpt>
      <trkpt lat="43.12296" lon="0.11709">
        <ele>451</ele>
        <time>2022-08-21T08:31:34Z</time>
      </trkpt>
      <trkpt lat="43.12306" lon="0.11708">
        <ele>450.8</ele>
        <time>2022-08-21T08:31:37Z</time>
      </trkpt>
      <trkpt lat="43.12335" lon="0.11697">
        <ele>450.4</ele>
        <time>2022-08-21T08:31:44Z</time>
      </trkpt>
      <trkpt lat="43.12367" lon="0.11682">
        <ele>450.2</ele>
        <time>2022-08-21T08:31:51Z</time>
      </trkpt>
      <trkpt lat="43.12417" lon="0.11663">
        <ele>449.8</ele>
        <time>2022-08-21T08:32:01Z</time>
      </trkpt>
      <trkpt lat="43.12427" lon="0.11659">
        <ele>450</ele>
        <time>2022-08-21T08:32:03Z</time>
      </trkpt>
      <trkpt lat="43.12455" lon="0.11649">
        <ele>449.6</ele>
        <time>2022-08-21T08:32:08Z</time>
      </trkpt>
      <trkpt lat="43.12486" lon="0.11637">
        <ele>448.8</ele>
        <time>2022-08-21T08:32:14Z</time>
      </trkpt>
      <trkpt lat="43.12509" lon="0.11628">
        <ele>448.6</ele>
        <time>2022-08-21T08:32:18Z</time>
      </trkpt>
      <trkpt lat="43.1255" lon="0.11612">
        <ele>448.6</ele>
        <time>2022-08-21T08:32:26Z</time>
      </trkpt>
      <trkpt lat="43.12585" lon="0.11597">
        <ele>448</ele>
        <time>2022-08-21T08:32:33Z</time>
      </trkpt>
      <trkpt lat="43.12596" lon="0.11593">
        <ele>447.8</ele>
        <time>2022-08-21T08:32:35Z</time>
      </trkpt>
      <trkpt lat="43.12607" lon="0.11589">
        <ele>447.8</ele>
        <time>2022-08-21T08:32:37Z</time>
      </trkpt>
      <trkpt lat="43.12644" lon="0.11574">
        <ele>447.4</ele>
        <time>2022-08-21T08:32:44Z</time>
      </trkpt>
      <trkpt lat="43.1266" lon="0.11567">
        <ele>446.8</ele>
        <time>2022-08-21T08:32:47Z</time>
      </trkpt>
      <trkpt lat="43.12692" lon="0.11555">
        <ele>446.6</ele>
        <time>2022-08-21T08:32:53Z</time>
      </trkpt>
      <trkpt lat="43.12739" lon="0.11537">
        <ele>446</ele>
        <time>2022-08-21T08:33:01Z</time>
      </trkpt>
      <trkpt lat="43.12745" lon="0.11534">
        <ele>446</ele>
        <time>2022-08-21T08:33:02Z</time>
      </trkpt>
      <trkpt lat="43.12766" lon="0.11527">
        <ele>445.6</ele>
        <time>2022-08-21T08:33:06Z</time>
      </trkpt>
      <trkpt lat="43.12772" lon="0.11526">
        <ele>445.2</ele>
        <time>2022-08-21T08:33:07Z</time>
      </trkpt>
      <trkpt lat="43.12781" lon="0.11523">
        <ele>444.8</ele>
        <time>2022-08-21T08:33:09Z</time>
      </trkpt>
      <trkpt lat="43.12798" lon="0.11517">
        <ele>444.8</ele>
        <time>2022-08-21T08:33:12Z</time>
      </trkpt>
      <trkpt lat="43.12853" lon="0.11496">
        <ele>444.4</ele>
        <time>2022-08-21T08:33:23Z</time>
      </trkpt>
      <trkpt lat="43.12864" lon="0.11492">
        <ele>444</ele>
        <time>2022-08-21T08:33:26Z</time>
      </trkpt>
      <trkpt lat="43.12868" lon="0.11494">
        <ele>443.8</ele>
        <time>2022-08-21T08:33:28Z</time>
      </trkpt>
      <trkpt lat="43.12871" lon="0.11507">
        <ele>443.4</ele>
        <time>2022-08-21T08:33:32Z</time>
      </trkpt>
      <trkpt lat="43.12873" lon="0.11523">
        <ele>443</ele>
        <time>2022-08-21T08:33:37Z</time>
      </trkpt>
      <trkpt lat="43.12874" lon="0.11531">
        <ele>443</ele>
        <time>2022-08-21T08:33:40Z</time>
      </trkpt>
      <trkpt lat="43.12876" lon="0.11534">
        <ele>443</ele>
        <time>2022-08-21T08:33:44Z</time>
      </trkpt>
      <trkpt lat="43.12876" lon="0.11536">
        <ele>443.2</ele>
        <time>2022-08-21T08:33:47Z</time>
      </trkpt>
      <trkpt lat="43.12878" lon="0.11544">
        <ele>443.4</ele>
        <time>2022-08-21T08:33:50Z</time>
      </trkpt>
      <trkpt lat="43.12887" lon="0.11565">
        <ele>443.6</ele>
        <time>2022-08-21T08:33:55Z</time>
      </trkpt>
      <trkpt lat="43.12888" lon="0.11571">
        <ele>443.6</ele>
        <time>2022-08-21T08:33:56Z</time>
      </trkpt>
      <trkpt lat="43.12893" lon="0.11601">
        <ele>443.6</ele>
        <time>2022-08-21T08:34:01Z</time>
      </trkpt>
      <trkpt lat="43.12899" lon="0.11648">
        <ele>443.6</ele>
        <time>2022-08-21T08:34:09Z</time>
      </trkpt>
      <trkpt lat="43.12906" lon="0.11716">
        <ele>443.6</ele>
        <time>2022-08-21T08:34:20Z</time>
      </trkpt>
      <trkpt lat="43.12908" lon="0.11739">
        <ele>443.6</ele>
        <time>2022-08-21T08:34:25Z</time>
      </trkpt>
      <trkpt lat="43.12912" lon="0.11759">
        <ele>444.4</ele>
        <time>2022-08-21T08:34:30Z</time>
      </trkpt>
      <trkpt lat="43.12918" lon="0.11774">
        <ele>444.8</ele>
        <time>2022-08-21T08:34:35Z</time>
      </trkpt>
      <trkpt lat="43.12921" lon="0.11779">
        <ele>444.8</ele>
        <time>2022-08-21T08:34:37Z</time>
      </trkpt>
      <trkpt lat="43.12925" lon="0.11783">
        <ele>445.4</ele>
        <time>2022-08-21T08:34:39Z</time>
      </trkpt>
      <trkpt lat="43.12934" lon="0.11789">
        <ele>445.8</ele>
        <time>2022-08-21T08:34:43Z</time>
      </trkpt>
      <trkpt lat="43.12946" lon="0.11792">
        <ele>446.6</ele>
        <time>2022-08-21T08:34:49Z</time>
      </trkpt>
      <trkpt lat="43.12949" lon="0.11792">
        <ele>446.8</ele>
        <time>2022-08-21T08:34:51Z</time>
      </trkpt>
      <trkpt lat="43.1296" lon="0.11792">
        <ele>447.6</ele>
        <time>2022-08-21T08:34:56Z</time>
      </trkpt>
      <trkpt lat="43.12965" lon="0.11791">
        <ele>447.8</ele>
        <time>2022-08-21T08:34:58Z</time>
      </trkpt>
      <trkpt lat="43.12974" lon="0.1179">
        <ele>448.6</ele>
        <time>2022-08-21T08:35:03Z</time>
      </trkpt>
      <trkpt lat="43.12978" lon="0.1179">
        <ele>449</ele>
        <time>2022-08-21T08:35:05Z</time>
      </trkpt>
      <trkpt lat="43.12992" lon="0.11789">
        <ele>449.8</ele>
        <time>2022-08-21T08:35:10Z</time>
      </trkpt>
      <trkpt lat="43.12994" lon="0.11788">
        <ele>449.8</ele>
        <time>2022-08-21T08:35:11Z</time>
      </trkpt>
      <trkpt lat="43.13019" lon="0.11783">
        <ele>450.6</ele>
        <time>2022-08-21T08:35:18Z</time>
      </trkpt>
      <trkpt lat="43.13023" lon="0.11782">
        <ele>450.8</ele>
        <time>2022-08-21T08:35:19Z</time>
      </trkpt>
      <trkpt lat="43.13044" lon="0.11773">
        <ele>451.2</ele>
        <time>2022-08-21T08:35:24Z</time>
      </trkpt>
      <trkpt lat="43.1305" lon="0.11768">
        <ele>452</ele>
        <time>2022-08-21T08:35:27Z</time>
      </trkpt>
      <trkpt lat="43.13057" lon="0.11763">
        <ele>452.4</ele>
        <time>2022-08-21T08:35:31Z</time>
      </trkpt>
      <trkpt lat="43.13061" lon="0.11763">
        <ele>453</ele>
        <time>2022-08-21T08:35:34Z</time>
      </trkpt>
      <trkpt lat="43.13066" lon="0.11765">
        <ele>453.2</ele>
        <time>2022-08-21T08:35:36Z</time>
      </trkpt>
      <trkpt lat="43.13073" lon="0.11776">
        <ele>453.6</ele>
        <time>2022-08-21T08:35:41Z</time>
      </trkpt>
      <trkpt lat="43.13074" lon="0.11786">
        <ele>454.2</ele>
        <time>2022-08-21T08:35:44Z</time>
      </trkpt>
      <trkpt lat="43.13076" lon="0.11799">
        <ele>454.8</ele>
        <time>2022-08-21T08:35:48Z</time>
      </trkpt>
      <trkpt lat="43.13076" lon="0.11814">
        <ele>455.2</ele>
        <time>2022-08-21T08:35:52Z</time>
      </trkpt>
      <trkpt lat="43.13079" lon="0.11831">
        <ele>456.2</ele>
        <time>2022-08-21T08:35:57Z</time>
      </trkpt>
      <trkpt lat="43.13079" lon="0.11834">
        <ele>456.4</ele>
        <time>2022-08-21T08:35:58Z</time>
      </trkpt>
      <trkpt lat="43.13077" lon="0.11845">
        <ele>456.8</ele>
        <time>2022-08-21T08:36:02Z</time>
      </trkpt>
      <trkpt lat="43.13076" lon="0.11849">
        <ele>457</ele>
        <time>2022-08-21T08:36:03Z</time>
      </trkpt>
      <trkpt lat="43.13072" lon="0.11863">
        <ele>457.4</ele>
        <time>2022-08-21T08:36:07Z</time>
      </trkpt>
      <trkpt lat="43.13073" lon="0.11866">
        <ele>457.6</ele>
        <time>2022-08-21T08:36:08Z</time>
      </trkpt>
      <trkpt lat="43.13069" lon="0.11888">
        <ele>458.6</ele>
        <time>2022-08-21T08:36:14Z</time>
      </trkpt>
      <trkpt lat="43.13069" lon="0.11894">
        <ele>459</ele>
        <time>2022-08-21T08:36:16Z</time>
      </trkpt>
      <trkpt lat="43.13067" lon="0.11913">
        <ele>459.6</ele>
        <time>2022-08-21T08:36:21Z</time>
      </trkpt>
      <trkpt lat="43.13066" lon="0.11918">
        <ele>459.6</ele>
        <time>2022-08-21T08:36:22Z</time>
      </trkpt>
      <trkpt lat="43.1307" lon="0.11942">
        <ele>460.6</ele>
        <time>2022-08-21T08:36:29Z</time>
      </trkpt>
      <trkpt lat="43.13071" lon="0.11944">
        <ele>460.8</ele>
        <time>2022-08-21T08:36:30Z</time>
      </trkpt>
      <trkpt lat="43.13078" lon="0.11955">
        <ele>461.8</ele>
        <time>2022-08-21T08:36:36Z</time>
      </trkpt>
      <trkpt lat="43.1309" lon="0.1197">
        <ele>462.6</ele>
        <time>2022-08-21T08:36:43Z</time>
      </trkpt>
      <trkpt lat="43.13091" lon="0.11972">
        <ele>462.8</ele>
        <time>2022-08-21T08:36:44Z</time>
      </trkpt>
      <trkpt lat="43.13101" lon="0.11986">
        <ele>463.8</ele>
        <time>2022-08-21T08:36:50Z</time>
      </trkpt>
      <trkpt lat="43.13103" lon="0.11988">
        <ele>464</ele>
        <time>2022-08-21T08:36:51Z</time>
      </trkpt>
      <trkpt lat="43.13113" lon="0.12007">
        <ele>464.8</ele>
        <time>2022-08-21T08:36:58Z</time>
      </trkpt>
      <trkpt lat="43.13116" lon="0.12013">
        <ele>464.8</ele>
        <time>2022-08-21T08:37:00Z</time>
      </trkpt>
      <trkpt lat="43.13116" lon="0.12016">
        <ele>465</ele>
        <time>2022-08-21T08:37:01Z</time>
      </trkpt>
      <trkpt lat="43.13118" lon="0.12026">
        <ele>465.4</ele>
        <time>2022-08-21T08:37:04Z</time>
      </trkpt>
      <trkpt lat="43.13118" lon="0.12039">
        <ele>466</ele>
        <time>2022-08-21T08:37:08Z</time>
      </trkpt>
      <trkpt lat="43.13118" lon="0.12047">
        <ele>466.4</ele>
        <time>2022-08-21T08:37:11Z</time>
      </trkpt>
      <trkpt lat="43.13111" lon="0.1206">
        <ele>467</ele>
        <time>2022-08-21T08:37:17Z</time>
      </trkpt>
      <trkpt lat="43.13108" lon="0.12063">
        <ele>467.2</ele>
        <time>2022-08-21T08:37:18Z</time>
      </trkpt>
      <trkpt lat="43.13107" lon="0.1207">
        <ele>467.4</ele>
        <time>2022-08-21T08:37:20Z</time>
      </trkpt>
      <trkpt lat="43.13106" lon="0.12078">
        <ele>468</ele>
        <time>2022-08-21T08:37:22Z</time>
      </trkpt>
      <trkpt lat="43.13105" lon="0.1208">
        <ele>468.4</ele>
        <time>2022-08-21T08:37:23Z</time>
      </trkpt>
      <trkpt lat="43.13101" lon="0.12085">
        <ele>469</ele>
        <time>2022-08-21T08:37:26Z</time>
      </trkpt>
      <trkpt lat="43.13098" lon="0.12089">
        <ele>469.2</ele>
        <time>2022-08-21T08:37:28Z</time>
      </trkpt>
      <trkpt lat="43.13096" lon="0.12091">
        <ele>469.6</ele>
        <time>2022-08-21T08:37:29Z</time>
      </trkpt>
      <trkpt lat="43.13086" lon="0.12098">
        <ele>470.6</ele>
        <time>2022-08-21T08:37:35Z</time>
      </trkpt>
      <trkpt lat="43.13085" lon="0.12097">
        <ele>471</ele>
        <time>2022-08-21T08:37:36Z</time>
      </trkpt>
      <trkpt lat="43.13084" lon="0.12098">
        <ele>471</ele>
        <time>2022-08-21T08:37:37Z</time>
      </trkpt>
      <trkpt lat="43.13078" lon="0.121">
        <ele>471.8</ele>
        <time>2022-08-21T08:37:40Z</time>
      </trkpt>
      <trkpt lat="43.13076" lon="0.121">
        <ele>471.8</ele>
        <time>2022-08-21T08:37:41Z</time>
      </trkpt>
      <trkpt lat="43.13071" lon="0.12103">
        <ele>472.8</ele>
        <time>2022-08-21T08:37:45Z</time>
      </trkpt>
      <trkpt lat="43.13068" lon="0.12104">
        <ele>473.4</ele>
        <time>2022-08-21T08:37:47Z</time>
      </trkpt>
      <trkpt lat="43.13065" lon="0.12105">
        <ele>473.8</ele>
        <time>2022-08-21T08:37:49Z</time>
      </trkpt>
      <trkpt lat="43.13063" lon="0.12106">
        <ele>474</ele>
        <time>2022-08-21T08:37:50Z</time>
      </trkpt>
      <trkpt lat="43.13055" lon="0.12109">
        <ele>474.8</ele>
        <time>2022-08-21T08:37:54Z</time>
      </trkpt>
      <trkpt lat="43.13054" lon="0.1211">
        <ele>475</ele>
        <time>2022-08-21T08:37:55Z</time>
      </trkpt>
      <trkpt lat="43.13046" lon="0.12114">
        <ele>475.8</ele>
        <time>2022-08-21T08:38:00Z</time>
      </trkpt>
      <trkpt lat="43.13043" lon="0.12116">
        <ele>476.2</ele>
        <time>2022-08-21T08:38:02Z</time>
      </trkpt>
      <trkpt lat="43.13034" lon="0.12121">
        <ele>476.8</ele>
        <time>2022-08-21T08:38:08Z</time>
      </trkpt>
      <trkpt lat="43.1303" lon="0.12123">
        <ele>477.4</ele>
        <time>2022-08-21T08:38:10Z</time>
      </trkpt>
      <trkpt lat="43.13022" lon="0.12129">
        <ele>478.4</ele>
        <time>2022-08-21T08:38:16Z</time>
      </trkpt>
      <trkpt lat="43.1302" lon="0.12129">
        <ele>478.4</ele>
        <time>2022-08-21T08:38:17Z</time>
      </trkpt>
      <trkpt lat="43.13014" lon="0.12135">
        <ele>479.4</ele>
        <time>2022-08-21T08:38:23Z</time>
      </trkpt>
      <trkpt lat="43.13014" lon="0.12136">
        <ele>479.4</ele>
        <time>2022-08-21T08:38:24Z</time>
      </trkpt>
      <trkpt lat="43.13011" lon="0.12139">
        <ele>480</ele>
        <time>2022-08-21T08:38:27Z</time>
      </trkpt>
      <trkpt lat="43.13008" lon="0.12141">
        <ele>480.2</ele>
        <time>2022-08-21T08:38:30Z</time>
      </trkpt>
      <trkpt lat="43.13007" lon="0.12143">
        <ele>480.4</ele>
        <time>2022-08-21T08:38:31Z</time>
      </trkpt>
      <trkpt lat="43.13004" lon="0.12146">
        <ele>481.4</ele>
        <time>2022-08-21T08:38:35Z</time>
      </trkpt>
      <trkpt lat="43.13001" lon="0.12148">
        <ele>481.6</ele>
        <time>2022-08-21T08:38:37Z</time>
      </trkpt>
      <trkpt lat="43.12995" lon="0.12154">
        <ele>482.2</ele>
        <time>2022-08-21T08:38:41Z</time>
      </trkpt>
      <trkpt lat="43.12993" lon="0.12156">
        <ele>482.4</ele>
        <time>2022-08-21T08:38:43Z</time>
      </trkpt>
      <trkpt lat="43.12991" lon="0.12156">
        <ele>482.6</ele>
        <time>2022-08-21T08:38:44Z</time>
      </trkpt>
      <trkpt lat="43.12984" lon="0.12159">
        <ele>483.6</ele>
        <time>2022-08-21T08:38:49Z</time>
      </trkpt>
      <trkpt lat="43.12983" lon="0.12159">
        <ele>484.2</ele>
        <time>2022-08-21T08:38:53Z</time>
      </trkpt>
      <trkpt lat="43.12979" lon="0.12159">
        <ele>484.6</ele>
        <time>2022-08-21T08:38:57Z</time>
      </trkpt>
      <trkpt lat="43.12974" lon="0.12156">
        <ele>485.2</ele>
        <time>2022-08-21T08:39:01Z</time>
      </trkpt>
      <trkpt lat="43.12968" lon="0.12153">
        <ele>485.8</ele>
        <time>2022-08-21T08:39:05Z</time>
      </trkpt>
      <trkpt lat="43.12962" lon="0.12149">
        <ele>486.4</ele>
        <time>2022-08-21T08:39:10Z</time>
      </trkpt>
      <trkpt lat="43.12961" lon="0.12147">
        <ele>486.8</ele>
        <time>2022-08-21T08:39:11Z</time>
      </trkpt>
      <trkpt lat="43.12961" lon="0.12147">
        <ele>487</ele>
        <time>2022-08-21T08:39:12Z</time>
      </trkpt>
      <trkpt lat="43.12953" lon="0.12143">
        <ele>488</ele>
        <time>2022-08-21T08:39:18Z</time>
      </trkpt>
      <trkpt lat="43.12952" lon="0.12142">
        <ele>488</ele>
        <time>2022-08-21T08:39:19Z</time>
      </trkpt>
      <trkpt lat="43.12946" lon="0.12139">
        <ele>488.8</ele>
        <time>2022-08-21T08:39:25Z</time>
      </trkpt>
      <trkpt lat="43.12945" lon="0.12138">
        <ele>489.2</ele>
        <time>2022-08-21T08:39:26Z</time>
      </trkpt>
      <trkpt lat="43.12937" lon="0.12135">
        <ele>490</ele>
        <time>2022-08-21T08:39:32Z</time>
      </trkpt>
      <trkpt lat="43.12935" lon="0.12135">
        <ele>490.2</ele>
        <time>2022-08-21T08:39:33Z</time>
      </trkpt>
      <trkpt lat="43.1293" lon="0.12133">
        <ele>491.2</ele>
        <time>2022-08-21T08:39:38Z</time>
      </trkpt>
      <trkpt lat="43.12929" lon="0.12133">
        <ele>491.6</ele>
        <time>2022-08-21T08:39:39Z</time>
      </trkpt>
      <trkpt lat="43.12923" lon="0.12132">
        <ele>492.4</ele>
        <time>2022-08-21T08:39:43Z</time>
      </trkpt>
      <trkpt lat="43.12917" lon="0.12131">
        <ele>493.4</ele>
        <time>2022-08-21T08:39:48Z</time>
      </trkpt>
      <trkpt lat="43.12911" lon="0.1213">
        <ele>494.2</ele>
        <time>2022-08-21T08:39:53Z</time>
      </trkpt>
      <trkpt lat="43.12909" lon="0.12128">
        <ele>494.4</ele>
        <time>2022-08-21T08:39:55Z</time>
      </trkpt>
      <trkpt lat="43.12908" lon="0.12128">
        <ele>494.6</ele>
        <time>2022-08-21T08:39:56Z</time>
      </trkpt>
      <trkpt lat="43.129" lon="0.12124">
        <ele>495.6</ele>
        <time>2022-08-21T08:40:03Z</time>
      </trkpt>
      <trkpt lat="43.12894" lon="0.12119">
        <ele>496.8</ele>
        <time>2022-08-21T08:40:09Z</time>
      </trkpt>
      <trkpt lat="43.12893" lon="0.12118">
        <ele>497</ele>
        <time>2022-08-21T08:40:10Z</time>
      </trkpt>
      <trkpt lat="43.12892" lon="0.12117">
        <ele>497.2</ele>
        <time>2022-08-21T08:40:11Z</time>
      </trkpt>
      <trkpt lat="43.12893" lon="0.12108">
        <ele>497.8</ele>
        <time>2022-08-21T08:40:15Z</time>
      </trkpt>
      <trkpt lat="43.12894" lon="0.12106">
        <ele>498</ele>
        <time>2022-08-21T08:40:16Z</time>
      </trkpt>
      <trkpt lat="43.12897" lon="0.12088">
        <ele>498.4</ele>
        <time>2022-08-21T08:40:24Z</time>
      </trkpt>
      <trkpt lat="43.129" lon="0.12072">
        <ele>498.8</ele>
        <time>2022-08-21T08:40:30Z</time>
      </trkpt>
      <trkpt lat="43.12899" lon="0.12063">
        <ele>499</ele>
        <time>2022-08-21T08:40:34Z</time>
      </trkpt>
      <trkpt lat="43.12899" lon="0.12058">
        <ele>499.2</ele>
        <time>2022-08-21T08:40:36Z</time>
      </trkpt>
      <trkpt lat="43.12901" lon="0.12037">
        <ele>499.6</ele>
        <time>2022-08-21T08:40:44Z</time>
      </trkpt>
      <trkpt lat="43.129" lon="0.12031">
        <ele>499.8</ele>
        <time>2022-08-21T08:40:47Z</time>
      </trkpt>
      <trkpt lat="43.12899" lon="0.12021">
        <ele>500.2</ele>
        <time>2022-08-21T08:40:51Z</time>
      </trkpt>
      <trkpt lat="43.12898" lon="0.1202">
        <ele>500.2</ele>
        <time>2022-08-21T08:40:52Z</time>
      </trkpt>
      <trkpt lat="43.12897" lon="0.12017">
        <ele>500.4</ele>
        <time>2022-08-21T08:40:54Z</time>
      </trkpt>
      <trkpt lat="43.12897" lon="0.12014">
        <ele>500.6</ele>
        <time>2022-08-21T08:40:55Z</time>
      </trkpt>
      <trkpt lat="43.12896" lon="0.12011">
        <ele>500.6</ele>
        <time>2022-08-21T08:40:57Z</time>
      </trkpt>
      <trkpt lat="43.12896" lon="0.12007">
        <ele>500.8</ele>
        <time>2022-08-21T08:40:59Z</time>
      </trkpt>
      <trkpt lat="43.12893" lon="0.12">
        <ele>501.2</ele>
        <time>2022-08-21T08:41:05Z</time>
      </trkpt>
      <trkpt lat="43.12891" lon="0.11999">
        <ele>501.2</ele>
        <time>2022-08-21T08:41:06Z</time>
      </trkpt>
      <trkpt lat="43.12889" lon="0.11999">
        <ele>501.4</ele>
        <time>2022-08-21T08:41:07Z</time>
      </trkpt>
      <trkpt lat="43.12886" lon="0.12001">
        <ele>501.6</ele>
        <time>2022-08-21T08:41:09Z</time>
      </trkpt>
      <trkpt lat="43.12884" lon="0.12006">
        <ele>501.8</ele>
        <time>2022-08-21T08:41:11Z</time>
      </trkpt>
      <trkpt lat="43.12884" lon="0.12008">
        <ele>502</ele>
        <time>2022-08-21T08:41:12Z</time>
      </trkpt>
      <trkpt lat="43.12883" lon="0.12013">
        <ele>502</ele>
        <time>2022-08-21T08:41:15Z</time>
      </trkpt>
      <trkpt lat="43.12882" lon="0.12015">
        <ele>502.2</ele>
        <time>2022-08-21T08:41:16Z</time>
      </trkpt>
      <trkpt lat="43.12883" lon="0.12017">
        <ele>502.2</ele>
        <time>2022-08-21T08:41:17Z</time>
      </trkpt>
      <trkpt lat="43.12883" lon="0.12021">
        <ele>502.4</ele>
        <time>2022-08-21T08:41:19Z</time>
      </trkpt>
      <trkpt lat="43.1288" lon="0.12027">
        <ele>502.8</ele>
        <time>2022-08-21T08:41:22Z</time>
      </trkpt>
      <trkpt lat="43.12878" lon="0.12033">
        <ele>503.2</ele>
        <time>2022-08-21T08:41:26Z</time>
      </trkpt>
      <trkpt lat="43.12877" lon="0.12037">
        <ele>503.8</ele>
        <time>2022-08-21T08:41:30Z</time>
      </trkpt>
      <trkpt lat="43.12874" lon="0.12042">
        <ele>504.4</ele>
        <time>2022-08-21T08:41:35Z</time>
      </trkpt>
      <trkpt lat="43.12873" lon="0.12044">
        <ele>504.6</ele>
        <time>2022-08-21T08:41:37Z</time>
      </trkpt>
      <trkpt lat="43.1287" lon="0.12049">
        <ele>505.4</ele>
        <time>2022-08-21T08:41:41Z</time>
      </trkpt>
      <trkpt lat="43.1287" lon="0.12055">
        <ele>506.2</ele>
        <time>2022-08-21T08:41:46Z</time>
      </trkpt>
      <trkpt lat="43.12869" lon="0.12057">
        <ele>506.4</ele>
        <time>2022-08-21T08:41:48Z</time>
      </trkpt>
      <trkpt lat="43.12868" lon="0.12063">
        <ele>506.8</ele>
        <time>2022-08-21T08:41:52Z</time>
      </trkpt>
      <trkpt lat="43.12867" lon="0.12067">
        <ele>507.6</ele>
        <time>2022-08-21T08:41:54Z</time>
      </trkpt>
      <trkpt lat="43.12865" lon="0.12068">
        <ele>507.6</ele>
        <time>2022-08-21T08:41:55Z</time>
      </trkpt>
      <trkpt lat="43.12864" lon="0.12071">
        <ele>508</ele>
        <time>2022-08-21T08:41:57Z</time>
      </trkpt>
      <trkpt lat="43.12863" lon="0.12081">
        <ele>508.2</ele>
        <time>2022-08-21T08:42:01Z</time>
      </trkpt>
      <trkpt lat="43.12862" lon="0.12083">
        <ele>508.8</ele>
        <time>2022-08-21T08:42:02Z</time>
      </trkpt>
      <trkpt lat="43.12865" lon="0.12098">
        <ele>509.4</ele>
        <time>2022-08-21T08:42:09Z</time>
      </trkpt>
      <trkpt lat="43.12865" lon="0.12101">
        <ele>509.6</ele>
        <time>2022-08-21T08:42:10Z</time>
      </trkpt>
      <trkpt lat="43.12865" lon="0.12115">
        <ele>511</ele>
        <time>2022-08-21T08:42:18Z</time>
      </trkpt>
      <trkpt lat="43.12862" lon="0.12124">
        <ele>511.6</ele>
        <time>2022-08-21T08:42:23Z</time>
      </trkpt>
      <trkpt lat="43.12862" lon="0.12131">
        <ele>512</ele>
        <time>2022-08-21T08:42:28Z</time>
      </trkpt>
      <trkpt lat="43.12862" lon="0.12136">
        <ele>512</ele>
        <time>2022-08-21T08:42:29Z</time>
      </trkpt>
      <trkpt lat="43.12864" lon="0.12147">
        <ele>512.4</ele>
        <time>2022-08-21T08:42:32Z</time>
      </trkpt>
      <trkpt lat="43.12865" lon="0.1215">
        <ele>512.6</ele>
        <time>2022-08-21T08:42:33Z</time>
      </trkpt>
      <trkpt lat="43.12866" lon="0.12162">
        <ele>513</ele>
        <time>2022-08-21T08:42:39Z</time>
      </trkpt>
      <trkpt lat="43.12866" lon="0.12163">
        <ele>513.2</ele>
        <time>2022-08-21T08:42:40Z</time>
      </trkpt>
      <trkpt lat="43.12867" lon="0.12172">
        <ele>514.2</ele>
        <time>2022-08-21T08:42:46Z</time>
      </trkpt>
      <trkpt lat="43.12867" lon="0.12182">
        <ele>515</ele>
        <time>2022-08-21T08:42:52Z</time>
      </trkpt>
      <trkpt lat="43.12861" lon="0.12184">
        <ele>515.2</ele>
        <time>2022-08-21T08:42:55Z</time>
      </trkpt>
      <trkpt lat="43.1286" lon="0.12182">
        <ele>515.8</ele>
        <time>2022-08-21T08:42:59Z</time>
      </trkpt>
      <trkpt lat="43.12856" lon="0.12174">
        <ele>516.4</ele>
        <time>2022-08-21T08:43:04Z</time>
      </trkpt>
      <trkpt lat="43.12855" lon="0.12172">
        <ele>516.4</ele>
        <time>2022-08-21T08:43:05Z</time>
      </trkpt>
      <trkpt lat="43.12855" lon="0.12165">
        <ele>517.4</ele>
        <time>2022-08-21T08:43:11Z</time>
      </trkpt>
      <trkpt lat="43.12851" lon="0.12158">
        <ele>518</ele>
        <time>2022-08-21T08:43:17Z</time>
      </trkpt>
      <trkpt lat="43.12851" lon="0.12156">
        <ele>518</ele>
        <time>2022-08-21T08:43:18Z</time>
      </trkpt>
      <trkpt lat="43.1285" lon="0.12153">
        <ele>518.2</ele>
        <time>2022-08-21T08:43:20Z</time>
      </trkpt>
      <trkpt lat="43.12849" lon="0.12149">
        <ele>518.4</ele>
        <time>2022-08-21T08:43:23Z</time>
      </trkpt>
      <trkpt lat="43.12846" lon="0.12138">
        <ele>519.2</ele>
        <time>2022-08-21T08:43:30Z</time>
      </trkpt>
      <trkpt lat="43.12843" lon="0.12136">
        <ele>519.6</ele>
        <time>2022-08-21T08:43:33Z</time>
      </trkpt>
      <trkpt lat="43.12842" lon="0.12134">
        <ele>519.8</ele>
        <time>2022-08-21T08:43:34Z</time>
      </trkpt>
      <trkpt lat="43.12839" lon="0.12131">
        <ele>519.8</ele>
        <time>2022-08-21T08:43:36Z</time>
      </trkpt>
      <trkpt lat="43.12837" lon="0.12132">
        <ele>519.8</ele>
        <time>2022-08-21T08:43:37Z</time>
      </trkpt>
      <trkpt lat="43.12831" lon="0.12134">
        <ele>520.2</ele>
        <time>2022-08-21T08:43:41Z</time>
      </trkpt>
      <trkpt lat="43.1283" lon="0.12136">
        <ele>520.2</ele>
        <time>2022-08-21T08:43:42Z</time>
      </trkpt>
      <trkpt lat="43.12829" lon="0.12143">
        <ele>520.8</ele>
        <time>2022-08-21T08:43:48Z</time>
      </trkpt>
      <trkpt lat="43.12829" lon="0.12144">
        <ele>521</ele>
        <time>2022-08-21T08:43:49Z</time>
      </trkpt>
      <trkpt lat="43.12829" lon="0.12152">
        <ele>521.8</ele>
        <time>2022-08-21T08:43:55Z</time>
      </trkpt>
      <trkpt lat="43.12827" lon="0.12162">
        <ele>523.2</ele>
        <time>2022-08-21T08:44:03Z</time>
      </trkpt>
      <trkpt lat="43.12826" lon="0.12169">
        <ele>523.8</ele>
        <time>2022-08-21T08:44:06Z</time>
      </trkpt>
      <trkpt lat="43.12826" lon="0.12171">
        <ele>524.2</ele>
        <time>2022-08-21T08:44:09Z</time>
      </trkpt>
      <trkpt lat="43.12823" lon="0.12185">
        <ele>524.8</ele>
        <time>2022-08-21T08:44:15Z</time>
      </trkpt>
      <trkpt lat="43.12821" lon="0.12191">
        <ele>525.2</ele>
        <time>2022-08-21T08:44:18Z</time>
      </trkpt>
      <trkpt lat="43.12822" lon="0.12198">
        <ele>525.6</ele>
        <time>2022-08-21T08:44:21Z</time>
      </trkpt>
      <trkpt lat="43.12823" lon="0.12211">
        <ele>526.2</ele>
        <time>2022-08-21T08:44:27Z</time>
      </trkpt>
      <trkpt lat="43.12825" lon="0.12215">
        <ele>526.6</ele>
        <time>2022-08-21T08:44:29Z</time>
      </trkpt>
      <trkpt lat="43.12826" lon="0.1222">
        <ele>527</ele>
        <time>2022-08-21T08:44:32Z</time>
      </trkpt>
      <trkpt lat="43.12828" lon="0.12225">
        <ele>527.2</ele>
        <time>2022-08-21T08:44:35Z</time>
      </trkpt>
      <trkpt lat="43.12828" lon="0.12229">
        <ele>527.8</ele>
        <time>2022-08-21T08:44:37Z</time>
      </trkpt>
      <trkpt lat="43.12829" lon="0.12233">
        <ele>528</ele>
        <time>2022-08-21T08:44:39Z</time>
      </trkpt>
      <trkpt lat="43.12831" lon="0.12239">
        <ele>528.6</ele>
        <time>2022-08-21T08:44:43Z</time>
      </trkpt>
      <trkpt lat="43.12832" lon="0.12244">
        <ele>529</ele>
        <time>2022-08-21T08:44:46Z</time>
      </trkpt>
      <trkpt lat="43.12831" lon="0.12252">
        <ele>529.2</ele>
        <time>2022-08-21T08:44:49Z</time>
      </trkpt>
      <trkpt lat="43.12832" lon="0.12255">
        <ele>529.6</ele>
        <time>2022-08-21T08:44:51Z</time>
      </trkpt>
      <trkpt lat="43.12831" lon="0.12256">
        <ele>529.8</ele>
        <time>2022-08-21T08:44:52Z</time>
      </trkpt>
      <trkpt lat="43.12831" lon="0.12261">
        <ele>530.2</ele>
        <time>2022-08-21T08:44:55Z</time>
      </trkpt>
      <trkpt lat="43.1283" lon="0.12264">
        <ele>530.6</ele>
        <time>2022-08-21T08:44:58Z</time>
      </trkpt>
      <trkpt lat="43.1283" lon="0.12266">
        <ele>530.8</ele>
        <time>2022-08-21T08:44:59Z</time>
      </trkpt>
      <trkpt lat="43.12828" lon="0.1227">
        <ele>531</ele>
        <time>2022-08-21T08:45:02Z</time>
      </trkpt>
      <trkpt lat="43.12824" lon="0.12275">
        <ele>531.8</ele>
        <time>2022-08-21T08:45:07Z</time>
      </trkpt>
      <trkpt lat="43.12823" lon="0.12277">
        <ele>532.2</ele>
        <time>2022-08-21T08:45:09Z</time>
      </trkpt>
      <trkpt lat="43.12819" lon="0.12283">
        <ele>533</ele>
        <time>2022-08-21T08:45:14Z</time>
      </trkpt>
      <trkpt lat="43.12817" lon="0.12287">
        <ele>533.6</ele>
        <time>2022-08-21T08:45:18Z</time>
      </trkpt>
      <trkpt lat="43.12813" lon="0.12292">
        <ele>533.8</ele>
        <time>2022-08-21T08:45:20Z</time>
      </trkpt>
      <trkpt lat="43.12812" lon="0.12297">
        <ele>534.2</ele>
        <time>2022-08-21T08:45:22Z</time>
      </trkpt>
      <trkpt lat="43.12811" lon="0.12299">
        <ele>534.4</ele>
        <time>2022-08-21T08:45:24Z</time>
      </trkpt>
      <trkpt lat="43.12806" lon="0.12306">
        <ele>535.2</ele>
        <time>2022-08-21T08:45:29Z</time>
      </trkpt>
      <trkpt lat="43.12803" lon="0.12313">
        <ele>535.6</ele>
        <time>2022-08-21T08:45:32Z</time>
      </trkpt>
      <trkpt lat="43.12799" lon="0.12321">
        <ele>536.2</ele>
        <time>2022-08-21T08:45:38Z</time>
      </trkpt>
      <trkpt lat="43.12798" lon="0.12325">
        <ele>536.4</ele>
        <time>2022-08-21T08:45:39Z</time>
      </trkpt>
      <trkpt lat="43.12797" lon="0.12328">
        <ele>536.6</ele>
        <time>2022-08-21T08:45:41Z</time>
      </trkpt>
      <trkpt lat="43.12795" lon="0.12338">
        <ele>537.4</ele>
        <time>2022-08-21T08:45:46Z</time>
      </trkpt>
      <trkpt lat="43.12793" lon="0.12344">
        <ele>538</ele>
        <time>2022-08-21T08:45:51Z</time>
      </trkpt>
      <trkpt lat="43.1279" lon="0.12353">
        <ele>538.6</ele>
        <time>2022-08-21T08:45:55Z</time>
      </trkpt>
      <trkpt lat="43.12786" lon="0.12366">
        <ele>539.2</ele>
        <time>2022-08-21T08:46:02Z</time>
      </trkpt>
      <trkpt lat="43.12785" lon="0.12369">
        <ele>539.6</ele>
        <time>2022-08-21T08:46:05Z</time>
      </trkpt>
      <trkpt lat="43.1278" lon="0.12382">
        <ele>540.6</ele>
        <time>2022-08-21T08:46:12Z</time>
      </trkpt>
      <trkpt lat="43.12779" lon="0.12385">
        <ele>541</ele>
        <time>2022-08-21T08:46:14Z</time>
      </trkpt>
      <trkpt lat="43.12779" lon="0.12386">
        <ele>541.2</ele>
        <time>2022-08-21T08:46:16Z</time>
      </trkpt>
      <trkpt lat="43.12778" lon="0.12392">
        <ele>541.4</ele>
        <time>2022-08-21T08:46:18Z</time>
      </trkpt>
      <trkpt lat="43.12775" lon="0.124">
        <ele>542</ele>
        <time>2022-08-21T08:46:22Z</time>
      </trkpt>
      <trkpt lat="43.12771" lon="0.12411">
        <ele>543</ele>
        <time>2022-08-21T08:46:30Z</time>
      </trkpt>
      <trkpt lat="43.1277" lon="0.12415">
        <ele>543</ele>
        <time>2022-08-21T08:46:31Z</time>
      </trkpt>
      <trkpt lat="43.12765" lon="0.12427">
        <ele>544</ele>
        <time>2022-08-21T08:46:38Z</time>
      </trkpt>
      <trkpt lat="43.12763" lon="0.12432">
        <ele>544.2</ele>
        <time>2022-08-21T08:46:41Z</time>
      </trkpt>
      <trkpt lat="43.12754" lon="0.1245">
        <ele>545</ele>
        <time>2022-08-21T08:46:51Z</time>
      </trkpt>
      <trkpt lat="43.1275" lon="0.1246">
        <ele>545.4</ele>
        <time>2022-08-21T08:46:56Z</time>
      </trkpt>
      <trkpt lat="43.12746" lon="0.1247">
        <ele>545.8</ele>
        <time>2022-08-21T08:47:01Z</time>
      </trkpt>
      <trkpt lat="43.12737" lon="0.1249">
        <ele>546.2</ele>
        <time>2022-08-21T08:47:09Z</time>
      </trkpt>
      <trkpt lat="43.12735" lon="0.12498">
        <ele>546.4</ele>
        <time>2022-08-21T08:47:13Z</time>
      </trkpt>
      <trkpt lat="43.12731" lon="0.12507">
        <ele>546.6</ele>
        <time>2022-08-21T08:47:16Z</time>
      </trkpt>
      <trkpt lat="43.12723" lon="0.12527">
        <ele>547</ele>
        <time>2022-08-21T08:47:25Z</time>
      </trkpt>
      <trkpt lat="43.12716" lon="0.12544">
        <ele>547.6</ele>
        <time>2022-08-21T08:47:32Z</time>
      </trkpt>
      <trkpt lat="43.1271" lon="0.12565">
        <ele>548.4</ele>
        <time>2022-08-21T08:47:41Z</time>
      </trkpt>
      <trkpt lat="43.12705" lon="0.12579">
        <ele>548.8</ele>
        <time>2022-08-21T08:47:47Z</time>
      </trkpt>
      <trkpt lat="43.127" lon="0.12589">
        <ele>549.2</ele>
        <time>2022-08-21T08:47:52Z</time>
      </trkpt>
      <trkpt lat="43.12689" lon="0.12614">
        <ele>549.8</ele>
        <time>2022-08-21T08:48:04Z</time>
      </trkpt>
      <trkpt lat="43.12681" lon="0.12632">
        <ele>550.2</ele>
        <time>2022-08-21T08:48:12Z</time>
      </trkpt>
      <trkpt lat="43.12671" lon="0.12658">
        <ele>551</ele>
        <time>2022-08-21T08:48:22Z</time>
      </trkpt>
      <trkpt lat="43.1267" lon="0.12661">
        <ele>551.2</ele>
        <time>2022-08-21T08:48:23Z</time>
      </trkpt>
      <trkpt lat="43.12662" lon="0.12681">
        <ele>551.2</ele>
        <time>2022-08-21T08:48:30Z</time>
      </trkpt>
      <trkpt lat="43.12653" lon="0.12704">
        <ele>551.4</ele>
        <time>2022-08-21T08:48:38Z</time>
      </trkpt>
      <trkpt lat="43.12651" lon="0.1271">
        <ele>551.6</ele>
        <time>2022-08-21T08:48:40Z</time>
      </trkpt>
      <trkpt lat="43.12637" lon="0.12744">
        <ele>551.8</ele>
        <time>2022-08-21T08:48:50Z</time>
      </trkpt>
      <trkpt lat="43.12628" lon="0.12768">
        <ele>551.4</ele>
        <time>2022-08-21T08:48:57Z</time>
      </trkpt>
      <trkpt lat="43.12617" lon="0.12792">
        <ele>551.4</ele>
        <time>2022-08-21T08:49:05Z</time>
      </trkpt>
      <trkpt lat="43.12609" lon="0.12811">
        <ele>551.8</ele>
        <time>2022-08-21T08:49:12Z</time>
      </trkpt>
      <trkpt lat="43.12599" lon="0.12838">
        <ele>551.8</ele>
        <time>2022-08-21T08:49:20Z</time>
      </trkpt>
      <trkpt lat="43.12593" lon="0.12852">
        <ele>552.2</ele>
        <time>2022-08-21T08:49:25Z</time>
      </trkpt>
      <trkpt lat="43.12589" lon="0.12859">
        <ele>552.6</ele>
        <time>2022-08-21T08:49:28Z</time>
      </trkpt>
      <trkpt lat="43.12581" lon="0.1288">
        <ele>553.2</ele>
        <time>2022-08-21T08:49:36Z</time>
      </trkpt>
      <trkpt lat="43.12577" lon="0.1289">
        <ele>553.4</ele>
        <time>2022-08-21T08:49:40Z</time>
      </trkpt>
      <trkpt lat="43.12571" lon="0.12905">
        <ele>554</ele>
        <time>2022-08-21T08:49:46Z</time>
      </trkpt>
      <trkpt lat="43.12562" lon="0.12928">
        <ele>554.6</ele>
        <time>2022-08-21T08:49:55Z</time>
      </trkpt>
      <trkpt lat="43.12561" lon="0.1293">
        <ele>554.6</ele>
        <time>2022-08-21T08:49:56Z</time>
      </trkpt>
      <trkpt lat="43.12554" lon="0.12946">
        <ele>555.6</ele>
        <time>2022-08-21T08:50:03Z</time>
      </trkpt>
      <trkpt lat="43.12553" lon="0.12948">
        <ele>555.6</ele>
        <time>2022-08-21T08:50:04Z</time>
      </trkpt>
      <trkpt lat="43.12549" lon="0.12955">
        <ele>556.2</ele>
        <time>2022-08-21T08:50:08Z</time>
      </trkpt>
      <trkpt lat="43.12548" lon="0.12956">
        <ele>556.2</ele>
        <time>2022-08-21T08:50:09Z</time>
      </trkpt>
      <trkpt lat="43.12546" lon="0.12961">
        <ele>556.6</ele>
        <time>2022-08-21T08:50:12Z</time>
      </trkpt>
      <trkpt lat="43.12541" lon="0.12966">
        <ele>557</ele>
        <time>2022-08-21T08:50:16Z</time>
      </trkpt>
      <trkpt lat="43.1254" lon="0.12967">
        <ele>557.2</ele>
        <time>2022-08-21T08:50:17Z</time>
      </trkpt>
      <trkpt lat="43.12537" lon="0.12971">
        <ele>557.8</ele>
        <time>2022-08-21T08:50:20Z</time>
      </trkpt>
      <trkpt lat="43.12535" lon="0.12974">
        <ele>558</ele>
        <time>2022-08-21T08:50:22Z</time>
      </trkpt>
      <trkpt lat="43.12527" lon="0.12981">
        <ele>559</ele>
        <time>2022-08-21T08:50:29Z</time>
      </trkpt>
      <trkpt lat="43.12526" lon="0.12983">
        <ele>559.2</ele>
        <time>2022-08-21T08:50:30Z</time>
      </trkpt>
      <trkpt lat="43.12518" lon="0.12994">
        <ele>560.2</ele>
        <time>2022-08-21T08:50:35Z</time>
      </trkpt>
      <trkpt lat="43.12514" lon="0.12999">
        <ele>560.8</ele>
        <time>2022-08-21T08:50:38Z</time>
      </trkpt>
      <trkpt lat="43.12507" lon="0.13007">
        <ele>561.2</ele>
        <time>2022-08-21T08:50:42Z</time>
      </trkpt>
      <trkpt lat="43.12504" lon="0.13013">
        <ele>561.6</ele>
        <time>2022-08-21T08:50:44Z</time>
      </trkpt>
      <trkpt lat="43.12503" lon="0.13015">
        <ele>561.8</ele>
        <time>2022-08-21T08:50:45Z</time>
      </trkpt>
      <trkpt lat="43.12498" lon="0.13022">
        <ele>562.2</ele>
        <time>2022-08-21T08:50:49Z</time>
      </trkpt>
      <trkpt lat="43.12498" lon="0.13024">
        <ele>562.4</ele>
        <time>2022-08-21T08:50:50Z</time>
      </trkpt>
      <trkpt lat="43.125" lon="0.1303">
        <ele>562.6</ele>
        <time>2022-08-21T08:50:52Z</time>
      </trkpt>
      <trkpt lat="43.125" lon="0.1304">
        <ele>563.6</ele>
        <time>2022-08-21T08:50:57Z</time>
      </trkpt>
      <trkpt lat="43.12501" lon="0.13044">
        <ele>563.6</ele>
        <time>2022-08-21T08:50:58Z</time>
      </trkpt>
      <trkpt lat="43.12505" lon="0.13053">
        <ele>564.4</ele>
        <time>2022-08-21T08:51:03Z</time>
      </trkpt>
      <trkpt lat="43.12508" lon="0.13058">
        <ele>564.6</ele>
        <time>2022-08-21T08:51:05Z</time>
      </trkpt>
      <trkpt lat="43.12511" lon="0.1307">
        <ele>565.2</ele>
        <time>2022-08-21T08:51:10Z</time>
      </trkpt>
      <trkpt lat="43.12515" lon="0.13084">
        <ele>565.6</ele>
        <time>2022-08-21T08:51:15Z</time>
      </trkpt>
      <trkpt lat="43.12515" lon="0.1309">
        <ele>565.6</ele>
        <time>2022-08-21T08:51:17Z</time>
      </trkpt>
      <trkpt lat="43.12517" lon="0.13111">
        <ele>565.8</ele>
        <time>2022-08-21T08:51:24Z</time>
      </trkpt>
      <trkpt lat="43.12519" lon="0.13138">
        <ele>566.2</ele>
        <time>2022-08-21T08:51:33Z</time>
      </trkpt>
      <trkpt lat="43.12521" lon="0.13163">
        <ele>566.2</ele>
        <time>2022-08-21T08:51:41Z</time>
      </trkpt>
      <trkpt lat="43.12521" lon="0.13176">
        <ele>566.4</ele>
        <time>2022-08-21T08:51:46Z</time>
      </trkpt>
      <trkpt lat="43.12522" lon="0.13203">
        <ele>566.8</ele>
        <time>2022-08-21T08:51:54Z</time>
      </trkpt>
      <trkpt lat="43.12522" lon="0.13207">
        <ele>566.8</ele>
        <time>2022-08-21T08:51:55Z</time>
      </trkpt>
      <trkpt lat="43.12518" lon="0.13233">
        <ele>567</ele>
        <time>2022-08-21T08:52:04Z</time>
      </trkpt>
      <trkpt lat="43.12509" lon="0.13265">
        <ele>567</ele>
        <time>2022-08-21T08:52:15Z</time>
      </trkpt>
      <trkpt lat="43.12507" lon="0.13298">
        <ele>567.4</ele>
        <time>2022-08-21T08:52:26Z</time>
      </trkpt>
      <trkpt lat="43.12506" lon="0.1332">
        <ele>567.6</ele>
        <time>2022-08-21T08:52:33Z</time>
      </trkpt>
      <trkpt lat="43.1251" lon="0.13342">
        <ele>567.4</ele>
        <time>2022-08-21T08:52:40Z</time>
      </trkpt>
      <trkpt lat="43.12522" lon="0.13357">
        <ele>567.2</ele>
        <time>2022-08-21T08:52:45Z</time>
      </trkpt>
      <trkpt lat="43.12539" lon="0.13381">
        <ele>566.4</ele>
        <time>2022-08-21T08:52:50Z</time>
      </trkpt>
      <trkpt lat="43.12541" lon="0.13388">
        <ele>565.2</ele>
        <time>2022-08-21T08:52:52Z</time>
      </trkpt>
      <trkpt lat="43.12543" lon="0.13403">
        <ele>564.2</ele>
        <time>2022-08-21T08:52:56Z</time>
      </trkpt>
      <trkpt lat="43.12544" lon="0.13426">
        <ele>563</ele>
        <time>2022-08-21T08:53:02Z</time>
      </trkpt>
      <trkpt lat="43.12543" lon="0.13431">
        <ele>562.8</ele>
        <time>2022-08-21T08:53:03Z</time>
      </trkpt>
      <trkpt lat="43.12542" lon="0.13442">
        <ele>562</ele>
        <time>2022-08-21T08:53:07Z</time>
      </trkpt>
      <trkpt lat="43.1254" lon="0.13447">
        <ele>561.6</ele>
        <time>2022-08-21T08:53:09Z</time>
      </trkpt>
      <trkpt lat="43.12538" lon="0.13448">
        <ele>561.4</ele>
        <time>2022-08-21T08:53:10Z</time>
      </trkpt>
      <trkpt lat="43.1253" lon="0.13451">
        <ele>561</ele>
        <time>2022-08-21T08:53:14Z</time>
      </trkpt>
      <trkpt lat="43.12528" lon="0.13452">
        <ele>560.8</ele>
        <time>2022-08-21T08:53:15Z</time>
      </trkpt>
      <trkpt lat="43.12514" lon="0.13453">
        <ele>560.2</ele>
        <time>2022-08-21T08:53:22Z</time>
      </trkpt>
      <trkpt lat="43.12497" lon="0.13453">
        <ele>560</ele>
        <time>2022-08-21T08:53:30Z</time>
      </trkpt>
      <trkpt lat="43.12476" lon="0.13454">
        <ele>560.2</ele>
        <time>2022-08-21T08:53:40Z</time>
      </trkpt>
      <trkpt lat="43.12455" lon="0.1346">
        <ele>560.8</ele>
        <time>2022-08-21T08:53:50Z</time>
      </trkpt>
      <trkpt lat="43.12441" lon="0.13468">
        <ele>561.2</ele>
        <time>2022-08-21T08:53:57Z</time>
      </trkpt>
      <trkpt lat="43.12435" lon="0.13471">
        <ele>561</ele>
        <time>2022-08-21T08:54:00Z</time>
      </trkpt>
      <trkpt lat="43.12427" lon="0.13477">
        <ele>560.8</ele>
        <time>2022-08-21T08:54:04Z</time>
      </trkpt>
      <trkpt lat="43.1241" lon="0.13486">
        <ele>560.8</ele>
        <time>2022-08-21T08:54:12Z</time>
      </trkpt>
      <trkpt lat="43.12396" lon="0.13496">
        <ele>561</ele>
        <time>2022-08-21T08:54:17Z</time>
      </trkpt>
      <trkpt lat="43.1238" lon="0.13508">
        <ele>560.2</ele>
        <time>2022-08-21T08:54:22Z</time>
      </trkpt>
      <trkpt lat="43.12375" lon="0.13512">
        <ele>559.8</ele>
        <time>2022-08-21T08:54:24Z</time>
      </trkpt>
      <trkpt lat="43.12359" lon="0.13521">
        <ele>558.8</ele>
        <time>2022-08-21T08:54:29Z</time>
      </trkpt>
      <trkpt lat="43.1235" lon="0.13527">
        <ele>557.4</ele>
        <time>2022-08-21T08:54:32Z</time>
      </trkpt>
      <trkpt lat="43.12341" lon="0.13533">
        <ele>556</ele>
        <time>2022-08-21T08:54:35Z</time>
      </trkpt>
      <trkpt lat="43.12333" lon="0.13537">
        <ele>554.8</ele>
        <time>2022-08-21T08:54:37Z</time>
      </trkpt>
      <trkpt lat="43.12326" lon="0.13543">
        <ele>553.6</ele>
        <time>2022-08-21T08:54:39Z</time>
      </trkpt>
      <trkpt lat="43.12319" lon="0.1355">
        <ele>552.4</ele>
        <time>2022-08-21T08:54:41Z</time>
      </trkpt>
      <trkpt lat="43.12309" lon="0.13564">
        <ele>551.4</ele>
        <time>2022-08-21T08:54:44Z</time>
      </trkpt>
      <trkpt lat="43.12301" lon="0.13574">
        <ele>550.4</ele>
        <time>2022-08-21T08:54:46Z</time>
      </trkpt>
      <trkpt lat="43.12288" lon="0.13586">
        <ele>549.2</ele>
        <time>2022-08-21T08:54:49Z</time>
      </trkpt>
      <trkpt lat="43.12283" lon="0.13592">
        <ele>549</ele>
        <time>2022-08-21T08:54:50Z</time>
      </trkpt>
      <trkpt lat="43.1227" lon="0.13609">
        <ele>548.2</ele>
        <time>2022-08-21T08:54:53Z</time>
      </trkpt>
      <trkpt lat="43.12266" lon="0.13615">
        <ele>547.6</ele>
        <time>2022-08-21T08:54:54Z</time>
      </trkpt>
      <trkpt lat="43.12257" lon="0.13627">
        <ele>547.2</ele>
        <time>2022-08-21T08:54:56Z</time>
      </trkpt>
      <trkpt lat="43.12247" lon="0.13639">
        <ele>546.4</ele>
        <time>2022-08-21T08:54:58Z</time>
      </trkpt>
      <trkpt lat="43.12234" lon="0.13645">
        <ele>545.6</ele>
        <time>2022-08-21T08:55:00Z</time>
      </trkpt>
      <trkpt lat="43.12227" lon="0.13646">
        <ele>545.4</ele>
        <time>2022-08-21T08:55:01Z</time>
      </trkpt>
      <trkpt lat="43.12215" lon="0.13644">
        <ele>545</ele>
        <time>2022-08-21T08:55:03Z</time>
      </trkpt>
      <trkpt lat="43.12208" lon="0.13641">
        <ele>544.6</ele>
        <time>2022-08-21T08:55:04Z</time>
      </trkpt>
      <trkpt lat="43.12203" lon="0.13637">
        <ele>544.6</ele>
        <time>2022-08-21T08:55:05Z</time>
      </trkpt>
      <trkpt lat="43.12198" lon="0.13631">
        <ele>544.2</ele>
        <time>2022-08-21T08:55:06Z</time>
      </trkpt>
      <trkpt lat="43.12194" lon="0.13626">
        <ele>544.2</ele>
        <time>2022-08-21T08:55:07Z</time>
      </trkpt>
      <trkpt lat="43.12178" lon="0.13608">
        <ele>543.2</ele>
        <time>2022-08-21T08:55:11Z</time>
      </trkpt>
      <trkpt lat="43.12174" lon="0.13606">
        <ele>543</ele>
        <time>2022-08-21T08:55:12Z</time>
      </trkpt>
      <trkpt lat="43.12152" lon="0.13593">
        <ele>542.2</ele>
        <time>2022-08-21T08:55:18Z</time>
      </trkpt>
      <trkpt lat="43.12148" lon="0.13591">
        <ele>542</ele>
        <time>2022-08-21T08:55:19Z</time>
      </trkpt>
      <trkpt lat="43.12125" lon="0.13578">
        <ele>542</ele>
        <time>2022-08-21T08:55:25Z</time>
      </trkpt>
      <trkpt lat="43.12121" lon="0.13576">
        <ele>542</ele>
        <time>2022-08-21T08:55:26Z</time>
      </trkpt>
      <trkpt lat="43.12112" lon="0.13571">
        <ele>542</ele>
        <time>2022-08-21T08:55:28Z</time>
      </trkpt>
      <trkpt lat="43.12102" lon="0.13567">
        <ele>542</ele>
        <time>2022-08-21T08:55:30Z</time>
      </trkpt>
      <trkpt lat="43.12089" lon="0.13566">
        <ele>542</ele>
        <time>2022-08-21T08:55:33Z</time>
      </trkpt>
      <trkpt lat="43.12071" lon="0.13568">
        <ele>541.4</ele>
        <time>2022-08-21T08:55:37Z</time>
      </trkpt>
      <trkpt lat="43.1206" lon="0.13569">
        <ele>541.2</ele>
        <time>2022-08-21T08:55:39Z</time>
      </trkpt>
      <trkpt lat="43.12054" lon="0.1357">
        <ele>541</ele>
        <time>2022-08-21T08:55:41Z</time>
      </trkpt>
      <trkpt lat="43.12041" lon="0.13571">
        <ele>541</ele>
        <time>2022-08-21T08:55:42Z</time>
      </trkpt>
      <trkpt lat="43.12027" lon="0.13568">
        <ele>539.8</ele>
        <time>2022-08-21T08:55:44Z</time>
      </trkpt>
      <trkpt lat="43.12014" lon="0.13562">
        <ele>538.6</ele>
        <time>2022-08-21T08:55:46Z</time>
      </trkpt>
      <trkpt lat="43.12004" lon="0.13554">
        <ele>538.2</ele>
        <time>2022-08-21T08:55:48Z</time>
      </trkpt>
      <trkpt lat="43.11997" lon="0.1355">
        <ele>537.8</ele>
        <time>2022-08-21T08:55:50Z</time>
      </trkpt>
      <trkpt lat="43.11995" lon="0.13549">
        <ele>537.2</ele>
        <time>2022-08-21T08:55:51Z</time>
      </trkpt>
      <trkpt lat="43.11992" lon="0.13547">
        <ele>536.6</ele>
        <time>2022-08-21T08:55:53Z</time>
      </trkpt>
      <trkpt lat="43.11989" lon="0.13545">
        <ele>536.2</ele>
        <time>2022-08-21T08:55:55Z</time>
      </trkpt>
      <trkpt lat="43.11985" lon="0.13543">
        <ele>535.8</ele>
        <time>2022-08-21T08:55:58Z</time>
      </trkpt>
      <trkpt lat="43.11984" lon="0.13546">
        <ele>535.6</ele>
        <time>2022-08-21T08:56:00Z</time>
      </trkpt>
      <trkpt lat="43.11986" lon="0.13549">
        <ele>535.4</ele>
        <time>2022-08-21T08:56:02Z</time>
      </trkpt>
      <trkpt lat="43.1199" lon="0.13556">
        <ele>535.4</ele>
        <time>2022-08-21T08:56:05Z</time>
      </trkpt>
      <trkpt lat="43.11991" lon="0.13558">
        <ele>535.4</ele>
        <time>2022-08-21T08:56:06Z</time>
      </trkpt>
      <trkpt lat="43.11993" lon="0.13569">
        <ele>535</ele>
        <time>2022-08-21T08:56:10Z</time>
      </trkpt>
      <trkpt lat="43.11992" lon="0.13572">
        <ele>535</ele>
        <time>2022-08-21T08:56:11Z</time>
      </trkpt>
      <trkpt lat="43.11991" lon="0.13574">
        <ele>534.8</ele>
        <time>2022-08-21T08:56:12Z</time>
      </trkpt>
      <trkpt lat="43.11982" lon="0.13578">
        <ele>534.6</ele>
        <time>2022-08-21T08:56:16Z</time>
      </trkpt>
      <trkpt lat="43.11977" lon="0.13581">
        <ele>534.2</ele>
        <time>2022-08-21T08:56:18Z</time>
      </trkpt>
      <trkpt lat="43.11969" lon="0.13584">
        <ele>533.4</ele>
        <time>2022-08-21T08:56:21Z</time>
      </trkpt>
      <trkpt lat="43.11966" lon="0.13586">
        <ele>533.2</ele>
        <time>2022-08-21T08:56:23Z</time>
      </trkpt>
      <trkpt lat="43.11939" lon="0.13599">
        <ele>532.6</ele>
        <time>2022-08-21T08:56:31Z</time>
      </trkpt>
      <trkpt lat="43.11917" lon="0.13611">
        <ele>532.4</ele>
        <time>2022-08-21T08:56:37Z</time>
      </trkpt>
      <trkpt lat="43.11888" lon="0.13623">
        <ele>532.6</ele>
        <time>2022-08-21T08:56:45Z</time>
      </trkpt>
      <trkpt lat="43.11867" lon="0.13632">
        <ele>532.8</ele>
        <time>2022-08-21T08:56:50Z</time>
      </trkpt>
      <trkpt lat="43.11867" lon="0.13632">
        <ele>532.8</ele>
        <time>2022-08-21T08:56:51Z</time>
      </trkpt>
      <trkpt lat="43.11858" lon="0.13636">
        <ele>532.8</ele>
        <time>2022-08-21T08:56:52Z</time>
      </trkpt>
      <trkpt lat="43.11846" lon="0.13643">
        <ele>532.8</ele>
        <time>2022-08-21T08:56:55Z</time>
      </trkpt>
      <trkpt lat="43.1184" lon="0.13647">
        <ele>532.8</ele>
        <time>2022-08-21T08:56:57Z</time>
      </trkpt>
      <trkpt lat="43.11816" lon="0.13656">
        <ele>533</ele>
        <time>2022-08-21T08:57:03Z</time>
      </trkpt>
      <trkpt lat="43.11799" lon="0.13661">
        <ele>533</ele>
        <time>2022-08-21T08:57:06Z</time>
      </trkpt>
      <trkpt lat="43.11789" lon="0.13665">
        <ele>533</ele>
        <time>2022-08-21T08:57:08Z</time>
      </trkpt>
      <trkpt lat="43.11769" lon="0.13675">
        <ele>532.4</ele>
        <time>2022-08-21T08:57:13Z</time>
      </trkpt>
      <trkpt lat="43.11756" lon="0.13676">
        <ele>532.2</ele>
        <time>2022-08-21T08:57:17Z</time>
      </trkpt>
      <trkpt lat="43.11738" lon="0.13669">
        <ele>532.6</ele>
        <time>2022-08-21T08:57:22Z</time>
      </trkpt>
      <trkpt lat="43.11707" lon="0.13668">
        <ele>533</ele>
        <time>2022-08-21T08:57:28Z</time>
      </trkpt>
      <trkpt lat="43.1169" lon="0.13669">
        <ele>532.2</ele>
        <time>2022-08-21T08:57:31Z</time>
      </trkpt>
      <trkpt lat="43.11678" lon="0.13671">
        <ele>531.6</ele>
        <time>2022-08-21T08:57:33Z</time>
      </trkpt>
      <trkpt lat="43.11667" lon="0.1368">
        <ele>531.2</ele>
        <time>2022-08-21T08:57:35Z</time>
      </trkpt>
      <trkpt lat="43.11658" lon="0.13687">
        <ele>530.8</ele>
        <time>2022-08-21T08:57:37Z</time>
      </trkpt>
      <trkpt lat="43.11646" lon="0.13694">
        <ele>530</ele>
        <time>2022-08-21T08:57:40Z</time>
      </trkpt>
      <trkpt lat="43.11638" lon="0.13698">
        <ele>529.8</ele>
        <time>2022-08-21T08:57:42Z</time>
      </trkpt>
      <trkpt lat="43.1163" lon="0.13702">
        <ele>529.6</ele>
        <time>2022-08-21T08:57:44Z</time>
      </trkpt>
      <trkpt lat="43.1162" lon="0.13705">
        <ele>529.6</ele>
        <time>2022-08-21T08:57:47Z</time>
      </trkpt>
      <trkpt lat="43.11601" lon="0.13712">
        <ele>530.2</ele>
        <time>2022-08-21T08:57:54Z</time>
      </trkpt>
      <trkpt lat="43.11594" lon="0.13714">
        <ele>531</ele>
        <time>2022-08-21T08:57:57Z</time>
      </trkpt>
      <trkpt lat="43.11583" lon="0.13716">
        <ele>532.2</ele>
        <time>2022-08-21T08:58:02Z</time>
      </trkpt>
      <trkpt lat="43.11573" lon="0.13723">
        <ele>533.4</ele>
        <time>2022-08-21T08:58:08Z</time>
      </trkpt>
      <trkpt lat="43.11571" lon="0.13724">
        <ele>533.6</ele>
        <time>2022-08-21T08:58:09Z</time>
      </trkpt>
      <trkpt lat="43.1156" lon="0.13732">
        <ele>534.6</ele>
        <time>2022-08-21T08:58:15Z</time>
      </trkpt>
      <trkpt lat="43.11555" lon="0.13736">
        <ele>535.8</ele>
        <time>2022-08-21T08:58:18Z</time>
      </trkpt>
      <trkpt lat="43.1155" lon="0.1374">
        <ele>536.2</ele>
        <time>2022-08-21T08:58:21Z</time>
      </trkpt>
      <trkpt lat="43.11545" lon="0.13745">
        <ele>536.8</ele>
        <time>2022-08-21T08:58:24Z</time>
      </trkpt>
      <trkpt lat="43.11544" lon="0.13747">
        <ele>537.2</ele>
        <time>2022-08-21T08:58:25Z</time>
      </trkpt>
      <trkpt lat="43.11534" lon="0.13754">
        <ele>538.2</ele>
        <time>2022-08-21T08:58:31Z</time>
      </trkpt>
      <trkpt lat="43.11531" lon="0.13756">
        <ele>538.6</ele>
        <time>2022-08-21T08:58:33Z</time>
      </trkpt>
      <trkpt lat="43.11523" lon="0.13761">
        <ele>539.4</ele>
        <time>2022-08-21T08:58:38Z</time>
      </trkpt>
      <trkpt lat="43.11523" lon="0.13762">
        <ele>539.6</ele>
        <time>2022-08-21T08:58:39Z</time>
      </trkpt>
      <trkpt lat="43.11516" lon="0.13768">
        <ele>540.4</ele>
        <time>2022-08-21T08:58:44Z</time>
      </trkpt>
      <trkpt lat="43.11511" lon="0.13773">
        <ele>541</ele>
        <time>2022-08-21T08:58:47Z</time>
      </trkpt>
      <trkpt lat="43.11503" lon="0.13778">
        <ele>541.6</ele>
        <time>2022-08-21T08:58:50Z</time>
      </trkpt>
      <trkpt lat="43.11495" lon="0.13783">
        <ele>542</ele>
        <time>2022-08-21T08:58:54Z</time>
      </trkpt>
      <trkpt lat="43.11484" lon="0.13789">
        <ele>542.8</ele>
        <time>2022-08-21T08:58:59Z</time>
      </trkpt>
      <trkpt lat="43.11481" lon="0.13791">
        <ele>543.2</ele>
        <time>2022-08-21T08:59:01Z</time>
      </trkpt>
      <trkpt lat="43.11464" lon="0.13801">
        <ele>544</ele>
        <time>2022-08-21T08:59:09Z</time>
      </trkpt>
      <trkpt lat="43.11461" lon="0.13802">
        <ele>544</ele>
        <time>2022-08-21T08:59:10Z</time>
      </trkpt>
      <trkpt lat="43.11447" lon="0.13811">
        <ele>544</ele>
        <time>2022-08-21T08:59:15Z</time>
      </trkpt>
      <trkpt lat="43.11429" lon="0.1382">
        <ele>544</ele>
        <time>2022-08-21T08:59:22Z</time>
      </trkpt>
      <trkpt lat="43.11427" lon="0.13819">
        <ele>543.8</ele>
        <time>2022-08-21T08:59:23Z</time>
      </trkpt>
      <trkpt lat="43.11417" lon="0.13812">
        <ele>543.8</ele>
        <time>2022-08-21T08:59:28Z</time>
      </trkpt>
      <trkpt lat="43.11415" lon="0.13812">
        <ele>543.8</ele>
        <time>2022-08-21T08:59:29Z</time>
      </trkpt>
      <trkpt lat="43.11407" lon="0.13818">
        <ele>543.8</ele>
        <time>2022-08-21T08:59:33Z</time>
      </trkpt>
      <trkpt lat="43.11387" lon="0.1383">
        <ele>544.2</ele>
        <time>2022-08-21T08:59:43Z</time>
      </trkpt>
      <trkpt lat="43.11385" lon="0.13831">
        <ele>544.4</ele>
        <time>2022-08-21T08:59:44Z</time>
      </trkpt>
      <trkpt lat="43.11379" lon="0.13833">
        <ele>545</ele>
        <time>2022-08-21T08:59:48Z</time>
      </trkpt>
      <trkpt lat="43.11371" lon="0.13836">
        <ele>546.2</ele>
        <time>2022-08-21T08:59:54Z</time>
      </trkpt>
      <trkpt lat="43.11368" lon="0.13835">
        <ele>546.4</ele>
        <time>2022-08-21T08:59:56Z</time>
      </trkpt>
      <trkpt lat="43.11361" lon="0.13833">
        <ele>547.2</ele>
        <time>2022-08-21T09:00:01Z</time>
      </trkpt>
      <trkpt lat="43.11359" lon="0.13832">
        <ele>547.4</ele>
        <time>2022-08-21T09:00:03Z</time>
      </trkpt>
      <trkpt lat="43.11352" lon="0.13829">
        <ele>548</ele>
        <time>2022-08-21T09:00:08Z</time>
      </trkpt>
      <trkpt lat="43.11349" lon="0.13827">
        <ele>548.4</ele>
        <time>2022-08-21T09:00:10Z</time>
      </trkpt>
      <trkpt lat="43.11342" lon="0.13823">
        <ele>549.4</ele>
        <time>2022-08-21T09:00:16Z</time>
      </trkpt>
      <trkpt lat="43.11341" lon="0.13822">
        <ele>549.4</ele>
        <time>2022-08-21T09:00:17Z</time>
      </trkpt>
      <trkpt lat="43.11335" lon="0.13819">
        <ele>550.6</ele>
        <time>2022-08-21T09:00:23Z</time>
      </trkpt>
      <trkpt lat="43.11328" lon="0.13815">
        <ele>551.6</ele>
        <time>2022-08-21T09:00:29Z</time>
      </trkpt>
      <trkpt lat="43.11326" lon="0.13813">
        <ele>551.8</ele>
        <time>2022-08-21T09:00:31Z</time>
      </trkpt>
      <trkpt lat="43.11319" lon="0.1381">
        <ele>552.4</ele>
        <time>2022-08-21T09:00:35Z</time>
      </trkpt>
      <trkpt lat="43.11314" lon="0.13809">
        <ele>552.6</ele>
        <time>2022-08-21T09:00:37Z</time>
      </trkpt>
      <trkpt lat="43.11299" lon="0.13809">
        <ele>553.6</ele>
        <time>2022-08-21T09:00:45Z</time>
      </trkpt>
      <trkpt lat="43.11292" lon="0.1381">
        <ele>554.4</ele>
        <time>2022-08-21T09:00:49Z</time>
      </trkpt>
      <trkpt lat="43.11289" lon="0.1381">
        <ele>554.8</ele>
        <time>2022-08-21T09:00:51Z</time>
      </trkpt>
      <trkpt lat="43.11282" lon="0.13812">
        <ele>555.8</ele>
        <time>2022-08-21T09:00:56Z</time>
      </trkpt>
      <trkpt lat="43.1128" lon="0.13812">
        <ele>555.8</ele>
        <time>2022-08-21T09:00:57Z</time>
      </trkpt>
      <trkpt lat="43.11272" lon="0.13814">
        <ele>556.4</ele>
        <time>2022-08-21T09:01:02Z</time>
      </trkpt>
      <trkpt lat="43.11265" lon="0.13817">
        <ele>557</ele>
        <time>2022-08-21T09:01:06Z</time>
      </trkpt>
      <trkpt lat="43.11258" lon="0.13822">
        <ele>557.4</ele>
        <time>2022-08-21T09:01:10Z</time>
      </trkpt>
      <trkpt lat="43.11246" lon="0.13828">
        <ele>558</ele>
        <time>2022-08-21T09:01:17Z</time>
      </trkpt>
      <trkpt lat="43.11242" lon="0.1383">
        <ele>558.2</ele>
        <time>2022-08-21T09:01:19Z</time>
      </trkpt>
      <trkpt lat="43.11239" lon="0.1383">
        <ele>558.2</ele>
        <time>2022-08-21T09:01:20Z</time>
      </trkpt>
      <trkpt lat="43.11223" lon="0.13826">
        <ele>558.6</ele>
        <time>2022-08-21T09:01:26Z</time>
      </trkpt>
      <trkpt lat="43.112" lon="0.13826">
        <ele>558.8</ele>
        <time>2022-08-21T09:01:34Z</time>
      </trkpt>
      <trkpt lat="43.11178" lon="0.13824">
        <ele>559</ele>
        <time>2022-08-21T09:01:41Z</time>
      </trkpt>
      <trkpt lat="43.11155" lon="0.13821">
        <ele>558.8</ele>
        <time>2022-08-21T09:01:47Z</time>
      </trkpt>
      <trkpt lat="43.11131" lon="0.13814">
        <ele>558.4</ele>
        <time>2022-08-21T09:01:54Z</time>
      </trkpt>
      <trkpt lat="43.11121" lon="0.13811">
        <ele>558.2</ele>
        <time>2022-08-21T09:01:57Z</time>
      </trkpt>
      <trkpt lat="43.11113" lon="0.13812">
        <ele>558.2</ele>
        <time>2022-08-21T09:02:00Z</time>
      </trkpt>
      <trkpt lat="43.11103" lon="0.13821">
        <ele>558.4</ele>
        <time>2022-08-21T09:02:05Z</time>
      </trkpt>
      <trkpt lat="43.11088" lon="0.13832">
        <ele>559.2</ele>
        <time>2022-08-21T09:02:11Z</time>
      </trkpt>
      <trkpt lat="43.11084" lon="0.13836">
        <ele>559.4</ele>
        <time>2022-08-21T09:02:13Z</time>
      </trkpt>
      <trkpt lat="43.11071" lon="0.13851">
        <ele>560</ele>
        <time>2022-08-21T09:02:20Z</time>
      </trkpt>
      <trkpt lat="43.11069" lon="0.13853">
        <ele>560</ele>
        <time>2022-08-21T09:02:21Z</time>
      </trkpt>
      <trkpt lat="43.11064" lon="0.1386">
        <ele>560.2</ele>
        <time>2022-08-21T09:02:24Z</time>
      </trkpt>
      <trkpt lat="43.11054" lon="0.13867">
        <ele>560.6</ele>
        <time>2022-08-21T09:02:29Z</time>
      </trkpt>
      <trkpt lat="43.1104" lon="0.13874">
        <ele>561.4</ele>
        <time>2022-08-21T09:02:35Z</time>
      </trkpt>
      <trkpt lat="43.11033" lon="0.13877">
        <ele>561.6</ele>
        <time>2022-08-21T09:02:38Z</time>
      </trkpt>
      <trkpt lat="43.11017" lon="0.13883">
        <ele>562.4</ele>
        <time>2022-08-21T09:02:45Z</time>
      </trkpt>
      <trkpt lat="43.11012" lon="0.13884">
        <ele>562.6</ele>
        <time>2022-08-21T09:02:47Z</time>
      </trkpt>
      <trkpt lat="43.10997" lon="0.13888">
        <ele>563.6</ele>
        <time>2022-08-21T09:02:54Z</time>
      </trkpt>
      <trkpt lat="43.10992" lon="0.13889">
        <ele>563.8</ele>
        <time>2022-08-21T09:02:56Z</time>
      </trkpt>
      <trkpt lat="43.10982" lon="0.13892">
        <ele>564.6</ele>
        <time>2022-08-21T09:03:01Z</time>
      </trkpt>
      <trkpt lat="43.1097" lon="0.13893">
        <ele>565.2</ele>
        <time>2022-08-21T09:03:06Z</time>
      </trkpt>
      <trkpt lat="43.10963" lon="0.13892">
        <ele>565.8</ele>
        <time>2022-08-21T09:03:09Z</time>
      </trkpt>
      <trkpt lat="43.10948" lon="0.13894">
        <ele>566.4</ele>
        <time>2022-08-21T09:03:15Z</time>
      </trkpt>
      <trkpt lat="43.10942" lon="0.13896">
        <ele>566.8</ele>
        <time>2022-08-21T09:03:18Z</time>
      </trkpt>
      <trkpt lat="43.10929" lon="0.139">
        <ele>567.8</ele>
        <time>2022-08-21T09:03:24Z</time>
      </trkpt>
      <trkpt lat="43.10924" lon="0.13902">
        <ele>568.2</ele>
        <time>2022-08-21T09:03:26Z</time>
      </trkpt>
      <trkpt lat="43.10915" lon="0.13905">
        <ele>568.8</ele>
        <time>2022-08-21T09:03:30Z</time>
      </trkpt>
      <trkpt lat="43.10901" lon="0.13911">
        <ele>569.8</ele>
        <time>2022-08-21T09:03:35Z</time>
      </trkpt>
      <trkpt lat="43.10899" lon="0.13912">
        <ele>570</ele>
        <time>2022-08-21T09:03:36Z</time>
      </trkpt>
      <trkpt lat="43.10888" lon="0.13916">
        <ele>570.2</ele>
        <time>2022-08-21T09:03:40Z</time>
      </trkpt>
      <trkpt lat="43.10878" lon="0.13919">
        <ele>570.2</ele>
        <time>2022-08-21T09:03:44Z</time>
      </trkpt>
      <trkpt lat="43.10856" lon="0.13926">
        <ele>570.6</ele>
        <time>2022-08-21T09:03:52Z</time>
      </trkpt>
      <trkpt lat="43.10845" lon="0.13928">
        <ele>571</ele>
        <time>2022-08-21T09:03:56Z</time>
      </trkpt>
      <trkpt lat="43.10824" lon="0.13934">
        <ele>571.2</ele>
        <time>2022-08-21T09:04:03Z</time>
      </trkpt>
      <trkpt lat="43.10794" lon="0.13942">
        <ele>571.6</ele>
        <time>2022-08-21T09:04:13Z</time>
      </trkpt>
      <trkpt lat="43.10767" lon="0.13948">
        <ele>571.8</ele>
        <time>2022-08-21T09:04:23Z</time>
      </trkpt>
      <trkpt lat="43.10762" lon="0.13949">
        <ele>572</ele>
        <time>2022-08-21T09:04:25Z</time>
      </trkpt>
      <trkpt lat="43.1075" lon="0.13951">
        <ele>572.6</ele>
        <time>2022-08-21T09:04:30Z</time>
      </trkpt>
      <trkpt lat="43.10738" lon="0.13953">
        <ele>573</ele>
        <time>2022-08-21T09:04:35Z</time>
      </trkpt>
      <trkpt lat="43.1073" lon="0.13955">
        <ele>573.2</ele>
        <time>2022-08-21T09:04:38Z</time>
      </trkpt>
      <trkpt lat="43.10706" lon="0.13959">
        <ele>573.8</ele>
        <time>2022-08-21T09:04:48Z</time>
      </trkpt>
      <trkpt lat="43.107" lon="0.13961">
        <ele>574</ele>
        <time>2022-08-21T09:04:50Z</time>
      </trkpt>
      <trkpt lat="43.10687" lon="0.13964">
        <ele>574.4</ele>
        <time>2022-08-21T09:04:54Z</time>
      </trkpt>
      <trkpt lat="43.10662" lon="0.13971">
        <ele>574.4</ele>
        <time>2022-08-21T09:05:01Z</time>
      </trkpt>
      <trkpt lat="43.10632" lon="0.13977">
        <ele>574.4</ele>
        <time>2022-08-21T09:05:09Z</time>
      </trkpt>
      <trkpt lat="43.10604" lon="0.13983">
        <ele>574.8</ele>
        <time>2022-08-21T09:05:18Z</time>
      </trkpt>
      <trkpt lat="43.10585" lon="0.13988">
        <ele>575</ele>
        <time>2022-08-21T09:05:25Z</time>
      </trkpt>
      <trkpt lat="43.10577" lon="0.1399">
        <ele>575.2</ele>
        <time>2022-08-21T09:05:28Z</time>
      </trkpt>
      <trkpt lat="43.10568" lon="0.13994">
        <ele>575.8</ele>
        <time>2022-08-21T09:05:32Z</time>
      </trkpt>
      <trkpt lat="43.10556" lon="0.14016">
        <ele>576.2</ele>
        <time>2022-08-21T09:05:38Z</time>
      </trkpt>
      <trkpt lat="43.10543" lon="0.1404">
        <ele>576</ele>
        <time>2022-08-21T09:05:44Z</time>
      </trkpt>
      <trkpt lat="43.1053" lon="0.1408">
        <ele>576</ele>
        <time>2022-08-21T09:05:52Z</time>
      </trkpt>
      <trkpt lat="43.10521" lon="0.14126">
        <ele>576</ele>
        <time>2022-08-21T09:06:00Z</time>
      </trkpt>
      <trkpt lat="43.10505" lon="0.1418">
        <ele>575.8</ele>
        <time>2022-08-21T09:06:09Z</time>
      </trkpt>
      <trkpt lat="43.10487" lon="0.14237">
        <ele>575</ele>
        <time>2022-08-21T09:06:17Z</time>
      </trkpt>
      <trkpt lat="43.10474" lon="0.14287">
        <ele>574.4</ele>
        <time>2022-08-21T09:06:23Z</time>
      </trkpt>
      <trkpt lat="43.10469" lon="0.14306">
        <ele>574</ele>
        <time>2022-08-21T09:06:25Z</time>
      </trkpt>
      <trkpt lat="43.1046" lon="0.14335">
        <ele>573</ele>
        <time>2022-08-21T09:06:28Z</time>
      </trkpt>
      <trkpt lat="43.10455" lon="0.14345">
        <ele>572.4</ele>
        <time>2022-08-21T09:06:29Z</time>
      </trkpt>
      <trkpt lat="43.10439" lon="0.14372">
        <ele>572</ele>
        <time>2022-08-21T09:06:32Z</time>
      </trkpt>
      <trkpt lat="43.10427" lon="0.14388">
        <ele>571.4</ele>
        <time>2022-08-21T09:06:34Z</time>
      </trkpt>
      <trkpt lat="43.10421" lon="0.14396">
        <ele>570.8</ele>
        <time>2022-08-21T09:06:35Z</time>
      </trkpt>
      <trkpt lat="43.10404" lon="0.14415">
        <ele>569.6</ele>
        <time>2022-08-21T09:06:38Z</time>
      </trkpt>
      <trkpt lat="43.104" lon="0.14421">
        <ele>569.6</ele>
        <time>2022-08-21T09:06:39Z</time>
      </trkpt>
      <trkpt lat="43.10388" lon="0.14437">
        <ele>569.2</ele>
        <time>2022-08-21T09:06:43Z</time>
      </trkpt>
      <trkpt lat="43.10378" lon="0.14449">
        <ele>569.6</ele>
        <time>2022-08-21T09:06:49Z</time>
      </trkpt>
      <trkpt lat="43.10372" lon="0.14455">
        <ele>570.8</ele>
        <time>2022-08-21T09:06:54Z</time>
      </trkpt>
      <trkpt lat="43.10371" lon="0.14456">
        <ele>571</ele>
        <time>2022-08-21T09:06:55Z</time>
      </trkpt>
      <trkpt lat="43.10365" lon="0.14462">
        <ele>572</ele>
        <time>2022-08-21T09:07:00Z</time>
      </trkpt>
      <trkpt lat="43.10361" lon="0.14465">
        <ele>572.6</ele>
        <time>2022-08-21T09:07:03Z</time>
      </trkpt>
      <trkpt lat="43.10359" lon="0.14468">
        <ele>573</ele>
        <time>2022-08-21T09:07:05Z</time>
      </trkpt>
      <trkpt lat="43.10354" lon="0.14474">
        <ele>574.2</ele>
        <time>2022-08-21T09:07:10Z</time>
      </trkpt>
      <trkpt lat="43.10347" lon="0.14478">
        <ele>575.2</ele>
        <time>2022-08-21T09:07:15Z</time>
      </trkpt>
      <trkpt lat="43.1034" lon="0.14482">
        <ele>576.2</ele>
        <time>2022-08-21T09:07:19Z</time>
      </trkpt>
      <trkpt lat="43.10338" lon="0.14483">
        <ele>576.4</ele>
        <time>2022-08-21T09:07:20Z</time>
      </trkpt>
      <trkpt lat="43.10331" lon="0.14491">
        <ele>577.6</ele>
        <time>2022-08-21T09:07:25Z</time>
      </trkpt>
      <trkpt lat="43.10329" lon="0.14492">
        <ele>577.8</ele>
        <time>2022-08-21T09:07:26Z</time>
      </trkpt>
      <trkpt lat="43.10324" lon="0.14496">
        <ele>578.8</ele>
        <time>2022-08-21T09:07:30Z</time>
      </trkpt>
      <trkpt lat="43.1032" lon="0.14499">
        <ele>579.4</ele>
        <time>2022-08-21T09:07:33Z</time>
      </trkpt>
      <trkpt lat="43.10317" lon="0.14502">
        <ele>580</ele>
        <time>2022-08-21T09:07:35Z</time>
      </trkpt>
      <trkpt lat="43.10312" lon="0.14507">
        <ele>581</ele>
        <time>2022-08-21T09:07:39Z</time>
      </trkpt>
      <trkpt lat="43.10306" lon="0.1451">
        <ele>582</ele>
        <time>2022-08-21T09:07:43Z</time>
      </trkpt>
      <trkpt lat="43.10304" lon="0.14512">
        <ele>582.4</ele>
        <time>2022-08-21T09:07:44Z</time>
      </trkpt>
      <trkpt lat="43.10297" lon="0.1452">
        <ele>583.4</ele>
        <time>2022-08-21T09:07:50Z</time>
      </trkpt>
      <trkpt lat="43.10294" lon="0.14521">
        <ele>583.6</ele>
        <time>2022-08-21T09:07:52Z</time>
      </trkpt>
      <trkpt lat="43.10289" lon="0.14525">
        <ele>584.4</ele>
        <time>2022-08-21T09:07:56Z</time>
      </trkpt>
      <trkpt lat="43.10282" lon="0.14532">
        <ele>585.6</ele>
        <time>2022-08-21T09:08:01Z</time>
      </trkpt>
      <trkpt lat="43.10272" lon="0.14542">
        <ele>586.6</ele>
        <time>2022-08-21T09:08:08Z</time>
      </trkpt>
      <trkpt lat="43.10263" lon="0.14549">
        <ele>587.4</ele>
        <time>2022-08-21T09:08:14Z</time>
      </trkpt>
      <trkpt lat="43.10261" lon="0.14552">
        <ele>587.6</ele>
        <time>2022-08-21T09:08:16Z</time>
      </trkpt>
      <trkpt lat="43.10252" lon="0.1456">
        <ele>588.8</ele>
        <time>2022-08-21T09:08:22Z</time>
      </trkpt>
      <trkpt lat="43.1025" lon="0.14562">
        <ele>589</ele>
        <time>2022-08-21T09:08:23Z</time>
      </trkpt>
      <trkpt lat="43.10246" lon="0.14566">
        <ele>589.4</ele>
        <time>2022-08-21T09:08:26Z</time>
      </trkpt>
      <trkpt lat="43.10241" lon="0.14569">
        <ele>589.8</ele>
        <time>2022-08-21T09:08:29Z</time>
      </trkpt>
      <trkpt lat="43.10231" lon="0.14577">
        <ele>590.8</ele>
        <time>2022-08-21T09:08:36Z</time>
      </trkpt>
      <trkpt lat="43.10218" lon="0.14578">
        <ele>592</ele>
        <time>2022-08-21T09:08:44Z</time>
      </trkpt>
      <trkpt lat="43.10217" lon="0.14577">
        <ele>592</ele>
        <time>2022-08-21T09:08:45Z</time>
      </trkpt>
      <trkpt lat="43.10211" lon="0.14564">
        <ele>592.8</ele>
        <time>2022-08-21T09:08:52Z</time>
      </trkpt>
      <trkpt lat="43.10209" lon="0.14561">
        <ele>593</ele>
        <time>2022-08-21T09:08:54Z</time>
      </trkpt>
      <trkpt lat="43.10203" lon="0.14551">
        <ele>593.6</ele>
        <time>2022-08-21T09:09:00Z</time>
      </trkpt>
      <trkpt lat="43.10198" lon="0.14546">
        <ele>594</ele>
        <time>2022-08-21T09:09:04Z</time>
      </trkpt>
      <trkpt lat="43.10189" lon="0.1454">
        <ele>594.8</ele>
        <time>2022-08-21T09:09:10Z</time>
      </trkpt>
      <trkpt lat="43.10185" lon="0.14537">
        <ele>595.2</ele>
        <time>2022-08-21T09:09:13Z</time>
      </trkpt>
      <trkpt lat="43.10173" lon="0.14526">
        <ele>596</ele>
        <time>2022-08-21T09:09:22Z</time>
      </trkpt>
      <trkpt lat="43.10171" lon="0.14524">
        <ele>596.4</ele>
        <time>2022-08-21T09:09:24Z</time>
      </trkpt>
      <trkpt lat="43.10163" lon="0.14518">
        <ele>597.4</ele>
        <time>2022-08-21T09:09:31Z</time>
      </trkpt>
      <trkpt lat="43.10162" lon="0.14517">
        <ele>597.4</ele>
        <time>2022-08-21T09:09:32Z</time>
      </trkpt>
      <trkpt lat="43.10155" lon="0.14513">
        <ele>598.4</ele>
        <time>2022-08-21T09:09:38Z</time>
      </trkpt>
      <trkpt lat="43.10154" lon="0.14512">
        <ele>598.4</ele>
        <time>2022-08-21T09:09:39Z</time>
      </trkpt>
      <trkpt lat="43.10144" lon="0.14511">
        <ele>599.6</ele>
        <time>2022-08-21T09:09:46Z</time>
      </trkpt>
      <trkpt lat="43.10132" lon="0.14517">
        <ele>600.4</ele>
        <time>2022-08-21T09:09:54Z</time>
      </trkpt>
      <trkpt lat="43.10128" lon="0.14519">
        <ele>600.8</ele>
        <time>2022-08-21T09:09:56Z</time>
      </trkpt>
      <trkpt lat="43.10119" lon="0.14528">
        <ele>601.6</ele>
        <time>2022-08-21T09:10:03Z</time>
      </trkpt>
      <trkpt lat="43.10116" lon="0.14531">
        <ele>601.8</ele>
        <time>2022-08-21T09:10:05Z</time>
      </trkpt>
      <trkpt lat="43.10107" lon="0.14542">
        <ele>602.2</ele>
        <time>2022-08-21T09:10:12Z</time>
      </trkpt>
      <trkpt lat="43.10097" lon="0.14552">
        <ele>603</ele>
        <time>2022-08-21T09:10:19Z</time>
      </trkpt>
      <trkpt lat="43.10096" lon="0.14554">
        <ele>603.2</ele>
        <time>2022-08-21T09:10:20Z</time>
      </trkpt>
      <trkpt lat="43.10085" lon="0.14567">
        <ele>603.6</ele>
        <time>2022-08-21T09:10:28Z</time>
      </trkpt>
      <trkpt lat="43.10075" lon="0.14577">
        <ele>604</ele>
        <time>2022-08-21T09:10:34Z</time>
      </trkpt>
      <trkpt lat="43.10072" lon="0.1458">
        <ele>604.2</ele>
        <time>2022-08-21T09:10:36Z</time>
      </trkpt>
      <trkpt lat="43.10057" lon="0.14598">
        <ele>604.4</ele>
        <time>2022-08-21T09:10:45Z</time>
      </trkpt>
      <trkpt lat="43.10041" lon="0.14609">
        <ele>605</ele>
        <time>2022-08-21T09:10:53Z</time>
      </trkpt>
      <trkpt lat="43.10023" lon="0.14613">
        <ele>605.6</ele>
        <time>2022-08-21T09:11:01Z</time>
      </trkpt>
      <trkpt lat="43.10004" lon="0.14616">
        <ele>606.2</ele>
        <time>2022-08-21T09:11:10Z</time>
      </trkpt>
      <trkpt lat="43.09989" lon="0.14617">
        <ele>606.6</ele>
        <time>2022-08-21T09:11:17Z</time>
      </trkpt>
      <trkpt lat="43.09979" lon="0.14619">
        <ele>607</ele>
        <time>2022-08-21T09:11:22Z</time>
      </trkpt>
      <trkpt lat="43.09975" lon="0.1462">
        <ele>607.2</ele>
        <time>2022-08-21T09:11:24Z</time>
      </trkpt>
      <trkpt lat="43.09971" lon="0.14621">
        <ele>607.4</ele>
        <time>2022-08-21T09:11:26Z</time>
      </trkpt>
      <trkpt lat="43.09958" lon="0.14625">
        <ele>608.2</ele>
        <time>2022-08-21T09:11:32Z</time>
      </trkpt>
      <trkpt lat="43.09953" lon="0.14628">
        <ele>608.4</ele>
        <time>2022-08-21T09:11:34Z</time>
      </trkpt>
      <trkpt lat="43.09931" lon="0.1464">
        <ele>608.6</ele>
        <time>2022-08-21T09:11:43Z</time>
      </trkpt>
      <trkpt lat="43.09909" lon="0.14651">
        <ele>608.4</ele>
        <time>2022-08-21T09:11:52Z</time>
      </trkpt>
      <trkpt lat="43.09886" lon="0.14654">
        <ele>608.2</ele>
        <time>2022-08-21T09:12:01Z</time>
      </trkpt>
      <trkpt lat="43.09869" lon="0.14651">
        <ele>608.2</ele>
        <time>2022-08-21T09:12:07Z</time>
      </trkpt>
      <trkpt lat="43.09847" lon="0.14639">
        <ele>608.6</ele>
        <time>2022-08-21T09:12:16Z</time>
      </trkpt>
      <trkpt lat="43.09837" lon="0.14634">
        <ele>609</ele>
        <time>2022-08-21T09:12:22Z</time>
      </trkpt>
      <trkpt lat="43.09834" lon="0.14631">
        <ele>609.4</ele>
        <time>2022-08-21T09:12:25Z</time>
      </trkpt>
      <trkpt lat="43.0983" lon="0.1463">
        <ele>609.8</ele>
        <time>2022-08-21T09:12:28Z</time>
      </trkpt>
      <trkpt lat="43.09824" lon="0.14633">
        <ele>610.6</ele>
        <time>2022-08-21T09:12:32Z</time>
      </trkpt>
      <trkpt lat="43.09821" lon="0.14639">
        <ele>611</ele>
        <time>2022-08-21T09:12:35Z</time>
      </trkpt>
      <trkpt lat="43.09818" lon="0.14647">
        <ele>611.6</ele>
        <time>2022-08-21T09:12:39Z</time>
      </trkpt>
      <trkpt lat="43.09813" lon="0.14657">
        <ele>612.2</ele>
        <time>2022-08-21T09:12:44Z</time>
      </trkpt>
      <trkpt lat="43.0981" lon="0.14667">
        <ele>612.8</ele>
        <time>2022-08-21T09:12:49Z</time>
      </trkpt>
      <trkpt lat="43.09807" lon="0.14671">
        <ele>613.4</ele>
        <time>2022-08-21T09:12:52Z</time>
      </trkpt>
      <trkpt lat="43.09803" lon="0.14679">
        <ele>614</ele>
        <time>2022-08-21T09:12:56Z</time>
      </trkpt>
      <trkpt lat="43.09797" lon="0.14691">
        <ele>614.8</ele>
        <time>2022-08-21T09:13:02Z</time>
      </trkpt>
      <trkpt lat="43.09795" lon="0.14695">
        <ele>615</ele>
        <time>2022-08-21T09:13:04Z</time>
      </trkpt>
      <trkpt lat="43.09789" lon="0.14706">
        <ele>615.6</ele>
        <time>2022-08-21T09:13:10Z</time>
      </trkpt>
      <trkpt lat="43.09783" lon="0.14716">
        <ele>616.2</ele>
        <time>2022-08-21T09:13:15Z</time>
      </trkpt>
      <trkpt lat="43.09776" lon="0.14726">
        <ele>616.4</ele>
        <time>2022-08-21T09:13:20Z</time>
      </trkpt>
      <trkpt lat="43.09767" lon="0.14738">
        <ele>617.2</ele>
        <time>2022-08-21T09:13:27Z</time>
      </trkpt>
      <trkpt lat="43.09764" lon="0.14742">
        <ele>617.6</ele>
        <time>2022-08-21T09:13:29Z</time>
      </trkpt>
      <trkpt lat="43.09749" lon="0.14757">
        <ele>618.2</ele>
        <time>2022-08-21T09:13:38Z</time>
      </trkpt>
      <trkpt lat="43.09748" lon="0.14759">
        <ele>618.4</ele>
        <time>2022-08-21T09:13:39Z</time>
      </trkpt>
      <trkpt lat="43.09745" lon="0.14764">
        <ele>618.4</ele>
        <time>2022-08-21T09:13:42Z</time>
      </trkpt>
      <trkpt lat="43.09742" lon="0.14768">
        <ele>618.6</ele>
        <time>2022-08-21T09:13:44Z</time>
      </trkpt>
      <trkpt lat="43.09736" lon="0.14782">
        <ele>618.8</ele>
        <time>2022-08-21T09:13:50Z</time>
      </trkpt>
      <trkpt lat="43.09734" lon="0.1479">
        <ele>619</ele>
        <time>2022-08-21T09:13:54Z</time>
      </trkpt>
      <trkpt lat="43.09732" lon="0.14793">
        <ele>619.2</ele>
        <time>2022-08-21T09:13:56Z</time>
      </trkpt>
      <trkpt lat="43.09731" lon="0.14798">
        <ele>619.2</ele>
        <time>2022-08-21T09:13:58Z</time>
      </trkpt>
      <trkpt lat="43.0973" lon="0.14801">
        <ele>619.4</ele>
        <time>2022-08-21T09:13:59Z</time>
      </trkpt>
      <trkpt lat="43.09729" lon="0.14805">
        <ele>619.6</ele>
        <time>2022-08-21T09:14:01Z</time>
      </trkpt>
      <trkpt lat="43.09725" lon="0.14819">
        <ele>620.4</ele>
        <time>2022-08-21T09:14:07Z</time>
      </trkpt>
      <trkpt lat="43.09723" lon="0.14827">
        <ele>620.6</ele>
        <time>2022-08-21T09:14:10Z</time>
      </trkpt>
      <trkpt lat="43.0972" lon="0.14844">
        <ele>620.8</ele>
        <time>2022-08-21T09:14:16Z</time>
      </trkpt>
      <trkpt lat="43.09715" lon="0.14868">
        <ele>620.8</ele>
        <time>2022-08-21T09:14:23Z</time>
      </trkpt>
      <trkpt lat="43.09711" lon="0.14888">
        <ele>620.6</ele>
        <time>2022-08-21T09:14:28Z</time>
      </trkpt>
      <trkpt lat="43.09707" lon="0.14899">
        <ele>620.4</ele>
        <time>2022-08-21T09:14:33Z</time>
      </trkpt>
      <trkpt lat="43.09701" lon="0.14917">
        <ele>620.2</ele>
        <time>2022-08-21T09:14:40Z</time>
      </trkpt>
      <trkpt lat="43.09692" lon="0.14938">
        <ele>620.6</ele>
        <time>2022-08-21T09:14:48Z</time>
      </trkpt>
      <trkpt lat="43.09681" lon="0.1496">
        <ele>621</ele>
        <time>2022-08-21T09:14:56Z</time>
      </trkpt>
      <trkpt lat="43.0967" lon="0.14977">
        <ele>621.2</ele>
        <time>2022-08-21T09:15:03Z</time>
      </trkpt>
      <trkpt lat="43.09667" lon="0.14981">
        <ele>621.4</ele>
        <time>2022-08-21T09:15:05Z</time>
      </trkpt>
      <trkpt lat="43.09653" lon="0.14996">
        <ele>622.2</ele>
        <time>2022-08-21T09:15:13Z</time>
      </trkpt>
      <trkpt lat="43.0964" lon="0.15004">
        <ele>623.2</ele>
        <time>2022-08-21T09:15:20Z</time>
      </trkpt>
      <trkpt lat="43.09635" lon="0.15007">
        <ele>623.8</ele>
        <time>2022-08-21T09:15:23Z</time>
      </trkpt>
      <trkpt lat="43.09624" lon="0.15011">
        <ele>624.4</ele>
        <time>2022-08-21T09:15:29Z</time>
      </trkpt>
      <trkpt lat="43.0961" lon="0.15015">
        <ele>624.8</ele>
        <time>2022-08-21T09:15:35Z</time>
      </trkpt>
      <trkpt lat="43.09603" lon="0.15016">
        <ele>625</ele>
        <time>2022-08-21T09:15:38Z</time>
      </trkpt>
      <trkpt lat="43.09582" lon="0.15023">
        <ele>625</ele>
        <time>2022-08-21T09:15:45Z</time>
      </trkpt>
      <trkpt lat="43.09557" lon="0.1503">
        <ele>624.2</ele>
        <time>2022-08-21T09:15:50Z</time>
      </trkpt>
      <trkpt lat="43.09536" lon="0.15036">
        <ele>623.8</ele>
        <time>2022-08-21T09:15:53Z</time>
      </trkpt>
      <trkpt lat="43.09515" lon="0.15043">
        <ele>622.6</ele>
        <time>2022-08-21T09:15:56Z</time>
      </trkpt>
      <trkpt lat="43.09506" lon="0.15048">
        <ele>621.8</ele>
        <time>2022-08-21T09:15:58Z</time>
      </trkpt>
      <trkpt lat="43.09502" lon="0.15051">
        <ele>621.4</ele>
        <time>2022-08-21T09:15:59Z</time>
      </trkpt>
      <trkpt lat="43.09498" lon="0.15054">
        <ele>621</ele>
        <time>2022-08-21T09:16:00Z</time>
      </trkpt>
      <trkpt lat="43.09492" lon="0.15063">
        <ele>620.6</ele>
        <time>2022-08-21T09:16:02Z</time>
      </trkpt>
      <trkpt lat="43.09489" lon="0.15068">
        <ele>620.4</ele>
        <time>2022-08-21T09:16:03Z</time>
      </trkpt>
      <trkpt lat="43.09487" lon="0.15074">
        <ele>620</ele>
        <time>2022-08-21T09:16:04Z</time>
      </trkpt>
      <trkpt lat="43.09479" lon="0.15114">
        <ele>619.2</ele>
        <time>2022-08-21T09:16:09Z</time>
      </trkpt>
      <trkpt lat="43.09478" lon="0.15124">
        <ele>619</ele>
        <time>2022-08-21T09:16:10Z</time>
      </trkpt>
      <trkpt lat="43.09472" lon="0.1516">
        <ele>618.2</ele>
        <time>2022-08-21T09:16:14Z</time>
      </trkpt>
      <trkpt lat="43.09471" lon="0.15167">
        <ele>617.4</ele>
        <time>2022-08-21T09:16:15Z</time>
      </trkpt>
      <trkpt lat="43.09468" lon="0.15178">
        <ele>616</ele>
        <time>2022-08-21T09:16:17Z</time>
      </trkpt>
      <trkpt lat="43.09467" lon="0.15182">
        <ele>615.4</ele>
        <time>2022-08-21T09:16:18Z</time>
      </trkpt>
      <trkpt lat="43.09465" lon="0.15184">
        <ele>614.8</ele>
        <time>2022-08-21T09:16:19Z</time>
      </trkpt>
      <trkpt lat="43.09457" lon="0.15195">
        <ele>613.4</ele>
        <time>2022-08-21T09:16:23Z</time>
      </trkpt>
      <trkpt lat="43.09442" lon="0.15209">
        <ele>612.6</ele>
        <time>2022-08-21T09:16:30Z</time>
      </trkpt>
      <trkpt lat="43.09438" lon="0.15211">
        <ele>612.6</ele>
        <time>2022-08-21T09:16:32Z</time>
      </trkpt>
      <trkpt lat="43.09432" lon="0.15218">
        <ele>612.8</ele>
        <time>2022-08-21T09:16:35Z</time>
      </trkpt>
      <trkpt lat="43.09411" lon="0.15238">
        <ele>612.8</ele>
        <time>2022-08-21T09:16:42Z</time>
      </trkpt>
      <trkpt lat="43.09402" lon="0.15243">
        <ele>612.8</ele>
        <time>2022-08-21T09:16:44Z</time>
      </trkpt>
      <trkpt lat="43.09392" lon="0.15247">
        <ele>612.4</ele>
        <time>2022-08-21T09:16:46Z</time>
      </trkpt>
      <trkpt lat="43.09385" lon="0.15249">
        <ele>612.2</ele>
        <time>2022-08-21T09:16:47Z</time>
      </trkpt>
      <trkpt lat="43.0937" lon="0.15255">
        <ele>611.4</ele>
        <time>2022-08-21T09:16:50Z</time>
      </trkpt>
      <trkpt lat="43.09366" lon="0.15259">
        <ele>610.4</ele>
        <time>2022-08-21T09:16:51Z</time>
      </trkpt>
      <trkpt lat="43.09363" lon="0.15264">
        <ele>610.2</ele>
        <time>2022-08-21T09:16:52Z</time>
      </trkpt>
      <trkpt lat="43.09356" lon="0.15283">
        <ele>609.2</ele>
        <time>2022-08-21T09:16:55Z</time>
      </trkpt>
      <trkpt lat="43.09355" lon="0.1529">
        <ele>609</ele>
        <time>2022-08-21T09:16:56Z</time>
      </trkpt>
      <trkpt lat="43.09351" lon="0.15304">
        <ele>608.2</ele>
        <time>2022-08-21T09:16:58Z</time>
      </trkpt>
      <trkpt lat="43.09348" lon="0.15311">
        <ele>608</ele>
        <time>2022-08-21T09:16:59Z</time>
      </trkpt>
      <trkpt lat="43.09344" lon="0.15317">
        <ele>607.4</ele>
        <time>2022-08-21T09:17:00Z</time>
      </trkpt>
      <trkpt lat="43.09335" lon="0.15326">
        <ele>606.4</ele>
        <time>2022-08-21T09:17:02Z</time>
      </trkpt>
      <trkpt lat="43.09326" lon="0.15332">
        <ele>605.6</ele>
        <time>2022-08-21T09:17:04Z</time>
      </trkpt>
      <trkpt lat="43.09319" lon="0.15332">
        <ele>605.2</ele>
        <time>2022-08-21T09:17:06Z</time>
      </trkpt>
      <trkpt lat="43.09313" lon="0.15329">
        <ele>604.6</ele>
        <time>2022-08-21T09:17:08Z</time>
      </trkpt>
      <trkpt lat="43.09306" lon="0.1532">
        <ele>604.8</ele>
        <time>2022-08-21T09:17:13Z</time>
      </trkpt>
      <trkpt lat="43.09298" lon="0.15307">
        <ele>606.2</ele>
        <time>2022-08-21T09:17:20Z</time>
      </trkpt>
      <trkpt lat="43.09297" lon="0.15305">
        <ele>606.6</ele>
        <time>2022-08-21T09:17:21Z</time>
      </trkpt>
      <trkpt lat="43.09292" lon="0.15299">
        <ele>607.4</ele>
        <time>2022-08-21T09:17:25Z</time>
      </trkpt>
      <trkpt lat="43.09286" lon="0.15293">
        <ele>608</ele>
        <time>2022-08-21T09:17:29Z</time>
      </trkpt>
      <trkpt lat="43.09284" lon="0.15291">
        <ele>608.4</ele>
        <time>2022-08-21T09:17:30Z</time>
      </trkpt>
      <trkpt lat="43.09278" lon="0.15284">
        <ele>609.6</ele>
        <time>2022-08-21T09:17:35Z</time>
      </trkpt>
      <trkpt lat="43.09274" lon="0.15279">
        <ele>610.6</ele>
        <time>2022-08-21T09:17:38Z</time>
      </trkpt>
      <trkpt lat="43.09265" lon="0.15274">
        <ele>611.8</ele>
        <time>2022-08-21T09:17:45Z</time>
      </trkpt>
      <trkpt lat="43.09259" lon="0.15275">
        <ele>613</ele>
        <time>2022-08-21T09:17:49Z</time>
      </trkpt>
      <trkpt lat="43.09254" lon="0.15276">
        <ele>613.8</ele>
        <time>2022-08-21T09:17:52Z</time>
      </trkpt>
      <trkpt lat="43.09252" lon="0.15277">
        <ele>614</ele>
        <time>2022-08-21T09:17:53Z</time>
      </trkpt>
      <trkpt lat="43.09243" lon="0.15288">
        <ele>614.8</ele>
        <time>2022-08-21T09:17:59Z</time>
      </trkpt>
      <trkpt lat="43.0924" lon="0.15302">
        <ele>615</ele>
        <time>2022-08-21T09:18:05Z</time>
      </trkpt>
      <trkpt lat="43.09239" lon="0.15305">
        <ele>615</ele>
        <time>2022-08-21T09:18:06Z</time>
      </trkpt>
      <trkpt lat="43.09236" lon="0.15324">
        <ele>615</ele>
        <time>2022-08-21T09:18:11Z</time>
      </trkpt>
      <trkpt lat="43.09227" lon="0.1534">
        <ele>614.8</ele>
        <time>2022-08-21T09:18:16Z</time>
      </trkpt>
      <trkpt lat="43.09217" lon="0.1535">
        <ele>614.8</ele>
        <time>2022-08-21T09:18:21Z</time>
      </trkpt>
      <trkpt lat="43.09207" lon="0.15358">
        <ele>615.6</ele>
        <time>2022-08-21T09:18:27Z</time>
      </trkpt>
      <trkpt lat="43.09204" lon="0.15362">
        <ele>616</ele>
        <time>2022-08-21T09:18:29Z</time>
      </trkpt>
      <trkpt lat="43.09194" lon="0.15371">
        <ele>617.4</ele>
        <time>2022-08-21T09:18:36Z</time>
      </trkpt>
      <trkpt lat="43.09184" lon="0.15379">
        <ele>618.4</ele>
        <time>2022-08-21T09:18:43Z</time>
      </trkpt>
      <trkpt lat="43.09183" lon="0.15381">
        <ele>618.6</ele>
        <time>2022-08-21T09:18:44Z</time>
      </trkpt>
      <trkpt lat="43.09171" lon="0.1539">
        <ele>619.2</ele>
        <time>2022-08-21T09:18:52Z</time>
      </trkpt>
      <trkpt lat="43.09169" lon="0.15391">
        <ele>619.6</ele>
        <time>2022-08-21T09:18:54Z</time>
      </trkpt>
      <trkpt lat="43.09162" lon="0.15388">
        <ele>620.4</ele>
        <time>2022-08-21T09:18:59Z</time>
      </trkpt>
      <trkpt lat="43.09161" lon="0.15387">
        <ele>620.6</ele>
        <time>2022-08-21T09:19:00Z</time>
      </trkpt>
      <trkpt lat="43.09158" lon="0.1538">
        <ele>621.2</ele>
        <time>2022-08-21T09:19:05Z</time>
      </trkpt>
      <trkpt lat="43.09156" lon="0.15374">
        <ele>621.8</ele>
        <time>2022-08-21T09:19:08Z</time>
      </trkpt>
      <trkpt lat="43.09153" lon="0.15364">
        <ele>623</ele>
        <time>2022-08-21T09:19:13Z</time>
      </trkpt>
      <trkpt lat="43.09152" lon="0.15363">
        <ele>623.2</ele>
        <time>2022-08-21T09:19:14Z</time>
      </trkpt>
      <trkpt lat="43.09147" lon="0.15353">
        <ele>624</ele>
        <time>2022-08-21T09:19:20Z</time>
      </trkpt>
      <trkpt lat="43.09145" lon="0.15347">
        <ele>624.6</ele>
        <time>2022-08-21T09:19:23Z</time>
      </trkpt>
      <trkpt lat="43.09142" lon="0.15339">
        <ele>624.8</ele>
        <time>2022-08-21T09:19:28Z</time>
      </trkpt>
      <trkpt lat="43.0914" lon="0.15336">
        <ele>625</ele>
        <time>2022-08-21T09:19:30Z</time>
      </trkpt>
      <trkpt lat="43.09139" lon="0.15335">
        <ele>625.4</ele>
        <time>2022-08-21T09:19:31Z</time>
      </trkpt>
      <trkpt lat="43.09137" lon="0.15335">
        <ele>625.6</ele>
        <time>2022-08-21T09:19:32Z</time>
      </trkpt>
      <trkpt lat="43.09132" lon="0.15336">
        <ele>626.2</ele>
        <time>2022-08-21T09:19:36Z</time>
      </trkpt>
      <trkpt lat="43.09128" lon="0.15338">
        <ele>626.4</ele>
        <time>2022-08-21T09:19:39Z</time>
      </trkpt>
      <trkpt lat="43.0912" lon="0.15343">
        <ele>626.8</ele>
        <time>2022-08-21T09:19:45Z</time>
      </trkpt>
      <trkpt lat="43.09108" lon="0.1535">
        <ele>626.8</ele>
        <time>2022-08-21T09:19:52Z</time>
      </trkpt>
      <trkpt lat="43.09093" lon="0.15357">
        <ele>626.6</ele>
        <time>2022-08-21T09:19:57Z</time>
      </trkpt>
      <trkpt lat="43.09068" lon="0.15369">
        <ele>626</ele>
        <time>2022-08-21T09:20:05Z</time>
      </trkpt>
      <trkpt lat="43.09055" lon="0.15376">
        <ele>625.4</ele>
        <time>2022-08-21T09:20:10Z</time>
      </trkpt>
      <trkpt lat="43.09051" lon="0.15379">
        <ele>625.2</ele>
        <time>2022-08-21T09:20:12Z</time>
      </trkpt>
      <trkpt lat="43.09034" lon="0.1539">
        <ele>624.6</ele>
        <time>2022-08-21T09:20:19Z</time>
      </trkpt>
      <trkpt lat="43.09031" lon="0.15391">
        <ele>624.4</ele>
        <time>2022-08-21T09:20:20Z</time>
      </trkpt>
      <trkpt lat="43.09014" lon="0.15398">
        <ele>623.4</ele>
        <time>2022-08-21T09:20:26Z</time>
      </trkpt>
      <trkpt lat="43.09011" lon="0.154">
        <ele>623</ele>
        <time>2022-08-21T09:20:27Z</time>
      </trkpt>
      <trkpt lat="43.08993" lon="0.15407">
        <ele>622.4</ele>
        <time>2022-08-21T09:20:32Z</time>
      </trkpt>
      <trkpt lat="43.08986" lon="0.15409">
        <ele>622.2</ele>
        <time>2022-08-21T09:20:34Z</time>
      </trkpt>
      <trkpt lat="43.08973" lon="0.15416">
        <ele>621.6</ele>
        <time>2022-08-21T09:20:38Z</time>
      </trkpt>
      <trkpt lat="43.08946" lon="0.1543">
        <ele>621.4</ele>
        <time>2022-08-21T09:20:48Z</time>
      </trkpt>
      <trkpt lat="43.08928" lon="0.15442">
        <ele>621.2</ele>
        <time>2022-08-21T09:20:55Z</time>
      </trkpt>
      <trkpt lat="43.08906" lon="0.15466">
        <ele>621.2</ele>
        <time>2022-08-21T09:21:04Z</time>
      </trkpt>
      <trkpt lat="43.08892" lon="0.15496">
        <ele>621.6</ele>
        <time>2022-08-21T09:21:12Z</time>
      </trkpt>
      <trkpt lat="43.08882" lon="0.15531">
        <ele>621.8</ele>
        <time>2022-08-21T09:21:20Z</time>
      </trkpt>
      <trkpt lat="43.08864" lon="0.15569">
        <ele>622</ele>
        <time>2022-08-21T09:21:29Z</time>
      </trkpt>
      <trkpt lat="43.08849" lon="0.1559">
        <ele>622.6</ele>
        <time>2022-08-21T09:21:36Z</time>
      </trkpt>
      <trkpt lat="43.08831" lon="0.15598">
        <ele>623.4</ele>
        <time>2022-08-21T09:21:43Z</time>
      </trkpt>
      <trkpt lat="43.08814" lon="0.15599">
        <ele>624.4</ele>
        <time>2022-08-21T09:21:49Z</time>
      </trkpt>
      <trkpt lat="43.08805" lon="0.15602">
        <ele>624.6</ele>
        <time>2022-08-21T09:21:52Z</time>
      </trkpt>
      <trkpt lat="43.08783" lon="0.15609">
        <ele>625.6</ele>
        <time>2022-08-21T09:21:59Z</time>
      </trkpt>
      <trkpt lat="43.08775" lon="0.15612">
        <ele>625.8</ele>
        <time>2022-08-21T09:22:02Z</time>
      </trkpt>
      <trkpt lat="43.08757" lon="0.15625">
        <ele>626.2</ele>
        <time>2022-08-21T09:22:09Z</time>
      </trkpt>
      <trkpt lat="43.08749" lon="0.15634">
        <ele>626.6</ele>
        <time>2022-08-21T09:22:13Z</time>
      </trkpt>
      <trkpt lat="43.08745" lon="0.1564">
        <ele>627</ele>
        <time>2022-08-21T09:22:16Z</time>
      </trkpt>
      <trkpt lat="43.08739" lon="0.15648">
        <ele>627.6</ele>
        <time>2022-08-21T09:22:20Z</time>
      </trkpt>
      <trkpt lat="43.08732" lon="0.15655">
        <ele>628.4</ele>
        <time>2022-08-21T09:22:25Z</time>
      </trkpt>
      <trkpt lat="43.0873" lon="0.15659">
        <ele>628.6</ele>
        <time>2022-08-21T09:22:27Z</time>
      </trkpt>
      <trkpt lat="43.08724" lon="0.15668">
        <ele>629.4</ele>
        <time>2022-08-21T09:22:32Z</time>
      </trkpt>
      <trkpt lat="43.08722" lon="0.15672">
        <ele>629.6</ele>
        <time>2022-08-21T09:22:34Z</time>
      </trkpt>
      <trkpt lat="43.08716" lon="0.15681">
        <ele>630.8</ele>
        <time>2022-08-21T09:22:39Z</time>
      </trkpt>
      <trkpt lat="43.08712" lon="0.15688">
        <ele>631.4</ele>
        <time>2022-08-21T09:22:43Z</time>
      </trkpt>
      <trkpt lat="43.08709" lon="0.15694">
        <ele>632</ele>
        <time>2022-08-21T09:22:46Z</time>
      </trkpt>
      <trkpt lat="43.087" lon="0.15706">
        <ele>633</ele>
        <time>2022-08-21T09:22:53Z</time>
      </trkpt>
      <trkpt lat="43.08698" lon="0.1571">
        <ele>633.6</ele>
        <time>2022-08-21T09:22:55Z</time>
      </trkpt>
      <trkpt lat="43.0869" lon="0.1572">
        <ele>634</ele>
        <time>2022-08-21T09:23:00Z</time>
      </trkpt>
      <trkpt lat="43.08683" lon="0.1573">
        <ele>634.8</ele>
        <time>2022-08-21T09:23:05Z</time>
      </trkpt>
      <trkpt lat="43.08681" lon="0.15735">
        <ele>635.2</ele>
        <time>2022-08-21T09:23:07Z</time>
      </trkpt>
      <trkpt lat="43.0867" lon="0.15753">
        <ele>635.8</ele>
        <time>2022-08-21T09:23:16Z</time>
      </trkpt>
      <trkpt lat="43.08668" lon="0.15757">
        <ele>636.2</ele>
        <time>2022-08-21T09:23:18Z</time>
      </trkpt>
      <trkpt lat="43.08658" lon="0.15774">
        <ele>637.2</ele>
        <time>2022-08-21T09:23:26Z</time>
      </trkpt>
      <trkpt lat="43.08656" lon="0.15778">
        <ele>637.4</ele>
        <time>2022-08-21T09:23:28Z</time>
      </trkpt>
      <trkpt lat="43.08649" lon="0.1579">
        <ele>638.4</ele>
        <time>2022-08-21T09:23:34Z</time>
      </trkpt>
      <trkpt lat="43.08645" lon="0.15795">
        <ele>638.8</ele>
        <time>2022-08-21T09:23:37Z</time>
      </trkpt>
      <trkpt lat="43.08638" lon="0.15807">
        <ele>639.4</ele>
        <time>2022-08-21T09:23:43Z</time>
      </trkpt>
      <trkpt lat="43.08637" lon="0.15809">
        <ele>639.6</ele>
        <time>2022-08-21T09:23:44Z</time>
      </trkpt>
      <trkpt lat="43.08635" lon="0.15824">
        <ele>640</ele>
        <time>2022-08-21T09:23:50Z</time>
      </trkpt>
      <trkpt lat="43.08633" lon="0.1583">
        <ele>640.2</ele>
        <time>2022-08-21T09:23:52Z</time>
      </trkpt>
      <trkpt lat="43.08628" lon="0.15842">
        <ele>640.4</ele>
        <time>2022-08-21T09:23:56Z</time>
      </trkpt>
      <trkpt lat="43.08624" lon="0.15854">
        <ele>640.8</ele>
        <time>2022-08-21T09:24:00Z</time>
      </trkpt>
      <trkpt lat="43.0862" lon="0.15866">
        <ele>641.4</ele>
        <time>2022-08-21T09:24:04Z</time>
      </trkpt>
      <trkpt lat="43.08619" lon="0.15872">
        <ele>641.8</ele>
        <time>2022-08-21T09:24:06Z</time>
      </trkpt>
      <trkpt lat="43.08611" lon="0.15897">
        <ele>642.4</ele>
        <time>2022-08-21T09:24:14Z</time>
      </trkpt>
      <trkpt lat="43.08609" lon="0.15903">
        <ele>642.6</ele>
        <time>2022-08-21T09:24:16Z</time>
      </trkpt>
      <trkpt lat="43.086" lon="0.15927">
        <ele>642.8</ele>
        <time>2022-08-21T09:24:23Z</time>
      </trkpt>
      <trkpt lat="43.08584" lon="0.15952">
        <ele>642.8</ele>
        <time>2022-08-21T09:24:28Z</time>
      </trkpt>
      <trkpt lat="43.08561" lon="0.15986">
        <ele>641.4</ele>
        <time>2022-08-21T09:24:33Z</time>
      </trkpt>
      <trkpt lat="43.08551" lon="0.16007">
        <ele>640.4</ele>
        <time>2022-08-21T09:24:36Z</time>
      </trkpt>
      <trkpt lat="43.08548" lon="0.16013">
        <ele>639.8</ele>
        <time>2022-08-21T09:24:37Z</time>
      </trkpt>
      <trkpt lat="43.08543" lon="0.16027">
        <ele>639.6</ele>
        <time>2022-08-21T09:24:39Z</time>
      </trkpt>
      <trkpt lat="43.08538" lon="0.1604">
        <ele>639.2</ele>
        <time>2022-08-21T09:24:41Z</time>
      </trkpt>
      <trkpt lat="43.08536" lon="0.16046">
        <ele>639.2</ele>
        <time>2022-08-21T09:24:42Z</time>
      </trkpt>
      <trkpt lat="43.08532" lon="0.16064">
        <ele>639</ele>
        <time>2022-08-21T09:24:45Z</time>
      </trkpt>
      <trkpt lat="43.08527" lon="0.16094">
        <ele>638.6</ele>
        <time>2022-08-21T09:24:50Z</time>
      </trkpt>
      <trkpt lat="43.08525" lon="0.161">
        <ele>638.6</ele>
        <time>2022-08-21T09:24:51Z</time>
      </trkpt>
      <trkpt lat="43.08521" lon="0.16111">
        <ele>638.2</ele>
        <time>2022-08-21T09:24:53Z</time>
      </trkpt>
      <trkpt lat="43.08512" lon="0.1613">
        <ele>637.8</ele>
        <time>2022-08-21T09:24:58Z</time>
      </trkpt>
      <trkpt lat="43.08499" lon="0.16147">
        <ele>638</ele>
        <time>2022-08-21T09:25:05Z</time>
      </trkpt>
      <trkpt lat="43.08488" lon="0.16166">
        <ele>638.4</ele>
        <time>2022-08-21T09:25:12Z</time>
      </trkpt>
      <trkpt lat="43.08478" lon="0.16181">
        <ele>639.4</ele>
        <time>2022-08-21T09:25:18Z</time>
      </trkpt>
      <trkpt lat="43.08474" lon="0.16189">
        <ele>639.6</ele>
        <time>2022-08-21T09:25:21Z</time>
      </trkpt>
      <trkpt lat="43.08464" lon="0.1621">
        <ele>640.4</ele>
        <time>2022-08-21T09:25:28Z</time>
      </trkpt>
      <trkpt lat="43.08461" lon="0.16215">
        <ele>640.4</ele>
        <time>2022-08-21T09:25:30Z</time>
      </trkpt>
      <trkpt lat="43.08452" lon="0.16231">
        <ele>641</ele>
        <time>2022-08-21T09:25:37Z</time>
      </trkpt>
      <trkpt lat="43.08447" lon="0.16238">
        <ele>641.4</ele>
        <time>2022-08-21T09:25:40Z</time>
      </trkpt>
      <trkpt lat="43.08441" lon="0.16248">
        <ele>642.4</ele>
        <time>2022-08-21T09:25:45Z</time>
      </trkpt>
      <trkpt lat="43.08438" lon="0.16256">
        <ele>642.8</ele>
        <time>2022-08-21T09:25:48Z</time>
      </trkpt>
      <trkpt lat="43.0843" lon="0.16271">
        <ele>643.4</ele>
        <time>2022-08-21T09:25:54Z</time>
      </trkpt>
      <trkpt lat="43.08425" lon="0.16279">
        <ele>643.8</ele>
        <time>2022-08-21T09:25:57Z</time>
      </trkpt>
      <trkpt lat="43.08418" lon="0.16293">
        <ele>644.6</ele>
        <time>2022-08-21T09:26:02Z</time>
      </trkpt>
      <trkpt lat="43.08414" lon="0.16301">
        <ele>645</ele>
        <time>2022-08-21T09:26:05Z</time>
      </trkpt>
      <trkpt lat="43.08404" lon="0.16322">
        <ele>645.8</ele>
        <time>2022-08-21T09:26:13Z</time>
      </trkpt>
      <trkpt lat="43.08403" lon="0.16325">
        <ele>645.8</ele>
        <time>2022-08-21T09:26:14Z</time>
      </trkpt>
      <trkpt lat="43.08393" lon="0.16345">
        <ele>646.4</ele>
        <time>2022-08-21T09:26:22Z</time>
      </trkpt>
      <trkpt lat="43.08389" lon="0.16352">
        <ele>646.6</ele>
        <time>2022-08-21T09:26:25Z</time>
      </trkpt>
      <trkpt lat="43.08379" lon="0.16368">
        <ele>647</ele>
        <time>2022-08-21T09:26:31Z</time>
      </trkpt>
      <trkpt lat="43.08373" lon="0.16378">
        <ele>647.2</ele>
        <time>2022-08-21T09:26:35Z</time>
      </trkpt>
      <trkpt lat="43.08367" lon="0.16386">
        <ele>647.6</ele>
        <time>2022-08-21T09:26:38Z</time>
      </trkpt>
      <trkpt lat="43.08345" lon="0.16412">
        <ele>648.2</ele>
        <time>2022-08-21T09:26:49Z</time>
      </trkpt>
      <trkpt lat="43.08327" lon="0.1643">
        <ele>648.6</ele>
        <time>2022-08-21T09:26:58Z</time>
      </trkpt>
      <trkpt lat="43.08303" lon="0.16443">
        <ele>649</ele>
        <time>2022-08-21T09:27:07Z</time>
      </trkpt>
      <trkpt lat="43.08283" lon="0.16452">
        <ele>649</ele>
        <time>2022-08-21T09:27:14Z</time>
      </trkpt>
      <trkpt lat="43.08264" lon="0.16454">
        <ele>648.6</ele>
        <time>2022-08-21T09:27:20Z</time>
      </trkpt>
      <trkpt lat="43.08247" lon="0.16462">
        <ele>648.4</ele>
        <time>2022-08-21T09:27:25Z</time>
      </trkpt>
      <trkpt lat="43.08229" lon="0.16468">
        <ele>647.6</ele>
        <time>2022-08-21T09:27:30Z</time>
      </trkpt>
      <trkpt lat="43.08225" lon="0.16468">
        <ele>647.4</ele>
        <time>2022-08-21T09:27:31Z</time>
      </trkpt>
      <trkpt lat="43.08214" lon="0.16457">
        <ele>646.8</ele>
        <time>2022-08-21T09:27:35Z</time>
      </trkpt>
      <trkpt lat="43.08207" lon="0.16447">
        <ele>646.6</ele>
        <time>2022-08-21T09:27:38Z</time>
      </trkpt>
      <trkpt lat="43.08198" lon="0.16435">
        <ele>646.2</ele>
        <time>2022-08-21T09:27:41Z</time>
      </trkpt>
      <trkpt lat="43.08187" lon="0.16422">
        <ele>646.2</ele>
        <time>2022-08-21T09:27:44Z</time>
      </trkpt>
      <trkpt lat="43.08176" lon="0.16414">
        <ele>646.2</ele>
        <time>2022-08-21T09:27:46Z</time>
      </trkpt>
      <trkpt lat="43.08164" lon="0.16409">
        <ele>646</ele>
        <time>2022-08-21T09:27:48Z</time>
      </trkpt>
      <trkpt lat="43.0815" lon="0.16412">
        <ele>645.6</ele>
        <time>2022-08-21T09:27:50Z</time>
      </trkpt>
      <trkpt lat="43.08143" lon="0.16415">
        <ele>645.4</ele>
        <time>2022-08-21T09:27:51Z</time>
      </trkpt>
      <trkpt lat="43.08108" lon="0.1643">
        <ele>644.4</ele>
        <time>2022-08-21T09:27:55Z</time>
      </trkpt>
      <trkpt lat="43.08092" lon="0.1643">
        <ele>643.8</ele>
        <time>2022-08-21T09:27:57Z</time>
      </trkpt>
      <trkpt lat="43.08082" lon="0.16427">
        <ele>643.2</ele>
        <time>2022-08-21T09:27:58Z</time>
      </trkpt>
      <trkpt lat="43.08072" lon="0.16423">
        <ele>642.8</ele>
        <time>2022-08-21T09:27:59Z</time>
      </trkpt>
      <trkpt lat="43.08063" lon="0.16416">
        <ele>642.2</ele>
        <time>2022-08-21T09:28:00Z</time>
      </trkpt>
      <trkpt lat="43.08053" lon="0.16405">
        <ele>641.4</ele>
        <time>2022-08-21T09:28:01Z</time>
      </trkpt>
      <trkpt lat="43.08047" lon="0.16396">
        <ele>640.6</ele>
        <time>2022-08-21T09:28:02Z</time>
      </trkpt>
      <trkpt lat="43.08033" lon="0.16372">
        <ele>639.8</ele>
        <time>2022-08-21T09:28:04Z</time>
      </trkpt>
      <trkpt lat="43.08024" lon="0.1636">
        <ele>638.8</ele>
        <time>2022-08-21T09:28:05Z</time>
      </trkpt>
      <trkpt lat="43.08008" lon="0.16337">
        <ele>637.2</ele>
        <time>2022-08-21T09:28:07Z</time>
      </trkpt>
      <trkpt lat="43.07992" lon="0.16317">
        <ele>635.8</ele>
        <time>2022-08-21T09:28:09Z</time>
      </trkpt>
      <trkpt lat="43.07974" lon="0.16299">
        <ele>634.2</ele>
        <time>2022-08-21T09:28:11Z</time>
      </trkpt>
      <trkpt lat="43.07966" lon="0.16292">
        <ele>633.6</ele>
        <time>2022-08-21T09:28:12Z</time>
      </trkpt>
      <trkpt lat="43.07959" lon="0.16286">
        <ele>632.4</ele>
        <time>2022-08-21T09:28:13Z</time>
      </trkpt>
      <trkpt lat="43.07946" lon="0.16276">
        <ele>630.6</ele>
        <time>2022-08-21T09:28:15Z</time>
      </trkpt>
      <trkpt lat="43.07935" lon="0.16268">
        <ele>628.8</ele>
        <time>2022-08-21T09:28:17Z</time>
      </trkpt>
      <trkpt lat="43.07928" lon="0.16261">
        <ele>627.4</ele>
        <time>2022-08-21T09:28:19Z</time>
      </trkpt>
      <trkpt lat="43.07926" lon="0.16259">
        <ele>626.2</ele>
        <time>2022-08-21T09:28:20Z</time>
      </trkpt>
      <trkpt lat="43.07921" lon="0.16256">
        <ele>624.2</ele>
        <time>2022-08-21T09:28:22Z</time>
      </trkpt>
      <trkpt lat="43.07919" lon="0.16253">
        <ele>623.4</ele>
        <time>2022-08-21T09:28:23Z</time>
      </trkpt>
      <trkpt lat="43.07917" lon="0.16251">
        <ele>622.6</ele>
        <time>2022-08-21T09:28:24Z</time>
      </trkpt>
      <trkpt lat="43.07911" lon="0.16245">
        <ele>621.4</ele>
        <time>2022-08-21T09:28:27Z</time>
      </trkpt>
      <trkpt lat="43.07906" lon="0.16239">
        <ele>620.2</ele>
        <time>2022-08-21T09:28:30Z</time>
      </trkpt>
      <trkpt lat="43.07903" lon="0.16235">
        <ele>619.2</ele>
        <time>2022-08-21T09:28:35Z</time>
      </trkpt>
      <trkpt lat="43.07903" lon="0.16235">
        <ele>619.2</ele>
        <time>2022-08-21T09:28:36Z</time>
      </trkpt>
      <trkpt lat="43.07903" lon="0.16235">
        <ele>618.2</ele>
        <time>2022-08-21T09:29:07Z</time>
      </trkpt>
      <trkpt lat="43.07903" lon="0.16235">
        <ele>618</ele>
        <time>2022-08-21T09:30:06Z</time>
      </trkpt>
      <trkpt lat="43.07903" lon="0.1624">
        <ele>618</ele>
        <time>2022-08-21T09:30:08Z</time>
      </trkpt>
      <trkpt lat="43.0791" lon="0.16252">
        <ele>618.2</ele>
        <time>2022-08-21T09:30:12Z</time>
      </trkpt>
      <trkpt lat="43.07928" lon="0.16271">
        <ele>619.2</ele>
        <time>2022-08-21T09:30:18Z</time>
      </trkpt>
      <trkpt lat="43.07942" lon="0.16281">
        <ele>620.2</ele>
        <time>2022-08-21T09:30:22Z</time>
      </trkpt>
      <trkpt lat="43.07954" lon="0.16289">
        <ele>621.2</ele>
        <time>2022-08-21T09:30:25Z</time>
      </trkpt>
      <trkpt lat="43.0796" lon="0.16294">
        <ele>621.8</ele>
        <time>2022-08-21T09:30:27Z</time>
      </trkpt>
      <trkpt lat="43.07964" lon="0.16297">
        <ele>622.2</ele>
        <time>2022-08-21T09:30:28Z</time>
      </trkpt>
      <trkpt lat="43.07981" lon="0.16313">
        <ele>623.4</ele>
        <time>2022-08-21T09:30:33Z</time>
      </trkpt>
      <trkpt lat="43.07987" lon="0.16319">
        <ele>624</ele>
        <time>2022-08-21T09:30:35Z</time>
      </trkpt>
      <trkpt lat="43.0799" lon="0.16322">
        <ele>624.4</ele>
        <time>2022-08-21T09:30:36Z</time>
      </trkpt>
      <trkpt lat="43.07993" lon="0.16326">
        <ele>624.8</ele>
        <time>2022-08-21T09:30:37Z</time>
      </trkpt>
      <trkpt lat="43.08002" lon="0.16338">
        <ele>625.8</ele>
        <time>2022-08-21T09:30:40Z</time>
      </trkpt>
      <trkpt lat="43.08011" lon="0.1635">
        <ele>626.8</ele>
        <time>2022-08-21T09:30:43Z</time>
      </trkpt>
      <trkpt lat="43.08013" lon="0.16354">
        <ele>627</ele>
        <time>2022-08-21T09:30:44Z</time>
      </trkpt>
      <trkpt lat="43.08023" lon="0.16368">
        <ele>628</ele>
        <time>2022-08-21T09:30:47Z</time>
      </trkpt>
      <trkpt lat="43.08033" lon="0.16384">
        <ele>629.2</ele>
        <time>2022-08-21T09:30:51Z</time>
      </trkpt>
      <trkpt lat="43.08036" lon="0.16388">
        <ele>629.4</ele>
        <time>2022-08-21T09:30:52Z</time>
      </trkpt>
      <trkpt lat="43.08044" lon="0.164">
        <ele>630.6</ele>
        <time>2022-08-21T09:30:55Z</time>
      </trkpt>
      <trkpt lat="43.08053" lon="0.16412">
        <ele>631.6</ele>
        <time>2022-08-21T09:30:58Z</time>
      </trkpt>
      <trkpt lat="43.08062" lon="0.16422">
        <ele>632.2</ele>
        <time>2022-08-21T09:31:01Z</time>
      </trkpt>
      <trkpt lat="43.08065" lon="0.16426">
        <ele>632.8</ele>
        <time>2022-08-21T09:31:02Z</time>
      </trkpt>
      <trkpt lat="43.08078" lon="0.16436">
        <ele>634</ele>
        <time>2022-08-21T09:31:06Z</time>
      </trkpt>
      <trkpt lat="43.08082" lon="0.16438">
        <ele>634.2</ele>
        <time>2022-08-21T09:31:07Z</time>
      </trkpt>
      <trkpt lat="43.08093" lon="0.16441">
        <ele>635.4</ele>
        <time>2022-08-21T09:31:10Z</time>
      </trkpt>
      <trkpt lat="43.08106" lon="0.16441">
        <ele>636.4</ele>
        <time>2022-08-21T09:31:13Z</time>
      </trkpt>
      <trkpt lat="43.0811" lon="0.1644">
        <ele>636.6</ele>
        <time>2022-08-21T09:31:14Z</time>
      </trkpt>
      <trkpt lat="43.08121" lon="0.16436">
        <ele>637.6</ele>
        <time>2022-08-21T09:31:17Z</time>
      </trkpt>
      <trkpt lat="43.08136" lon="0.16429">
        <ele>638.8</ele>
        <time>2022-08-21T09:31:21Z</time>
      </trkpt>
      <trkpt lat="43.08151" lon="0.16419">
        <ele>640</ele>
        <time>2022-08-21T09:31:25Z</time>
      </trkpt>
      <trkpt lat="43.08158" lon="0.16417">
        <ele>640.4</ele>
        <time>2022-08-21T09:31:27Z</time>
      </trkpt>
      <trkpt lat="43.08165" lon="0.16416">
        <ele>641</ele>
        <time>2022-08-21T09:31:29Z</time>
      </trkpt>
      <trkpt lat="43.08176" lon="0.16421">
        <ele>642</ele>
        <time>2022-08-21T09:31:32Z</time>
      </trkpt>
      <trkpt lat="43.0819" lon="0.16436">
        <ele>643</ele>
        <time>2022-08-21T09:31:36Z</time>
      </trkpt>
      <trkpt lat="43.08194" lon="0.16441">
        <ele>643.2</ele>
        <time>2022-08-21T09:31:37Z</time>
      </trkpt>
      <trkpt lat="43.08205" lon="0.16455">
        <ele>644.2</ele>
        <time>2022-08-21T09:31:40Z</time>
      </trkpt>
      <trkpt lat="43.08218" lon="0.16473">
        <ele>645.2</ele>
        <time>2022-08-21T09:31:44Z</time>
      </trkpt>
      <trkpt lat="43.0822" lon="0.16479">
        <ele>645.4</ele>
        <time>2022-08-21T09:31:45Z</time>
      </trkpt>
      <trkpt lat="43.0822" lon="0.16486">
        <ele>645.4</ele>
        <time>2022-08-21T09:31:46Z</time>
      </trkpt>
      <trkpt lat="43.08219" lon="0.16492">
        <ele>645.4</ele>
        <time>2022-08-21T09:31:47Z</time>
      </trkpt>
      <trkpt lat="43.08215" lon="0.16498">
        <ele>645.4</ele>
        <time>2022-08-21T09:31:48Z</time>
      </trkpt>
      <trkpt lat="43.08206" lon="0.16508">
        <ele>645.6</ele>
        <time>2022-08-21T09:31:51Z</time>
      </trkpt>
      <trkpt lat="43.08195" lon="0.16517">
        <ele>646.2</ele>
        <time>2022-08-21T09:31:55Z</time>
      </trkpt>
      <trkpt lat="43.08187" lon="0.16522">
        <ele>646.8</ele>
        <time>2022-08-21T09:31:57Z</time>
      </trkpt>
      <trkpt lat="43.08176" lon="0.1653">
        <ele>647.4</ele>
        <time>2022-08-21T09:32:01Z</time>
      </trkpt>
      <trkpt lat="43.08173" lon="0.16532">
        <ele>647.8</ele>
        <time>2022-08-21T09:32:02Z</time>
      </trkpt>
      <trkpt lat="43.08155" lon="0.16552">
        <ele>648.4</ele>
        <time>2022-08-21T09:32:09Z</time>
      </trkpt>
      <trkpt lat="43.08143" lon="0.16572">
        <ele>648.8</ele>
        <time>2022-08-21T09:32:14Z</time>
      </trkpt>
      <trkpt lat="43.08138" lon="0.16581">
        <ele>649</ele>
        <time>2022-08-21T09:32:16Z</time>
      </trkpt>
      <trkpt lat="43.08123" lon="0.16605">
        <ele>649</ele>
        <time>2022-08-21T09:32:22Z</time>
      </trkpt>
      <trkpt lat="43.08118" lon="0.16612">
        <ele>649.2</ele>
        <time>2022-08-21T09:32:25Z</time>
      </trkpt>
      <trkpt lat="43.08118" lon="0.16614">
        <ele>649.2</ele>
        <time>2022-08-21T09:32:26Z</time>
      </trkpt>
      <trkpt lat="43.08122" lon="0.16613">
        <ele>649.2</ele>
        <time>2022-08-21T09:32:29Z</time>
      </trkpt>
      <trkpt lat="43.08134" lon="0.16597">
        <ele>649.2</ele>
        <time>2022-08-21T09:32:34Z</time>
      </trkpt>
      <trkpt lat="43.0815" lon="0.16567">
        <ele>649.2</ele>
        <time>2022-08-21T09:32:40Z</time>
      </trkpt>
      <trkpt lat="43.08159" lon="0.16553">
        <ele>649.4</ele>
        <time>2022-08-21T09:32:43Z</time>
      </trkpt>
      <trkpt lat="43.0817" lon="0.16541">
        <ele>649.4</ele>
        <time>2022-08-21T09:32:46Z</time>
      </trkpt>
      <trkpt lat="43.08178" lon="0.16533">
        <ele>649.2</ele>
        <time>2022-08-21T09:32:48Z</time>
      </trkpt>
      <trkpt lat="43.08187" lon="0.16525">
        <ele>649.2</ele>
        <time>2022-08-21T09:32:51Z</time>
      </trkpt>
      <trkpt lat="43.08188" lon="0.16524">
        <ele>649</ele>
        <time>2022-08-21T09:32:52Z</time>
      </trkpt>
      <trkpt lat="43.08189" lon="0.16522">
        <ele>648.6</ele>
        <time>2022-08-21T09:32:54Z</time>
      </trkpt>
      <trkpt lat="43.08187" lon="0.16519">
        <ele>648</ele>
        <time>2022-08-21T09:32:57Z</time>
      </trkpt>
      <trkpt lat="43.08184" lon="0.16511">
        <ele>647.8</ele>
        <time>2022-08-21T09:33:00Z</time>
      </trkpt>
      <trkpt lat="43.08182" lon="0.16508">
        <ele>647.8</ele>
        <time>2022-08-21T09:33:01Z</time>
      </trkpt>
      <trkpt lat="43.08179" lon="0.16499">
        <ele>647.6</ele>
        <time>2022-08-21T09:33:05Z</time>
      </trkpt>
      <trkpt lat="43.08179" lon="0.16503">
        <ele>647.4</ele>
        <time>2022-08-21T09:33:09Z</time>
      </trkpt>
      <trkpt lat="43.08187" lon="0.16519">
        <ele>647.2</ele>
        <time>2022-08-21T09:33:16Z</time>
      </trkpt>
      <trkpt lat="43.08188" lon="0.16522">
        <ele>647.2</ele>
        <time>2022-08-21T09:33:17Z</time>
      </trkpt>
      <trkpt lat="43.0819" lon="0.16525">
        <ele>647.6</ele>
        <time>2022-08-21T09:33:20Z</time>
      </trkpt>
      <trkpt lat="43.08193" lon="0.16525">
        <ele>647.6</ele>
        <time>2022-08-21T09:33:22Z</time>
      </trkpt>
      <trkpt lat="43.08198" lon="0.16523">
        <ele>647.6</ele>
        <time>2022-08-21T09:33:24Z</time>
      </trkpt>
      <trkpt lat="43.08216" lon="0.16504">
        <ele>647.4</ele>
        <time>2022-08-21T09:33:30Z</time>
      </trkpt>
      <trkpt lat="43.08224" lon="0.16493">
        <ele>646.8</ele>
        <time>2022-08-21T09:33:35Z</time>
      </trkpt>
      <trkpt lat="43.08225" lon="0.16493">
        <ele>645.4</ele>
        <time>2022-08-21T09:33:38Z</time>
      </trkpt>
      <trkpt lat="43.08225" lon="0.16493">
        <ele>645</ele>
        <time>2022-08-21T09:33:40Z</time>
      </trkpt>
      <trkpt lat="43.08225" lon="0.16493">
        <ele>644.4</ele>
        <time>2022-08-21T09:33:46Z</time>
      </trkpt>
      <trkpt lat="43.08227" lon="0.16491">
        <ele>644.2</ele>
        <time>2022-08-21T09:33:54Z</time>
      </trkpt>
      <trkpt lat="43.08231" lon="0.16487">
        <ele>644.2</ele>
        <time>2022-08-21T09:33:56Z</time>
      </trkpt>
      <trkpt lat="43.08232" lon="0.16483">
        <ele>644.2</ele>
        <time>2022-08-21T09:33:58Z</time>
      </trkpt>
      <trkpt lat="43.08232" lon="0.16481">
        <ele>644.2</ele>
        <time>2022-08-21T09:34:02Z</time>
      </trkpt>
      <trkpt lat="43.08232" lon="0.16481">
        <ele>644</ele>
        <time>2022-08-21T09:34:15Z</time>
      </trkpt>
      <trkpt lat="43.08236" lon="0.16476">
        <ele>644.2</ele>
        <time>2022-08-21T09:34:18Z</time>
      </trkpt>
      <trkpt lat="43.08237" lon="0.16474">
        <ele>644.4</ele>
        <time>2022-08-21T09:34:19Z</time>
      </trkpt>
      <trkpt lat="43.08238" lon="0.1647">
        <ele>644.6</ele>
        <time>2022-08-21T09:34:22Z</time>
      </trkpt>
      <trkpt lat="43.08238" lon="0.1647">
        <ele>644.8</ele>
        <time>2022-08-21T09:34:23Z</time>
      </trkpt>
      <trkpt lat="43.08235" lon="0.16469">
        <ele>645</ele>
        <time>2022-08-21T09:34:25Z</time>
      </trkpt>
      <trkpt lat="43.08232" lon="0.16469">
        <ele>645</ele>
        <time>2022-08-21T09:34:27Z</time>
      </trkpt>
      <trkpt lat="43.08223" lon="0.16469">
        <ele>645</ele>
        <time>2022-08-21T09:34:31Z</time>
      </trkpt>
      <trkpt lat="43.08221" lon="0.16467">
        <ele>645</ele>
        <time>2022-08-21T09:34:32Z</time>
      </trkpt>
      <trkpt lat="43.08207" lon="0.16448">
        <ele>645</ele>
        <time>2022-08-21T09:34:40Z</time>
      </trkpt>
      <trkpt lat="43.08188" lon="0.16424">
        <ele>644.6</ele>
        <time>2022-08-21T09:34:50Z</time>
      </trkpt>
      <trkpt lat="43.08169" lon="0.16412">
        <ele>643.4</ele>
        <time>2022-08-21T09:34:57Z</time>
      </trkpt>
      <trkpt lat="43.08163" lon="0.16411">
        <ele>643</ele>
        <time>2022-08-21T09:34:59Z</time>
      </trkpt>
      <trkpt lat="43.0815" lon="0.16413">
        <ele>642.6</ele>
        <time>2022-08-21T09:35:03Z</time>
      </trkpt>
      <trkpt lat="43.08147" lon="0.16415">
        <ele>642.4</ele>
        <time>2022-08-21T09:35:04Z</time>
      </trkpt>
      <trkpt lat="43.08142" lon="0.16418">
        <ele>642</ele>
        <time>2022-08-21T09:35:06Z</time>
      </trkpt>
      <trkpt lat="43.08139" lon="0.16419">
        <ele>641.8</ele>
        <time>2022-08-21T09:35:07Z</time>
      </trkpt>
      <trkpt lat="43.08126" lon="0.16426">
        <ele>640.8</ele>
        <time>2022-08-21T09:35:11Z</time>
      </trkpt>
      <trkpt lat="43.08122" lon="0.16428">
        <ele>640.6</ele>
        <time>2022-08-21T09:35:12Z</time>
      </trkpt>
      <trkpt lat="43.08107" lon="0.16431">
        <ele>639.6</ele>
        <time>2022-08-21T09:35:15Z</time>
      </trkpt>
      <trkpt lat="43.08096" lon="0.16431">
        <ele>639.2</ele>
        <time>2022-08-21T09:35:17Z</time>
      </trkpt>
      <trkpt lat="43.08091" lon="0.1643">
        <ele>639</ele>
        <time>2022-08-21T09:35:18Z</time>
      </trkpt>
      <trkpt lat="43.08081" lon="0.16427">
        <ele>638.2</ele>
        <time>2022-08-21T09:35:20Z</time>
      </trkpt>
      <trkpt lat="43.08075" lon="0.16424">
        <ele>638</ele>
        <time>2022-08-21T09:35:21Z</time>
      </trkpt>
      <trkpt lat="43.08069" lon="0.1642">
        <ele>637.4</ele>
        <time>2022-08-21T09:35:22Z</time>
      </trkpt>
      <trkpt lat="43.08063" lon="0.16414">
        <ele>637.2</ele>
        <time>2022-08-21T09:35:23Z</time>
      </trkpt>
      <trkpt lat="43.08045" lon="0.16393">
        <ele>636</ele>
        <time>2022-08-21T09:35:26Z</time>
      </trkpt>
      <trkpt lat="43.08028" lon="0.16368">
        <ele>634.8</ele>
        <time>2022-08-21T09:35:29Z</time>
      </trkpt>
      <trkpt lat="43.08014" lon="0.16346">
        <ele>634</ele>
        <time>2022-08-21T09:35:32Z</time>
      </trkpt>
      <trkpt lat="43.08009" lon="0.16339">
        <ele>633.2</ele>
        <time>2022-08-21T09:35:33Z</time>
      </trkpt>
      <trkpt lat="43.08" lon="0.16324">
        <ele>631.8</ele>
        <time>2022-08-21T09:35:35Z</time>
      </trkpt>
      <trkpt lat="43.07988" lon="0.16309">
        <ele>630.2</ele>
        <time>2022-08-21T09:35:37Z</time>
      </trkpt>
      <trkpt lat="43.07982" lon="0.16303">
        <ele>629.8</ele>
        <time>2022-08-21T09:35:38Z</time>
      </trkpt>
      <trkpt lat="43.07975" lon="0.16297">
        <ele>629.4</ele>
        <time>2022-08-21T09:35:39Z</time>
      </trkpt>
      <trkpt lat="43.07969" lon="0.16291">
        <ele>629</ele>
        <time>2022-08-21T09:35:40Z</time>
      </trkpt>
      <trkpt lat="43.07945" lon="0.16275">
        <ele>627.4</ele>
        <time>2022-08-21T09:35:43Z</time>
      </trkpt>
      <trkpt lat="43.07937" lon="0.16268">
        <ele>626.4</ele>
        <time>2022-08-21T09:35:44Z</time>
      </trkpt>
      <trkpt lat="43.07928" lon="0.16261">
        <ele>626.2</ele>
        <time>2022-08-21T09:35:45Z</time>
      </trkpt>
      <trkpt lat="43.07919" lon="0.16253">
        <ele>625.4</ele>
        <time>2022-08-21T09:35:46Z</time>
      </trkpt>
      <trkpt lat="43.07911" lon="0.16245">
        <ele>625.2</ele>
        <time>2022-08-21T09:35:47Z</time>
      </trkpt>
      <trkpt lat="43.07903" lon="0.16237">
        <ele>623.8</ele>
        <time>2022-08-21T09:35:48Z</time>
      </trkpt>
      <trkpt lat="43.0788" lon="0.16207">
        <ele>622.4</ele>
        <time>2022-08-21T09:35:51Z</time>
      </trkpt>
      <trkpt lat="43.07863" lon="0.16188">
        <ele>621.4</ele>
        <time>2022-08-21T09:35:53Z</time>
      </trkpt>
      <trkpt lat="43.07855" lon="0.16178">
        <ele>620.8</ele>
        <time>2022-08-21T09:35:54Z</time>
      </trkpt>
      <trkpt lat="43.07836" lon="0.16161">
        <ele>619.4</ele>
        <time>2022-08-21T09:35:56Z</time>
      </trkpt>
      <trkpt lat="43.07826" lon="0.16153">
        <ele>619</ele>
        <time>2022-08-21T09:35:57Z</time>
      </trkpt>
      <trkpt lat="43.07815" lon="0.16146">
        <ele>618.2</ele>
        <time>2022-08-21T09:35:58Z</time>
      </trkpt>
      <trkpt lat="43.07805" lon="0.16139">
        <ele>617</ele>
        <time>2022-08-21T09:35:59Z</time>
      </trkpt>
      <trkpt lat="43.07784" lon="0.16124">
        <ele>615.6</ele>
        <time>2022-08-21T09:36:01Z</time>
      </trkpt>
      <trkpt lat="43.07764" lon="0.16109">
        <ele>613.8</ele>
        <time>2022-08-21T09:36:03Z</time>
      </trkpt>
      <trkpt lat="43.07754" lon="0.16101">
        <ele>613.6</ele>
        <time>2022-08-21T09:36:04Z</time>
      </trkpt>
      <trkpt lat="43.07745" lon="0.16092">
        <ele>612.4</ele>
        <time>2022-08-21T09:36:05Z</time>
      </trkpt>
      <trkpt lat="43.07737" lon="0.16081">
        <ele>611.6</ele>
        <time>2022-08-21T09:36:06Z</time>
      </trkpt>
      <trkpt lat="43.0773" lon="0.16069">
        <ele>610.8</ele>
        <time>2022-08-21T09:36:07Z</time>
      </trkpt>
      <trkpt lat="43.07716" lon="0.16048">
        <ele>609</ele>
        <time>2022-08-21T09:36:09Z</time>
      </trkpt>
      <trkpt lat="43.07707" lon="0.1604">
        <ele>608.2</ele>
        <time>2022-08-21T09:36:10Z</time>
      </trkpt>
      <trkpt lat="43.07697" lon="0.16034">
        <ele>607</ele>
        <time>2022-08-21T09:36:11Z</time>
      </trkpt>
      <trkpt lat="43.07677" lon="0.16026">
        <ele>605.4</ele>
        <time>2022-08-21T09:36:13Z</time>
      </trkpt>
      <trkpt lat="43.07666" lon="0.16023">
        <ele>604</ele>
        <time>2022-08-21T09:36:14Z</time>
      </trkpt>
      <trkpt lat="43.07645" lon="0.16014">
        <ele>602.6</ele>
        <time>2022-08-21T09:36:16Z</time>
      </trkpt>
      <trkpt lat="43.07635" lon="0.16007">
        <ele>602.4</ele>
        <time>2022-08-21T09:36:17Z</time>
      </trkpt>
      <trkpt lat="43.07626" lon="0.15999">
        <ele>601.2</ele>
        <time>2022-08-21T09:36:18Z</time>
      </trkpt>
      <trkpt lat="43.07617" lon="0.15989">
        <ele>600.8</ele>
        <time>2022-08-21T09:36:19Z</time>
      </trkpt>
      <trkpt lat="43.0761" lon="0.15978">
        <ele>599.4</ele>
        <time>2022-08-21T09:36:20Z</time>
      </trkpt>
      <trkpt lat="43.07605" lon="0.15965">
        <ele>598.8</ele>
        <time>2022-08-21T09:36:21Z</time>
      </trkpt>
      <trkpt lat="43.07602" lon="0.15951">
        <ele>597.8</ele>
        <time>2022-08-21T09:36:22Z</time>
      </trkpt>
      <trkpt lat="43.07601" lon="0.15936">
        <ele>597</ele>
        <time>2022-08-21T09:36:23Z</time>
      </trkpt>
      <trkpt lat="43.07601" lon="0.15922">
        <ele>596.2</ele>
        <time>2022-08-21T09:36:24Z</time>
      </trkpt>
      <trkpt lat="43.076" lon="0.1591">
        <ele>595.6</ele>
        <time>2022-08-21T09:36:25Z</time>
      </trkpt>
      <trkpt lat="43.07599" lon="0.15899">
        <ele>594.6</ele>
        <time>2022-08-21T09:36:26Z</time>
      </trkpt>
      <trkpt lat="43.07593" lon="0.15881">
        <ele>592.6</ele>
        <time>2022-08-21T09:36:28Z</time>
      </trkpt>
      <trkpt lat="43.07585" lon="0.15869">
        <ele>591</ele>
        <time>2022-08-21T09:36:30Z</time>
      </trkpt>
      <trkpt lat="43.07581" lon="0.15865">
        <ele>590</ele>
        <time>2022-08-21T09:36:31Z</time>
      </trkpt>
      <trkpt lat="43.07568" lon="0.1586">
        <ele>588.4</ele>
        <time>2022-08-21T09:36:33Z</time>
      </trkpt>
      <trkpt lat="43.07555" lon="0.1586">
        <ele>587</ele>
        <time>2022-08-21T09:36:35Z</time>
      </trkpt>
      <trkpt lat="43.07541" lon="0.15866">
        <ele>585.6</ele>
        <time>2022-08-21T09:36:37Z</time>
      </trkpt>
      <trkpt lat="43.07535" lon="0.15872">
        <ele>585.2</ele>
        <time>2022-08-21T09:36:38Z</time>
      </trkpt>
      <trkpt lat="43.07529" lon="0.15878">
        <ele>584.2</ele>
        <time>2022-08-21T09:36:39Z</time>
      </trkpt>
      <trkpt lat="43.07517" lon="0.15893">
        <ele>583.2</ele>
        <time>2022-08-21T09:36:41Z</time>
      </trkpt>
      <trkpt lat="43.0751" lon="0.15899">
        <ele>582.6</ele>
        <time>2022-08-21T09:36:42Z</time>
      </trkpt>
      <trkpt lat="43.07502" lon="0.15905">
        <ele>582</ele>
        <time>2022-08-21T09:36:43Z</time>
      </trkpt>
      <trkpt lat="43.07479" lon="0.15916">
        <ele>580.8</ele>
        <time>2022-08-21T09:36:46Z</time>
      </trkpt>
      <trkpt lat="43.07464" lon="0.15916">
        <ele>579.4</ele>
        <time>2022-08-21T09:36:48Z</time>
      </trkpt>
      <trkpt lat="43.07448" lon="0.15916">
        <ele>578.2</ele>
        <time>2022-08-21T09:36:50Z</time>
      </trkpt>
      <trkpt lat="43.07431" lon="0.15913">
        <ele>577</ele>
        <time>2022-08-21T09:36:52Z</time>
      </trkpt>
      <trkpt lat="43.07414" lon="0.15907">
        <ele>576</ele>
        <time>2022-08-21T09:36:54Z</time>
      </trkpt>
      <trkpt lat="43.07395" lon="0.15897">
        <ele>574.8</ele>
        <time>2022-08-21T09:36:56Z</time>
      </trkpt>
      <trkpt lat="43.07376" lon="0.15888">
        <ele>573.6</ele>
        <time>2022-08-21T09:36:58Z</time>
      </trkpt>
      <trkpt lat="43.07355" lon="0.15887">
        <ele>572.4</ele>
        <time>2022-08-21T09:37:00Z</time>
      </trkpt>
      <trkpt lat="43.07344" lon="0.15889">
        <ele>572</ele>
        <time>2022-08-21T09:37:01Z</time>
      </trkpt>
      <trkpt lat="43.07334" lon="0.15893">
        <ele>571.2</ele>
        <time>2022-08-21T09:37:02Z</time>
      </trkpt>
      <trkpt lat="43.07318" lon="0.159">
        <ele>569.8</ele>
        <time>2022-08-21T09:37:04Z</time>
      </trkpt>
      <trkpt lat="43.07301" lon="0.15906">
        <ele>568.2</ele>
        <time>2022-08-21T09:37:06Z</time>
      </trkpt>
      <trkpt lat="43.07292" lon="0.15908">
        <ele>567</ele>
        <time>2022-08-21T09:37:07Z</time>
      </trkpt>
      <trkpt lat="43.07277" lon="0.15907">
        <ele>565.2</ele>
        <time>2022-08-21T09:37:09Z</time>
      </trkpt>
      <trkpt lat="43.07259" lon="0.15896">
        <ele>563.2</ele>
        <time>2022-08-21T09:37:11Z</time>
      </trkpt>
      <trkpt lat="43.07251" lon="0.15889">
        <ele>562.8</ele>
        <time>2022-08-21T09:37:12Z</time>
      </trkpt>
      <trkpt lat="43.07245" lon="0.15883">
        <ele>561.6</ele>
        <time>2022-08-21T09:37:13Z</time>
      </trkpt>
      <trkpt lat="43.07228" lon="0.15866">
        <ele>559.6</ele>
        <time>2022-08-21T09:37:15Z</time>
      </trkpt>
      <trkpt lat="43.07211" lon="0.15849">
        <ele>558.6</ele>
        <time>2022-08-21T09:37:17Z</time>
      </trkpt>
      <trkpt lat="43.07193" lon="0.15832">
        <ele>557.4</ele>
        <time>2022-08-21T09:37:19Z</time>
      </trkpt>
      <trkpt lat="43.07176" lon="0.15814">
        <ele>556.4</ele>
        <time>2022-08-21T09:37:21Z</time>
      </trkpt>
      <trkpt lat="43.07159" lon="0.15797">
        <ele>555</ele>
        <time>2022-08-21T09:37:23Z</time>
      </trkpt>
      <trkpt lat="43.07151" lon="0.15789">
        <ele>554.4</ele>
        <time>2022-08-21T09:37:24Z</time>
      </trkpt>
      <trkpt lat="43.07135" lon="0.15773">
        <ele>553.6</ele>
        <time>2022-08-21T09:37:26Z</time>
      </trkpt>
      <trkpt lat="43.07119" lon="0.15757">
        <ele>552.2</ele>
        <time>2022-08-21T09:37:28Z</time>
      </trkpt>
      <trkpt lat="43.07112" lon="0.1575">
        <ele>552.2</ele>
        <time>2022-08-21T09:37:29Z</time>
      </trkpt>
      <trkpt lat="43.0709" lon="0.15728">
        <ele>551</ele>
        <time>2022-08-21T09:37:32Z</time>
      </trkpt>
      <trkpt lat="43.0707" lon="0.15708">
        <ele>550.2</ele>
        <time>2022-08-21T09:37:35Z</time>
      </trkpt>
      <trkpt lat="43.07057" lon="0.15695">
        <ele>549.8</ele>
        <time>2022-08-21T09:37:37Z</time>
      </trkpt>
      <trkpt lat="43.07027" lon="0.15668">
        <ele>549</ele>
        <time>2022-08-21T09:37:42Z</time>
      </trkpt>
      <trkpt lat="43.07018" lon="0.15658">
        <ele>548.8</ele>
        <time>2022-08-21T09:37:44Z</time>
      </trkpt>
      <trkpt lat="43.07011" lon="0.15647">
        <ele>548.4</ele>
        <time>2022-08-21T09:37:46Z</time>
      </trkpt>
      <trkpt lat="43.06996" lon="0.15638">
        <ele>547.4</ele>
        <time>2022-08-21T09:37:49Z</time>
      </trkpt>
      <trkpt lat="43.06991" lon="0.15634">
        <ele>547</ele>
        <time>2022-08-21T09:37:50Z</time>
      </trkpt>
      <trkpt lat="43.06986" lon="0.1563">
        <ele>547</ele>
        <time>2022-08-21T09:37:51Z</time>
      </trkpt>
      <trkpt lat="43.06949" lon="0.15592">
        <ele>546.4</ele>
        <time>2022-08-21T09:37:59Z</time>
      </trkpt>
      <trkpt lat="43.06914" lon="0.15557">
        <ele>546.8</ele>
        <time>2022-08-21T09:38:06Z</time>
      </trkpt>
      <trkpt lat="43.06871" lon="0.15513">
        <ele>547.8</ele>
        <time>2022-08-21T09:38:15Z</time>
      </trkpt>
      <trkpt lat="43.06848" lon="0.15491">
        <ele>548.4</ele>
        <time>2022-08-21T09:38:20Z</time>
      </trkpt>
      <trkpt lat="43.06839" lon="0.15484">
        <ele>548.6</ele>
        <time>2022-08-21T09:38:22Z</time>
      </trkpt>
      <trkpt lat="43.06809" lon="0.15456">
        <ele>549.2</ele>
        <time>2022-08-21T09:38:29Z</time>
      </trkpt>
      <trkpt lat="43.06791" lon="0.15439">
        <ele>549.4</ele>
        <time>2022-08-21T09:38:33Z</time>
      </trkpt>
      <trkpt lat="43.06777" lon="0.15424">
        <ele>549.4</ele>
        <time>2022-08-21T09:38:36Z</time>
      </trkpt>
      <trkpt lat="43.06743" lon="0.15392">
        <ele>549.8</ele>
        <time>2022-08-21T09:38:43Z</time>
      </trkpt>
      <trkpt lat="43.06713" lon="0.15363">
        <ele>550.4</ele>
        <time>2022-08-21T09:38:49Z</time>
      </trkpt>
      <trkpt lat="43.06707" lon="0.15358">
        <ele>550.4</ele>
        <time>2022-08-21T09:38:50Z</time>
      </trkpt>
      <trkpt lat="43.06697" lon="0.15348">
        <ele>550.6</ele>
        <time>2022-08-21T09:38:52Z</time>
      </trkpt>
      <trkpt lat="43.06661" lon="0.15313">
        <ele>550.8</ele>
        <time>2022-08-21T09:38:59Z</time>
      </trkpt>
      <trkpt lat="43.0663" lon="0.15287">
        <ele>551.2</ele>
        <time>2022-08-21T09:39:05Z</time>
      </trkpt>
      <trkpt lat="43.0662" lon="0.15271">
        <ele>551.4</ele>
        <time>2022-08-21T09:39:08Z</time>
      </trkpt>
      <trkpt lat="43.06616" lon="0.15265">
        <ele>551.4</ele>
        <time>2022-08-21T09:39:10Z</time>
      </trkpt>
      <trkpt lat="43.06611" lon="0.15256">
        <ele>551.2</ele>
        <time>2022-08-21T09:39:15Z</time>
      </trkpt>
      <trkpt lat="43.0661" lon="0.15254">
        <ele>551</ele>
        <time>2022-08-21T09:39:22Z</time>
      </trkpt>
      <trkpt lat="43.0661" lon="0.15254">
        <ele>550.8</ele>
        <time>2022-08-21T09:39:49Z</time>
      </trkpt>
      <trkpt lat="43.06604" lon="0.15245">
        <ele>550.8</ele>
        <time>2022-08-21T09:40:05Z</time>
      </trkpt>
      <trkpt lat="43.06593" lon="0.15229">
        <ele>551</ele>
        <time>2022-08-21T09:40:08Z</time>
      </trkpt>
      <trkpt lat="43.06586" lon="0.15217">
        <ele>551</ele>
        <time>2022-08-21T09:40:10Z</time>
      </trkpt>
      <trkpt lat="43.06577" lon="0.15195">
        <ele>551</ele>
        <time>2022-08-21T09:40:13Z</time>
      </trkpt>
      <trkpt lat="43.06559" lon="0.15147">
        <ele>551.2</ele>
        <time>2022-08-21T09:40:19Z</time>
      </trkpt>
      <trkpt lat="43.06557" lon="0.15139">
        <ele>551.2</ele>
        <time>2022-08-21T09:40:20Z</time>
      </trkpt>
      <trkpt lat="43.06551" lon="0.15115">
        <ele>551.8</ele>
        <time>2022-08-21T09:40:23Z</time>
      </trkpt>
      <trkpt lat="43.06549" lon="0.15101">
        <ele>552.4</ele>
        <time>2022-08-21T09:40:25Z</time>
      </trkpt>
      <trkpt lat="43.06546" lon="0.15088">
        <ele>552.8</ele>
        <time>2022-08-21T09:40:27Z</time>
      </trkpt>
      <trkpt lat="43.06545" lon="0.15084">
        <ele>553</ele>
        <time>2022-08-21T09:40:28Z</time>
      </trkpt>
      <trkpt lat="43.06542" lon="0.15077">
        <ele>553</ele>
        <time>2022-08-21T09:40:29Z</time>
      </trkpt>
      <trkpt lat="43.06539" lon="0.1507">
        <ele>553.2</ele>
        <time>2022-08-21T09:40:30Z</time>
      </trkpt>
      <trkpt lat="43.06525" lon="0.15034">
        <ele>553.8</ele>
        <time>2022-08-21T09:40:35Z</time>
      </trkpt>
      <trkpt lat="43.06523" lon="0.15027">
        <ele>554</ele>
        <time>2022-08-21T09:40:36Z</time>
      </trkpt>
      <trkpt lat="43.06515" lon="0.15001">
        <ele>554.8</ele>
        <time>2022-08-21T09:40:40Z</time>
      </trkpt>
      <trkpt lat="43.06508" lon="0.14986">
        <ele>555</ele>
        <time>2022-08-21T09:40:42Z</time>
      </trkpt>
      <trkpt lat="43.06503" lon="0.14974">
        <ele>555</ele>
        <time>2022-08-21T09:40:44Z</time>
      </trkpt>
      <trkpt lat="43.06501" lon="0.14966">
        <ele>555.4</ele>
        <time>2022-08-21T09:40:46Z</time>
      </trkpt>
      <trkpt lat="43.065" lon="0.14958">
        <ele>555.4</ele>
        <time>2022-08-21T09:40:49Z</time>
      </trkpt>
      <trkpt lat="43.06498" lon="0.1496">
        <ele>555.4</ele>
        <time>2022-08-21T09:40:50Z</time>
      </trkpt>
      <trkpt lat="43.06484" lon="0.14963">
        <ele>555.2</ele>
        <time>2022-08-21T09:40:54Z</time>
      </trkpt>
      <trkpt lat="43.0648" lon="0.14964">
        <ele>555.2</ele>
        <time>2022-08-21T09:40:55Z</time>
      </trkpt>
      <trkpt lat="43.06476" lon="0.14966">
        <ele>555.2</ele>
        <time>2022-08-21T09:40:56Z</time>
      </trkpt>
      <trkpt lat="43.06458" lon="0.14976">
        <ele>555.2</ele>
        <time>2022-08-21T09:41:00Z</time>
      </trkpt>
      <trkpt lat="43.06429" lon="0.14994">
        <ele>555.8</ele>
        <time>2022-08-21T09:41:06Z</time>
      </trkpt>
      <trkpt lat="43.06386" lon="0.15011">
        <ele>556.2</ele>
        <time>2022-08-21T09:41:14Z</time>
      </trkpt>
      <trkpt lat="43.06353" lon="0.1502">
        <ele>556.8</ele>
        <time>2022-08-21T09:41:20Z</time>
      </trkpt>
      <trkpt lat="43.06349" lon="0.15019">
        <ele>556.8</ele>
        <time>2022-08-21T09:41:21Z</time>
      </trkpt>
      <trkpt lat="43.06345" lon="0.15018">
        <ele>556.8</ele>
        <time>2022-08-21T09:41:22Z</time>
      </trkpt>
      <trkpt lat="43.06335" lon="0.15007">
        <ele>557</ele>
        <time>2022-08-21T09:41:25Z</time>
      </trkpt>
      <trkpt lat="43.06331" lon="0.15003">
        <ele>557</ele>
        <time>2022-08-21T09:41:26Z</time>
      </trkpt>
      <trkpt lat="43.06319" lon="0.14999">
        <ele>557</ele>
        <time>2022-08-21T09:41:29Z</time>
      </trkpt>
      <trkpt lat="43.06311" lon="0.14998">
        <ele>557</ele>
        <time>2022-08-21T09:41:31Z</time>
      </trkpt>
      <trkpt lat="43.06304" lon="0.1499">
        <ele>557</ele>
        <time>2022-08-21T09:41:33Z</time>
      </trkpt>
      <trkpt lat="43.06302" lon="0.14988">
        <ele>557.2</ele>
        <time>2022-08-21T09:41:34Z</time>
      </trkpt>
      <trkpt lat="43.063" lon="0.14987">
        <ele>557.2</ele>
        <time>2022-08-21T09:41:35Z</time>
      </trkpt>
      <trkpt lat="43.06299" lon="0.14988">
        <ele>557.2</ele>
        <time>2022-08-21T09:41:36Z</time>
      </trkpt>
      <trkpt lat="43.06298" lon="0.14987">
        <ele>557.2</ele>
        <time>2022-08-21T09:41:39Z</time>
      </trkpt>
      <trkpt lat="43.06295" lon="0.14989">
        <ele>557</ele>
        <time>2022-08-21T09:41:41Z</time>
      </trkpt>
      <trkpt lat="43.06285" lon="0.14998">
        <ele>557</ele>
        <time>2022-08-21T09:41:45Z</time>
      </trkpt>
      <trkpt lat="43.06267" lon="0.15003">
        <ele>557</ele>
        <time>2022-08-21T09:41:51Z</time>
      </trkpt>
      <trkpt lat="43.0625" lon="0.14994">
        <ele>557.2</ele>
        <time>2022-08-21T09:41:56Z</time>
      </trkpt>
      <trkpt lat="43.06236" lon="0.14976">
        <ele>557.4</ele>
        <time>2022-08-21T09:42:00Z</time>
      </trkpt>
      <trkpt lat="43.06232" lon="0.14972">
        <ele>557.4</ele>
        <time>2022-08-21T09:42:01Z</time>
      </trkpt>
      <trkpt lat="43.06228" lon="0.14965">
        <ele>557.4</ele>
        <time>2022-08-21T09:42:02Z</time>
      </trkpt>
      <trkpt lat="43.06219" lon="0.14952">
        <ele>557.8</ele>
        <time>2022-08-21T09:42:04Z</time>
      </trkpt>
      <trkpt lat="43.06216" lon="0.14946">
        <ele>558</ele>
        <time>2022-08-21T09:42:05Z</time>
      </trkpt>
      <trkpt lat="43.06202" lon="0.14924">
        <ele>558.2</ele>
        <time>2022-08-21T09:42:09Z</time>
      </trkpt>
      <trkpt lat="43.06198" lon="0.14917">
        <ele>558.2</ele>
        <time>2022-08-21T09:42:10Z</time>
      </trkpt>
      <trkpt lat="43.06193" lon="0.14908">
        <ele>558.2</ele>
        <time>2022-08-21T09:42:12Z</time>
      </trkpt>
      <trkpt lat="43.06193" lon="0.14898">
        <ele>558</ele>
        <time>2022-08-21T09:42:14Z</time>
      </trkpt>
      <trkpt lat="43.06191" lon="0.14889">
        <ele>557.8</ele>
        <time>2022-08-21T09:42:16Z</time>
      </trkpt>
      <trkpt lat="43.06188" lon="0.14887">
        <ele>557.8</ele>
        <time>2022-08-21T09:42:17Z</time>
      </trkpt>
      <trkpt lat="43.06173" lon="0.14891">
        <ele>557.8</ele>
        <time>2022-08-21T09:42:21Z</time>
      </trkpt>
      <trkpt lat="43.06154" lon="0.14889">
        <ele>557.8</ele>
        <time>2022-08-21T09:42:26Z</time>
      </trkpt>
      <trkpt lat="43.06128" lon="0.14874">
        <ele>557.8</ele>
        <time>2022-08-21T09:42:32Z</time>
      </trkpt>
      <trkpt lat="43.06094" lon="0.14856">
        <ele>558</ele>
        <time>2022-08-21T09:42:39Z</time>
      </trkpt>
      <trkpt lat="43.0609" lon="0.14853">
        <ele>558.2</ele>
        <time>2022-08-21T09:42:40Z</time>
      </trkpt>
      <trkpt lat="43.06065" lon="0.14841">
        <ele>558.6</ele>
        <time>2022-08-21T09:42:45Z</time>
      </trkpt>
      <trkpt lat="43.06051" lon="0.14832">
        <ele>558.6</ele>
        <time>2022-08-21T09:42:48Z</time>
      </trkpt>
      <trkpt lat="43.06041" lon="0.14827">
        <ele>558.8</ele>
        <time>2022-08-21T09:42:50Z</time>
      </trkpt>
      <trkpt lat="43.06021" lon="0.14816">
        <ele>559</ele>
        <time>2022-08-21T09:42:54Z</time>
      </trkpt>
      <trkpt lat="43.06007" lon="0.14807">
        <ele>559.2</ele>
        <time>2022-08-21T09:42:57Z</time>
      </trkpt>
      <trkpt lat="43.05973" lon="0.14788">
        <ele>559.4</ele>
        <time>2022-08-21T09:43:04Z</time>
      </trkpt>
      <trkpt lat="43.05964" lon="0.14782">
        <ele>559.6</ele>
        <time>2022-08-21T09:43:06Z</time>
      </trkpt>
      <trkpt lat="43.05956" lon="0.14776">
        <ele>560</ele>
        <time>2022-08-21T09:43:08Z</time>
      </trkpt>
      <trkpt lat="43.05951" lon="0.14773">
        <ele>560.2</ele>
        <time>2022-08-21T09:43:09Z</time>
      </trkpt>
      <trkpt lat="43.05947" lon="0.1477">
        <ele>560.6</ele>
        <time>2022-08-21T09:43:10Z</time>
      </trkpt>
      <trkpt lat="43.05931" lon="0.14762">
        <ele>561</ele>
        <time>2022-08-21T09:43:14Z</time>
      </trkpt>
      <trkpt lat="43.05927" lon="0.1476">
        <ele>561.4</ele>
        <time>2022-08-21T09:43:15Z</time>
      </trkpt>
      <trkpt lat="43.05912" lon="0.14752">
        <ele>562</ele>
        <time>2022-08-21T09:43:20Z</time>
      </trkpt>
      <trkpt lat="43.05907" lon="0.14737">
        <ele>562.4</ele>
        <time>2022-08-21T09:43:24Z</time>
      </trkpt>
      <trkpt lat="43.05912" lon="0.14719">
        <ele>563</ele>
        <time>2022-08-21T09:43:28Z</time>
      </trkpt>
      <trkpt lat="43.05919" lon="0.14705">
        <ele>563.4</ele>
        <time>2022-08-21T09:43:32Z</time>
      </trkpt>
      <trkpt lat="43.0593" lon="0.1469">
        <ele>564.2</ele>
        <time>2022-08-21T09:43:37Z</time>
      </trkpt>
      <trkpt lat="43.05935" lon="0.1468">
        <ele>564.6</ele>
        <time>2022-08-21T09:43:40Z</time>
      </trkpt>
      <trkpt lat="43.05941" lon="0.14671">
        <ele>565.2</ele>
        <time>2022-08-21T09:43:43Z</time>
      </trkpt>
      <trkpt lat="43.05943" lon="0.14668">
        <ele>565.6</ele>
        <time>2022-08-21T09:43:44Z</time>
      </trkpt>
      <trkpt lat="43.05948" lon="0.1466">
        <ele>566.8</ele>
        <time>2022-08-21T09:43:47Z</time>
      </trkpt>
      <trkpt lat="43.05954" lon="0.14652">
        <ele>567.6</ele>
        <time>2022-08-21T09:43:50Z</time>
      </trkpt>
      <trkpt lat="43.05957" lon="0.1465">
        <ele>568</ele>
        <time>2022-08-21T09:43:51Z</time>
      </trkpt>
      <trkpt lat="43.0596" lon="0.14646">
        <ele>568.4</ele>
        <time>2022-08-21T09:43:53Z</time>
      </trkpt>
      <trkpt lat="43.05964" lon="0.14644">
        <ele>569</ele>
        <time>2022-08-21T09:43:55Z</time>
      </trkpt>
      <trkpt lat="43.05971" lon="0.14631">
        <ele>570</ele>
        <time>2022-08-21T09:43:59Z</time>
      </trkpt>
      <trkpt lat="43.05972" lon="0.14626">
        <ele>570.2</ele>
        <time>2022-08-21T09:44:00Z</time>
      </trkpt>
      <trkpt lat="43.05978" lon="0.14606">
        <ele>571.2</ele>
        <time>2022-08-21T09:44:04Z</time>
      </trkpt>
      <trkpt lat="43.05979" lon="0.14602">
        <ele>571.2</ele>
        <time>2022-08-21T09:44:05Z</time>
      </trkpt>
      <trkpt lat="43.05987" lon="0.14576">
        <ele>572</ele>
        <time>2022-08-21T09:44:11Z</time>
      </trkpt>
      <trkpt lat="43.05988" lon="0.14568">
        <ele>572.2</ele>
        <time>2022-08-21T09:44:13Z</time>
      </trkpt>
      <trkpt lat="43.05988" lon="0.14563">
        <ele>572.4</ele>
        <time>2022-08-21T09:44:14Z</time>
      </trkpt>
      <trkpt lat="43.05988" lon="0.1456">
        <ele>572.6</ele>
        <time>2022-08-21T09:44:15Z</time>
      </trkpt>
      <trkpt lat="43.05986" lon="0.14553">
        <ele>573</ele>
        <time>2022-08-21T09:44:17Z</time>
      </trkpt>
      <trkpt lat="43.05983" lon="0.14552">
        <ele>573.2</ele>
        <time>2022-08-21T09:44:19Z</time>
      </trkpt>
      <trkpt lat="43.05981" lon="0.14552">
        <ele>573.4</ele>
        <time>2022-08-21T09:44:21Z</time>
      </trkpt>
      <trkpt lat="43.05981" lon="0.14552">
        <ele>573.6</ele>
        <time>2022-08-21T09:44:23Z</time>
      </trkpt>
      <trkpt lat="43.05981" lon="0.14552">
        <ele>574</ele>
        <time>2022-08-21T09:44:38Z</time>
      </trkpt>
    </trkseg>
  </trk>
</gpx>